<?xml version="1.0" encoding="UTF-8" standalone="no" ?>
<gpx xmlns="http://www.topografix.com/GPX/1/1" xmlns:xsi="http://www.w3.org/2001/XMLSchema-instance" xsi:schemaLocation="http://www.topografix.com/GPX/1/1 http://www.topografix.com/GPX/1/1/gpx.xsd" version="1.1" creator="VisuGPX - https://www.visugpx.com">
  <metadata>
    <name>Saint-Laurent-de-la-Cabrerisse</name>
    <desc><![CDATA[Le parcours du cirque de Vivies est bien balisé et on peut lire les affiches de panneaux pédagogiques. En début d'après-midi nous traversons Coustouge et Jonquières. La maison de Robert, au soleil qui se couche, nous laisse admirer les amandiers déjà fleuris. ]]></desc>
  </metadata>
  <trk>
    <name><![CDATA[20-FEV-14 16:06:48]]></name>
    <trkseg>
      <trkpt lat="43.08786" lon="2.70377">
        <ele>57.82</ele>
        <time>2014-02-20T07:49:55Z</time>
      </trkpt>
      <trkpt lat="43.08786" lon="2.7038">
        <ele>61.66</ele>
        <time>2014-02-20T07:49:57Z</time>
      </trkpt>
      <trkpt lat="43.08786" lon="2.70383">
        <ele>64.55</ele>
        <time>2014-02-20T07:49:59Z</time>
      </trkpt>
      <trkpt lat="43.08785" lon="2.70384">
        <ele>60.7</ele>
        <time>2014-02-20T07:50:00Z</time>
      </trkpt>
      <trkpt lat="43.08787" lon="2.70388">
        <ele>61.18</ele>
        <time>2014-02-20T07:50:05Z</time>
      </trkpt>
      <trkpt lat="43.08788" lon="2.70389">
        <ele>60.22</ele>
        <time>2014-02-20T07:50:07Z</time>
      </trkpt>
      <trkpt lat="43.08791" lon="2.70396">
        <ele>60.7</ele>
        <time>2014-02-20T07:50:11Z</time>
      </trkpt>
      <trkpt lat="43.0879" lon="2.70398">
        <ele>60.7</ele>
        <time>2014-02-20T07:50:27Z</time>
      </trkpt>
      <trkpt lat="43.08792" lon="2.70431">
        <ele>60.7</ele>
        <time>2014-02-20T07:50:34Z</time>
      </trkpt>
      <trkpt lat="43.08794" lon="2.70442">
        <ele>60.7</ele>
        <time>2014-02-20T07:50:39Z</time>
      </trkpt>
      <trkpt lat="43.08793" lon="2.70453">
        <ele>64.55</ele>
        <time>2014-02-20T07:50:45Z</time>
      </trkpt>
      <trkpt lat="43.08792" lon="2.70456">
        <ele>67.91</ele>
        <time>2014-02-20T07:50:47Z</time>
      </trkpt>
      <trkpt lat="43.08789" lon="2.7046">
        <ele>71.27</ele>
        <time>2014-02-20T07:50:50Z</time>
      </trkpt>
      <trkpt lat="43.08787" lon="2.70464">
        <ele>74.64</ele>
        <time>2014-02-20T07:50:53Z</time>
      </trkpt>
      <trkpt lat="43.08783" lon="2.70469">
        <ele>79.93</ele>
        <time>2014-02-20T07:50:58Z</time>
      </trkpt>
      <trkpt lat="43.08778" lon="2.70476">
        <ele>83.77</ele>
        <time>2014-02-20T07:51:03Z</time>
      </trkpt>
      <trkpt lat="43.08774" lon="2.70483">
        <ele>86.66</ele>
        <time>2014-02-20T07:51:08Z</time>
      </trkpt>
      <trkpt lat="43.08771" lon="2.70491">
        <ele>89.06</ele>
        <time>2014-02-20T07:51:12Z</time>
      </trkpt>
      <trkpt lat="43.08769" lon="2.70496">
        <ele>91.46</ele>
        <time>2014-02-20T07:51:16Z</time>
      </trkpt>
      <trkpt lat="43.08767" lon="2.70497">
        <ele>92.9</ele>
        <time>2014-02-20T07:51:18Z</time>
      </trkpt>
      <trkpt lat="43.08763" lon="2.70504">
        <ele>95.79</ele>
        <time>2014-02-20T07:51:24Z</time>
      </trkpt>
      <trkpt lat="43.08754" lon="2.70516">
        <ele>98.67</ele>
        <time>2014-02-20T07:51:35Z</time>
      </trkpt>
      <trkpt lat="43.08744" lon="2.70532">
        <ele>101.08</ele>
        <time>2014-02-20T07:51:48Z</time>
      </trkpt>
      <trkpt lat="43.08735" lon="2.70551">
        <ele>102.04</ele>
        <time>2014-02-20T07:52:02Z</time>
      </trkpt>
      <trkpt lat="43.08726" lon="2.70573">
        <ele>102.52</ele>
        <time>2014-02-20T07:52:16Z</time>
      </trkpt>
      <trkpt lat="43.08718" lon="2.70592">
        <ele>103.48</ele>
        <time>2014-02-20T07:52:29Z</time>
      </trkpt>
      <trkpt lat="43.08713" lon="2.70604">
        <ele>103</ele>
        <time>2014-02-20T07:52:39Z</time>
      </trkpt>
      <trkpt lat="43.0871" lon="2.70615">
        <ele>103</ele>
        <time>2014-02-20T07:52:48Z</time>
      </trkpt>
      <trkpt lat="43.08701" lon="2.70634">
        <ele>103.96</ele>
        <time>2014-02-20T07:52:59Z</time>
      </trkpt>
      <trkpt lat="43.0869" lon="2.7065">
        <ele>103.96</ele>
        <time>2014-02-20T07:53:11Z</time>
      </trkpt>
      <trkpt lat="43.08676" lon="2.70671">
        <ele>104.92</ele>
        <time>2014-02-20T07:53:25Z</time>
      </trkpt>
      <trkpt lat="43.08673" lon="2.70677">
        <ele>104.92</ele>
        <time>2014-02-20T07:53:33Z</time>
      </trkpt>
      <trkpt lat="43.0867" lon="2.70687">
        <ele>105.4</ele>
        <time>2014-02-20T07:53:39Z</time>
      </trkpt>
      <trkpt lat="43.08674" lon="2.70709">
        <ele>106.36</ele>
        <time>2014-02-20T07:53:52Z</time>
      </trkpt>
      <trkpt lat="43.08674" lon="2.70713">
        <ele>106.84</ele>
        <time>2014-02-20T07:53:55Z</time>
      </trkpt>
      <trkpt lat="43.08676" lon="2.70717">
        <ele>106.84</ele>
        <time>2014-02-20T07:53:58Z</time>
      </trkpt>
      <trkpt lat="43.08683" lon="2.70736">
        <ele>107.81</ele>
        <time>2014-02-20T07:54:10Z</time>
      </trkpt>
      <trkpt lat="43.08685" lon="2.70746">
        <ele>108.29</ele>
        <time>2014-02-20T07:54:16Z</time>
      </trkpt>
      <trkpt lat="43.08686" lon="2.70749">
        <ele>108.29</ele>
        <time>2014-02-20T07:54:18Z</time>
      </trkpt>
      <trkpt lat="43.08687" lon="2.70756">
        <ele>109.25</ele>
        <time>2014-02-20T07:54:22Z</time>
      </trkpt>
      <trkpt lat="43.08688" lon="2.70759">
        <ele>109.25</ele>
        <time>2014-02-20T07:54:25Z</time>
      </trkpt>
      <trkpt lat="43.0869" lon="2.70762">
        <ele>109.25</ele>
        <time>2014-02-20T07:54:28Z</time>
      </trkpt>
      <trkpt lat="43.08692" lon="2.70771">
        <ele>110.21</ele>
        <time>2014-02-20T07:54:33Z</time>
      </trkpt>
      <trkpt lat="43.08697" lon="2.7079">
        <ele>111.17</ele>
        <time>2014-02-20T07:54:46Z</time>
      </trkpt>
      <trkpt lat="43.08704" lon="2.7081">
        <ele>113.09</ele>
        <time>2014-02-20T07:54:57Z</time>
      </trkpt>
      <trkpt lat="43.08705" lon="2.70817">
        <ele>114.05</ele>
        <time>2014-02-20T07:55:01Z</time>
      </trkpt>
      <trkpt lat="43.08707" lon="2.70825">
        <ele>114.53</ele>
        <time>2014-02-20T07:55:05Z</time>
      </trkpt>
      <trkpt lat="43.08708" lon="2.7083">
        <ele>115.5</ele>
        <time>2014-02-20T07:55:12Z</time>
      </trkpt>
      <trkpt lat="43.0871" lon="2.70834">
        <ele>115.5</ele>
        <time>2014-02-20T07:55:15Z</time>
      </trkpt>
      <trkpt lat="43.08713" lon="2.70841">
        <ele>115.98</ele>
        <time>2014-02-20T07:55:20Z</time>
      </trkpt>
      <trkpt lat="43.08717" lon="2.70849">
        <ele>116.46</ele>
        <time>2014-02-20T07:55:25Z</time>
      </trkpt>
      <trkpt lat="43.08719" lon="2.70863">
        <ele>117.9</ele>
        <time>2014-02-20T07:55:33Z</time>
      </trkpt>
      <trkpt lat="43.08718" lon="2.7087">
        <ele>118.86</ele>
        <time>2014-02-20T07:55:37Z</time>
      </trkpt>
      <trkpt lat="43.08716" lon="2.70879">
        <ele>118.38</ele>
        <time>2014-02-20T07:55:42Z</time>
      </trkpt>
      <trkpt lat="43.08714" lon="2.70886">
        <ele>119.34</ele>
        <time>2014-02-20T07:55:46Z</time>
      </trkpt>
      <trkpt lat="43.0871" lon="2.70894">
        <ele>118.86</ele>
        <time>2014-02-20T07:55:54Z</time>
      </trkpt>
      <trkpt lat="43.08707" lon="2.70898">
        <ele>119.34</ele>
        <time>2014-02-20T07:55:59Z</time>
      </trkpt>
      <trkpt lat="43.087" lon="2.70913">
        <ele>119.82</ele>
        <time>2014-02-20T07:56:13Z</time>
      </trkpt>
      <trkpt lat="43.08692" lon="2.70929">
        <ele>120.3</ele>
        <time>2014-02-20T07:56:24Z</time>
      </trkpt>
      <trkpt lat="43.08679" lon="2.7095">
        <ele>121.26</ele>
        <time>2014-02-20T07:56:39Z</time>
      </trkpt>
      <trkpt lat="43.08678" lon="2.70951">
        <ele>121.26</ele>
        <time>2014-02-20T07:56:41Z</time>
      </trkpt>
      <trkpt lat="43.08678" lon="2.7096">
        <ele>122.22</ele>
        <time>2014-02-20T07:56:47Z</time>
      </trkpt>
      <trkpt lat="43.08681" lon="2.70981">
        <ele>123.67</ele>
        <time>2014-02-20T07:57:01Z</time>
      </trkpt>
      <trkpt lat="43.08686" lon="2.70992">
        <ele>125.11</ele>
        <time>2014-02-20T07:57:11Z</time>
      </trkpt>
      <trkpt lat="43.08687" lon="2.71004">
        <ele>127.03</ele>
        <time>2014-02-20T07:57:20Z</time>
      </trkpt>
      <trkpt lat="43.08685" lon="2.71023">
        <ele>128.95</ele>
        <time>2014-02-20T07:57:33Z</time>
      </trkpt>
      <trkpt lat="43.0868" lon="2.71046">
        <ele>131.84</ele>
        <time>2014-02-20T07:57:48Z</time>
      </trkpt>
      <trkpt lat="43.08672" lon="2.71062">
        <ele>133.76</ele>
        <time>2014-02-20T07:58:01Z</time>
      </trkpt>
      <trkpt lat="43.08671" lon="2.71064">
        <ele>134.24</ele>
        <time>2014-02-20T07:58:02Z</time>
      </trkpt>
      <trkpt lat="43.08661" lon="2.71079">
        <ele>135.68</ele>
        <time>2014-02-20T07:58:14Z</time>
      </trkpt>
      <trkpt lat="43.08657" lon="2.71086">
        <ele>136.64</ele>
        <time>2014-02-20T07:58:19Z</time>
      </trkpt>
      <trkpt lat="43.08654" lon="2.71088">
        <ele>136.64</ele>
        <time>2014-02-20T07:58:22Z</time>
      </trkpt>
      <trkpt lat="43.08646" lon="2.71107">
        <ele>139.05</ele>
        <time>2014-02-20T07:58:36Z</time>
      </trkpt>
      <trkpt lat="43.08645" lon="2.71121">
        <ele>139.53</ele>
        <time>2014-02-20T07:58:49Z</time>
      </trkpt>
      <trkpt lat="43.08644" lon="2.71123">
        <ele>140.01</ele>
        <time>2014-02-20T07:58:52Z</time>
      </trkpt>
      <trkpt lat="43.08644" lon="2.71146">
        <ele>141.93</ele>
        <time>2014-02-20T07:59:06Z</time>
      </trkpt>
      <trkpt lat="43.08645" lon="2.71158">
        <ele>142.89</ele>
        <time>2014-02-20T07:59:13Z</time>
      </trkpt>
      <trkpt lat="43.08645" lon="2.7116">
        <ele>142.41</ele>
        <time>2014-02-20T07:59:15Z</time>
      </trkpt>
      <trkpt lat="43.08648" lon="2.7118">
        <ele>143.85</ele>
        <time>2014-02-20T07:59:28Z</time>
      </trkpt>
      <trkpt lat="43.08648" lon="2.71181">
        <ele>143.85</ele>
        <time>2014-02-20T07:59:29Z</time>
      </trkpt>
      <trkpt lat="43.0865" lon="2.71201">
        <ele>145.3</ele>
        <time>2014-02-20T07:59:43Z</time>
      </trkpt>
      <trkpt lat="43.08654" lon="2.71218">
        <ele>146.74</ele>
        <time>2014-02-20T07:59:55Z</time>
      </trkpt>
      <trkpt lat="43.08652" lon="2.71235">
        <ele>146.74</ele>
        <time>2014-02-20T08:00:07Z</time>
      </trkpt>
      <trkpt lat="43.08648" lon="2.71251">
        <ele>147.22</ele>
        <time>2014-02-20T08:00:20Z</time>
      </trkpt>
      <trkpt lat="43.08643" lon="2.71271">
        <ele>147.22</ele>
        <time>2014-02-20T08:00:33Z</time>
      </trkpt>
      <trkpt lat="43.08637" lon="2.71291">
        <ele>147.7</ele>
        <time>2014-02-20T08:00:46Z</time>
      </trkpt>
      <trkpt lat="43.08631" lon="2.7131">
        <ele>148.18</ele>
        <time>2014-02-20T08:00:59Z</time>
      </trkpt>
      <trkpt lat="43.08626" lon="2.71323">
        <ele>148.18</ele>
        <time>2014-02-20T08:01:08Z</time>
      </trkpt>
      <trkpt lat="43.08623" lon="2.71334">
        <ele>149.14</ele>
        <time>2014-02-20T08:01:15Z</time>
      </trkpt>
      <trkpt lat="43.08617" lon="2.71355">
        <ele>149.14</ele>
        <time>2014-02-20T08:01:29Z</time>
      </trkpt>
      <trkpt lat="43.08617" lon="2.71357">
        <ele>149.14</ele>
        <time>2014-02-20T08:01:31Z</time>
      </trkpt>
      <trkpt lat="43.08615" lon="2.71378">
        <ele>148.66</ele>
        <time>2014-02-20T08:01:43Z</time>
      </trkpt>
      <trkpt lat="43.08615" lon="2.71387">
        <ele>148.18</ele>
        <time>2014-02-20T08:01:49Z</time>
      </trkpt>
      <trkpt lat="43.08615" lon="2.71393">
        <ele>147.7</ele>
        <time>2014-02-20T08:01:53Z</time>
      </trkpt>
      <trkpt lat="43.08614" lon="2.71395">
        <ele>148.18</ele>
        <time>2014-02-20T08:02:05Z</time>
      </trkpt>
      <trkpt lat="43.08614" lon="2.7139">
        <ele>147.7</ele>
        <time>2014-02-20T08:02:37Z</time>
      </trkpt>
      <trkpt lat="43.08614" lon="2.71391">
        <ele>149.62</ele>
        <time>2014-02-20T08:02:38Z</time>
      </trkpt>
      <trkpt lat="43.08614" lon="2.71403">
        <ele>147.22</ele>
        <time>2014-02-20T08:02:45Z</time>
      </trkpt>
      <trkpt lat="43.08614" lon="2.7141">
        <ele>146.74</ele>
        <time>2014-02-20T08:03:01Z</time>
      </trkpt>
      <trkpt lat="43.08615" lon="2.7141">
        <ele>106.36</ele>
        <time>2014-02-20T08:03:04Z</time>
      </trkpt>
      <trkpt lat="43.08614" lon="2.71413">
        <ele>148.18</ele>
        <time>2014-02-20T08:03:06Z</time>
      </trkpt>
      <trkpt lat="43.08614" lon="2.71416">
        <ele>146.26</ele>
        <time>2014-02-20T08:03:08Z</time>
      </trkpt>
      <trkpt lat="43.08614" lon="2.71419">
        <ele>146.26</ele>
        <time>2014-02-20T08:03:09Z</time>
      </trkpt>
      <trkpt lat="43.08616" lon="2.71466">
        <ele>142.41</ele>
        <time>2014-02-20T08:03:22Z</time>
      </trkpt>
      <trkpt lat="43.08615" lon="2.71505">
        <ele>140.97</ele>
        <time>2014-02-20T08:03:32Z</time>
      </trkpt>
      <trkpt lat="43.08616" lon="2.71533">
        <ele>138.57</ele>
        <time>2014-02-20T08:03:40Z</time>
      </trkpt>
      <trkpt lat="43.08617" lon="2.71548">
        <ele>140.01</ele>
        <time>2014-02-20T08:03:44Z</time>
      </trkpt>
      <trkpt lat="43.08615" lon="2.71578">
        <ele>138.09</ele>
        <time>2014-02-20T08:03:55Z</time>
      </trkpt>
      <trkpt lat="43.08615" lon="2.71585">
        <ele>136.16</ele>
        <time>2014-02-20T08:03:59Z</time>
      </trkpt>
      <trkpt lat="43.08612" lon="2.71602">
        <ele>135.2</ele>
        <time>2014-02-20T08:04:10Z</time>
      </trkpt>
      <trkpt lat="43.08612" lon="2.71612">
        <ele>135.2</ele>
        <time>2014-02-20T08:04:16Z</time>
      </trkpt>
      <trkpt lat="43.08612" lon="2.71622">
        <ele>134.72</ele>
        <time>2014-02-20T08:04:22Z</time>
      </trkpt>
      <trkpt lat="43.08611" lon="2.71628">
        <ele>134.72</ele>
        <time>2014-02-20T08:04:26Z</time>
      </trkpt>
      <trkpt lat="43.08609" lon="2.71637">
        <ele>133.28</ele>
        <time>2014-02-20T08:04:34Z</time>
      </trkpt>
      <trkpt lat="43.08604" lon="2.71657">
        <ele>130.88</ele>
        <time>2014-02-20T08:04:47Z</time>
      </trkpt>
      <trkpt lat="43.08604" lon="2.7166">
        <ele>130.4</ele>
        <time>2014-02-20T08:04:49Z</time>
      </trkpt>
      <trkpt lat="43.08602" lon="2.71674">
        <ele>129.92</ele>
        <time>2014-02-20T08:04:58Z</time>
      </trkpt>
      <trkpt lat="43.086" lon="2.71683">
        <ele>129.43</ele>
        <time>2014-02-20T08:05:03Z</time>
      </trkpt>
      <trkpt lat="43.08592" lon="2.71693">
        <ele>129.43</ele>
        <time>2014-02-20T08:05:12Z</time>
      </trkpt>
      <trkpt lat="43.08592" lon="2.71701">
        <ele>131.84</ele>
        <time>2014-02-20T08:05:20Z</time>
      </trkpt>
      <trkpt lat="43.08592" lon="2.71707">
        <ele>133.76</ele>
        <time>2014-02-20T08:05:27Z</time>
      </trkpt>
      <trkpt lat="43.08591" lon="2.71711">
        <ele>133.28</ele>
        <time>2014-02-20T08:05:30Z</time>
      </trkpt>
      <trkpt lat="43.0859" lon="2.71718">
        <ele>133.28</ele>
        <time>2014-02-20T08:05:35Z</time>
      </trkpt>
      <trkpt lat="43.08581" lon="2.71725">
        <ele>135.2</ele>
        <time>2014-02-20T08:05:44Z</time>
      </trkpt>
      <trkpt lat="43.08576" lon="2.71728">
        <ele>136.64</ele>
        <time>2014-02-20T08:05:49Z</time>
      </trkpt>
      <trkpt lat="43.08574" lon="2.7173">
        <ele>135.68</ele>
        <time>2014-02-20T08:05:51Z</time>
      </trkpt>
      <trkpt lat="43.0857" lon="2.71733">
        <ele>136.64</ele>
        <time>2014-02-20T08:05:55Z</time>
      </trkpt>
      <trkpt lat="43.08566" lon="2.71737">
        <ele>136.64</ele>
        <time>2014-02-20T08:05:59Z</time>
      </trkpt>
      <trkpt lat="43.08556" lon="2.71753">
        <ele>136.64</ele>
        <time>2014-02-20T08:06:13Z</time>
      </trkpt>
      <trkpt lat="43.08555" lon="2.71756">
        <ele>138.09</ele>
        <time>2014-02-20T08:06:15Z</time>
      </trkpt>
      <trkpt lat="43.08552" lon="2.71762">
        <ele>139.05</ele>
        <time>2014-02-20T08:06:20Z</time>
      </trkpt>
      <trkpt lat="43.08547" lon="2.71773">
        <ele>140.01</ele>
        <time>2014-02-20T08:06:28Z</time>
      </trkpt>
      <trkpt lat="43.08545" lon="2.71776">
        <ele>138.57</ele>
        <time>2014-02-20T08:06:31Z</time>
      </trkpt>
      <trkpt lat="43.08541" lon="2.71788">
        <ele>140.01</ele>
        <time>2014-02-20T08:06:41Z</time>
      </trkpt>
      <trkpt lat="43.0854" lon="2.71791">
        <ele>141.45</ele>
        <time>2014-02-20T08:06:43Z</time>
      </trkpt>
      <trkpt lat="43.08539" lon="2.71795">
        <ele>140.97</ele>
        <time>2014-02-20T08:06:46Z</time>
      </trkpt>
      <trkpt lat="43.08533" lon="2.71805">
        <ele>141.93</ele>
        <time>2014-02-20T08:06:53Z</time>
      </trkpt>
      <trkpt lat="43.08526" lon="2.71822">
        <ele>141.93</ele>
        <time>2014-02-20T08:07:06Z</time>
      </trkpt>
      <trkpt lat="43.08523" lon="2.71827">
        <ele>143.85</ele>
        <time>2014-02-20T08:07:10Z</time>
      </trkpt>
      <trkpt lat="43.08522" lon="2.7183">
        <ele>141.93</ele>
        <time>2014-02-20T08:07:12Z</time>
      </trkpt>
      <trkpt lat="43.08518" lon="2.7184">
        <ele>142.89</ele>
        <time>2014-02-20T08:07:19Z</time>
      </trkpt>
      <trkpt lat="43.08513" lon="2.7185">
        <ele>144.34</ele>
        <time>2014-02-20T08:07:26Z</time>
      </trkpt>
      <trkpt lat="43.08507" lon="2.71867">
        <ele>144.82</ele>
        <time>2014-02-20T08:07:38Z</time>
      </trkpt>
      <trkpt lat="43.08496" lon="2.71886">
        <ele>145.3</ele>
        <time>2014-02-20T08:07:52Z</time>
      </trkpt>
      <trkpt lat="43.08493" lon="2.71891">
        <ele>145.3</ele>
        <time>2014-02-20T08:07:57Z</time>
      </trkpt>
      <trkpt lat="43.08489" lon="2.71902">
        <ele>148.66</ele>
        <time>2014-02-20T08:08:05Z</time>
      </trkpt>
      <trkpt lat="43.08488" lon="2.71903">
        <ele>148.18</ele>
        <time>2014-02-20T08:08:06Z</time>
      </trkpt>
      <trkpt lat="43.08487" lon="2.71906">
        <ele>147.22</ele>
        <time>2014-02-20T08:08:08Z</time>
      </trkpt>
      <trkpt lat="43.08485" lon="2.71911">
        <ele>149.14</ele>
        <time>2014-02-20T08:08:12Z</time>
      </trkpt>
      <trkpt lat="43.0848" lon="2.71922">
        <ele>150.1</ele>
        <time>2014-02-20T08:08:21Z</time>
      </trkpt>
      <trkpt lat="43.08472" lon="2.71942">
        <ele>150.58</ele>
        <time>2014-02-20T08:08:35Z</time>
      </trkpt>
      <trkpt lat="43.08466" lon="2.7196">
        <ele>150.58</ele>
        <time>2014-02-20T08:08:47Z</time>
      </trkpt>
      <trkpt lat="43.08464" lon="2.71982">
        <ele>149.62</ele>
        <time>2014-02-20T08:09:01Z</time>
      </trkpt>
      <trkpt lat="43.08465" lon="2.71992">
        <ele>148.66</ele>
        <time>2014-02-20T08:09:08Z</time>
      </trkpt>
      <trkpt lat="43.08465" lon="2.72015">
        <ele>147.7</ele>
        <time>2014-02-20T08:09:20Z</time>
      </trkpt>
      <trkpt lat="43.08464" lon="2.72021">
        <ele>148.18</ele>
        <time>2014-02-20T08:09:24Z</time>
      </trkpt>
      <trkpt lat="43.08465" lon="2.72037">
        <ele>146.74</ele>
        <time>2014-02-20T08:09:34Z</time>
      </trkpt>
      <trkpt lat="43.08466" lon="2.72055">
        <ele>147.22</ele>
        <time>2014-02-20T08:09:46Z</time>
      </trkpt>
      <trkpt lat="43.08466" lon="2.72058">
        <ele>146.74</ele>
        <time>2014-02-20T08:09:48Z</time>
      </trkpt>
      <trkpt lat="43.08467" lon="2.72078">
        <ele>146.74</ele>
        <time>2014-02-20T08:10:00Z</time>
      </trkpt>
      <trkpt lat="43.08464" lon="2.72096">
        <ele>145.78</ele>
        <time>2014-02-20T08:10:12Z</time>
      </trkpt>
      <trkpt lat="43.08461" lon="2.72098">
        <ele>145.78</ele>
        <time>2014-02-20T08:10:15Z</time>
      </trkpt>
      <trkpt lat="43.08453" lon="2.72099">
        <ele>147.22</ele>
        <time>2014-02-20T08:10:21Z</time>
      </trkpt>
      <trkpt lat="43.08451" lon="2.72099">
        <ele>146.26</ele>
        <time>2014-02-20T08:10:23Z</time>
      </trkpt>
      <trkpt lat="43.08445" lon="2.721">
        <ele>148.18</ele>
        <time>2014-02-20T08:10:29Z</time>
      </trkpt>
      <trkpt lat="43.08437" lon="2.72104">
        <ele>147.7</ele>
        <time>2014-02-20T08:10:36Z</time>
      </trkpt>
      <trkpt lat="43.08436" lon="2.72121">
        <ele>147.7</ele>
        <time>2014-02-20T08:10:47Z</time>
      </trkpt>
      <trkpt lat="43.08436" lon="2.72126">
        <ele>148.66</ele>
        <time>2014-02-20T08:10:50Z</time>
      </trkpt>
      <trkpt lat="43.08437" lon="2.72129">
        <ele>147.7</ele>
        <time>2014-02-20T08:10:52Z</time>
      </trkpt>
      <trkpt lat="43.08438" lon="2.72139">
        <ele>148.18</ele>
        <time>2014-02-20T08:10:59Z</time>
      </trkpt>
      <trkpt lat="43.08439" lon="2.72144">
        <ele>150.1</ele>
        <time>2014-02-20T08:11:02Z</time>
      </trkpt>
      <trkpt lat="43.08439" lon="2.72147">
        <ele>148.66</ele>
        <time>2014-02-20T08:11:04Z</time>
      </trkpt>
      <trkpt lat="43.08441" lon="2.72161">
        <ele>150.1</ele>
        <time>2014-02-20T08:11:13Z</time>
      </trkpt>
      <trkpt lat="43.08442" lon="2.72184">
        <ele>151.54</ele>
        <time>2014-02-20T08:11:27Z</time>
      </trkpt>
      <trkpt lat="43.08442" lon="2.72203">
        <ele>152.03</ele>
        <time>2014-02-20T08:11:39Z</time>
      </trkpt>
      <trkpt lat="43.08441" lon="2.72227">
        <ele>151.06</ele>
        <time>2014-02-20T08:11:53Z</time>
      </trkpt>
      <trkpt lat="43.0844" lon="2.72248">
        <ele>150.1</ele>
        <time>2014-02-20T08:12:06Z</time>
      </trkpt>
      <trkpt lat="43.0844" lon="2.72257">
        <ele>149.62</ele>
        <time>2014-02-20T08:12:12Z</time>
      </trkpt>
      <trkpt lat="43.08439" lon="2.72276">
        <ele>150.1</ele>
        <time>2014-02-20T08:12:23Z</time>
      </trkpt>
      <trkpt lat="43.08436" lon="2.72295">
        <ele>150.1</ele>
        <time>2014-02-20T08:12:35Z</time>
      </trkpt>
      <trkpt lat="43.08431" lon="2.72318">
        <ele>149.14</ele>
        <time>2014-02-20T08:12:49Z</time>
      </trkpt>
      <trkpt lat="43.08427" lon="2.72336">
        <ele>149.62</ele>
        <time>2014-02-20T08:13:01Z</time>
      </trkpt>
      <trkpt lat="43.08424" lon="2.72348">
        <ele>151.06</ele>
        <time>2014-02-20T08:13:09Z</time>
      </trkpt>
      <trkpt lat="43.08423" lon="2.72351">
        <ele>149.62</ele>
        <time>2014-02-20T08:13:11Z</time>
      </trkpt>
      <trkpt lat="43.0842" lon="2.72373">
        <ele>151.54</ele>
        <time>2014-02-20T08:13:24Z</time>
      </trkpt>
      <trkpt lat="43.08416" lon="2.72393">
        <ele>150.1</ele>
        <time>2014-02-20T08:13:36Z</time>
      </trkpt>
      <trkpt lat="43.08415" lon="2.72403">
        <ele>150.58</ele>
        <time>2014-02-20T08:13:44Z</time>
      </trkpt>
      <trkpt lat="43.0842" lon="2.72405">
        <ele>150.1</ele>
        <time>2014-02-20T08:13:48Z</time>
      </trkpt>
      <trkpt lat="43.08422" lon="2.72405">
        <ele>150.1</ele>
        <time>2014-02-20T08:13:50Z</time>
      </trkpt>
      <trkpt lat="43.08442" lon="2.72408">
        <ele>149.62</ele>
        <time>2014-02-20T08:14:07Z</time>
      </trkpt>
      <trkpt lat="43.08459" lon="2.72412">
        <ele>149.14</ele>
        <time>2014-02-20T08:14:22Z</time>
      </trkpt>
      <trkpt lat="43.08476" lon="2.72416">
        <ele>149.62</ele>
        <time>2014-02-20T08:14:36Z</time>
      </trkpt>
      <trkpt lat="43.08495" lon="2.72421">
        <ele>148.66</ele>
        <time>2014-02-20T08:14:52Z</time>
      </trkpt>
      <trkpt lat="43.08509" lon="2.72424">
        <ele>147.7</ele>
        <time>2014-02-20T08:15:03Z</time>
      </trkpt>
      <trkpt lat="43.08514" lon="2.72425">
        <ele>147.7</ele>
        <time>2014-02-20T08:15:07Z</time>
      </trkpt>
      <trkpt lat="43.0853" lon="2.72429">
        <ele>146.26</ele>
        <time>2014-02-20T08:15:20Z</time>
      </trkpt>
      <trkpt lat="43.08546" lon="2.72437">
        <ele>146.26</ele>
        <time>2014-02-20T08:15:34Z</time>
      </trkpt>
      <trkpt lat="43.08563" lon="2.72441">
        <ele>144.82</ele>
        <time>2014-02-20T08:15:48Z</time>
      </trkpt>
      <trkpt lat="43.08566" lon="2.72442">
        <ele>145.3</ele>
        <time>2014-02-20T08:15:50Z</time>
      </trkpt>
      <trkpt lat="43.08586" lon="2.72449">
        <ele>144.82</ele>
        <time>2014-02-20T08:16:06Z</time>
      </trkpt>
      <trkpt lat="43.08589" lon="2.7245">
        <ele>144.34</ele>
        <time>2014-02-20T08:16:09Z</time>
      </trkpt>
      <trkpt lat="43.08606" lon="2.72456">
        <ele>143.85</ele>
        <time>2014-02-20T08:16:24Z</time>
      </trkpt>
      <trkpt lat="43.08622" lon="2.72462">
        <ele>143.85</ele>
        <time>2014-02-20T08:16:37Z</time>
      </trkpt>
      <trkpt lat="43.08635" lon="2.72467">
        <ele>142.89</ele>
        <time>2014-02-20T08:16:48Z</time>
      </trkpt>
      <trkpt lat="43.08653" lon="2.72472">
        <ele>142.41</ele>
        <time>2014-02-20T08:17:04Z</time>
      </trkpt>
      <trkpt lat="43.08667" lon="2.72477">
        <ele>140.97</ele>
        <time>2014-02-20T08:17:16Z</time>
      </trkpt>
      <trkpt lat="43.08687" lon="2.72483">
        <ele>141.93</ele>
        <time>2014-02-20T08:17:32Z</time>
      </trkpt>
      <trkpt lat="43.08704" lon="2.72492">
        <ele>140.97</ele>
        <time>2014-02-20T08:17:46Z</time>
      </trkpt>
      <trkpt lat="43.08706" lon="2.72493">
        <ele>140.01</ele>
        <time>2014-02-20T08:17:48Z</time>
      </trkpt>
      <trkpt lat="43.08727" lon="2.72498">
        <ele>140.97</ele>
        <time>2014-02-20T08:18:04Z</time>
      </trkpt>
      <trkpt lat="43.08746" lon="2.72504">
        <ele>140.49</ele>
        <time>2014-02-20T08:18:19Z</time>
      </trkpt>
      <trkpt lat="43.0876" lon="2.7251">
        <ele>140.49</ele>
        <time>2014-02-20T08:18:32Z</time>
      </trkpt>
      <trkpt lat="43.08775" lon="2.72515">
        <ele>139.53</ele>
        <time>2014-02-20T08:18:45Z</time>
      </trkpt>
      <trkpt lat="43.0878" lon="2.72515">
        <ele>140.49</ele>
        <time>2014-02-20T08:18:49Z</time>
      </trkpt>
      <trkpt lat="43.08792" lon="2.72522">
        <ele>140.01</ele>
        <time>2014-02-20T08:19:00Z</time>
      </trkpt>
      <trkpt lat="43.08813" lon="2.72525">
        <ele>139.53</ele>
        <time>2014-02-20T08:19:16Z</time>
      </trkpt>
      <trkpt lat="43.08824" lon="2.72529">
        <ele>139.53</ele>
        <time>2014-02-20T08:19:29Z</time>
      </trkpt>
      <trkpt lat="43.08822" lon="2.7253">
        <ele>139.53</ele>
        <time>2014-02-20T08:19:36Z</time>
      </trkpt>
      <trkpt lat="43.08823" lon="2.72534">
        <ele>139.05</ele>
        <time>2014-02-20T08:19:39Z</time>
      </trkpt>
      <trkpt lat="43.08816" lon="2.72541">
        <ele>138.09</ele>
        <time>2014-02-20T08:19:46Z</time>
      </trkpt>
      <trkpt lat="43.08801" lon="2.72538">
        <ele>137.13</ele>
        <time>2014-02-20T08:19:58Z</time>
      </trkpt>
      <trkpt lat="43.08797" lon="2.72536">
        <ele>137.61</ele>
        <time>2014-02-20T08:20:02Z</time>
      </trkpt>
      <trkpt lat="43.08794" lon="2.72535">
        <ele>137.13</ele>
        <time>2014-02-20T08:20:04Z</time>
      </trkpt>
      <trkpt lat="43.08782" lon="2.7253">
        <ele>133.28</ele>
        <time>2014-02-20T08:20:16Z</time>
      </trkpt>
      <trkpt lat="43.0878" lon="2.72529">
        <ele>138.09</ele>
        <time>2014-02-20T08:20:17Z</time>
      </trkpt>
      <trkpt lat="43.0878" lon="2.72528">
        <ele>136.64</ele>
        <time>2014-02-20T08:20:18Z</time>
      </trkpt>
      <trkpt lat="43.08775" lon="2.72529">
        <ele>136.64</ele>
        <time>2014-02-20T08:20:20Z</time>
      </trkpt>
      <trkpt lat="43.0877" lon="2.72528">
        <ele>136.64</ele>
        <time>2014-02-20T08:20:23Z</time>
      </trkpt>
      <trkpt lat="43.08769" lon="2.72528">
        <ele>136.64</ele>
        <time>2014-02-20T08:20:25Z</time>
      </trkpt>
      <trkpt lat="43.08766" lon="2.72527">
        <ele>136.16</ele>
        <time>2014-02-20T08:20:34Z</time>
      </trkpt>
      <trkpt lat="43.08766" lon="2.72527">
        <ele>135.68</ele>
        <time>2014-02-20T08:21:09Z</time>
      </trkpt>
      <trkpt lat="43.08766" lon="2.72527">
        <ele>135.68</ele>
        <time>2014-02-20T08:21:42Z</time>
      </trkpt>
      <trkpt lat="43.08769" lon="2.72529">
        <ele>136.64</ele>
        <time>2014-02-20T08:21:47Z</time>
      </trkpt>
      <trkpt lat="43.08769" lon="2.72528">
        <ele>131.36</ele>
        <time>2014-02-20T08:21:51Z</time>
      </trkpt>
      <trkpt lat="43.08763" lon="2.72533">
        <ele>135.2</ele>
        <time>2014-02-20T08:21:56Z</time>
      </trkpt>
      <trkpt lat="43.08761" lon="2.72542">
        <ele>135.2</ele>
        <time>2014-02-20T08:22:01Z</time>
      </trkpt>
      <trkpt lat="43.0876" lon="2.72559">
        <ele>134.72</ele>
        <time>2014-02-20T08:22:10Z</time>
      </trkpt>
      <trkpt lat="43.08758" lon="2.72584">
        <ele>132.8</ele>
        <time>2014-02-20T08:22:23Z</time>
      </trkpt>
      <trkpt lat="43.08758" lon="2.7259">
        <ele>131.84</ele>
        <time>2014-02-20T08:22:26Z</time>
      </trkpt>
      <trkpt lat="43.08757" lon="2.72599">
        <ele>131.36</ele>
        <time>2014-02-20T08:22:38Z</time>
      </trkpt>
      <trkpt lat="43.08757" lon="2.72598">
        <ele>131.84</ele>
        <time>2014-02-20T08:22:54Z</time>
      </trkpt>
      <trkpt lat="43.08757" lon="2.72599">
        <ele>131.84</ele>
        <time>2014-02-20T08:23:01Z</time>
      </trkpt>
      <trkpt lat="43.08757" lon="2.72603">
        <ele>131.36</ele>
        <time>2014-02-20T08:23:04Z</time>
      </trkpt>
      <trkpt lat="43.08758" lon="2.7262">
        <ele>130.88</ele>
        <time>2014-02-20T08:23:13Z</time>
      </trkpt>
      <trkpt lat="43.08758" lon="2.72625">
        <ele>130.4</ele>
        <time>2014-02-20T08:23:16Z</time>
      </trkpt>
      <trkpt lat="43.08758" lon="2.7263">
        <ele>130.4</ele>
        <time>2014-02-20T08:23:19Z</time>
      </trkpt>
      <trkpt lat="43.08757" lon="2.72647">
        <ele>128.95</ele>
        <time>2014-02-20T08:23:32Z</time>
      </trkpt>
      <trkpt lat="43.08757" lon="2.72648">
        <ele>128.95</ele>
        <time>2014-02-20T08:23:46Z</time>
      </trkpt>
      <trkpt lat="43.08756" lon="2.72648">
        <ele>128.95</ele>
        <time>2014-02-20T08:24:02Z</time>
      </trkpt>
      <trkpt lat="43.08755" lon="2.72648">
        <ele>129.43</ele>
        <time>2014-02-20T08:24:27Z</time>
      </trkpt>
      <trkpt lat="43.08755" lon="2.7265">
        <ele>129.43</ele>
        <time>2014-02-20T08:24:45Z</time>
      </trkpt>
      <trkpt lat="43.08755" lon="2.72653">
        <ele>128.47</ele>
        <time>2014-02-20T08:24:47Z</time>
      </trkpt>
      <trkpt lat="43.08756" lon="2.72662">
        <ele>127.99</ele>
        <time>2014-02-20T08:24:53Z</time>
      </trkpt>
      <trkpt lat="43.08755" lon="2.72683">
        <ele>127.03</ele>
        <time>2014-02-20T08:25:05Z</time>
      </trkpt>
      <trkpt lat="43.08755" lon="2.72696">
        <ele>126.07</ele>
        <time>2014-02-20T08:25:14Z</time>
      </trkpt>
      <trkpt lat="43.08755" lon="2.72701">
        <ele>125.59</ele>
        <time>2014-02-20T08:25:17Z</time>
      </trkpt>
      <trkpt lat="43.08754" lon="2.72717">
        <ele>124.63</ele>
        <time>2014-02-20T08:25:27Z</time>
      </trkpt>
      <trkpt lat="43.08755" lon="2.72722">
        <ele>124.15</ele>
        <time>2014-02-20T08:25:30Z</time>
      </trkpt>
      <trkpt lat="43.08754" lon="2.72728">
        <ele>123.67</ele>
        <time>2014-02-20T08:25:34Z</time>
      </trkpt>
      <trkpt lat="43.08752" lon="2.72749">
        <ele>122.22</ele>
        <time>2014-02-20T08:25:46Z</time>
      </trkpt>
      <trkpt lat="43.08751" lon="2.72759">
        <ele>122.22</ele>
        <time>2014-02-20T08:25:52Z</time>
      </trkpt>
      <trkpt lat="43.08751" lon="2.7278">
        <ele>121.26</ele>
        <time>2014-02-20T08:26:05Z</time>
      </trkpt>
      <trkpt lat="43.0875" lon="2.72798">
        <ele>120.3</ele>
        <time>2014-02-20T08:26:16Z</time>
      </trkpt>
      <trkpt lat="43.0875" lon="2.72814">
        <ele>118.86</ele>
        <time>2014-02-20T08:26:26Z</time>
      </trkpt>
      <trkpt lat="43.0875" lon="2.72819">
        <ele>119.34</ele>
        <time>2014-02-20T08:26:29Z</time>
      </trkpt>
      <trkpt lat="43.08748" lon="2.7283">
        <ele>118.38</ele>
        <time>2014-02-20T08:26:36Z</time>
      </trkpt>
      <trkpt lat="43.08744" lon="2.72834">
        <ele>118.86</ele>
        <time>2014-02-20T08:26:40Z</time>
      </trkpt>
      <trkpt lat="43.08734" lon="2.72828">
        <ele>117.9</ele>
        <time>2014-02-20T08:26:50Z</time>
      </trkpt>
      <trkpt lat="43.08731" lon="2.72825">
        <ele>117.42</ele>
        <time>2014-02-20T08:26:54Z</time>
      </trkpt>
      <trkpt lat="43.08724" lon="2.7282">
        <ele>115.98</ele>
        <time>2014-02-20T08:27:00Z</time>
      </trkpt>
      <trkpt lat="43.0871" lon="2.72811">
        <ele>114.53</ele>
        <time>2014-02-20T08:27:14Z</time>
      </trkpt>
      <trkpt lat="43.08701" lon="2.72809">
        <ele>114.05</ele>
        <time>2014-02-20T08:27:21Z</time>
      </trkpt>
      <trkpt lat="43.08689" lon="2.72814">
        <ele>113.09</ele>
        <time>2014-02-20T08:27:32Z</time>
      </trkpt>
      <trkpt lat="43.08679" lon="2.72812">
        <ele>112.13</ele>
        <time>2014-02-20T08:27:43Z</time>
      </trkpt>
      <trkpt lat="43.08668" lon="2.7283">
        <ele>112.61</ele>
        <time>2014-02-20T08:27:57Z</time>
      </trkpt>
      <trkpt lat="43.08667" lon="2.72832">
        <ele>113.09</ele>
        <time>2014-02-20T08:27:59Z</time>
      </trkpt>
      <trkpt lat="43.08666" lon="2.7284">
        <ele>114.53</ele>
        <time>2014-02-20T08:28:04Z</time>
      </trkpt>
      <trkpt lat="43.08665" lon="2.72856">
        <ele>115.5</ele>
        <time>2014-02-20T08:28:14Z</time>
      </trkpt>
      <trkpt lat="43.0866" lon="2.72876">
        <ele>117.42</ele>
        <time>2014-02-20T08:28:26Z</time>
      </trkpt>
      <trkpt lat="43.08658" lon="2.72883">
        <ele>117.9</ele>
        <time>2014-02-20T08:28:35Z</time>
      </trkpt>
      <trkpt lat="43.08662" lon="2.72902">
        <ele>118.86</ele>
        <time>2014-02-20T08:28:49Z</time>
      </trkpt>
      <trkpt lat="43.08679" lon="2.72906">
        <ele>118.38</ele>
        <time>2014-02-20T08:29:03Z</time>
      </trkpt>
      <trkpt lat="43.08681" lon="2.72907">
        <ele>118.86</ele>
        <time>2014-02-20T08:29:06Z</time>
      </trkpt>
      <trkpt lat="43.08695" lon="2.72918">
        <ele>118.38</ele>
        <time>2014-02-20T08:29:19Z</time>
      </trkpt>
      <trkpt lat="43.08705" lon="2.72932">
        <ele>117.9</ele>
        <time>2014-02-20T08:29:30Z</time>
      </trkpt>
      <trkpt lat="43.08711" lon="2.72947">
        <ele>117.9</ele>
        <time>2014-02-20T08:29:40Z</time>
      </trkpt>
      <trkpt lat="43.08716" lon="2.72966">
        <ele>117.42</ele>
        <time>2014-02-20T08:29:51Z</time>
      </trkpt>
      <trkpt lat="43.08718" lon="2.72971">
        <ele>117.42</ele>
        <time>2014-02-20T08:29:54Z</time>
      </trkpt>
      <trkpt lat="43.08719" lon="2.72986">
        <ele>117.9</ele>
        <time>2014-02-20T08:30:08Z</time>
      </trkpt>
      <trkpt lat="43.08718" lon="2.72986">
        <ele>117.9</ele>
        <time>2014-02-20T08:30:13Z</time>
      </trkpt>
      <trkpt lat="43.08717" lon="2.72989">
        <ele>117.9</ele>
        <time>2014-02-20T08:30:15Z</time>
      </trkpt>
      <trkpt lat="43.08714" lon="2.72993">
        <ele>117.9</ele>
        <time>2014-02-20T08:30:26Z</time>
      </trkpt>
      <trkpt lat="43.08714" lon="2.72991">
        <ele>117.9</ele>
        <time>2014-02-20T08:30:44Z</time>
      </trkpt>
      <trkpt lat="43.08714" lon="2.72991">
        <ele>117.42</ele>
        <time>2014-02-20T08:30:59Z</time>
      </trkpt>
      <trkpt lat="43.08713" lon="2.72992">
        <ele>117.42</ele>
        <time>2014-02-20T08:31:17Z</time>
      </trkpt>
      <trkpt lat="43.08713" lon="2.72992">
        <ele>112.61</ele>
        <time>2014-02-20T08:31:19Z</time>
      </trkpt>
      <trkpt lat="43.08712" lon="2.72993">
        <ele>117.42</ele>
        <time>2014-02-20T08:31:20Z</time>
      </trkpt>
      <trkpt lat="43.08711" lon="2.72997">
        <ele>117.9</ele>
        <time>2014-02-20T08:31:23Z</time>
      </trkpt>
      <trkpt lat="43.08699" lon="2.73016">
        <ele>118.38</ele>
        <time>2014-02-20T08:31:37Z</time>
      </trkpt>
      <trkpt lat="43.08696" lon="2.7302">
        <ele>118.38</ele>
        <time>2014-02-20T08:31:40Z</time>
      </trkpt>
      <trkpt lat="43.08693" lon="2.73025">
        <ele>118.38</ele>
        <time>2014-02-20T08:31:44Z</time>
      </trkpt>
      <trkpt lat="43.08681" lon="2.73039">
        <ele>118.38</ele>
        <time>2014-02-20T08:31:56Z</time>
      </trkpt>
      <trkpt lat="43.08677" lon="2.73043">
        <ele>118.38</ele>
        <time>2014-02-20T08:32:00Z</time>
      </trkpt>
      <trkpt lat="43.0867" lon="2.73047">
        <ele>118.86</ele>
        <time>2014-02-20T08:32:08Z</time>
      </trkpt>
      <trkpt lat="43.08667" lon="2.7305">
        <ele>118.86</ele>
        <time>2014-02-20T08:32:11Z</time>
      </trkpt>
      <trkpt lat="43.08655" lon="2.73061">
        <ele>119.34</ele>
        <time>2014-02-20T08:32:21Z</time>
      </trkpt>
      <trkpt lat="43.08651" lon="2.73062">
        <ele>119.34</ele>
        <time>2014-02-20T08:32:25Z</time>
      </trkpt>
      <trkpt lat="43.08648" lon="2.73064">
        <ele>119.34</ele>
        <time>2014-02-20T08:32:28Z</time>
      </trkpt>
      <trkpt lat="43.08642" lon="2.73068">
        <ele>119.82</ele>
        <time>2014-02-20T08:32:34Z</time>
      </trkpt>
      <trkpt lat="43.08631" lon="2.73077">
        <ele>120.3</ele>
        <time>2014-02-20T08:32:45Z</time>
      </trkpt>
      <trkpt lat="43.08629" lon="2.73078">
        <ele>120.3</ele>
        <time>2014-02-20T08:32:48Z</time>
      </trkpt>
      <trkpt lat="43.08614" lon="2.73091">
        <ele>120.78</ele>
        <time>2014-02-20T08:33:02Z</time>
      </trkpt>
      <trkpt lat="43.08611" lon="2.73094">
        <ele>120.78</ele>
        <time>2014-02-20T08:33:05Z</time>
      </trkpt>
      <trkpt lat="43.08609" lon="2.73094">
        <ele>121.26</ele>
        <time>2014-02-20T08:33:07Z</time>
      </trkpt>
      <trkpt lat="43.08604" lon="2.73096">
        <ele>120.78</ele>
        <time>2014-02-20T08:33:11Z</time>
      </trkpt>
      <trkpt lat="43.08601" lon="2.73098">
        <ele>120.78</ele>
        <time>2014-02-20T08:33:13Z</time>
      </trkpt>
      <trkpt lat="43.08597" lon="2.73101">
        <ele>120.78</ele>
        <time>2014-02-20T08:33:18Z</time>
      </trkpt>
      <trkpt lat="43.08586" lon="2.73111">
        <ele>121.26</ele>
        <time>2014-02-20T08:33:29Z</time>
      </trkpt>
      <trkpt lat="43.08585" lon="2.73113">
        <ele>121.26</ele>
        <time>2014-02-20T08:33:31Z</time>
      </trkpt>
      <trkpt lat="43.08582" lon="2.73115">
        <ele>121.74</ele>
        <time>2014-02-20T08:33:33Z</time>
      </trkpt>
      <trkpt lat="43.08579" lon="2.73119">
        <ele>121.26</ele>
        <time>2014-02-20T08:33:36Z</time>
      </trkpt>
      <trkpt lat="43.08564" lon="2.7313">
        <ele>122.71</ele>
        <time>2014-02-20T08:33:49Z</time>
      </trkpt>
      <trkpt lat="43.08557" lon="2.73135">
        <ele>123.19</ele>
        <time>2014-02-20T08:33:56Z</time>
      </trkpt>
      <trkpt lat="43.08554" lon="2.73137">
        <ele>123.67</ele>
        <time>2014-02-20T08:33:59Z</time>
      </trkpt>
      <trkpt lat="43.08545" lon="2.73141">
        <ele>124.63</ele>
        <time>2014-02-20T08:34:09Z</time>
      </trkpt>
      <trkpt lat="43.08543" lon="2.73144">
        <ele>124.63</ele>
        <time>2014-02-20T08:34:11Z</time>
      </trkpt>
      <trkpt lat="43.08526" lon="2.73153">
        <ele>125.59</ele>
        <time>2014-02-20T08:34:24Z</time>
      </trkpt>
      <trkpt lat="43.08525" lon="2.73154">
        <ele>125.11</ele>
        <time>2014-02-20T08:34:28Z</time>
      </trkpt>
      <trkpt lat="43.08513" lon="2.73165">
        <ele>126.55</ele>
        <time>2014-02-20T08:34:40Z</time>
      </trkpt>
      <trkpt lat="43.08512" lon="2.73166">
        <ele>126.55</ele>
        <time>2014-02-20T08:34:41Z</time>
      </trkpt>
      <trkpt lat="43.08499" lon="2.73172">
        <ele>127.03</ele>
        <time>2014-02-20T08:34:53Z</time>
      </trkpt>
      <trkpt lat="43.08495" lon="2.73173">
        <ele>127.51</ele>
        <time>2014-02-20T08:35:00Z</time>
      </trkpt>
      <trkpt lat="43.08483" lon="2.73179">
        <ele>128.47</ele>
        <time>2014-02-20T08:35:11Z</time>
      </trkpt>
      <trkpt lat="43.08468" lon="2.7319">
        <ele>129.92</ele>
        <time>2014-02-20T08:35:25Z</time>
      </trkpt>
      <trkpt lat="43.08457" lon="2.73198">
        <ele>131.36</ele>
        <time>2014-02-20T08:35:37Z</time>
      </trkpt>
      <trkpt lat="43.08455" lon="2.73199">
        <ele>130.88</ele>
        <time>2014-02-20T08:35:39Z</time>
      </trkpt>
      <trkpt lat="43.0845" lon="2.73201">
        <ele>131.84</ele>
        <time>2014-02-20T08:35:42Z</time>
      </trkpt>
      <trkpt lat="43.08437" lon="2.73208">
        <ele>132.32</ele>
        <time>2014-02-20T08:35:54Z</time>
      </trkpt>
      <trkpt lat="43.08434" lon="2.7321">
        <ele>132.32</ele>
        <time>2014-02-20T08:35:57Z</time>
      </trkpt>
      <trkpt lat="43.08428" lon="2.73213">
        <ele>132.32</ele>
        <time>2014-02-20T08:36:02Z</time>
      </trkpt>
      <trkpt lat="43.08425" lon="2.73215">
        <ele>133.28</ele>
        <time>2014-02-20T08:36:05Z</time>
      </trkpt>
      <trkpt lat="43.08422" lon="2.7322">
        <ele>133.28</ele>
        <time>2014-02-20T08:36:09Z</time>
      </trkpt>
      <trkpt lat="43.08419" lon="2.73222">
        <ele>133.28</ele>
        <time>2014-02-20T08:36:27Z</time>
      </trkpt>
      <trkpt lat="43.08419" lon="2.73222">
        <ele>133.28</ele>
        <time>2014-02-20T08:36:43Z</time>
      </trkpt>
      <trkpt lat="43.08418" lon="2.73222">
        <ele>133.28</ele>
        <time>2014-02-20T08:37:04Z</time>
      </trkpt>
      <trkpt lat="43.08417" lon="2.7322">
        <ele>132.8</ele>
        <time>2014-02-20T08:37:21Z</time>
      </trkpt>
      <trkpt lat="43.0841" lon="2.73221">
        <ele>132.8</ele>
        <time>2014-02-20T08:37:27Z</time>
      </trkpt>
      <trkpt lat="43.08401" lon="2.73223">
        <ele>132.8</ele>
        <time>2014-02-20T08:37:35Z</time>
      </trkpt>
      <trkpt lat="43.08392" lon="2.73227">
        <ele>133.28</ele>
        <time>2014-02-20T08:37:44Z</time>
      </trkpt>
      <trkpt lat="43.08382" lon="2.73235">
        <ele>132.8</ele>
        <time>2014-02-20T08:37:57Z</time>
      </trkpt>
      <trkpt lat="43.08377" lon="2.73237">
        <ele>132.8</ele>
        <time>2014-02-20T08:38:03Z</time>
      </trkpt>
      <trkpt lat="43.08366" lon="2.73242">
        <ele>132.8</ele>
        <time>2014-02-20T08:38:16Z</time>
      </trkpt>
      <trkpt lat="43.0836" lon="2.73246">
        <ele>132.8</ele>
        <time>2014-02-20T08:38:29Z</time>
      </trkpt>
      <trkpt lat="43.08353" lon="2.7325">
        <ele>132.8</ele>
        <time>2014-02-20T08:38:39Z</time>
      </trkpt>
      <trkpt lat="43.08342" lon="2.73258">
        <ele>132.8</ele>
        <time>2014-02-20T08:38:47Z</time>
      </trkpt>
      <trkpt lat="43.08327" lon="2.73264">
        <ele>132.8</ele>
        <time>2014-02-20T08:39:00Z</time>
      </trkpt>
      <trkpt lat="43.08315" lon="2.7327">
        <ele>132.8</ele>
        <time>2014-02-20T08:39:09Z</time>
      </trkpt>
      <trkpt lat="43.08308" lon="2.73275">
        <ele>132.8</ele>
        <time>2014-02-20T08:39:14Z</time>
      </trkpt>
      <trkpt lat="43.08296" lon="2.7328">
        <ele>132.32</ele>
        <time>2014-02-20T08:39:24Z</time>
      </trkpt>
      <trkpt lat="43.08288" lon="2.73281">
        <ele>132.32</ele>
        <time>2014-02-20T08:39:32Z</time>
      </trkpt>
      <trkpt lat="43.08279" lon="2.73291">
        <ele>131.84</ele>
        <time>2014-02-20T08:39:42Z</time>
      </trkpt>
      <trkpt lat="43.08276" lon="2.73294">
        <ele>131.84</ele>
        <time>2014-02-20T08:39:45Z</time>
      </trkpt>
      <trkpt lat="43.08269" lon="2.73304">
        <ele>131.84</ele>
        <time>2014-02-20T08:39:52Z</time>
      </trkpt>
      <trkpt lat="43.08265" lon="2.73309">
        <ele>131.36</ele>
        <time>2014-02-20T08:39:56Z</time>
      </trkpt>
      <trkpt lat="43.08254" lon="2.73323">
        <ele>131.36</ele>
        <time>2014-02-20T08:40:08Z</time>
      </trkpt>
      <trkpt lat="43.08251" lon="2.73326">
        <ele>131.36</ele>
        <time>2014-02-20T08:40:11Z</time>
      </trkpt>
      <trkpt lat="43.08247" lon="2.73329">
        <ele>131.84</ele>
        <time>2014-02-20T08:40:15Z</time>
      </trkpt>
      <trkpt lat="43.08241" lon="2.73331">
        <ele>132.32</ele>
        <time>2014-02-20T08:40:20Z</time>
      </trkpt>
      <trkpt lat="43.08237" lon="2.73332">
        <ele>132.32</ele>
        <time>2014-02-20T08:40:24Z</time>
      </trkpt>
      <trkpt lat="43.08235" lon="2.73334">
        <ele>132.32</ele>
        <time>2014-02-20T08:40:26Z</time>
      </trkpt>
      <trkpt lat="43.08225" lon="2.7334">
        <ele>132.32</ele>
        <time>2014-02-20T08:40:35Z</time>
      </trkpt>
      <trkpt lat="43.08221" lon="2.73344">
        <ele>132.8</ele>
        <time>2014-02-20T08:40:40Z</time>
      </trkpt>
      <trkpt lat="43.08215" lon="2.73348">
        <ele>133.28</ele>
        <time>2014-02-20T08:40:46Z</time>
      </trkpt>
      <trkpt lat="43.08213" lon="2.73349">
        <ele>133.28</ele>
        <time>2014-02-20T08:40:48Z</time>
      </trkpt>
      <trkpt lat="43.08209" lon="2.73352">
        <ele>133.76</ele>
        <time>2014-02-20T08:40:52Z</time>
      </trkpt>
      <trkpt lat="43.08207" lon="2.73355">
        <ele>133.76</ele>
        <time>2014-02-20T08:40:55Z</time>
      </trkpt>
      <trkpt lat="43.082" lon="2.73362">
        <ele>134.24</ele>
        <time>2014-02-20T08:41:02Z</time>
      </trkpt>
      <trkpt lat="43.08192" lon="2.73368">
        <ele>134.24</ele>
        <time>2014-02-20T08:41:10Z</time>
      </trkpt>
      <trkpt lat="43.08188" lon="2.73371">
        <ele>134.24</ele>
        <time>2014-02-20T08:41:13Z</time>
      </trkpt>
      <trkpt lat="43.08184" lon="2.73377">
        <ele>134.72</ele>
        <time>2014-02-20T08:41:25Z</time>
      </trkpt>
      <trkpt lat="43.08184" lon="2.73377">
        <ele>129.92</ele>
        <time>2014-02-20T08:41:45Z</time>
      </trkpt>
      <trkpt lat="43.08184" lon="2.73377">
        <ele>135.68</ele>
        <time>2014-02-20T08:41:46Z</time>
      </trkpt>
      <trkpt lat="43.08181" lon="2.73377">
        <ele>134.72</ele>
        <time>2014-02-20T08:41:50Z</time>
      </trkpt>
      <trkpt lat="43.08167" lon="2.7338">
        <ele>135.2</ele>
        <time>2014-02-20T08:42:00Z</time>
      </trkpt>
      <trkpt lat="43.08164" lon="2.73381">
        <ele>135.2</ele>
        <time>2014-02-20T08:42:03Z</time>
      </trkpt>
      <trkpt lat="43.08158" lon="2.73381">
        <ele>135.2</ele>
        <time>2014-02-20T08:42:06Z</time>
      </trkpt>
      <trkpt lat="43.08148" lon="2.73387">
        <ele>135.68</ele>
        <time>2014-02-20T08:42:11Z</time>
      </trkpt>
      <trkpt lat="43.08142" lon="2.73391">
        <ele>135.68</ele>
        <time>2014-02-20T08:42:15Z</time>
      </trkpt>
      <trkpt lat="43.08138" lon="2.73392">
        <ele>135.68</ele>
        <time>2014-02-20T08:42:17Z</time>
      </trkpt>
      <trkpt lat="43.08119" lon="2.73398">
        <ele>136.16</ele>
        <time>2014-02-20T08:42:30Z</time>
      </trkpt>
      <trkpt lat="43.08113" lon="2.734">
        <ele>136.64</ele>
        <time>2014-02-20T08:42:34Z</time>
      </trkpt>
      <trkpt lat="43.08106" lon="2.73404">
        <ele>137.13</ele>
        <time>2014-02-20T08:42:41Z</time>
      </trkpt>
      <trkpt lat="43.08102" lon="2.73405">
        <ele>137.13</ele>
        <time>2014-02-20T08:42:44Z</time>
      </trkpt>
      <trkpt lat="43.08084" lon="2.73408">
        <ele>139.05</ele>
        <time>2014-02-20T08:42:56Z</time>
      </trkpt>
      <trkpt lat="43.0808" lon="2.7341">
        <ele>139.05</ele>
        <time>2014-02-20T08:42:59Z</time>
      </trkpt>
      <trkpt lat="43.08072" lon="2.73412">
        <ele>139.53</ele>
        <time>2014-02-20T08:43:05Z</time>
      </trkpt>
      <trkpt lat="43.08058" lon="2.73418">
        <ele>139.53</ele>
        <time>2014-02-20T08:43:14Z</time>
      </trkpt>
      <trkpt lat="43.08045" lon="2.73427">
        <ele>140.49</ele>
        <time>2014-02-20T08:43:24Z</time>
      </trkpt>
      <trkpt lat="43.08042" lon="2.73427">
        <ele>140.01</ele>
        <time>2014-02-20T08:43:27Z</time>
      </trkpt>
      <trkpt lat="43.08033" lon="2.73432">
        <ele>140.97</ele>
        <time>2014-02-20T08:43:35Z</time>
      </trkpt>
      <trkpt lat="43.08028" lon="2.73432">
        <ele>141.93</ele>
        <time>2014-02-20T08:43:39Z</time>
      </trkpt>
      <trkpt lat="43.08025" lon="2.73433">
        <ele>141.93</ele>
        <time>2014-02-20T08:43:41Z</time>
      </trkpt>
      <trkpt lat="43.08011" lon="2.73435">
        <ele>144.34</ele>
        <time>2014-02-20T08:43:54Z</time>
      </trkpt>
      <trkpt lat="43.08009" lon="2.73436">
        <ele>144.34</ele>
        <time>2014-02-20T08:43:56Z</time>
      </trkpt>
      <trkpt lat="43.08006" lon="2.73436">
        <ele>144.82</ele>
        <time>2014-02-20T08:44:00Z</time>
      </trkpt>
      <trkpt lat="43.08" lon="2.7344">
        <ele>145.3</ele>
        <time>2014-02-20T08:44:08Z</time>
      </trkpt>
      <trkpt lat="43.07997" lon="2.73444">
        <ele>145.3</ele>
        <time>2014-02-20T08:44:13Z</time>
      </trkpt>
      <trkpt lat="43.07994" lon="2.73449">
        <ele>144.82</ele>
        <time>2014-02-20T08:44:18Z</time>
      </trkpt>
      <trkpt lat="43.07992" lon="2.73451">
        <ele>145.3</ele>
        <time>2014-02-20T08:44:21Z</time>
      </trkpt>
      <trkpt lat="43.0799" lon="2.73453">
        <ele>145.3</ele>
        <time>2014-02-20T08:44:31Z</time>
      </trkpt>
      <trkpt lat="43.07988" lon="2.73454">
        <ele>145.78</ele>
        <time>2014-02-20T08:44:33Z</time>
      </trkpt>
      <trkpt lat="43.07981" lon="2.73465">
        <ele>145.3</ele>
        <time>2014-02-20T08:44:44Z</time>
      </trkpt>
      <trkpt lat="43.07979" lon="2.73469">
        <ele>145.3</ele>
        <time>2014-02-20T08:44:48Z</time>
      </trkpt>
      <trkpt lat="43.07974" lon="2.73471">
        <ele>145.78</ele>
        <time>2014-02-20T08:44:53Z</time>
      </trkpt>
      <trkpt lat="43.07964" lon="2.7348">
        <ele>145.78</ele>
        <time>2014-02-20T08:45:03Z</time>
      </trkpt>
      <trkpt lat="43.07958" lon="2.73483">
        <ele>146.26</ele>
        <time>2014-02-20T08:45:08Z</time>
      </trkpt>
      <trkpt lat="43.07953" lon="2.73485">
        <ele>146.26</ele>
        <time>2014-02-20T08:45:12Z</time>
      </trkpt>
      <trkpt lat="43.07951" lon="2.73487">
        <ele>146.26</ele>
        <time>2014-02-20T08:45:15Z</time>
      </trkpt>
      <trkpt lat="43.07945" lon="2.7349">
        <ele>147.22</ele>
        <time>2014-02-20T08:45:22Z</time>
      </trkpt>
      <trkpt lat="43.07938" lon="2.73493">
        <ele>148.18</ele>
        <time>2014-02-20T08:45:28Z</time>
      </trkpt>
      <trkpt lat="43.07925" lon="2.73502">
        <ele>148.66</ele>
        <time>2014-02-20T08:45:40Z</time>
      </trkpt>
      <trkpt lat="43.07922" lon="2.73505">
        <ele>148.18</ele>
        <time>2014-02-20T08:45:44Z</time>
      </trkpt>
      <trkpt lat="43.07919" lon="2.73508">
        <ele>148.66</ele>
        <time>2014-02-20T08:45:47Z</time>
      </trkpt>
      <trkpt lat="43.07914" lon="2.7351">
        <ele>148.66</ele>
        <time>2014-02-20T08:45:52Z</time>
      </trkpt>
      <trkpt lat="43.07901" lon="2.73519">
        <ele>149.14</ele>
        <time>2014-02-20T08:46:06Z</time>
      </trkpt>
      <trkpt lat="43.07898" lon="2.73522">
        <ele>149.62</ele>
        <time>2014-02-20T08:46:10Z</time>
      </trkpt>
      <trkpt lat="43.0789" lon="2.73527">
        <ele>150.1</ele>
        <time>2014-02-20T08:46:17Z</time>
      </trkpt>
      <trkpt lat="43.07878" lon="2.73535">
        <ele>150.1</ele>
        <time>2014-02-20T08:46:28Z</time>
      </trkpt>
      <trkpt lat="43.07869" lon="2.73542">
        <ele>150.1</ele>
        <time>2014-02-20T08:46:37Z</time>
      </trkpt>
      <trkpt lat="43.07855" lon="2.7355">
        <ele>150.58</ele>
        <time>2014-02-20T08:46:49Z</time>
      </trkpt>
      <trkpt lat="43.07853" lon="2.7355">
        <ele>150.58</ele>
        <time>2014-02-20T08:46:50Z</time>
      </trkpt>
      <trkpt lat="43.07842" lon="2.73558">
        <ele>150.58</ele>
        <time>2014-02-20T08:47:02Z</time>
      </trkpt>
      <trkpt lat="43.07836" lon="2.73562">
        <ele>150.58</ele>
        <time>2014-02-20T08:47:08Z</time>
      </trkpt>
      <trkpt lat="43.07832" lon="2.73565">
        <ele>150.58</ele>
        <time>2014-02-20T08:47:12Z</time>
      </trkpt>
      <trkpt lat="43.07826" lon="2.73569">
        <ele>151.06</ele>
        <time>2014-02-20T08:47:19Z</time>
      </trkpt>
      <trkpt lat="43.07823" lon="2.7357">
        <ele>150.58</ele>
        <time>2014-02-20T08:47:21Z</time>
      </trkpt>
      <trkpt lat="43.07812" lon="2.73577">
        <ele>150.58</ele>
        <time>2014-02-20T08:47:36Z</time>
      </trkpt>
      <trkpt lat="43.07803" lon="2.73585">
        <ele>151.06</ele>
        <time>2014-02-20T08:47:47Z</time>
      </trkpt>
      <trkpt lat="43.07791" lon="2.73594">
        <ele>151.06</ele>
        <time>2014-02-20T08:47:59Z</time>
      </trkpt>
      <trkpt lat="43.07781" lon="2.73598">
        <ele>150.58</ele>
        <time>2014-02-20T08:48:08Z</time>
      </trkpt>
      <trkpt lat="43.07776" lon="2.73601">
        <ele>151.06</ele>
        <time>2014-02-20T08:48:13Z</time>
      </trkpt>
      <trkpt lat="43.07769" lon="2.73603">
        <ele>151.54</ele>
        <time>2014-02-20T08:48:21Z</time>
      </trkpt>
      <trkpt lat="43.07766" lon="2.73604">
        <ele>151.54</ele>
        <time>2014-02-20T08:48:24Z</time>
      </trkpt>
      <trkpt lat="43.07759" lon="2.73603">
        <ele>152.03</ele>
        <time>2014-02-20T08:48:29Z</time>
      </trkpt>
      <trkpt lat="43.07754" lon="2.73606">
        <ele>151.54</ele>
        <time>2014-02-20T08:48:33Z</time>
      </trkpt>
      <trkpt lat="43.07752" lon="2.73605">
        <ele>151.54</ele>
        <time>2014-02-20T08:48:35Z</time>
      </trkpt>
      <trkpt lat="43.07747" lon="2.73606">
        <ele>151.54</ele>
        <time>2014-02-20T08:48:38Z</time>
      </trkpt>
      <trkpt lat="43.07741" lon="2.73607">
        <ele>152.51</ele>
        <time>2014-02-20T08:48:43Z</time>
      </trkpt>
      <trkpt lat="43.07738" lon="2.7361">
        <ele>152.03</ele>
        <time>2014-02-20T08:48:47Z</time>
      </trkpt>
      <trkpt lat="43.07725" lon="2.73614">
        <ele>152.51</ele>
        <time>2014-02-20T08:48:58Z</time>
      </trkpt>
      <trkpt lat="43.07723" lon="2.73615">
        <ele>152.03</ele>
        <time>2014-02-20T08:49:01Z</time>
      </trkpt>
      <trkpt lat="43.07718" lon="2.73618">
        <ele>152.51</ele>
        <time>2014-02-20T08:49:06Z</time>
      </trkpt>
      <trkpt lat="43.07704" lon="2.73623">
        <ele>153.95</ele>
        <time>2014-02-20T08:49:19Z</time>
      </trkpt>
      <trkpt lat="43.07702" lon="2.73624">
        <ele>153.47</ele>
        <time>2014-02-20T08:49:20Z</time>
      </trkpt>
      <trkpt lat="43.07698" lon="2.73624">
        <ele>153.47</ele>
        <time>2014-02-20T08:49:24Z</time>
      </trkpt>
      <trkpt lat="43.07693" lon="2.73627">
        <ele>153.47</ele>
        <time>2014-02-20T08:49:28Z</time>
      </trkpt>
      <trkpt lat="43.0769" lon="2.73629">
        <ele>153.95</ele>
        <time>2014-02-20T08:49:31Z</time>
      </trkpt>
      <trkpt lat="43.07678" lon="2.73632">
        <ele>154.43</ele>
        <time>2014-02-20T08:49:41Z</time>
      </trkpt>
      <trkpt lat="43.07674" lon="2.73634">
        <ele>154.43</ele>
        <time>2014-02-20T08:49:44Z</time>
      </trkpt>
      <trkpt lat="43.07668" lon="2.73637">
        <ele>153.95</ele>
        <time>2014-02-20T08:49:49Z</time>
      </trkpt>
      <trkpt lat="43.07664" lon="2.73641">
        <ele>154.43</ele>
        <time>2014-02-20T08:49:56Z</time>
      </trkpt>
      <trkpt lat="43.07655" lon="2.73647">
        <ele>154.91</ele>
        <time>2014-02-20T08:50:04Z</time>
      </trkpt>
      <trkpt lat="43.07651" lon="2.73648">
        <ele>154.91</ele>
        <time>2014-02-20T08:50:09Z</time>
      </trkpt>
      <trkpt lat="43.07637" lon="2.73652">
        <ele>154.91</ele>
        <time>2014-02-20T08:50:21Z</time>
      </trkpt>
      <trkpt lat="43.07633" lon="2.73654">
        <ele>154.91</ele>
        <time>2014-02-20T08:50:24Z</time>
      </trkpt>
      <trkpt lat="43.07632" lon="2.73656">
        <ele>155.39</ele>
        <time>2014-02-20T08:50:26Z</time>
      </trkpt>
      <trkpt lat="43.07628" lon="2.73656">
        <ele>155.87</ele>
        <time>2014-02-20T08:50:29Z</time>
      </trkpt>
      <trkpt lat="43.07616" lon="2.73662">
        <ele>156.35</ele>
        <time>2014-02-20T08:50:39Z</time>
      </trkpt>
      <trkpt lat="43.07604" lon="2.73669">
        <ele>156.83</ele>
        <time>2014-02-20T08:50:51Z</time>
      </trkpt>
      <trkpt lat="43.07604" lon="2.7367">
        <ele>157.31</ele>
        <time>2014-02-20T08:50:52Z</time>
      </trkpt>
      <trkpt lat="43.07602" lon="2.73673">
        <ele>157.31</ele>
        <time>2014-02-20T08:50:54Z</time>
      </trkpt>
      <trkpt lat="43.076" lon="2.7368">
        <ele>156.83</ele>
        <time>2014-02-20T08:50:58Z</time>
      </trkpt>
      <trkpt lat="43.07598" lon="2.73686">
        <ele>156.83</ele>
        <time>2014-02-20T08:51:02Z</time>
      </trkpt>
      <trkpt lat="43.07598" lon="2.7369">
        <ele>156.83</ele>
        <time>2014-02-20T08:51:05Z</time>
      </trkpt>
      <trkpt lat="43.07598" lon="2.73707">
        <ele>155.87</ele>
        <time>2014-02-20T08:51:17Z</time>
      </trkpt>
      <trkpt lat="43.07598" lon="2.73714">
        <ele>155.87</ele>
        <time>2014-02-20T08:51:21Z</time>
      </trkpt>
      <trkpt lat="43.07593" lon="2.73736">
        <ele>156.35</ele>
        <time>2014-02-20T08:51:36Z</time>
      </trkpt>
      <trkpt lat="43.07585" lon="2.73755">
        <ele>155.87</ele>
        <time>2014-02-20T08:51:50Z</time>
      </trkpt>
      <trkpt lat="43.0758" lon="2.73769">
        <ele>155.87</ele>
        <time>2014-02-20T08:52:04Z</time>
      </trkpt>
      <trkpt lat="43.0758" lon="2.7377">
        <ele>155.87</ele>
        <time>2014-02-20T08:52:05Z</time>
      </trkpt>
      <trkpt lat="43.07578" lon="2.73775">
        <ele>155.87</ele>
        <time>2014-02-20T08:52:08Z</time>
      </trkpt>
      <trkpt lat="43.07573" lon="2.73784">
        <ele>155.87</ele>
        <time>2014-02-20T08:52:15Z</time>
      </trkpt>
      <trkpt lat="43.0757" lon="2.73789">
        <ele>155.39</ele>
        <time>2014-02-20T08:52:19Z</time>
      </trkpt>
      <trkpt lat="43.07565" lon="2.73812">
        <ele>154.91</ele>
        <time>2014-02-20T08:52:33Z</time>
      </trkpt>
      <trkpt lat="43.07563" lon="2.73819">
        <ele>154.91</ele>
        <time>2014-02-20T08:52:47Z</time>
      </trkpt>
      <trkpt lat="43.07564" lon="2.73819">
        <ele>154.91</ele>
        <time>2014-02-20T08:53:06Z</time>
      </trkpt>
      <trkpt lat="43.07564" lon="2.73818">
        <ele>154.91</ele>
        <time>2014-02-20T08:53:19Z</time>
      </trkpt>
      <trkpt lat="43.07563" lon="2.73814">
        <ele>155.39</ele>
        <time>2014-02-20T08:53:33Z</time>
      </trkpt>
      <trkpt lat="43.07565" lon="2.73813">
        <ele>155.39</ele>
        <time>2014-02-20T08:53:45Z</time>
      </trkpt>
      <trkpt lat="43.07561" lon="2.73813">
        <ele>155.39</ele>
        <time>2014-02-20T08:54:06Z</time>
      </trkpt>
      <trkpt lat="43.07556" lon="2.73818">
        <ele>155.39</ele>
        <time>2014-02-20T08:54:11Z</time>
      </trkpt>
      <trkpt lat="43.07552" lon="2.73822">
        <ele>155.87</ele>
        <time>2014-02-20T08:54:15Z</time>
      </trkpt>
      <trkpt lat="43.0755" lon="2.73824">
        <ele>156.35</ele>
        <time>2014-02-20T08:54:17Z</time>
      </trkpt>
      <trkpt lat="43.07546" lon="2.73827">
        <ele>156.35</ele>
        <time>2014-02-20T08:54:21Z</time>
      </trkpt>
      <trkpt lat="43.0754" lon="2.73831">
        <ele>156.83</ele>
        <time>2014-02-20T08:54:26Z</time>
      </trkpt>
      <trkpt lat="43.07532" lon="2.73836">
        <ele>157.31</ele>
        <time>2014-02-20T08:54:39Z</time>
      </trkpt>
      <trkpt lat="43.07527" lon="2.73839">
        <ele>157.31</ele>
        <time>2014-02-20T08:54:43Z</time>
      </trkpt>
      <trkpt lat="43.07521" lon="2.73842">
        <ele>157.79</ele>
        <time>2014-02-20T08:54:49Z</time>
      </trkpt>
      <trkpt lat="43.07512" lon="2.73857">
        <ele>158.75</ele>
        <time>2014-02-20T08:55:01Z</time>
      </trkpt>
      <trkpt lat="43.07507" lon="2.73882">
        <ele>159.24</ele>
        <time>2014-02-20T08:55:17Z</time>
      </trkpt>
      <trkpt lat="43.07505" lon="2.73887">
        <ele>159.72</ele>
        <time>2014-02-20T08:55:22Z</time>
      </trkpt>
      <trkpt lat="43.07505" lon="2.73891">
        <ele>159.24</ele>
        <time>2014-02-20T08:55:36Z</time>
      </trkpt>
      <trkpt lat="43.07503" lon="2.73898">
        <ele>159.72</ele>
        <time>2014-02-20T08:55:47Z</time>
      </trkpt>
      <trkpt lat="43.07497" lon="2.73916">
        <ele>160.2</ele>
        <time>2014-02-20T08:55:57Z</time>
      </trkpt>
      <trkpt lat="43.07487" lon="2.73932">
        <ele>160.2</ele>
        <time>2014-02-20T08:56:08Z</time>
      </trkpt>
      <trkpt lat="43.07476" lon="2.73946">
        <ele>161.16</ele>
        <time>2014-02-20T08:56:18Z</time>
      </trkpt>
      <trkpt lat="43.07463" lon="2.73965">
        <ele>161.64</ele>
        <time>2014-02-20T08:56:32Z</time>
      </trkpt>
      <trkpt lat="43.07455" lon="2.73975">
        <ele>162.6</ele>
        <time>2014-02-20T08:56:43Z</time>
      </trkpt>
      <trkpt lat="43.07448" lon="2.73984">
        <ele>162.12</ele>
        <time>2014-02-20T08:56:51Z</time>
      </trkpt>
      <trkpt lat="43.07443" lon="2.7399">
        <ele>162.6</ele>
        <time>2014-02-20T08:56:57Z</time>
      </trkpt>
      <trkpt lat="43.07429" lon="2.74002">
        <ele>162.6</ele>
        <time>2014-02-20T08:57:11Z</time>
      </trkpt>
      <trkpt lat="43.07427" lon="2.74003">
        <ele>163.08</ele>
        <time>2014-02-20T08:57:13Z</time>
      </trkpt>
      <trkpt lat="43.07421" lon="2.74008">
        <ele>163.08</ele>
        <time>2014-02-20T08:57:19Z</time>
      </trkpt>
      <trkpt lat="43.07417" lon="2.7401">
        <ele>163.08</ele>
        <time>2014-02-20T08:57:23Z</time>
      </trkpt>
      <trkpt lat="43.0741" lon="2.74015">
        <ele>163.56</ele>
        <time>2014-02-20T08:57:30Z</time>
      </trkpt>
      <trkpt lat="43.07405" lon="2.74016">
        <ele>164.52</ele>
        <time>2014-02-20T08:57:35Z</time>
      </trkpt>
      <trkpt lat="43.07393" lon="2.74029">
        <ele>164.52</ele>
        <time>2014-02-20T08:57:49Z</time>
      </trkpt>
      <trkpt lat="43.07388" lon="2.74042">
        <ele>164.52</ele>
        <time>2014-02-20T08:58:00Z</time>
      </trkpt>
      <trkpt lat="43.07388" lon="2.74047">
        <ele>165</ele>
        <time>2014-02-20T08:58:03Z</time>
      </trkpt>
      <trkpt lat="43.07392" lon="2.74066">
        <ele>165.48</ele>
        <time>2014-02-20T08:58:18Z</time>
      </trkpt>
      <trkpt lat="43.07395" lon="2.74084">
        <ele>166.93</ele>
        <time>2014-02-20T08:58:31Z</time>
      </trkpt>
      <trkpt lat="43.07394" lon="2.74104">
        <ele>169.81</ele>
        <time>2014-02-20T08:58:45Z</time>
      </trkpt>
      <trkpt lat="43.07402" lon="2.74116">
        <ele>172.69</ele>
        <time>2014-02-20T08:58:59Z</time>
      </trkpt>
      <trkpt lat="43.07402" lon="2.74117">
        <ele>172.69</ele>
        <time>2014-02-20T08:59:00Z</time>
      </trkpt>
      <trkpt lat="43.07404" lon="2.74122">
        <ele>173.66</ele>
        <time>2014-02-20T08:59:04Z</time>
      </trkpt>
      <trkpt lat="43.07408" lon="2.74134">
        <ele>175.1</ele>
        <time>2014-02-20T08:59:15Z</time>
      </trkpt>
      <trkpt lat="43.07415" lon="2.74144">
        <ele>176.06</ele>
        <time>2014-02-20T08:59:24Z</time>
      </trkpt>
      <trkpt lat="43.0742" lon="2.74165">
        <ele>177.5</ele>
        <time>2014-02-20T08:59:39Z</time>
      </trkpt>
      <trkpt lat="43.07418" lon="2.74175">
        <ele>178.46</ele>
        <time>2014-02-20T08:59:46Z</time>
      </trkpt>
      <trkpt lat="43.07419" lon="2.74183">
        <ele>179.42</ele>
        <time>2014-02-20T08:59:52Z</time>
      </trkpt>
      <trkpt lat="43.07424" lon="2.742">
        <ele>179.9</ele>
        <time>2014-02-20T09:00:04Z</time>
      </trkpt>
      <trkpt lat="43.07424" lon="2.74208">
        <ele>180.38</ele>
        <time>2014-02-20T09:00:09Z</time>
      </trkpt>
      <trkpt lat="43.0742" lon="2.74228">
        <ele>181.83</ele>
        <time>2014-02-20T09:00:22Z</time>
      </trkpt>
      <trkpt lat="43.07419" lon="2.74245">
        <ele>183.27</ele>
        <time>2014-02-20T09:00:35Z</time>
      </trkpt>
      <trkpt lat="43.07419" lon="2.74249">
        <ele>183.75</ele>
        <time>2014-02-20T09:00:38Z</time>
      </trkpt>
      <trkpt lat="43.07423" lon="2.74267">
        <ele>184.71</ele>
        <time>2014-02-20T09:00:50Z</time>
      </trkpt>
      <trkpt lat="43.07424" lon="2.74276">
        <ele>186.63</ele>
        <time>2014-02-20T09:00:59Z</time>
      </trkpt>
      <trkpt lat="43.07424" lon="2.74293">
        <ele>188.56</ele>
        <time>2014-02-20T09:01:10Z</time>
      </trkpt>
      <trkpt lat="43.07428" lon="2.74309">
        <ele>189.52</ele>
        <time>2014-02-20T09:01:22Z</time>
      </trkpt>
      <trkpt lat="43.07431" lon="2.74314">
        <ele>190</ele>
        <time>2014-02-20T09:01:26Z</time>
      </trkpt>
      <trkpt lat="43.07431" lon="2.74329">
        <ele>191.92</ele>
        <time>2014-02-20T09:01:39Z</time>
      </trkpt>
      <trkpt lat="43.07426" lon="2.74348">
        <ele>194.8</ele>
        <time>2014-02-20T09:01:53Z</time>
      </trkpt>
      <trkpt lat="43.07427" lon="2.74365">
        <ele>196.73</ele>
        <time>2014-02-20T09:02:07Z</time>
      </trkpt>
      <trkpt lat="43.07428" lon="2.74383">
        <ele>198.65</ele>
        <time>2014-02-20T09:02:21Z</time>
      </trkpt>
      <trkpt lat="43.07422" lon="2.74399">
        <ele>201.53</ele>
        <time>2014-02-20T09:02:36Z</time>
      </trkpt>
      <trkpt lat="43.0742" lon="2.74406">
        <ele>202.98</ele>
        <time>2014-02-20T09:02:52Z</time>
      </trkpt>
      <trkpt lat="43.0742" lon="2.74408">
        <ele>203.46</ele>
        <time>2014-02-20T09:03:13Z</time>
      </trkpt>
      <trkpt lat="43.07418" lon="2.74411">
        <ele>203.46</ele>
        <time>2014-02-20T09:03:34Z</time>
      </trkpt>
      <trkpt lat="43.07418" lon="2.74427">
        <ele>206.82</ele>
        <time>2014-02-20T09:03:50Z</time>
      </trkpt>
      <trkpt lat="43.07419" lon="2.74442">
        <ele>209.7</ele>
        <time>2014-02-20T09:04:03Z</time>
      </trkpt>
      <trkpt lat="43.07419" lon="2.74456">
        <ele>212.11</ele>
        <time>2014-02-20T09:04:17Z</time>
      </trkpt>
      <trkpt lat="43.07418" lon="2.7447">
        <ele>214.51</ele>
        <time>2014-02-20T09:04:30Z</time>
      </trkpt>
      <trkpt lat="43.07417" lon="2.74487">
        <ele>216.43</ele>
        <time>2014-02-20T09:04:46Z</time>
      </trkpt>
      <trkpt lat="43.07418" lon="2.74489">
        <ele>216.43</ele>
        <time>2014-02-20T09:05:05Z</time>
      </trkpt>
      <trkpt lat="43.07419" lon="2.74478">
        <ele>214.99</ele>
        <time>2014-02-20T09:05:19Z</time>
      </trkpt>
      <trkpt lat="43.0742" lon="2.74459">
        <ele>211.63</ele>
        <time>2014-02-20T09:05:31Z</time>
      </trkpt>
      <trkpt lat="43.07421" lon="2.74444">
        <ele>208.26</ele>
        <time>2014-02-20T09:05:43Z</time>
      </trkpt>
      <trkpt lat="43.07421" lon="2.7443">
        <ele>206.34</ele>
        <time>2014-02-20T09:05:52Z</time>
      </trkpt>
      <trkpt lat="43.07421" lon="2.74412">
        <ele>202.98</ele>
        <time>2014-02-20T09:06:06Z</time>
      </trkpt>
      <trkpt lat="43.07426" lon="2.7441">
        <ele>202.98</ele>
        <time>2014-02-20T09:06:18Z</time>
      </trkpt>
      <trkpt lat="43.07434" lon="2.74411">
        <ele>203.94</ele>
        <time>2014-02-20T09:06:30Z</time>
      </trkpt>
      <trkpt lat="43.07438" lon="2.74416">
        <ele>203.46</ele>
        <time>2014-02-20T09:06:43Z</time>
      </trkpt>
      <trkpt lat="43.07444" lon="2.74424">
        <ele>203.94</ele>
        <time>2014-02-20T09:06:57Z</time>
      </trkpt>
      <trkpt lat="43.07448" lon="2.74434">
        <ele>204.9</ele>
        <time>2014-02-20T09:07:03Z</time>
      </trkpt>
      <trkpt lat="43.07452" lon="2.74445">
        <ele>204.42</ele>
        <time>2014-02-20T09:07:16Z</time>
      </trkpt>
      <trkpt lat="43.07456" lon="2.74455">
        <ele>203.94</ele>
        <time>2014-02-20T09:07:28Z</time>
      </trkpt>
      <trkpt lat="43.07461" lon="2.74461">
        <ele>203.94</ele>
        <time>2014-02-20T09:07:41Z</time>
      </trkpt>
      <trkpt lat="43.07464" lon="2.74467">
        <ele>202.01</ele>
        <time>2014-02-20T09:07:55Z</time>
      </trkpt>
      <trkpt lat="43.07469" lon="2.74469">
        <ele>202.01</ele>
        <time>2014-02-20T09:08:06Z</time>
      </trkpt>
      <trkpt lat="43.07475" lon="2.74471">
        <ele>200.57</ele>
        <time>2014-02-20T09:08:19Z</time>
      </trkpt>
      <trkpt lat="43.0748" lon="2.74476">
        <ele>200.09</ele>
        <time>2014-02-20T09:08:29Z</time>
      </trkpt>
      <trkpt lat="43.07485" lon="2.74479">
        <ele>199.13</ele>
        <time>2014-02-20T09:08:44Z</time>
      </trkpt>
      <trkpt lat="43.07489" lon="2.7448">
        <ele>196.73</ele>
        <time>2014-02-20T09:08:56Z</time>
      </trkpt>
      <trkpt lat="43.07493" lon="2.74479">
        <ele>195.28</ele>
        <time>2014-02-20T09:09:12Z</time>
      </trkpt>
      <trkpt lat="43.07494" lon="2.74481">
        <ele>194.8</ele>
        <time>2014-02-20T09:09:29Z</time>
      </trkpt>
      <trkpt lat="43.07497" lon="2.74483">
        <ele>193.84</ele>
        <time>2014-02-20T09:09:43Z</time>
      </trkpt>
      <trkpt lat="43.07499" lon="2.74484">
        <ele>193.36</ele>
        <time>2014-02-20T09:10:04Z</time>
      </trkpt>
      <trkpt lat="43.075" lon="2.74485">
        <ele>192.88</ele>
        <time>2014-02-20T09:10:27Z</time>
      </trkpt>
      <trkpt lat="43.07501" lon="2.74486">
        <ele>184.71</ele>
        <time>2014-02-20T09:10:47Z</time>
      </trkpt>
      <trkpt lat="43.07501" lon="2.74486">
        <ele>190</ele>
        <time>2014-02-20T09:10:48Z</time>
      </trkpt>
      <trkpt lat="43.07502" lon="2.74487">
        <ele>196.73</ele>
        <time>2014-02-20T09:10:50Z</time>
      </trkpt>
      <trkpt lat="43.07502" lon="2.74487">
        <ele>192.4</ele>
        <time>2014-02-20T09:10:51Z</time>
      </trkpt>
      <trkpt lat="43.07506" lon="2.7449">
        <ele>195.77</ele>
        <time>2014-02-20T09:11:00Z</time>
      </trkpt>
      <trkpt lat="43.07509" lon="2.7449">
        <ele>194.8</ele>
        <time>2014-02-20T09:11:14Z</time>
      </trkpt>
      <trkpt lat="43.07508" lon="2.74489">
        <ele>194.8</ele>
        <time>2014-02-20T09:11:29Z</time>
      </trkpt>
      <trkpt lat="43.07509" lon="2.7449">
        <ele>194.8</ele>
        <time>2014-02-20T09:11:45Z</time>
      </trkpt>
      <trkpt lat="43.07509" lon="2.74492">
        <ele>195.28</ele>
        <time>2014-02-20T09:12:00Z</time>
      </trkpt>
      <trkpt lat="43.07509" lon="2.74492">
        <ele>194.8</ele>
        <time>2014-02-20T09:12:25Z</time>
      </trkpt>
      <trkpt lat="43.0751" lon="2.74493">
        <ele>196.25</ele>
        <time>2014-02-20T09:12:39Z</time>
      </trkpt>
      <trkpt lat="43.0751" lon="2.74495">
        <ele>198.17</ele>
        <time>2014-02-20T09:12:45Z</time>
      </trkpt>
      <trkpt lat="43.07518" lon="2.74498">
        <ele>198.65</ele>
        <time>2014-02-20T09:13:01Z</time>
      </trkpt>
      <trkpt lat="43.07524" lon="2.74499">
        <ele>199.61</ele>
        <time>2014-02-20T09:13:17Z</time>
      </trkpt>
      <trkpt lat="43.07527" lon="2.74503">
        <ele>200.09</ele>
        <time>2014-02-20T09:13:38Z</time>
      </trkpt>
      <trkpt lat="43.07538" lon="2.74503">
        <ele>201.05</ele>
        <time>2014-02-20T09:13:56Z</time>
      </trkpt>
      <trkpt lat="43.07539" lon="2.74505">
        <ele>204.42</ele>
        <time>2014-02-20T09:14:06Z</time>
      </trkpt>
      <trkpt lat="43.07543" lon="2.74509">
        <ele>203.46</ele>
        <time>2014-02-20T09:14:21Z</time>
      </trkpt>
      <trkpt lat="43.07543" lon="2.74509">
        <ele>196.73</ele>
        <time>2014-02-20T09:14:24Z</time>
      </trkpt>
      <trkpt lat="43.07543" lon="2.74509">
        <ele>206.34</ele>
        <time>2014-02-20T09:14:25Z</time>
      </trkpt>
      <trkpt lat="43.07545" lon="2.74513">
        <ele>206.34</ele>
        <time>2014-02-20T09:14:41Z</time>
      </trkpt>
      <trkpt lat="43.07551" lon="2.74509">
        <ele>205.38</ele>
        <time>2014-02-20T09:14:55Z</time>
      </trkpt>
      <trkpt lat="43.07552" lon="2.74509">
        <ele>205.38</ele>
        <time>2014-02-20T09:15:17Z</time>
      </trkpt>
      <trkpt lat="43.07553" lon="2.74509">
        <ele>205.86</ele>
        <time>2014-02-20T09:15:39Z</time>
      </trkpt>
      <trkpt lat="43.07554" lon="2.74506">
        <ele>202.98</ele>
        <time>2014-02-20T09:15:57Z</time>
      </trkpt>
      <trkpt lat="43.07557" lon="2.74502">
        <ele>203.46</ele>
        <time>2014-02-20T09:16:04Z</time>
      </trkpt>
      <trkpt lat="43.0756" lon="2.74494">
        <ele>201.53</ele>
        <time>2014-02-20T09:16:12Z</time>
      </trkpt>
      <trkpt lat="43.07558" lon="2.74482">
        <ele>199.13</ele>
        <time>2014-02-20T09:16:26Z</time>
      </trkpt>
      <trkpt lat="43.07559" lon="2.74482">
        <ele>198.65</ele>
        <time>2014-02-20T09:16:47Z</time>
      </trkpt>
      <trkpt lat="43.07561" lon="2.74477">
        <ele>198.17</ele>
        <time>2014-02-20T09:17:00Z</time>
      </trkpt>
      <trkpt lat="43.07568" lon="2.74465">
        <ele>196.73</ele>
        <time>2014-02-20T09:17:14Z</time>
      </trkpt>
      <trkpt lat="43.07569" lon="2.74465">
        <ele>196.73</ele>
        <time>2014-02-20T09:17:15Z</time>
      </trkpt>
      <trkpt lat="43.07572" lon="2.7446">
        <ele>197.21</ele>
        <time>2014-02-20T09:17:30Z</time>
      </trkpt>
      <trkpt lat="43.07572" lon="2.74459">
        <ele>195.77</ele>
        <time>2014-02-20T09:17:43Z</time>
      </trkpt>
      <trkpt lat="43.07572" lon="2.74458">
        <ele>196.25</ele>
        <time>2014-02-20T09:18:04Z</time>
      </trkpt>
      <trkpt lat="43.07572" lon="2.74459">
        <ele>201.05</ele>
        <time>2014-02-20T09:18:18Z</time>
      </trkpt>
      <trkpt lat="43.07572" lon="2.74459">
        <ele>196.73</ele>
        <time>2014-02-20T09:18:19Z</time>
      </trkpt>
      <trkpt lat="43.07572" lon="2.74458">
        <ele>186.15</ele>
        <time>2014-02-20T09:18:22Z</time>
      </trkpt>
      <trkpt lat="43.07572" lon="2.74458">
        <ele>195.77</ele>
        <time>2014-02-20T09:18:23Z</time>
      </trkpt>
      <trkpt lat="43.07572" lon="2.74458">
        <ele>202.49</ele>
        <time>2014-02-20T09:18:26Z</time>
      </trkpt>
      <trkpt lat="43.07572" lon="2.74458">
        <ele>193.84</ele>
        <time>2014-02-20T09:18:27Z</time>
      </trkpt>
      <trkpt lat="43.07572" lon="2.74458">
        <ele>202.49</ele>
        <time>2014-02-20T09:18:28Z</time>
      </trkpt>
      <trkpt lat="43.07572" lon="2.74458">
        <ele>195.77</ele>
        <time>2014-02-20T09:18:30Z</time>
      </trkpt>
      <trkpt lat="43.07572" lon="2.74458">
        <ele>195.77</ele>
        <time>2014-02-20T09:18:31Z</time>
      </trkpt>
      <trkpt lat="43.07571" lon="2.74458">
        <ele>190.48</ele>
        <time>2014-02-20T09:18:36Z</time>
      </trkpt>
      <trkpt lat="43.07571" lon="2.74458">
        <ele>205.86</ele>
        <time>2014-02-20T09:18:37Z</time>
      </trkpt>
      <trkpt lat="43.07572" lon="2.74458">
        <ele>197.21</ele>
        <time>2014-02-20T09:18:38Z</time>
      </trkpt>
      <trkpt lat="43.07572" lon="2.74458">
        <ele>195.77</ele>
        <time>2014-02-20T09:18:41Z</time>
      </trkpt>
      <trkpt lat="43.07572" lon="2.74458">
        <ele>184.23</ele>
        <time>2014-02-20T09:18:43Z</time>
      </trkpt>
      <trkpt lat="43.07572" lon="2.74458">
        <ele>201.53</ele>
        <time>2014-02-20T09:18:44Z</time>
      </trkpt>
      <trkpt lat="43.07572" lon="2.74458">
        <ele>196.73</ele>
        <time>2014-02-20T09:18:45Z</time>
      </trkpt>
      <trkpt lat="43.07572" lon="2.74458">
        <ele>203.46</ele>
        <time>2014-02-20T09:18:46Z</time>
      </trkpt>
      <trkpt lat="43.07572" lon="2.74458">
        <ele>198.65</ele>
        <time>2014-02-20T09:18:47Z</time>
      </trkpt>
      <trkpt lat="43.07572" lon="2.74458">
        <ele>189.52</ele>
        <time>2014-02-20T09:18:49Z</time>
      </trkpt>
      <trkpt lat="43.07572" lon="2.74458">
        <ele>201.05</ele>
        <time>2014-02-20T09:18:50Z</time>
      </trkpt>
      <trkpt lat="43.07572" lon="2.74458">
        <ele>192.4</ele>
        <time>2014-02-20T09:18:51Z</time>
      </trkpt>
      <trkpt lat="43.07572" lon="2.74458">
        <ele>190.96</ele>
        <time>2014-02-20T09:18:53Z</time>
      </trkpt>
      <trkpt lat="43.07572" lon="2.74459">
        <ele>197.21</ele>
        <time>2014-02-20T09:18:55Z</time>
      </trkpt>
      <trkpt lat="43.07572" lon="2.74459">
        <ele>195.77</ele>
        <time>2014-02-20T09:18:56Z</time>
      </trkpt>
      <trkpt lat="43.07572" lon="2.74459">
        <ele>186.15</ele>
        <time>2014-02-20T09:18:58Z</time>
      </trkpt>
      <trkpt lat="43.07572" lon="2.74459">
        <ele>190.96</ele>
        <time>2014-02-20T09:18:59Z</time>
      </trkpt>
      <trkpt lat="43.07572" lon="2.74459">
        <ele>196.73</ele>
        <time>2014-02-20T09:19:00Z</time>
      </trkpt>
      <trkpt lat="43.07572" lon="2.74458">
        <ele>196.25</ele>
        <time>2014-02-20T09:19:01Z</time>
      </trkpt>
      <trkpt lat="43.07572" lon="2.74458">
        <ele>185.19</ele>
        <time>2014-02-20T09:19:24Z</time>
      </trkpt>
      <trkpt lat="43.07572" lon="2.74458">
        <ele>194.32</ele>
        <time>2014-02-20T09:19:25Z</time>
      </trkpt>
      <trkpt lat="43.07573" lon="2.74459">
        <ele>201.53</ele>
        <time>2014-02-20T09:19:27Z</time>
      </trkpt>
      <trkpt lat="43.07573" lon="2.74459">
        <ele>194.32</ele>
        <time>2014-02-20T09:19:28Z</time>
      </trkpt>
      <trkpt lat="43.07573" lon="2.74459">
        <ele>201.05</ele>
        <time>2014-02-20T09:19:29Z</time>
      </trkpt>
      <trkpt lat="43.07573" lon="2.74459">
        <ele>193.84</ele>
        <time>2014-02-20T09:19:30Z</time>
      </trkpt>
      <trkpt lat="43.07573" lon="2.74459">
        <ele>201.05</ele>
        <time>2014-02-20T09:19:32Z</time>
      </trkpt>
      <trkpt lat="43.07573" lon="2.74459">
        <ele>196.25</ele>
        <time>2014-02-20T09:19:33Z</time>
      </trkpt>
      <trkpt lat="43.07574" lon="2.74459">
        <ele>194.32</ele>
        <time>2014-02-20T09:19:59Z</time>
      </trkpt>
      <trkpt lat="43.07574" lon="2.74459">
        <ele>197.21</ele>
        <time>2014-02-20T09:20:01Z</time>
      </trkpt>
      <trkpt lat="43.07574" lon="2.74459">
        <ele>202.49</ele>
        <time>2014-02-20T09:20:03Z</time>
      </trkpt>
      <trkpt lat="43.07574" lon="2.74459">
        <ele>195.77</ele>
        <time>2014-02-20T09:20:04Z</time>
      </trkpt>
      <trkpt lat="43.07574" lon="2.74459">
        <ele>184.23</ele>
        <time>2014-02-20T09:20:07Z</time>
      </trkpt>
      <trkpt lat="43.07574" lon="2.74459">
        <ele>196.25</ele>
        <time>2014-02-20T09:20:08Z</time>
      </trkpt>
      <trkpt lat="43.07574" lon="2.74459">
        <ele>200.09</ele>
        <time>2014-02-20T09:20:10Z</time>
      </trkpt>
      <trkpt lat="43.07574" lon="2.74459">
        <ele>196.73</ele>
        <time>2014-02-20T09:20:11Z</time>
      </trkpt>
      <trkpt lat="43.07574" lon="2.74459">
        <ele>202.49</ele>
        <time>2014-02-20T09:20:17Z</time>
      </trkpt>
      <trkpt lat="43.07574" lon="2.74459">
        <ele>196.73</ele>
        <time>2014-02-20T09:20:19Z</time>
      </trkpt>
      <trkpt lat="43.07574" lon="2.74459">
        <ele>204.9</ele>
        <time>2014-02-20T09:20:20Z</time>
      </trkpt>
      <trkpt lat="43.07574" lon="2.74459">
        <ele>196.73</ele>
        <time>2014-02-20T09:20:21Z</time>
      </trkpt>
      <trkpt lat="43.07574" lon="2.74458">
        <ele>196.25</ele>
        <time>2014-02-20T09:20:23Z</time>
      </trkpt>
      <trkpt lat="43.07574" lon="2.74458">
        <ele>196.73</ele>
        <time>2014-02-20T09:20:48Z</time>
      </trkpt>
      <trkpt lat="43.07574" lon="2.74458">
        <ele>200.09</ele>
        <time>2014-02-20T09:20:56Z</time>
      </trkpt>
      <trkpt lat="43.07574" lon="2.74458">
        <ele>196.25</ele>
        <time>2014-02-20T09:20:57Z</time>
      </trkpt>
      <trkpt lat="43.07574" lon="2.74458">
        <ele>196.73</ele>
        <time>2014-02-20T09:21:20Z</time>
      </trkpt>
      <trkpt lat="43.07574" lon="2.74458">
        <ele>195.77</ele>
        <time>2014-02-20T09:21:40Z</time>
      </trkpt>
      <trkpt lat="43.07573" lon="2.74458">
        <ele>192.4</ele>
        <time>2014-02-20T09:22:01Z</time>
      </trkpt>
      <trkpt lat="43.07573" lon="2.74458">
        <ele>198.17</ele>
        <time>2014-02-20T09:22:02Z</time>
      </trkpt>
      <trkpt lat="43.07575" lon="2.74452">
        <ele>194.8</ele>
        <time>2014-02-20T09:22:12Z</time>
      </trkpt>
      <trkpt lat="43.07583" lon="2.74445">
        <ele>192.88</ele>
        <time>2014-02-20T09:22:25Z</time>
      </trkpt>
      <trkpt lat="43.07587" lon="2.7444">
        <ele>189.52</ele>
        <time>2014-02-20T09:22:38Z</time>
      </trkpt>
      <trkpt lat="43.076" lon="2.74423">
        <ele>187.59</ele>
        <time>2014-02-20T09:22:53Z</time>
      </trkpt>
      <trkpt lat="43.07605" lon="2.74412">
        <ele>186.15</ele>
        <time>2014-02-20T09:23:06Z</time>
      </trkpt>
      <trkpt lat="43.07612" lon="2.74402">
        <ele>183.75</ele>
        <time>2014-02-20T09:23:20Z</time>
      </trkpt>
      <trkpt lat="43.07618" lon="2.74389">
        <ele>180.87</ele>
        <time>2014-02-20T09:23:34Z</time>
      </trkpt>
      <trkpt lat="43.07618" lon="2.7438">
        <ele>179.42</ele>
        <time>2014-02-20T09:23:49Z</time>
      </trkpt>
      <trkpt lat="43.07617" lon="2.74366">
        <ele>177.98</ele>
        <time>2014-02-20T09:24:03Z</time>
      </trkpt>
      <trkpt lat="43.07615" lon="2.74358">
        <ele>177.02</ele>
        <time>2014-02-20T09:24:14Z</time>
      </trkpt>
      <trkpt lat="43.07608" lon="2.74349">
        <ele>177.5</ele>
        <time>2014-02-20T09:24:28Z</time>
      </trkpt>
      <trkpt lat="43.07608" lon="2.74347">
        <ele>176.54</ele>
        <time>2014-02-20T09:24:46Z</time>
      </trkpt>
      <trkpt lat="43.07608" lon="2.74347">
        <ele>133.76</ele>
        <time>2014-02-20T09:24:52Z</time>
      </trkpt>
      <trkpt lat="43.07608" lon="2.74347">
        <ele>189.52</ele>
        <time>2014-02-20T09:24:53Z</time>
      </trkpt>
      <trkpt lat="43.07608" lon="2.74347">
        <ele>177.02</ele>
        <time>2014-02-20T09:24:54Z</time>
      </trkpt>
      <trkpt lat="43.07607" lon="2.74342">
        <ele>176.06</ele>
        <time>2014-02-20T09:24:57Z</time>
      </trkpt>
      <trkpt lat="43.07609" lon="2.74335">
        <ele>174.62</ele>
        <time>2014-02-20T09:25:03Z</time>
      </trkpt>
      <trkpt lat="43.07608" lon="2.74324">
        <ele>173.66</ele>
        <time>2014-02-20T09:25:15Z</time>
      </trkpt>
      <trkpt lat="43.0761" lon="2.7432">
        <ele>171.25</ele>
        <time>2014-02-20T09:25:30Z</time>
      </trkpt>
      <trkpt lat="43.0761" lon="2.74317">
        <ele>169.81</ele>
        <time>2014-02-20T09:25:42Z</time>
      </trkpt>
      <trkpt lat="43.07611" lon="2.74313">
        <ele>168.37</ele>
        <time>2014-02-20T09:25:45Z</time>
      </trkpt>
      <trkpt lat="43.07612" lon="2.74308">
        <ele>167.89</ele>
        <time>2014-02-20T09:25:58Z</time>
      </trkpt>
      <trkpt lat="43.07615" lon="2.74308">
        <ele>167.89</ele>
        <time>2014-02-20T09:26:17Z</time>
      </trkpt>
      <trkpt lat="43.07619" lon="2.74304">
        <ele>166.93</ele>
        <time>2014-02-20T09:26:30Z</time>
      </trkpt>
      <trkpt lat="43.07621" lon="2.74305">
        <ele>168.85</ele>
        <time>2014-02-20T09:26:44Z</time>
      </trkpt>
      <trkpt lat="43.07627" lon="2.74309">
        <ele>170.77</ele>
        <time>2014-02-20T09:27:02Z</time>
      </trkpt>
      <trkpt lat="43.07635" lon="2.74312">
        <ele>171.25</ele>
        <time>2014-02-20T09:27:18Z</time>
      </trkpt>
      <trkpt lat="43.07645" lon="2.74312">
        <ele>171.25</ele>
        <time>2014-02-20T09:27:33Z</time>
      </trkpt>
      <trkpt lat="43.07648" lon="2.74304">
        <ele>171.73</ele>
        <time>2014-02-20T09:27:46Z</time>
      </trkpt>
      <trkpt lat="43.07647" lon="2.74286">
        <ele>171.73</ele>
        <time>2014-02-20T09:27:59Z</time>
      </trkpt>
      <trkpt lat="43.0765" lon="2.74271">
        <ele>172.69</ele>
        <time>2014-02-20T09:28:10Z</time>
      </trkpt>
      <trkpt lat="43.07656" lon="2.74258">
        <ele>174.14</ele>
        <time>2014-02-20T09:28:24Z</time>
      </trkpt>
      <trkpt lat="43.07664" lon="2.74246">
        <ele>174.14</ele>
        <time>2014-02-20T09:28:39Z</time>
      </trkpt>
      <trkpt lat="43.07664" lon="2.74238">
        <ele>172.69</ele>
        <time>2014-02-20T09:28:50Z</time>
      </trkpt>
      <trkpt lat="43.07668" lon="2.74223">
        <ele>171.73</ele>
        <time>2014-02-20T09:29:03Z</time>
      </trkpt>
      <trkpt lat="43.07674" lon="2.74223">
        <ele>171.73</ele>
        <time>2014-02-20T09:29:15Z</time>
      </trkpt>
      <trkpt lat="43.07677" lon="2.74216">
        <ele>170.77</ele>
        <time>2014-02-20T09:29:28Z</time>
      </trkpt>
      <trkpt lat="43.07682" lon="2.74215">
        <ele>170.29</ele>
        <time>2014-02-20T09:29:41Z</time>
      </trkpt>
      <trkpt lat="43.07696" lon="2.74211">
        <ele>169.81</ele>
        <time>2014-02-20T09:29:55Z</time>
      </trkpt>
      <trkpt lat="43.07703" lon="2.74207">
        <ele>169.81</ele>
        <time>2014-02-20T09:30:10Z</time>
      </trkpt>
      <trkpt lat="43.07704" lon="2.74196">
        <ele>168.37</ele>
        <time>2014-02-20T09:30:23Z</time>
      </trkpt>
      <trkpt lat="43.07706" lon="2.74194">
        <ele>168.85</ele>
        <time>2014-02-20T09:30:25Z</time>
      </trkpt>
      <trkpt lat="43.07708" lon="2.74194">
        <ele>168.37</ele>
        <time>2014-02-20T09:30:27Z</time>
      </trkpt>
      <trkpt lat="43.0771" lon="2.74197">
        <ele>168.85</ele>
        <time>2014-02-20T09:30:30Z</time>
      </trkpt>
      <trkpt lat="43.07718" lon="2.74213">
        <ele>170.29</ele>
        <time>2014-02-20T09:30:43Z</time>
      </trkpt>
      <trkpt lat="43.07725" lon="2.74231">
        <ele>171.25</ele>
        <time>2014-02-20T09:30:56Z</time>
      </trkpt>
      <trkpt lat="43.07728" lon="2.74237">
        <ele>172.69</ele>
        <time>2014-02-20T09:31:01Z</time>
      </trkpt>
      <trkpt lat="43.07739" lon="2.74246">
        <ele>173.17</ele>
        <time>2014-02-20T09:31:14Z</time>
      </trkpt>
      <trkpt lat="43.07748" lon="2.74244">
        <ele>174.14</ele>
        <time>2014-02-20T09:31:30Z</time>
      </trkpt>
      <trkpt lat="43.07758" lon="2.74241">
        <ele>176.06</ele>
        <time>2014-02-20T09:31:46Z</time>
      </trkpt>
      <trkpt lat="43.07767" lon="2.74247">
        <ele>177.02</ele>
        <time>2014-02-20T09:32:01Z</time>
      </trkpt>
      <trkpt lat="43.07767" lon="2.74246">
        <ele>171.73</ele>
        <time>2014-02-20T09:32:14Z</time>
      </trkpt>
      <trkpt lat="43.07767" lon="2.74245">
        <ele>179.42</ele>
        <time>2014-02-20T09:32:15Z</time>
      </trkpt>
      <trkpt lat="43.07767" lon="2.74244">
        <ele>177.98</ele>
        <time>2014-02-20T09:32:16Z</time>
      </trkpt>
      <trkpt lat="43.07767" lon="2.74244">
        <ele>176.54</ele>
        <time>2014-02-20T09:32:19Z</time>
      </trkpt>
      <trkpt lat="43.07768" lon="2.74243">
        <ele>177.5</ele>
        <time>2014-02-20T09:32:47Z</time>
      </trkpt>
      <trkpt lat="43.07767" lon="2.74243">
        <ele>176.54</ele>
        <time>2014-02-20T09:33:03Z</time>
      </trkpt>
      <trkpt lat="43.07768" lon="2.74243">
        <ele>176.06</ele>
        <time>2014-02-20T09:33:15Z</time>
      </trkpt>
      <trkpt lat="43.07768" lon="2.74243">
        <ele>176.06</ele>
        <time>2014-02-20T09:33:42Z</time>
      </trkpt>
      <trkpt lat="43.07767" lon="2.74244">
        <ele>176.06</ele>
        <time>2014-02-20T09:33:59Z</time>
      </trkpt>
      <trkpt lat="43.07765" lon="2.74244">
        <ele>175.58</ele>
        <time>2014-02-20T09:34:15Z</time>
      </trkpt>
      <trkpt lat="43.07765" lon="2.74244">
        <ele>176.06</ele>
        <time>2014-02-20T09:34:42Z</time>
      </trkpt>
      <trkpt lat="43.07763" lon="2.74241">
        <ele>176.54</ele>
        <time>2014-02-20T09:34:48Z</time>
      </trkpt>
      <trkpt lat="43.07763" lon="2.74242">
        <ele>176.54</ele>
        <time>2014-02-20T09:34:56Z</time>
      </trkpt>
      <trkpt lat="43.07764" lon="2.74243">
        <ele>176.54</ele>
        <time>2014-02-20T09:35:09Z</time>
      </trkpt>
      <trkpt lat="43.07764" lon="2.74243">
        <ele>173.66</ele>
        <time>2014-02-20T09:35:13Z</time>
      </trkpt>
      <trkpt lat="43.07764" lon="2.74243">
        <ele>177.98</ele>
        <time>2014-02-20T09:35:14Z</time>
      </trkpt>
      <trkpt lat="43.0776" lon="2.74242">
        <ele>175.58</ele>
        <time>2014-02-20T09:35:19Z</time>
      </trkpt>
      <trkpt lat="43.0775" lon="2.74245">
        <ele>174.14</ele>
        <time>2014-02-20T09:35:24Z</time>
      </trkpt>
      <trkpt lat="43.07735" lon="2.74244">
        <ele>172.21</ele>
        <time>2014-02-20T09:35:33Z</time>
      </trkpt>
      <trkpt lat="43.07727" lon="2.74225">
        <ele>171.25</ele>
        <time>2014-02-20T09:35:42Z</time>
      </trkpt>
      <trkpt lat="43.07711" lon="2.74195">
        <ele>168.85</ele>
        <time>2014-02-20T09:35:53Z</time>
      </trkpt>
      <trkpt lat="43.07701" lon="2.74173">
        <ele>167.41</ele>
        <time>2014-02-20T09:36:04Z</time>
      </trkpt>
      <trkpt lat="43.07699" lon="2.74166">
        <ele>166.93</ele>
        <time>2014-02-20T09:36:07Z</time>
      </trkpt>
      <trkpt lat="43.07698" lon="2.74161">
        <ele>166.93</ele>
        <time>2014-02-20T09:36:10Z</time>
      </trkpt>
      <trkpt lat="43.07696" lon="2.74153">
        <ele>165.48</ele>
        <time>2014-02-20T09:36:16Z</time>
      </trkpt>
      <trkpt lat="43.07694" lon="2.74139">
        <ele>164.52</ele>
        <time>2014-02-20T09:36:27Z</time>
      </trkpt>
      <trkpt lat="43.07694" lon="2.74138">
        <ele>164.52</ele>
        <time>2014-02-20T09:36:32Z</time>
      </trkpt>
      <trkpt lat="43.07691" lon="2.74126">
        <ele>164.52</ele>
        <time>2014-02-20T09:36:40Z</time>
      </trkpt>
      <trkpt lat="43.07688" lon="2.74118">
        <ele>164.04</ele>
        <time>2014-02-20T09:36:45Z</time>
      </trkpt>
      <trkpt lat="43.07683" lon="2.74096">
        <ele>162.6</ele>
        <time>2014-02-20T09:36:57Z</time>
      </trkpt>
      <trkpt lat="43.07681" lon="2.74077">
        <ele>162.6</ele>
        <time>2014-02-20T09:37:05Z</time>
      </trkpt>
      <trkpt lat="43.07672" lon="2.74051">
        <ele>161.64</ele>
        <time>2014-02-20T09:37:14Z</time>
      </trkpt>
      <trkpt lat="43.07666" lon="2.74027">
        <ele>161.64</ele>
        <time>2014-02-20T09:37:25Z</time>
      </trkpt>
      <trkpt lat="43.07662" lon="2.74016">
        <ele>161.64</ele>
        <time>2014-02-20T09:37:31Z</time>
      </trkpt>
      <trkpt lat="43.07655" lon="2.73999">
        <ele>160.2</ele>
        <time>2014-02-20T09:37:37Z</time>
      </trkpt>
      <trkpt lat="43.07642" lon="2.73973">
        <ele>158.75</ele>
        <time>2014-02-20T09:37:48Z</time>
      </trkpt>
      <trkpt lat="43.07637" lon="2.73972">
        <ele>158.27</ele>
        <time>2014-02-20T09:38:00Z</time>
      </trkpt>
      <trkpt lat="43.07639" lon="2.73972">
        <ele>158.75</ele>
        <time>2014-02-20T09:38:11Z</time>
      </trkpt>
      <trkpt lat="43.07639" lon="2.73973">
        <ele>158.27</ele>
        <time>2014-02-20T09:38:31Z</time>
      </trkpt>
      <trkpt lat="43.07639" lon="2.73973">
        <ele>157.79</ele>
        <time>2014-02-20T09:38:49Z</time>
      </trkpt>
      <trkpt lat="43.07639" lon="2.73974">
        <ele>157.79</ele>
        <time>2014-02-20T09:39:10Z</time>
      </trkpt>
      <trkpt lat="43.07639" lon="2.73974">
        <ele>158.75</ele>
        <time>2014-02-20T09:39:34Z</time>
      </trkpt>
      <trkpt lat="43.07639" lon="2.73975">
        <ele>158.75</ele>
        <time>2014-02-20T09:40:00Z</time>
      </trkpt>
      <trkpt lat="43.0764" lon="2.73974">
        <ele>158.27</ele>
        <time>2014-02-20T09:40:22Z</time>
      </trkpt>
      <trkpt lat="43.0764" lon="2.73974">
        <ele>158.27</ele>
        <time>2014-02-20T09:40:37Z</time>
      </trkpt>
      <trkpt lat="43.0764" lon="2.73973">
        <ele>154.43</ele>
        <time>2014-02-20T09:40:54Z</time>
      </trkpt>
      <trkpt lat="43.0764" lon="2.73973">
        <ele>158.75</ele>
        <time>2014-02-20T09:40:55Z</time>
      </trkpt>
      <trkpt lat="43.0764" lon="2.73974">
        <ele>158.27</ele>
        <time>2014-02-20T09:40:58Z</time>
      </trkpt>
      <trkpt lat="43.07641" lon="2.73974">
        <ele>153.95</ele>
        <time>2014-02-20T09:41:02Z</time>
      </trkpt>
      <trkpt lat="43.07641" lon="2.73974">
        <ele>159.24</ele>
        <time>2014-02-20T09:41:03Z</time>
      </trkpt>
      <trkpt lat="43.07641" lon="2.73974">
        <ele>158.75</ele>
        <time>2014-02-20T09:41:07Z</time>
      </trkpt>
      <trkpt lat="43.07641" lon="2.73972">
        <ele>158.75</ele>
        <time>2014-02-20T09:41:22Z</time>
      </trkpt>
      <trkpt lat="43.0764" lon="2.73972">
        <ele>158.27</ele>
        <time>2014-02-20T09:41:40Z</time>
      </trkpt>
      <trkpt lat="43.07639" lon="2.73973">
        <ele>158.27</ele>
        <time>2014-02-20T09:42:05Z</time>
      </trkpt>
      <trkpt lat="43.07641" lon="2.73973">
        <ele>158.27</ele>
        <time>2014-02-20T09:42:19Z</time>
      </trkpt>
      <trkpt lat="43.07646" lon="2.73981">
        <ele>159.24</ele>
        <time>2014-02-20T09:42:31Z</time>
      </trkpt>
      <trkpt lat="43.07646" lon="2.73981">
        <ele>158.75</ele>
        <time>2014-02-20T09:42:59Z</time>
      </trkpt>
      <trkpt lat="43.07648" lon="2.73983">
        <ele>159.24</ele>
        <time>2014-02-20T09:43:33Z</time>
      </trkpt>
      <trkpt lat="43.0765" lon="2.7399">
        <ele>160.2</ele>
        <time>2014-02-20T09:43:45Z</time>
      </trkpt>
      <trkpt lat="43.07655" lon="2.73999">
        <ele>160.68</ele>
        <time>2014-02-20T09:43:59Z</time>
      </trkpt>
      <trkpt lat="43.07662" lon="2.74012">
        <ele>161.64</ele>
        <time>2014-02-20T09:44:08Z</time>
      </trkpt>
      <trkpt lat="43.07667" lon="2.74026">
        <ele>162.12</ele>
        <time>2014-02-20T09:44:18Z</time>
      </trkpt>
      <trkpt lat="43.07672" lon="2.74042">
        <ele>162.12</ele>
        <time>2014-02-20T09:44:27Z</time>
      </trkpt>
      <trkpt lat="43.07674" lon="2.74055">
        <ele>162.12</ele>
        <time>2014-02-20T09:44:33Z</time>
      </trkpt>
      <trkpt lat="43.07681" lon="2.74078">
        <ele>162.12</ele>
        <time>2014-02-20T09:44:48Z</time>
      </trkpt>
      <trkpt lat="43.07689" lon="2.74099">
        <ele>162.6</ele>
        <time>2014-02-20T09:45:04Z</time>
      </trkpt>
      <trkpt lat="43.07689" lon="2.74109">
        <ele>163.56</ele>
        <time>2014-02-20T09:45:10Z</time>
      </trkpt>
      <trkpt lat="43.07693" lon="2.74128">
        <ele>164.52</ele>
        <time>2014-02-20T09:45:22Z</time>
      </trkpt>
      <trkpt lat="43.07694" lon="2.74132">
        <ele>164.52</ele>
        <time>2014-02-20T09:45:24Z</time>
      </trkpt>
      <trkpt lat="43.07695" lon="2.74135">
        <ele>165</ele>
        <time>2014-02-20T09:45:26Z</time>
      </trkpt>
      <trkpt lat="43.07695" lon="2.74149">
        <ele>165.96</ele>
        <time>2014-02-20T09:45:36Z</time>
      </trkpt>
      <trkpt lat="43.07701" lon="2.74166">
        <ele>167.41</ele>
        <time>2014-02-20T09:45:48Z</time>
      </trkpt>
      <trkpt lat="43.07706" lon="2.74174">
        <ele>167.89</ele>
        <time>2014-02-20T09:45:54Z</time>
      </trkpt>
      <trkpt lat="43.0771" lon="2.74186">
        <ele>168.37</ele>
        <time>2014-02-20T09:46:03Z</time>
      </trkpt>
      <trkpt lat="43.0772" lon="2.74205">
        <ele>170.29</ele>
        <time>2014-02-20T09:46:18Z</time>
      </trkpt>
      <trkpt lat="43.07728" lon="2.74222">
        <ele>172.21</ele>
        <time>2014-02-20T09:46:33Z</time>
      </trkpt>
      <trkpt lat="43.07736" lon="2.74233">
        <ele>173.17</ele>
        <time>2014-02-20T09:46:44Z</time>
      </trkpt>
      <trkpt lat="43.07747" lon="2.74232">
        <ele>173.66</ele>
        <time>2014-02-20T09:46:55Z</time>
      </trkpt>
      <trkpt lat="43.07761" lon="2.74231">
        <ele>176.54</ele>
        <time>2014-02-20T09:47:10Z</time>
      </trkpt>
      <trkpt lat="43.07764" lon="2.74232">
        <ele>177.02</ele>
        <time>2014-02-20T09:47:13Z</time>
      </trkpt>
      <trkpt lat="43.07771" lon="2.74243">
        <ele>178.46</ele>
        <time>2014-02-20T09:47:25Z</time>
      </trkpt>
      <trkpt lat="43.07772" lon="2.74254">
        <ele>179.42</ele>
        <time>2014-02-20T09:47:31Z</time>
      </trkpt>
      <trkpt lat="43.07776" lon="2.74278">
        <ele>179.9</ele>
        <time>2014-02-20T09:47:46Z</time>
      </trkpt>
      <trkpt lat="43.07776" lon="2.74297">
        <ele>180.38</ele>
        <time>2014-02-20T09:47:57Z</time>
      </trkpt>
      <trkpt lat="43.07782" lon="2.74321">
        <ele>181.83</ele>
        <time>2014-02-20T09:48:14Z</time>
      </trkpt>
      <trkpt lat="43.07782" lon="2.74322">
        <ele>181.83</ele>
        <time>2014-02-20T09:48:15Z</time>
      </trkpt>
      <trkpt lat="43.07787" lon="2.74323">
        <ele>184.23</ele>
        <time>2014-02-20T09:48:29Z</time>
      </trkpt>
      <trkpt lat="43.07793" lon="2.74309">
        <ele>186.15</ele>
        <time>2014-02-20T09:48:42Z</time>
      </trkpt>
      <trkpt lat="43.07803" lon="2.743">
        <ele>188.56</ele>
        <time>2014-02-20T09:48:56Z</time>
      </trkpt>
      <trkpt lat="43.07804" lon="2.74299">
        <ele>190</ele>
        <time>2014-02-20T09:48:59Z</time>
      </trkpt>
      <trkpt lat="43.07815" lon="2.74293">
        <ele>192.88</ele>
        <time>2014-02-20T09:49:12Z</time>
      </trkpt>
      <trkpt lat="43.07817" lon="2.74292">
        <ele>193.36</ele>
        <time>2014-02-20T09:49:14Z</time>
      </trkpt>
      <trkpt lat="43.07819" lon="2.74291">
        <ele>193.84</ele>
        <time>2014-02-20T09:49:17Z</time>
      </trkpt>
      <trkpt lat="43.07823" lon="2.74293">
        <ele>193.84</ele>
        <time>2014-02-20T09:49:19Z</time>
      </trkpt>
      <trkpt lat="43.07832" lon="2.743">
        <ele>196.25</ele>
        <time>2014-02-20T09:49:30Z</time>
      </trkpt>
      <trkpt lat="43.07842" lon="2.74306">
        <ele>197.21</ele>
        <time>2014-02-20T09:49:41Z</time>
      </trkpt>
      <trkpt lat="43.07854" lon="2.74316">
        <ele>198.65</ele>
        <time>2014-02-20T09:49:54Z</time>
      </trkpt>
      <trkpt lat="43.07864" lon="2.74327">
        <ele>199.61</ele>
        <time>2014-02-20T09:50:09Z</time>
      </trkpt>
      <trkpt lat="43.07878" lon="2.74331">
        <ele>202.49</ele>
        <time>2014-02-20T09:50:24Z</time>
      </trkpt>
      <trkpt lat="43.07889" lon="2.74336">
        <ele>204.42</ele>
        <time>2014-02-20T09:50:41Z</time>
      </trkpt>
      <trkpt lat="43.07899" lon="2.74341">
        <ele>208.26</ele>
        <time>2014-02-20T09:50:55Z</time>
      </trkpt>
      <trkpt lat="43.07906" lon="2.74344">
        <ele>211.15</ele>
        <time>2014-02-20T09:51:09Z</time>
      </trkpt>
      <trkpt lat="43.07912" lon="2.74347">
        <ele>214.03</ele>
        <time>2014-02-20T09:51:22Z</time>
      </trkpt>
      <trkpt lat="43.0792" lon="2.74353">
        <ele>216.43</ele>
        <time>2014-02-20T09:51:36Z</time>
      </trkpt>
      <trkpt lat="43.07927" lon="2.74355">
        <ele>219.8</ele>
        <time>2014-02-20T09:51:49Z</time>
      </trkpt>
      <trkpt lat="43.07935" lon="2.74362">
        <ele>221.72</ele>
        <time>2014-02-20T09:52:01Z</time>
      </trkpt>
      <trkpt lat="43.07944" lon="2.74369">
        <ele>224.12</ele>
        <time>2014-02-20T09:52:13Z</time>
      </trkpt>
      <trkpt lat="43.07953" lon="2.74381">
        <ele>227.49</ele>
        <time>2014-02-20T09:52:27Z</time>
      </trkpt>
      <trkpt lat="43.07961" lon="2.7439">
        <ele>229.41</ele>
        <time>2014-02-20T09:52:43Z</time>
      </trkpt>
      <trkpt lat="43.07965" lon="2.74402">
        <ele>231.81</ele>
        <time>2014-02-20T09:52:55Z</time>
      </trkpt>
      <trkpt lat="43.0797" lon="2.74412">
        <ele>234.22</ele>
        <time>2014-02-20T09:53:08Z</time>
      </trkpt>
      <trkpt lat="43.07976" lon="2.7442">
        <ele>236.14</ele>
        <time>2014-02-20T09:53:23Z</time>
      </trkpt>
      <trkpt lat="43.07983" lon="2.74428">
        <ele>238.06</ele>
        <time>2014-02-20T09:53:36Z</time>
      </trkpt>
      <trkpt lat="43.07985" lon="2.74429">
        <ele>239.51</ele>
        <time>2014-02-20T09:53:51Z</time>
      </trkpt>
      <trkpt lat="43.0799" lon="2.74435">
        <ele>241.43</ele>
        <time>2014-02-20T09:54:10Z</time>
      </trkpt>
      <trkpt lat="43.0799" lon="2.74438">
        <ele>241.91</ele>
        <time>2014-02-20T09:54:33Z</time>
      </trkpt>
      <trkpt lat="43.07993" lon="2.74441">
        <ele>242.87</ele>
        <time>2014-02-20T09:54:43Z</time>
      </trkpt>
      <trkpt lat="43.07996" lon="2.74443">
        <ele>245.75</ele>
        <time>2014-02-20T09:54:55Z</time>
      </trkpt>
      <trkpt lat="43.07999" lon="2.74446">
        <ele>247.2</ele>
        <time>2014-02-20T09:55:06Z</time>
      </trkpt>
      <trkpt lat="43.08001" lon="2.74453">
        <ele>249.12</ele>
        <time>2014-02-20T09:55:18Z</time>
      </trkpt>
      <trkpt lat="43.08007" lon="2.74464">
        <ele>251.52</ele>
        <time>2014-02-20T09:55:31Z</time>
      </trkpt>
      <trkpt lat="43.08012" lon="2.7447">
        <ele>252.96</ele>
        <time>2014-02-20T09:55:42Z</time>
      </trkpt>
      <trkpt lat="43.08014" lon="2.74481">
        <ele>254.89</ele>
        <time>2014-02-20T09:55:53Z</time>
      </trkpt>
      <trkpt lat="43.08017" lon="2.7449">
        <ele>256.81</ele>
        <time>2014-02-20T09:56:05Z</time>
      </trkpt>
      <trkpt lat="43.0802" lon="2.74492">
        <ele>258.25</ele>
        <time>2014-02-20T09:56:19Z</time>
      </trkpt>
      <trkpt lat="43.08027" lon="2.74497">
        <ele>260.17</ele>
        <time>2014-02-20T09:56:30Z</time>
      </trkpt>
      <trkpt lat="43.08031" lon="2.74501">
        <ele>262.58</ele>
        <time>2014-02-20T09:56:42Z</time>
      </trkpt>
      <trkpt lat="43.08036" lon="2.74507">
        <ele>264.5</ele>
        <time>2014-02-20T09:56:54Z</time>
      </trkpt>
      <trkpt lat="43.08042" lon="2.74511">
        <ele>266.42</ele>
        <time>2014-02-20T09:57:05Z</time>
      </trkpt>
      <trkpt lat="43.08048" lon="2.74522">
        <ele>268.35</ele>
        <time>2014-02-20T09:57:18Z</time>
      </trkpt>
      <trkpt lat="43.08052" lon="2.7453">
        <ele>270.27</ele>
        <time>2014-02-20T09:57:33Z</time>
      </trkpt>
      <trkpt lat="43.08055" lon="2.74538">
        <ele>272.67</ele>
        <time>2014-02-20T09:57:47Z</time>
      </trkpt>
      <trkpt lat="43.08057" lon="2.74543">
        <ele>273.63</ele>
        <time>2014-02-20T09:57:57Z</time>
      </trkpt>
      <trkpt lat="43.0806" lon="2.74547">
        <ele>275.56</ele>
        <time>2014-02-20T09:58:09Z</time>
      </trkpt>
      <trkpt lat="43.08064" lon="2.74555">
        <ele>277.48</ele>
        <time>2014-02-20T09:58:20Z</time>
      </trkpt>
      <trkpt lat="43.08068" lon="2.74558">
        <ele>278.44</ele>
        <time>2014-02-20T09:58:38Z</time>
      </trkpt>
      <trkpt lat="43.08075" lon="2.74563">
        <ele>279.88</ele>
        <time>2014-02-20T09:58:50Z</time>
      </trkpt>
      <trkpt lat="43.08079" lon="2.74567">
        <ele>280.84</ele>
        <time>2014-02-20T09:59:03Z</time>
      </trkpt>
      <trkpt lat="43.0808" lon="2.74567">
        <ele>280.84</ele>
        <time>2014-02-20T09:59:09Z</time>
      </trkpt>
      <trkpt lat="43.08081" lon="2.7457">
        <ele>281.32</ele>
        <time>2014-02-20T09:59:18Z</time>
      </trkpt>
      <trkpt lat="43.08081" lon="2.74569">
        <ele>281.32</ele>
        <time>2014-02-20T09:59:35Z</time>
      </trkpt>
      <trkpt lat="43.0808" lon="2.74568">
        <ele>281.32</ele>
        <time>2014-02-20T09:59:52Z</time>
      </trkpt>
      <trkpt lat="43.08081" lon="2.74567">
        <ele>281.32</ele>
        <time>2014-02-20T10:00:04Z</time>
      </trkpt>
      <trkpt lat="43.08087" lon="2.74573">
        <ele>281.8</ele>
        <time>2014-02-20T10:00:17Z</time>
      </trkpt>
      <trkpt lat="43.08087" lon="2.74576">
        <ele>281.8</ele>
        <time>2014-02-20T10:00:19Z</time>
      </trkpt>
      <trkpt lat="43.08084" lon="2.74583">
        <ele>281.8</ele>
        <time>2014-02-20T10:00:25Z</time>
      </trkpt>
      <trkpt lat="43.08076" lon="2.74604">
        <ele>282.77</ele>
        <time>2014-02-20T10:00:41Z</time>
      </trkpt>
      <trkpt lat="43.08075" lon="2.74608">
        <ele>282.77</ele>
        <time>2014-02-20T10:00:44Z</time>
      </trkpt>
      <trkpt lat="43.08077" lon="2.74616">
        <ele>282.77</ele>
        <time>2014-02-20T10:00:50Z</time>
      </trkpt>
      <trkpt lat="43.08078" lon="2.74623">
        <ele>282.28</ele>
        <time>2014-02-20T10:00:54Z</time>
      </trkpt>
      <trkpt lat="43.08071" lon="2.74648">
        <ele>281.8</ele>
        <time>2014-02-20T10:01:10Z</time>
      </trkpt>
      <trkpt lat="43.08066" lon="2.74659">
        <ele>282.28</ele>
        <time>2014-02-20T10:01:19Z</time>
      </trkpt>
      <trkpt lat="43.08063" lon="2.74672">
        <ele>281.8</ele>
        <time>2014-02-20T10:01:27Z</time>
      </trkpt>
      <trkpt lat="43.08045" lon="2.74689">
        <ele>282.77</ele>
        <time>2014-02-20T10:01:43Z</time>
      </trkpt>
      <trkpt lat="43.08027" lon="2.74703">
        <ele>282.77</ele>
        <time>2014-02-20T10:02:00Z</time>
      </trkpt>
      <trkpt lat="43.08021" lon="2.74705">
        <ele>281.8</ele>
        <time>2014-02-20T10:02:13Z</time>
      </trkpt>
      <trkpt lat="43.08018" lon="2.74712">
        <ele>282.28</ele>
        <time>2014-02-20T10:02:26Z</time>
      </trkpt>
      <trkpt lat="43.08017" lon="2.74707">
        <ele>281.8</ele>
        <time>2014-02-20T10:02:38Z</time>
      </trkpt>
      <trkpt lat="43.08015" lon="2.74706">
        <ele>281.8</ele>
        <time>2014-02-20T10:02:40Z</time>
      </trkpt>
      <trkpt lat="43.08" lon="2.74712">
        <ele>281.8</ele>
        <time>2014-02-20T10:02:55Z</time>
      </trkpt>
      <trkpt lat="43.07985" lon="2.74721">
        <ele>280.84</ele>
        <time>2014-02-20T10:03:09Z</time>
      </trkpt>
      <trkpt lat="43.07981" lon="2.74725">
        <ele>280.36</ele>
        <time>2014-02-20T10:03:14Z</time>
      </trkpt>
      <trkpt lat="43.07963" lon="2.74742">
        <ele>279.88</ele>
        <time>2014-02-20T10:03:32Z</time>
      </trkpt>
      <trkpt lat="43.0796" lon="2.74745">
        <ele>279.4</ele>
        <time>2014-02-20T10:03:35Z</time>
      </trkpt>
      <trkpt lat="43.07959" lon="2.74747">
        <ele>279.88</ele>
        <time>2014-02-20T10:03:37Z</time>
      </trkpt>
      <trkpt lat="43.07959" lon="2.7475">
        <ele>279.4</ele>
        <time>2014-02-20T10:03:39Z</time>
      </trkpt>
      <trkpt lat="43.07948" lon="2.74769">
        <ele>278.44</ele>
        <time>2014-02-20T10:03:55Z</time>
      </trkpt>
      <trkpt lat="43.07942" lon="2.74776">
        <ele>278.92</ele>
        <time>2014-02-20T10:04:09Z</time>
      </trkpt>
      <trkpt lat="43.07942" lon="2.74777">
        <ele>278.92</ele>
        <time>2014-02-20T10:04:11Z</time>
      </trkpt>
      <trkpt lat="43.07935" lon="2.7479">
        <ele>278.92</ele>
        <time>2014-02-20T10:04:21Z</time>
      </trkpt>
      <trkpt lat="43.0793" lon="2.74796">
        <ele>278.92</ele>
        <time>2014-02-20T10:04:26Z</time>
      </trkpt>
      <trkpt lat="43.07912" lon="2.74822">
        <ele>277.96</ele>
        <time>2014-02-20T10:04:48Z</time>
      </trkpt>
      <trkpt lat="43.07899" lon="2.74848">
        <ele>278.44</ele>
        <time>2014-02-20T10:05:06Z</time>
      </trkpt>
      <trkpt lat="43.07883" lon="2.74872">
        <ele>278.92</ele>
        <time>2014-02-20T10:05:24Z</time>
      </trkpt>
      <trkpt lat="43.07876" lon="2.74898">
        <ele>279.4</ele>
        <time>2014-02-20T10:05:41Z</time>
      </trkpt>
      <trkpt lat="43.07873" lon="2.74908">
        <ele>279.88</ele>
        <time>2014-02-20T10:05:48Z</time>
      </trkpt>
      <trkpt lat="43.07868" lon="2.74929">
        <ele>280.84</ele>
        <time>2014-02-20T10:06:02Z</time>
      </trkpt>
      <trkpt lat="43.0786" lon="2.74952">
        <ele>281.8</ele>
        <time>2014-02-20T10:06:17Z</time>
      </trkpt>
      <trkpt lat="43.07854" lon="2.74961">
        <ele>282.28</ele>
        <time>2014-02-20T10:06:24Z</time>
      </trkpt>
      <trkpt lat="43.0784" lon="2.7498">
        <ele>282.77</ele>
        <time>2014-02-20T10:06:40Z</time>
      </trkpt>
      <trkpt lat="43.07829" lon="2.75003">
        <ele>283.25</ele>
        <time>2014-02-20T10:06:56Z</time>
      </trkpt>
      <trkpt lat="43.07826" lon="2.75022">
        <ele>284.21</ele>
        <time>2014-02-20T10:07:09Z</time>
      </trkpt>
      <trkpt lat="43.07821" lon="2.75049">
        <ele>284.21</ele>
        <time>2014-02-20T10:07:26Z</time>
      </trkpt>
      <trkpt lat="43.07817" lon="2.75073">
        <ele>284.69</ele>
        <time>2014-02-20T10:07:40Z</time>
      </trkpt>
      <trkpt lat="43.07807" lon="2.75096">
        <ele>284.21</ele>
        <time>2014-02-20T10:07:55Z</time>
      </trkpt>
      <trkpt lat="43.07794" lon="2.75117">
        <ele>283.73</ele>
        <time>2014-02-20T10:08:10Z</time>
      </trkpt>
      <trkpt lat="43.0778" lon="2.7514">
        <ele>284.21</ele>
        <time>2014-02-20T10:08:27Z</time>
      </trkpt>
      <trkpt lat="43.0777" lon="2.75167">
        <ele>285.17</ele>
        <time>2014-02-20T10:08:45Z</time>
      </trkpt>
      <trkpt lat="43.0776" lon="2.75189">
        <ele>286.13</ele>
        <time>2014-02-20T10:09:00Z</time>
      </trkpt>
      <trkpt lat="43.07758" lon="2.75201">
        <ele>287.09</ele>
        <time>2014-02-20T10:09:08Z</time>
      </trkpt>
      <trkpt lat="43.07755" lon="2.75221">
        <ele>288.53</ele>
        <time>2014-02-20T10:09:21Z</time>
      </trkpt>
      <trkpt lat="43.07755" lon="2.75241">
        <ele>290.46</ele>
        <time>2014-02-20T10:09:34Z</time>
      </trkpt>
      <trkpt lat="43.07755" lon="2.75265">
        <ele>291.42</ele>
        <time>2014-02-20T10:09:49Z</time>
      </trkpt>
      <trkpt lat="43.07748" lon="2.75288">
        <ele>292.86</ele>
        <time>2014-02-20T10:10:04Z</time>
      </trkpt>
      <trkpt lat="43.07744" lon="2.75308">
        <ele>292.38</ele>
        <time>2014-02-20T10:10:16Z</time>
      </trkpt>
      <trkpt lat="43.07742" lon="2.75333">
        <ele>293.82</ele>
        <time>2014-02-20T10:10:31Z</time>
      </trkpt>
      <trkpt lat="43.07746" lon="2.75345">
        <ele>295.26</ele>
        <time>2014-02-20T10:10:43Z</time>
      </trkpt>
      <trkpt lat="43.07748" lon="2.75348">
        <ele>295.74</ele>
        <time>2014-02-20T10:10:46Z</time>
      </trkpt>
      <trkpt lat="43.07754" lon="2.7537">
        <ele>297.18</ele>
        <time>2014-02-20T10:11:01Z</time>
      </trkpt>
      <trkpt lat="43.07755" lon="2.75394">
        <ele>300.55</ele>
        <time>2014-02-20T10:11:16Z</time>
      </trkpt>
      <trkpt lat="43.07755" lon="2.75413">
        <ele>301.03</ele>
        <time>2014-02-20T10:11:29Z</time>
      </trkpt>
      <trkpt lat="43.07753" lon="2.75434">
        <ele>300.07</ele>
        <time>2014-02-20T10:11:43Z</time>
      </trkpt>
      <trkpt lat="43.07752" lon="2.75447">
        <ele>298.63</ele>
        <time>2014-02-20T10:11:50Z</time>
      </trkpt>
      <trkpt lat="43.0775" lon="2.75462">
        <ele>298.15</ele>
        <time>2014-02-20T10:12:00Z</time>
      </trkpt>
      <trkpt lat="43.07754" lon="2.75491">
        <ele>297.67</ele>
        <time>2014-02-20T10:12:17Z</time>
      </trkpt>
      <trkpt lat="43.07754" lon="2.75499">
        <ele>297.67</ele>
        <time>2014-02-20T10:12:22Z</time>
      </trkpt>
      <trkpt lat="43.07751" lon="2.75526">
        <ele>296.22</ele>
        <time>2014-02-20T10:12:37Z</time>
      </trkpt>
      <trkpt lat="43.07746" lon="2.75545">
        <ele>293.34</ele>
        <time>2014-02-20T10:12:49Z</time>
      </trkpt>
      <trkpt lat="43.07742" lon="2.75565">
        <ele>291.9</ele>
        <time>2014-02-20T10:13:00Z</time>
      </trkpt>
      <trkpt lat="43.07741" lon="2.75585">
        <ele>289.49</ele>
        <time>2014-02-20T10:13:12Z</time>
      </trkpt>
      <trkpt lat="43.07751" lon="2.75608">
        <ele>289.01</ele>
        <time>2014-02-20T10:13:26Z</time>
      </trkpt>
      <trkpt lat="43.07752" lon="2.75611">
        <ele>289.01</ele>
        <time>2014-02-20T10:13:28Z</time>
      </trkpt>
      <trkpt lat="43.07755" lon="2.75638">
        <ele>287.57</ele>
        <time>2014-02-20T10:13:43Z</time>
      </trkpt>
      <trkpt lat="43.07751" lon="2.75661">
        <ele>285.65</ele>
        <time>2014-02-20T10:13:56Z</time>
      </trkpt>
      <trkpt lat="43.07748" lon="2.75675">
        <ele>284.69</ele>
        <time>2014-02-20T10:14:09Z</time>
      </trkpt>
      <trkpt lat="43.07748" lon="2.75676">
        <ele>284.69</ele>
        <time>2014-02-20T10:14:33Z</time>
      </trkpt>
      <trkpt lat="43.07748" lon="2.75679">
        <ele>284.21</ele>
        <time>2014-02-20T10:14:35Z</time>
      </trkpt>
      <trkpt lat="43.07749" lon="2.75688">
        <ele>283.25</ele>
        <time>2014-02-20T10:14:40Z</time>
      </trkpt>
      <trkpt lat="43.07757" lon="2.75713">
        <ele>282.28</ele>
        <time>2014-02-20T10:14:54Z</time>
      </trkpt>
      <trkpt lat="43.07764" lon="2.75739">
        <ele>281.8</ele>
        <time>2014-02-20T10:15:08Z</time>
      </trkpt>
      <trkpt lat="43.07769" lon="2.75764">
        <ele>280.84</ele>
        <time>2014-02-20T10:15:21Z</time>
      </trkpt>
      <trkpt lat="43.07772" lon="2.75786">
        <ele>280.36</ele>
        <time>2014-02-20T10:15:33Z</time>
      </trkpt>
      <trkpt lat="43.07773" lon="2.75792">
        <ele>279.88</ele>
        <time>2014-02-20T10:15:36Z</time>
      </trkpt>
      <trkpt lat="43.07775" lon="2.758">
        <ele>279.88</ele>
        <time>2014-02-20T10:15:40Z</time>
      </trkpt>
      <trkpt lat="43.07778" lon="2.7583">
        <ele>278.92</ele>
        <time>2014-02-20T10:15:56Z</time>
      </trkpt>
      <trkpt lat="43.07777" lon="2.75839">
        <ele>278.44</ele>
        <time>2014-02-20T10:16:01Z</time>
      </trkpt>
      <trkpt lat="43.07777" lon="2.75845">
        <ele>277.48</ele>
        <time>2014-02-20T10:16:17Z</time>
      </trkpt>
      <trkpt lat="43.07777" lon="2.75849">
        <ele>276.04</ele>
        <time>2014-02-20T10:16:23Z</time>
      </trkpt>
      <trkpt lat="43.0777" lon="2.7587">
        <ele>272.67</ele>
        <time>2014-02-20T10:16:35Z</time>
      </trkpt>
      <trkpt lat="43.0776" lon="2.75894">
        <ele>271.23</ele>
        <time>2014-02-20T10:16:49Z</time>
      </trkpt>
      <trkpt lat="43.07745" lon="2.75916">
        <ele>268.83</ele>
        <time>2014-02-20T10:17:03Z</time>
      </trkpt>
      <trkpt lat="43.0773" lon="2.75938">
        <ele>267.38</ele>
        <time>2014-02-20T10:17:18Z</time>
      </trkpt>
      <trkpt lat="43.07718" lon="2.75963">
        <ele>265.94</ele>
        <time>2014-02-20T10:17:30Z</time>
      </trkpt>
      <trkpt lat="43.07719" lon="2.75988">
        <ele>264.5</ele>
        <time>2014-02-20T10:17:44Z</time>
      </trkpt>
      <trkpt lat="43.07726" lon="2.76013">
        <ele>264.02</ele>
        <time>2014-02-20T10:17:58Z</time>
      </trkpt>
      <trkpt lat="43.07734" lon="2.76035">
        <ele>264.02</ele>
        <time>2014-02-20T10:18:10Z</time>
      </trkpt>
      <trkpt lat="43.07741" lon="2.76056">
        <ele>263.06</ele>
        <time>2014-02-20T10:18:22Z</time>
      </trkpt>
      <trkpt lat="43.07744" lon="2.76067">
        <ele>263.06</ele>
        <time>2014-02-20T10:18:29Z</time>
      </trkpt>
      <trkpt lat="43.0775" lon="2.76077">
        <ele>262.58</ele>
        <time>2014-02-20T10:18:36Z</time>
      </trkpt>
      <trkpt lat="43.07751" lon="2.7608">
        <ele>262.58</ele>
        <time>2014-02-20T10:18:38Z</time>
      </trkpt>
      <trkpt lat="43.07756" lon="2.76092">
        <ele>262.1</ele>
        <time>2014-02-20T10:18:46Z</time>
      </trkpt>
      <trkpt lat="43.07757" lon="2.76098">
        <ele>262.1</ele>
        <time>2014-02-20T10:18:49Z</time>
      </trkpt>
      <trkpt lat="43.07764" lon="2.76115">
        <ele>261.14</ele>
        <time>2014-02-20T10:19:00Z</time>
      </trkpt>
      <trkpt lat="43.07771" lon="2.76131">
        <ele>261.14</ele>
        <time>2014-02-20T10:19:11Z</time>
      </trkpt>
      <trkpt lat="43.07781" lon="2.76154">
        <ele>261.14</ele>
        <time>2014-02-20T10:19:25Z</time>
      </trkpt>
      <trkpt lat="43.07784" lon="2.76161">
        <ele>261.14</ele>
        <time>2014-02-20T10:19:30Z</time>
      </trkpt>
      <trkpt lat="43.07787" lon="2.76172">
        <ele>261.14</ele>
        <time>2014-02-20T10:19:36Z</time>
      </trkpt>
      <trkpt lat="43.07794" lon="2.762">
        <ele>262.1</ele>
        <time>2014-02-20T10:19:51Z</time>
      </trkpt>
      <trkpt lat="43.07801" lon="2.76218">
        <ele>263.06</ele>
        <time>2014-02-20T10:20:03Z</time>
      </trkpt>
      <trkpt lat="43.07805" lon="2.76234">
        <ele>264.98</ele>
        <time>2014-02-20T10:20:14Z</time>
      </trkpt>
      <trkpt lat="43.07807" lon="2.76241">
        <ele>266.42</ele>
        <time>2014-02-20T10:20:20Z</time>
      </trkpt>
      <trkpt lat="43.07808" lon="2.76247">
        <ele>266.9</ele>
        <time>2014-02-20T10:20:34Z</time>
      </trkpt>
      <trkpt lat="43.07808" lon="2.76247">
        <ele>266.9</ele>
        <time>2014-02-20T10:20:49Z</time>
      </trkpt>
      <trkpt lat="43.07808" lon="2.76247">
        <ele>266.9</ele>
        <time>2014-02-20T10:21:11Z</time>
      </trkpt>
      <trkpt lat="43.07805" lon="2.76247">
        <ele>266.9</ele>
        <time>2014-02-20T10:21:28Z</time>
      </trkpt>
      <trkpt lat="43.07805" lon="2.76248">
        <ele>266.9</ele>
        <time>2014-02-20T10:21:41Z</time>
      </trkpt>
      <trkpt lat="43.07805" lon="2.76248">
        <ele>266.9</ele>
        <time>2014-02-20T10:22:00Z</time>
      </trkpt>
      <trkpt lat="43.07803" lon="2.76248">
        <ele>266.9</ele>
        <time>2014-02-20T10:22:02Z</time>
      </trkpt>
      <trkpt lat="43.07783" lon="2.76241">
        <ele>269.31</ele>
        <time>2014-02-20T10:22:21Z</time>
      </trkpt>
      <trkpt lat="43.07773" lon="2.76234">
        <ele>271.23</ele>
        <time>2014-02-20T10:22:31Z</time>
      </trkpt>
      <trkpt lat="43.07771" lon="2.76232">
        <ele>271.23</ele>
        <time>2014-02-20T10:22:33Z</time>
      </trkpt>
      <trkpt lat="43.07761" lon="2.76224">
        <ele>273.15</ele>
        <time>2014-02-20T10:22:43Z</time>
      </trkpt>
      <trkpt lat="43.07756" lon="2.76218">
        <ele>274.11</ele>
        <time>2014-02-20T10:22:49Z</time>
      </trkpt>
      <trkpt lat="43.0775" lon="2.76214">
        <ele>275.07</ele>
        <time>2014-02-20T10:22:55Z</time>
      </trkpt>
      <trkpt lat="43.07747" lon="2.76211">
        <ele>275.07</ele>
        <time>2014-02-20T10:22:59Z</time>
      </trkpt>
      <trkpt lat="43.07733" lon="2.76198">
        <ele>277</ele>
        <time>2014-02-20T10:23:13Z</time>
      </trkpt>
      <trkpt lat="43.0772" lon="2.76186">
        <ele>278.92</ele>
        <time>2014-02-20T10:23:27Z</time>
      </trkpt>
      <trkpt lat="43.07714" lon="2.76181">
        <ele>278.92</ele>
        <time>2014-02-20T10:23:33Z</time>
      </trkpt>
      <trkpt lat="43.07696" lon="2.76175">
        <ele>279.4</ele>
        <time>2014-02-20T10:23:47Z</time>
      </trkpt>
      <trkpt lat="43.07682" lon="2.76172">
        <ele>280.36</ele>
        <time>2014-02-20T10:23:59Z</time>
      </trkpt>
      <trkpt lat="43.07665" lon="2.76167">
        <ele>281.32</ele>
        <time>2014-02-20T10:24:13Z</time>
      </trkpt>
      <trkpt lat="43.07652" lon="2.76162">
        <ele>281.8</ele>
        <time>2014-02-20T10:24:24Z</time>
      </trkpt>
      <trkpt lat="43.07647" lon="2.76159">
        <ele>281.8</ele>
        <time>2014-02-20T10:24:36Z</time>
      </trkpt>
      <trkpt lat="43.0764" lon="2.76155">
        <ele>281.8</ele>
        <time>2014-02-20T10:24:49Z</time>
      </trkpt>
      <trkpt lat="43.07625" lon="2.76143">
        <ele>282.28</ele>
        <time>2014-02-20T10:25:04Z</time>
      </trkpt>
      <trkpt lat="43.07613" lon="2.76133">
        <ele>282.28</ele>
        <time>2014-02-20T10:25:16Z</time>
      </trkpt>
      <trkpt lat="43.07609" lon="2.7613">
        <ele>281.8</ele>
        <time>2014-02-20T10:25:20Z</time>
      </trkpt>
      <trkpt lat="43.07603" lon="2.76125">
        <ele>281.32</ele>
        <time>2014-02-20T10:25:26Z</time>
      </trkpt>
      <trkpt lat="43.07595" lon="2.76122">
        <ele>280.36</ele>
        <time>2014-02-20T10:25:33Z</time>
      </trkpt>
      <trkpt lat="43.07587" lon="2.76127">
        <ele>278.92</ele>
        <time>2014-02-20T10:25:42Z</time>
      </trkpt>
      <trkpt lat="43.07584" lon="2.76135">
        <ele>278.44</ele>
        <time>2014-02-20T10:25:48Z</time>
      </trkpt>
      <trkpt lat="43.07585" lon="2.76154">
        <ele>277.48</ele>
        <time>2014-02-20T10:26:00Z</time>
      </trkpt>
      <trkpt lat="43.07575" lon="2.76177">
        <ele>277.48</ele>
        <time>2014-02-20T10:26:15Z</time>
      </trkpt>
      <trkpt lat="43.07561" lon="2.76195">
        <ele>277</ele>
        <time>2014-02-20T10:26:30Z</time>
      </trkpt>
      <trkpt lat="43.07545" lon="2.76208">
        <ele>276.52</ele>
        <time>2014-02-20T10:26:46Z</time>
      </trkpt>
      <trkpt lat="43.07533" lon="2.76209">
        <ele>275.56</ele>
        <time>2014-02-20T10:26:54Z</time>
      </trkpt>
      <trkpt lat="43.07514" lon="2.76212">
        <ele>275.56</ele>
        <time>2014-02-20T10:27:09Z</time>
      </trkpt>
      <trkpt lat="43.07498" lon="2.76215">
        <ele>274.59</ele>
        <time>2014-02-20T10:27:22Z</time>
      </trkpt>
      <trkpt lat="43.07478" lon="2.76219">
        <ele>274.11</ele>
        <time>2014-02-20T10:27:37Z</time>
      </trkpt>
      <trkpt lat="43.07463" lon="2.76219">
        <ele>275.07</ele>
        <time>2014-02-20T10:27:50Z</time>
      </trkpt>
      <trkpt lat="43.07443" lon="2.76218">
        <ele>275.07</ele>
        <time>2014-02-20T10:28:06Z</time>
      </trkpt>
      <trkpt lat="43.07425" lon="2.76213">
        <ele>276.04</ele>
        <time>2014-02-20T10:28:20Z</time>
      </trkpt>
      <trkpt lat="43.07418" lon="2.76213">
        <ele>276.04</ele>
        <time>2014-02-20T10:28:25Z</time>
      </trkpt>
      <trkpt lat="43.074" lon="2.76224">
        <ele>276.52</ele>
        <time>2014-02-20T10:28:40Z</time>
      </trkpt>
      <trkpt lat="43.07392" lon="2.76226">
        <ele>276.04</ele>
        <time>2014-02-20T10:28:46Z</time>
      </trkpt>
      <trkpt lat="43.07372" lon="2.76229">
        <ele>276.52</ele>
        <time>2014-02-20T10:29:02Z</time>
      </trkpt>
      <trkpt lat="43.07356" lon="2.76222">
        <ele>277.96</ele>
        <time>2014-02-20T10:29:16Z</time>
      </trkpt>
      <trkpt lat="43.07347" lon="2.76216">
        <ele>279.4</ele>
        <time>2014-02-20T10:29:25Z</time>
      </trkpt>
      <trkpt lat="43.07344" lon="2.76213">
        <ele>280.36</ele>
        <time>2014-02-20T10:29:28Z</time>
      </trkpt>
      <trkpt lat="43.07329" lon="2.76204">
        <ele>282.28</ele>
        <time>2014-02-20T10:29:44Z</time>
      </trkpt>
      <trkpt lat="43.07322" lon="2.76199">
        <ele>283.73</ele>
        <time>2014-02-20T10:29:51Z</time>
      </trkpt>
      <trkpt lat="43.0732" lon="2.76197">
        <ele>284.21</ele>
        <time>2014-02-20T10:29:53Z</time>
      </trkpt>
      <trkpt lat="43.07306" lon="2.76185">
        <ele>285.17</ele>
        <time>2014-02-20T10:30:07Z</time>
      </trkpt>
      <trkpt lat="43.07293" lon="2.76176">
        <ele>286.13</ele>
        <time>2014-02-20T10:30:19Z</time>
      </trkpt>
      <trkpt lat="43.07288" lon="2.76171">
        <ele>287.09</ele>
        <time>2014-02-20T10:30:24Z</time>
      </trkpt>
      <trkpt lat="43.07282" lon="2.76165">
        <ele>287.57</ele>
        <time>2014-02-20T10:30:30Z</time>
      </trkpt>
      <trkpt lat="43.07278" lon="2.76162">
        <ele>288.05</ele>
        <time>2014-02-20T10:30:34Z</time>
      </trkpt>
      <trkpt lat="43.07262" lon="2.7615">
        <ele>289.49</ele>
        <time>2014-02-20T10:30:48Z</time>
      </trkpt>
      <trkpt lat="43.07244" lon="2.76152">
        <ele>289.97</ele>
        <time>2014-02-20T10:31:05Z</time>
      </trkpt>
      <trkpt lat="43.07227" lon="2.76158">
        <ele>289.97</ele>
        <time>2014-02-20T10:31:19Z</time>
      </trkpt>
      <trkpt lat="43.07212" lon="2.7616">
        <ele>289.01</ele>
        <time>2014-02-20T10:31:31Z</time>
      </trkpt>
      <trkpt lat="43.07194" lon="2.7616">
        <ele>289.01</ele>
        <time>2014-02-20T10:31:45Z</time>
      </trkpt>
      <trkpt lat="43.07176" lon="2.76161">
        <ele>288.53</ele>
        <time>2014-02-20T10:32:00Z</time>
      </trkpt>
      <trkpt lat="43.07161" lon="2.76162">
        <ele>288.53</ele>
        <time>2014-02-20T10:32:12Z</time>
      </trkpt>
      <trkpt lat="43.07141" lon="2.76159">
        <ele>288.05</ele>
        <time>2014-02-20T10:32:27Z</time>
      </trkpt>
      <trkpt lat="43.07123" lon="2.76152">
        <ele>289.01</ele>
        <time>2014-02-20T10:32:42Z</time>
      </trkpt>
      <trkpt lat="43.07109" lon="2.76144">
        <ele>290.94</ele>
        <time>2014-02-20T10:32:55Z</time>
      </trkpt>
      <trkpt lat="43.07089" lon="2.76136">
        <ele>294.3</ele>
        <time>2014-02-20T10:33:12Z</time>
      </trkpt>
      <trkpt lat="43.07075" lon="2.76135">
        <ele>295.26</ele>
        <time>2014-02-20T10:33:24Z</time>
      </trkpt>
      <trkpt lat="43.07065" lon="2.76133">
        <ele>295.74</ele>
        <time>2014-02-20T10:33:32Z</time>
      </trkpt>
      <trkpt lat="43.07046" lon="2.76131">
        <ele>297.67</ele>
        <time>2014-02-20T10:33:47Z</time>
      </trkpt>
      <trkpt lat="43.07027" lon="2.76131">
        <ele>299.11</ele>
        <time>2014-02-20T10:34:01Z</time>
      </trkpt>
      <trkpt lat="43.07011" lon="2.76132">
        <ele>299.59</ele>
        <time>2014-02-20T10:34:14Z</time>
      </trkpt>
      <trkpt lat="43.0699" lon="2.76128">
        <ele>298.63</ele>
        <time>2014-02-20T10:34:29Z</time>
      </trkpt>
      <trkpt lat="43.06975" lon="2.76123">
        <ele>298.63</ele>
        <time>2014-02-20T10:34:43Z</time>
      </trkpt>
      <trkpt lat="43.06959" lon="2.76115">
        <ele>298.63</ele>
        <time>2014-02-20T10:34:55Z</time>
      </trkpt>
      <trkpt lat="43.06951" lon="2.76106">
        <ele>298.63</ele>
        <time>2014-02-20T10:35:02Z</time>
      </trkpt>
      <trkpt lat="43.06935" lon="2.76089">
        <ele>300.07</ele>
        <time>2014-02-20T10:35:16Z</time>
      </trkpt>
      <trkpt lat="43.06916" lon="2.7608">
        <ele>300.07</ele>
        <time>2014-02-20T10:35:31Z</time>
      </trkpt>
      <trkpt lat="43.06902" lon="2.76069">
        <ele>298.63</ele>
        <time>2014-02-20T10:35:44Z</time>
      </trkpt>
      <trkpt lat="43.069" lon="2.76067">
        <ele>298.63</ele>
        <time>2014-02-20T10:35:46Z</time>
      </trkpt>
      <trkpt lat="43.06901" lon="2.76062">
        <ele>298.63</ele>
        <time>2014-02-20T10:35:59Z</time>
      </trkpt>
      <trkpt lat="43.06898" lon="2.76059">
        <ele>298.63</ele>
        <time>2014-02-20T10:36:05Z</time>
      </trkpt>
      <trkpt lat="43.06893" lon="2.76058">
        <ele>299.11</ele>
        <time>2014-02-20T10:36:10Z</time>
      </trkpt>
      <trkpt lat="43.06885" lon="2.76049">
        <ele>299.11</ele>
        <time>2014-02-20T10:36:21Z</time>
      </trkpt>
      <trkpt lat="43.06869" lon="2.76036">
        <ele>299.11</ele>
        <time>2014-02-20T10:36:35Z</time>
      </trkpt>
      <trkpt lat="43.06859" lon="2.76018">
        <ele>299.11</ele>
        <time>2014-02-20T10:36:48Z</time>
      </trkpt>
      <trkpt lat="43.0685" lon="2.76005">
        <ele>300.55</ele>
        <time>2014-02-20T10:36:58Z</time>
      </trkpt>
      <trkpt lat="43.06836" lon="2.75996">
        <ele>301.99</ele>
        <time>2014-02-20T10:37:14Z</time>
      </trkpt>
      <trkpt lat="43.06831" lon="2.7599">
        <ele>302.95</ele>
        <time>2014-02-20T10:37:21Z</time>
      </trkpt>
      <trkpt lat="43.06818" lon="2.7598">
        <ele>303.43</ele>
        <time>2014-02-20T10:37:34Z</time>
      </trkpt>
      <trkpt lat="43.06807" lon="2.75968">
        <ele>303.91</ele>
        <time>2014-02-20T10:37:46Z</time>
      </trkpt>
      <trkpt lat="43.06794" lon="2.75951">
        <ele>304.88</ele>
        <time>2014-02-20T10:37:59Z</time>
      </trkpt>
      <trkpt lat="43.06782" lon="2.75939">
        <ele>306.32</ele>
        <time>2014-02-20T10:38:11Z</time>
      </trkpt>
      <trkpt lat="43.0677" lon="2.75931">
        <ele>308.72</ele>
        <time>2014-02-20T10:38:25Z</time>
      </trkpt>
      <trkpt lat="43.0676" lon="2.75922">
        <ele>311.12</ele>
        <time>2014-02-20T10:38:37Z</time>
      </trkpt>
      <trkpt lat="43.06747" lon="2.75915">
        <ele>314.97</ele>
        <time>2014-02-20T10:38:50Z</time>
      </trkpt>
      <trkpt lat="43.06747" lon="2.75915">
        <ele>314.97</ele>
        <time>2014-02-20T10:38:51Z</time>
      </trkpt>
      <trkpt lat="43.06738" lon="2.75912">
        <ele>316.41</ele>
        <time>2014-02-20T10:38:59Z</time>
      </trkpt>
      <trkpt lat="43.06723" lon="2.75904">
        <ele>317.85</ele>
        <time>2014-02-20T10:39:13Z</time>
      </trkpt>
      <trkpt lat="43.06704" lon="2.75903">
        <ele>319.3</ele>
        <time>2014-02-20T10:39:30Z</time>
      </trkpt>
      <trkpt lat="43.06685" lon="2.759">
        <ele>319.78</ele>
        <time>2014-02-20T10:39:46Z</time>
      </trkpt>
      <trkpt lat="43.06677" lon="2.75893">
        <ele>320.26</ele>
        <time>2014-02-20T10:39:54Z</time>
      </trkpt>
      <trkpt lat="43.06663" lon="2.75872">
        <ele>321.22</ele>
        <time>2014-02-20T10:40:10Z</time>
      </trkpt>
      <trkpt lat="43.06661" lon="2.7587">
        <ele>321.22</ele>
        <time>2014-02-20T10:40:12Z</time>
      </trkpt>
      <trkpt lat="43.06652" lon="2.75859">
        <ele>321.7</ele>
        <time>2014-02-20T10:40:21Z</time>
      </trkpt>
      <trkpt lat="43.06645" lon="2.75852">
        <ele>322.18</ele>
        <time>2014-02-20T10:40:28Z</time>
      </trkpt>
      <trkpt lat="43.06632" lon="2.75831">
        <ele>322.18</ele>
        <time>2014-02-20T10:40:44Z</time>
      </trkpt>
      <trkpt lat="43.06619" lon="2.75821">
        <ele>322.18</ele>
        <time>2014-02-20T10:40:56Z</time>
      </trkpt>
      <trkpt lat="43.06614" lon="2.75819">
        <ele>321.7</ele>
        <time>2014-02-20T10:41:01Z</time>
      </trkpt>
      <trkpt lat="43.06606" lon="2.75811">
        <ele>321.7</ele>
        <time>2014-02-20T10:41:08Z</time>
      </trkpt>
      <trkpt lat="43.06593" lon="2.75795">
        <ele>321.22</ele>
        <time>2014-02-20T10:41:22Z</time>
      </trkpt>
      <trkpt lat="43.06577" lon="2.75785">
        <ele>320.26</ele>
        <time>2014-02-20T10:41:36Z</time>
      </trkpt>
      <trkpt lat="43.06575" lon="2.75784">
        <ele>320.74</ele>
        <time>2014-02-20T10:41:38Z</time>
      </trkpt>
      <trkpt lat="43.0656" lon="2.75781">
        <ele>321.7</ele>
        <time>2014-02-20T10:41:52Z</time>
      </trkpt>
      <trkpt lat="43.06558" lon="2.7578">
        <ele>322.18</ele>
        <time>2014-02-20T10:41:54Z</time>
      </trkpt>
      <trkpt lat="43.06544" lon="2.75789">
        <ele>322.66</ele>
        <time>2014-02-20T10:42:08Z</time>
      </trkpt>
      <trkpt lat="43.06542" lon="2.7579">
        <ele>323.14</ele>
        <time>2014-02-20T10:42:12Z</time>
      </trkpt>
      <trkpt lat="43.06534" lon="2.75805">
        <ele>323.14</ele>
        <time>2014-02-20T10:42:23Z</time>
      </trkpt>
      <trkpt lat="43.06528" lon="2.75818">
        <ele>323.62</ele>
        <time>2014-02-20T10:42:32Z</time>
      </trkpt>
      <trkpt lat="43.06516" lon="2.75832">
        <ele>324.1</ele>
        <time>2014-02-20T10:42:45Z</time>
      </trkpt>
      <trkpt lat="43.06505" lon="2.75848">
        <ele>324.58</ele>
        <time>2014-02-20T10:42:59Z</time>
      </trkpt>
      <trkpt lat="43.06495" lon="2.75851">
        <ele>325.06</ele>
        <time>2014-02-20T10:43:10Z</time>
      </trkpt>
      <trkpt lat="43.06492" lon="2.75852">
        <ele>325.54</ele>
        <time>2014-02-20T10:43:22Z</time>
      </trkpt>
      <trkpt lat="43.0649" lon="2.75852">
        <ele>326.02</ele>
        <time>2014-02-20T10:43:37Z</time>
      </trkpt>
      <trkpt lat="43.0649" lon="2.75852">
        <ele>325.54</ele>
        <time>2014-02-20T10:43:40Z</time>
      </trkpt>
      <trkpt lat="43.06485" lon="2.75826">
        <ele>325.54</ele>
        <time>2014-02-20T10:43:55Z</time>
      </trkpt>
      <trkpt lat="43.06488" lon="2.75797">
        <ele>325.54</ele>
        <time>2014-02-20T10:44:05Z</time>
      </trkpt>
      <trkpt lat="43.06487" lon="2.75776">
        <ele>325.54</ele>
        <time>2014-02-20T10:44:17Z</time>
      </trkpt>
      <trkpt lat="43.06485" lon="2.75771">
        <ele>326.02</ele>
        <time>2014-02-20T10:44:20Z</time>
      </trkpt>
      <trkpt lat="43.0648" lon="2.7575">
        <ele>326.02</ele>
        <time>2014-02-20T10:44:33Z</time>
      </trkpt>
      <trkpt lat="43.06477" lon="2.75719">
        <ele>326.5</ele>
        <time>2014-02-20T10:44:49Z</time>
      </trkpt>
      <trkpt lat="43.06474" lon="2.75692">
        <ele>327.47</ele>
        <time>2014-02-20T10:45:04Z</time>
      </trkpt>
      <trkpt lat="43.06475" lon="2.75688">
        <ele>326.99</ele>
        <time>2014-02-20T10:45:06Z</time>
      </trkpt>
      <trkpt lat="43.06479" lon="2.7566">
        <ele>328.43</ele>
        <time>2014-02-20T10:45:21Z</time>
      </trkpt>
      <trkpt lat="43.06479" lon="2.75636">
        <ele>328.43</ele>
        <time>2014-02-20T10:45:35Z</time>
      </trkpt>
      <trkpt lat="43.06483" lon="2.75612">
        <ele>329.87</ele>
        <time>2014-02-20T10:45:49Z</time>
      </trkpt>
      <trkpt lat="43.06484" lon="2.75593">
        <ele>330.35</ele>
        <time>2014-02-20T10:46:01Z</time>
      </trkpt>
      <trkpt lat="43.06482" lon="2.75585">
        <ele>330.83</ele>
        <time>2014-02-20T10:46:06Z</time>
      </trkpt>
      <trkpt lat="43.06475" lon="2.75566">
        <ele>331.31</ele>
        <time>2014-02-20T10:46:19Z</time>
      </trkpt>
      <trkpt lat="43.0647" lon="2.75548">
        <ele>331.79</ele>
        <time>2014-02-20T10:46:32Z</time>
      </trkpt>
      <trkpt lat="43.06461" lon="2.75528">
        <ele>332.27</ele>
        <time>2014-02-20T10:46:45Z</time>
      </trkpt>
      <trkpt lat="43.06458" lon="2.75515">
        <ele>332.75</ele>
        <time>2014-02-20T10:46:53Z</time>
      </trkpt>
      <trkpt lat="43.06457" lon="2.75511">
        <ele>332.75</ele>
        <time>2014-02-20T10:46:55Z</time>
      </trkpt>
      <trkpt lat="43.06451" lon="2.75493">
        <ele>334.2</ele>
        <time>2014-02-20T10:47:08Z</time>
      </trkpt>
      <trkpt lat="43.06445" lon="2.75473">
        <ele>334.68</ele>
        <time>2014-02-20T10:47:21Z</time>
      </trkpt>
      <trkpt lat="43.06439" lon="2.75456">
        <ele>336.12</ele>
        <time>2014-02-20T10:47:35Z</time>
      </trkpt>
      <trkpt lat="43.06431" lon="2.75435">
        <ele>337.56</ele>
        <time>2014-02-20T10:47:50Z</time>
      </trkpt>
      <trkpt lat="43.06427" lon="2.75423">
        <ele>338.04</ele>
        <time>2014-02-20T10:48:01Z</time>
      </trkpt>
      <trkpt lat="43.06425" lon="2.754">
        <ele>339.48</ele>
        <time>2014-02-20T10:48:14Z</time>
      </trkpt>
      <trkpt lat="43.06424" lon="2.75396">
        <ele>339.48</ele>
        <time>2014-02-20T10:48:19Z</time>
      </trkpt>
      <trkpt lat="43.06418" lon="2.75373">
        <ele>339.96</ele>
        <time>2014-02-20T10:48:33Z</time>
      </trkpt>
      <trkpt lat="43.06409" lon="2.75354">
        <ele>340.92</ele>
        <time>2014-02-20T10:48:47Z</time>
      </trkpt>
      <trkpt lat="43.06404" lon="2.75345">
        <ele>341.41</ele>
        <time>2014-02-20T10:48:54Z</time>
      </trkpt>
      <trkpt lat="43.06402" lon="2.7534">
        <ele>341.41</ele>
        <time>2014-02-20T10:48:57Z</time>
      </trkpt>
      <trkpt lat="43.06394" lon="2.75325">
        <ele>341.41</ele>
        <time>2014-02-20T10:49:09Z</time>
      </trkpt>
      <trkpt lat="43.06392" lon="2.75321">
        <ele>341.41</ele>
        <time>2014-02-20T10:49:12Z</time>
      </trkpt>
      <trkpt lat="43.06381" lon="2.7531">
        <ele>341.89</ele>
        <time>2014-02-20T10:49:26Z</time>
      </trkpt>
      <trkpt lat="43.06364" lon="2.75291">
        <ele>342.37</ele>
        <time>2014-02-20T10:49:42Z</time>
      </trkpt>
      <trkpt lat="43.06357" lon="2.75275">
        <ele>342.37</ele>
        <time>2014-02-20T10:49:54Z</time>
      </trkpt>
      <trkpt lat="43.0635" lon="2.75257">
        <ele>343.33</ele>
        <time>2014-02-20T10:50:07Z</time>
      </trkpt>
      <trkpt lat="43.06342" lon="2.7525">
        <ele>343.33</ele>
        <time>2014-02-20T10:50:18Z</time>
      </trkpt>
      <trkpt lat="43.06325" lon="2.75238">
        <ele>343.33</ele>
        <time>2014-02-20T10:50:34Z</time>
      </trkpt>
      <trkpt lat="43.06317" lon="2.75234">
        <ele>342.85</ele>
        <time>2014-02-20T10:50:41Z</time>
      </trkpt>
      <trkpt lat="43.06308" lon="2.7523">
        <ele>343.33</ele>
        <time>2014-02-20T10:50:49Z</time>
      </trkpt>
      <trkpt lat="43.06298" lon="2.75222">
        <ele>342.37</ele>
        <time>2014-02-20T10:51:01Z</time>
      </trkpt>
      <trkpt lat="43.0629" lon="2.75217">
        <ele>341.41</ele>
        <time>2014-02-20T10:51:10Z</time>
      </trkpt>
      <trkpt lat="43.0629" lon="2.75214">
        <ele>341.41</ele>
        <time>2014-02-20T10:51:26Z</time>
      </trkpt>
      <trkpt lat="43.0629" lon="2.75213">
        <ele>341.41</ele>
        <time>2014-02-20T10:51:46Z</time>
      </trkpt>
      <trkpt lat="43.06288" lon="2.75212">
        <ele>341.41</ele>
        <time>2014-02-20T10:52:05Z</time>
      </trkpt>
      <trkpt lat="43.06277" lon="2.7521">
        <ele>341.41</ele>
        <time>2014-02-20T10:52:18Z</time>
      </trkpt>
      <trkpt lat="43.06276" lon="2.7521">
        <ele>340.44</ele>
        <time>2014-02-20T10:52:34Z</time>
      </trkpt>
      <trkpt lat="43.06276" lon="2.7521">
        <ele>340.92</ele>
        <time>2014-02-20T10:52:45Z</time>
      </trkpt>
      <trkpt lat="43.06273" lon="2.7522">
        <ele>339.96</ele>
        <time>2014-02-20T10:52:53Z</time>
      </trkpt>
      <trkpt lat="43.06269" lon="2.75225">
        <ele>339.48</ele>
        <time>2014-02-20T10:52:58Z</time>
      </trkpt>
      <trkpt lat="43.06262" lon="2.75238">
        <ele>337.56</ele>
        <time>2014-02-20T10:53:11Z</time>
      </trkpt>
      <trkpt lat="43.06253" lon="2.75254">
        <ele>336.12</ele>
        <time>2014-02-20T10:53:24Z</time>
      </trkpt>
      <trkpt lat="43.06253" lon="2.75256">
        <ele>336.12</ele>
        <time>2014-02-20T10:53:25Z</time>
      </trkpt>
      <trkpt lat="43.06252" lon="2.7526">
        <ele>335.64</ele>
        <time>2014-02-20T10:53:28Z</time>
      </trkpt>
      <trkpt lat="43.06251" lon="2.75265">
        <ele>335.64</ele>
        <time>2014-02-20T10:53:31Z</time>
      </trkpt>
      <trkpt lat="43.06249" lon="2.75267">
        <ele>335.64</ele>
        <time>2014-02-20T10:53:33Z</time>
      </trkpt>
      <trkpt lat="43.06244" lon="2.75277">
        <ele>335.16</ele>
        <time>2014-02-20T10:53:40Z</time>
      </trkpt>
      <trkpt lat="43.06241" lon="2.75283">
        <ele>334.2</ele>
        <time>2014-02-20T10:53:44Z</time>
      </trkpt>
      <trkpt lat="43.06225" lon="2.75299">
        <ele>333.71</ele>
        <time>2014-02-20T10:54:00Z</time>
      </trkpt>
      <trkpt lat="43.06212" lon="2.75305">
        <ele>333.23</ele>
        <time>2014-02-20T10:54:10Z</time>
      </trkpt>
      <trkpt lat="43.06194" lon="2.75312">
        <ele>333.23</ele>
        <time>2014-02-20T10:54:26Z</time>
      </trkpt>
      <trkpt lat="43.0618" lon="2.75312">
        <ele>332.27</ele>
        <time>2014-02-20T10:54:36Z</time>
      </trkpt>
      <trkpt lat="43.06161" lon="2.75306">
        <ele>331.79</ele>
        <time>2014-02-20T10:54:53Z</time>
      </trkpt>
      <trkpt lat="43.06144" lon="2.75311">
        <ele>330.83</ele>
        <time>2014-02-20T10:55:08Z</time>
      </trkpt>
      <trkpt lat="43.06124" lon="2.75306">
        <ele>329.39</ele>
        <time>2014-02-20T10:55:24Z</time>
      </trkpt>
      <trkpt lat="43.06113" lon="2.75304">
        <ele>328.43</ele>
        <time>2014-02-20T10:55:33Z</time>
      </trkpt>
      <trkpt lat="43.06099" lon="2.75305">
        <ele>326.02</ele>
        <time>2014-02-20T10:55:45Z</time>
      </trkpt>
      <trkpt lat="43.06098" lon="2.75305">
        <ele>326.02</ele>
        <time>2014-02-20T10:55:46Z</time>
      </trkpt>
      <trkpt lat="43.0608" lon="2.75303">
        <ele>323.62</ele>
        <time>2014-02-20T10:56:01Z</time>
      </trkpt>
      <trkpt lat="43.06077" lon="2.75304">
        <ele>323.14</ele>
        <time>2014-02-20T10:56:04Z</time>
      </trkpt>
      <trkpt lat="43.06071" lon="2.75305">
        <ele>321.22</ele>
        <time>2014-02-20T10:56:11Z</time>
      </trkpt>
      <trkpt lat="43.06066" lon="2.75307">
        <ele>320.74</ele>
        <time>2014-02-20T10:56:16Z</time>
      </trkpt>
      <trkpt lat="43.06054" lon="2.75313">
        <ele>319.78</ele>
        <time>2014-02-20T10:56:29Z</time>
      </trkpt>
      <trkpt lat="43.06047" lon="2.75315">
        <ele>319.3</ele>
        <time>2014-02-20T10:56:34Z</time>
      </trkpt>
      <trkpt lat="43.06042" lon="2.75314">
        <ele>318.81</ele>
        <time>2014-02-20T10:56:39Z</time>
      </trkpt>
      <trkpt lat="43.06029" lon="2.75301">
        <ele>319.3</ele>
        <time>2014-02-20T10:56:54Z</time>
      </trkpt>
      <trkpt lat="43.06026" lon="2.75297">
        <ele>318.81</ele>
        <time>2014-02-20T10:56:58Z</time>
      </trkpt>
      <trkpt lat="43.06011" lon="2.75294">
        <ele>318.33</ele>
        <time>2014-02-20T10:57:11Z</time>
      </trkpt>
      <trkpt lat="43.06008" lon="2.75294">
        <ele>317.85</ele>
        <time>2014-02-20T10:57:14Z</time>
      </trkpt>
      <trkpt lat="43.06002" lon="2.75292">
        <ele>317.85</ele>
        <time>2014-02-20T10:57:18Z</time>
      </trkpt>
      <trkpt lat="43.05996" lon="2.75279">
        <ele>316.41</ele>
        <time>2014-02-20T10:57:27Z</time>
      </trkpt>
      <trkpt lat="43.05987" lon="2.7527">
        <ele>315.93</ele>
        <time>2014-02-20T10:57:37Z</time>
      </trkpt>
      <trkpt lat="43.05978" lon="2.7526">
        <ele>313.53</ele>
        <time>2014-02-20T10:57:50Z</time>
      </trkpt>
      <trkpt lat="43.05974" lon="2.75256">
        <ele>313.53</ele>
        <time>2014-02-20T10:57:54Z</time>
      </trkpt>
      <trkpt lat="43.05969" lon="2.75253">
        <ele>312.57</ele>
        <time>2014-02-20T10:57:59Z</time>
      </trkpt>
      <trkpt lat="43.05965" lon="2.7525">
        <ele>312.57</ele>
        <time>2014-02-20T10:58:03Z</time>
      </trkpt>
      <trkpt lat="43.05958" lon="2.75246">
        <ele>311.12</ele>
        <time>2014-02-20T10:58:11Z</time>
      </trkpt>
      <trkpt lat="43.05948" lon="2.75243">
        <ele>309.2</ele>
        <time>2014-02-20T10:58:21Z</time>
      </trkpt>
      <trkpt lat="43.05932" lon="2.75238">
        <ele>307.76</ele>
        <time>2014-02-20T10:58:35Z</time>
      </trkpt>
      <trkpt lat="43.05918" lon="2.75232">
        <ele>307.28</ele>
        <time>2014-02-20T10:58:48Z</time>
      </trkpt>
      <trkpt lat="43.05901" lon="2.75225">
        <ele>306.32</ele>
        <time>2014-02-20T10:59:03Z</time>
      </trkpt>
      <trkpt lat="43.05886" lon="2.75219">
        <ele>304.88</ele>
        <time>2014-02-20T10:59:17Z</time>
      </trkpt>
      <trkpt lat="43.05879" lon="2.75214">
        <ele>303.91</ele>
        <time>2014-02-20T10:59:30Z</time>
      </trkpt>
      <trkpt lat="43.05872" lon="2.75209">
        <ele>303.43</ele>
        <time>2014-02-20T10:59:46Z</time>
      </trkpt>
      <trkpt lat="43.05865" lon="2.75205">
        <ele>302.95</ele>
        <time>2014-02-20T10:59:53Z</time>
      </trkpt>
      <trkpt lat="43.0586" lon="2.75203">
        <ele>302.47</ele>
        <time>2014-02-20T10:59:57Z</time>
      </trkpt>
      <trkpt lat="43.05843" lon="2.75199">
        <ele>300.55</ele>
        <time>2014-02-20T11:00:13Z</time>
      </trkpt>
      <trkpt lat="43.05839" lon="2.75198">
        <ele>299.59</ele>
        <time>2014-02-20T11:00:16Z</time>
      </trkpt>
      <trkpt lat="43.05821" lon="2.75191">
        <ele>298.15</ele>
        <time>2014-02-20T11:00:31Z</time>
      </trkpt>
      <trkpt lat="43.05806" lon="2.75183">
        <ele>297.18</ele>
        <time>2014-02-20T11:00:45Z</time>
      </trkpt>
      <trkpt lat="43.05795" lon="2.75178">
        <ele>295.26</ele>
        <time>2014-02-20T11:00:55Z</time>
      </trkpt>
      <trkpt lat="43.05787" lon="2.75182">
        <ele>293.82</ele>
        <time>2014-02-20T11:01:03Z</time>
      </trkpt>
      <trkpt lat="43.05781" lon="2.75194">
        <ele>293.34</ele>
        <time>2014-02-20T11:01:12Z</time>
      </trkpt>
      <trkpt lat="43.0577" lon="2.75207">
        <ele>292.86</ele>
        <time>2014-02-20T11:01:25Z</time>
      </trkpt>
      <trkpt lat="43.05749" lon="2.75211">
        <ele>290.94</ele>
        <time>2014-02-20T11:01:43Z</time>
      </trkpt>
      <trkpt lat="43.05743" lon="2.7521">
        <ele>290.46</ele>
        <time>2014-02-20T11:01:49Z</time>
      </trkpt>
      <trkpt lat="43.05741" lon="2.75209">
        <ele>289.49</ele>
        <time>2014-02-20T11:01:51Z</time>
      </trkpt>
      <trkpt lat="43.05726" lon="2.75209">
        <ele>286.61</ele>
        <time>2014-02-20T11:02:05Z</time>
      </trkpt>
      <trkpt lat="43.05707" lon="2.75204">
        <ele>284.69</ele>
        <time>2014-02-20T11:02:21Z</time>
      </trkpt>
      <trkpt lat="43.05689" lon="2.75198">
        <ele>282.28</ele>
        <time>2014-02-20T11:02:36Z</time>
      </trkpt>
      <trkpt lat="43.05675" lon="2.75191">
        <ele>280.84</ele>
        <time>2014-02-20T11:02:49Z</time>
      </trkpt>
      <trkpt lat="43.05668" lon="2.75188">
        <ele>279.4</ele>
        <time>2014-02-20T11:03:02Z</time>
      </trkpt>
      <trkpt lat="43.05667" lon="2.75187">
        <ele>280.36</ele>
        <time>2014-02-20T11:03:13Z</time>
      </trkpt>
      <trkpt lat="43.05662" lon="2.75185">
        <ele>279.88</ele>
        <time>2014-02-20T11:03:18Z</time>
      </trkpt>
      <trkpt lat="43.05657" lon="2.75182">
        <ele>278.44</ele>
        <time>2014-02-20T11:03:22Z</time>
      </trkpt>
      <trkpt lat="43.05641" lon="2.75177">
        <ele>275.07</ele>
        <time>2014-02-20T11:03:35Z</time>
      </trkpt>
      <trkpt lat="43.05629" lon="2.75162">
        <ele>274.59</ele>
        <time>2014-02-20T11:03:47Z</time>
      </trkpt>
      <trkpt lat="43.05632" lon="2.75154">
        <ele>274.11</ele>
        <time>2014-02-20T11:04:00Z</time>
      </trkpt>
      <trkpt lat="43.05632" lon="2.75157">
        <ele>274.11</ele>
        <time>2014-02-20T11:04:06Z</time>
      </trkpt>
      <trkpt lat="43.05629" lon="2.75154">
        <ele>273.15</ele>
        <time>2014-02-20T11:04:10Z</time>
      </trkpt>
      <trkpt lat="43.05623" lon="2.7513">
        <ele>272.19</ele>
        <time>2014-02-20T11:04:24Z</time>
      </trkpt>
      <trkpt lat="43.05622" lon="2.75105">
        <ele>269.79</ele>
        <time>2014-02-20T11:04:37Z</time>
      </trkpt>
      <trkpt lat="43.05623" lon="2.75082">
        <ele>267.38</ele>
        <time>2014-02-20T11:04:50Z</time>
      </trkpt>
      <trkpt lat="43.0562" lon="2.7506">
        <ele>264.5</ele>
        <time>2014-02-20T11:05:04Z</time>
      </trkpt>
      <trkpt lat="43.05618" lon="2.75052">
        <ele>262.58</ele>
        <time>2014-02-20T11:05:10Z</time>
      </trkpt>
      <trkpt lat="43.05617" lon="2.75046">
        <ele>260.65</ele>
        <time>2014-02-20T11:05:14Z</time>
      </trkpt>
      <trkpt lat="43.05617" lon="2.75043">
        <ele>260.65</ele>
        <time>2014-02-20T11:05:16Z</time>
      </trkpt>
      <trkpt lat="43.05611" lon="2.75026">
        <ele>257.29</ele>
        <time>2014-02-20T11:05:26Z</time>
      </trkpt>
      <trkpt lat="43.05609" lon="2.75017">
        <ele>255.37</ele>
        <time>2014-02-20T11:05:32Z</time>
      </trkpt>
      <trkpt lat="43.05608" lon="2.75006">
        <ele>253.44</ele>
        <time>2014-02-20T11:05:38Z</time>
      </trkpt>
      <trkpt lat="43.05604" lon="2.74985">
        <ele>250.08</ele>
        <time>2014-02-20T11:05:50Z</time>
      </trkpt>
      <trkpt lat="43.056" lon="2.74974">
        <ele>247.2</ele>
        <time>2014-02-20T11:06:01Z</time>
      </trkpt>
      <trkpt lat="43.05598" lon="2.7496">
        <ele>243.83</ele>
        <time>2014-02-20T11:06:12Z</time>
      </trkpt>
      <trkpt lat="43.05596" lon="2.74934">
        <ele>240.95</ele>
        <time>2014-02-20T11:06:27Z</time>
      </trkpt>
      <trkpt lat="43.05597" lon="2.74916">
        <ele>238.54</ele>
        <time>2014-02-20T11:06:39Z</time>
      </trkpt>
      <trkpt lat="43.05597" lon="2.74909">
        <ele>237.58</ele>
        <time>2014-02-20T11:06:45Z</time>
      </trkpt>
      <trkpt lat="43.05596" lon="2.74904">
        <ele>236.62</ele>
        <time>2014-02-20T11:06:50Z</time>
      </trkpt>
      <trkpt lat="43.05593" lon="2.74901">
        <ele>234.7</ele>
        <time>2014-02-20T11:06:54Z</time>
      </trkpt>
      <trkpt lat="43.05589" lon="2.74898">
        <ele>232.3</ele>
        <time>2014-02-20T11:07:08Z</time>
      </trkpt>
      <trkpt lat="43.05587" lon="2.74894">
        <ele>230.85</ele>
        <time>2014-02-20T11:07:13Z</time>
      </trkpt>
      <trkpt lat="43.05585" lon="2.74877">
        <ele>228.93</ele>
        <time>2014-02-20T11:07:23Z</time>
      </trkpt>
      <trkpt lat="43.05589" lon="2.74851">
        <ele>226.53</ele>
        <time>2014-02-20T11:07:39Z</time>
      </trkpt>
      <trkpt lat="43.05591" lon="2.74839">
        <ele>225.09</ele>
        <time>2014-02-20T11:07:47Z</time>
      </trkpt>
      <trkpt lat="43.05594" lon="2.74833">
        <ele>224.12</ele>
        <time>2014-02-20T11:07:52Z</time>
      </trkpt>
      <trkpt lat="43.05597" lon="2.74813">
        <ele>222.2</ele>
        <time>2014-02-20T11:08:07Z</time>
      </trkpt>
      <trkpt lat="43.056" lon="2.74806">
        <ele>219.8</ele>
        <time>2014-02-20T11:08:20Z</time>
      </trkpt>
      <trkpt lat="43.056" lon="2.74806">
        <ele>219.8</ele>
        <time>2014-02-20T11:08:21Z</time>
      </trkpt>
      <trkpt lat="43.05596" lon="2.74804">
        <ele>217.88</ele>
        <time>2014-02-20T11:08:30Z</time>
      </trkpt>
      <trkpt lat="43.05577" lon="2.74802">
        <ele>214.99</ele>
        <time>2014-02-20T11:08:46Z</time>
      </trkpt>
      <trkpt lat="43.05581" lon="2.74802">
        <ele>215.95</ele>
        <time>2014-02-20T11:08:57Z</time>
      </trkpt>
      <trkpt lat="43.05579" lon="2.74801">
        <ele>215.47</ele>
        <time>2014-02-20T11:09:11Z</time>
      </trkpt>
      <trkpt lat="43.0558" lon="2.74801">
        <ele>214.99</ele>
        <time>2014-02-20T11:09:22Z</time>
      </trkpt>
      <trkpt lat="43.05579" lon="2.74803">
        <ele>219.32</ele>
        <time>2014-02-20T11:09:54Z</time>
      </trkpt>
      <trkpt lat="43.05579" lon="2.74803">
        <ele>214.99</ele>
        <time>2014-02-20T11:09:55Z</time>
      </trkpt>
      <trkpt lat="43.05579" lon="2.74803">
        <ele>218.84</ele>
        <time>2014-02-20T11:09:57Z</time>
      </trkpt>
      <trkpt lat="43.05579" lon="2.74803">
        <ele>214.99</ele>
        <time>2014-02-20T11:09:58Z</time>
      </trkpt>
      <trkpt lat="43.05579" lon="2.74803">
        <ele>216.91</ele>
        <time>2014-02-20T11:10:11Z</time>
      </trkpt>
      <trkpt lat="43.05579" lon="2.74803">
        <ele>213.07</ele>
        <time>2014-02-20T11:10:12Z</time>
      </trkpt>
      <trkpt lat="43.05579" lon="2.74803">
        <ele>215.95</ele>
        <time>2014-02-20T11:10:16Z</time>
      </trkpt>
      <trkpt lat="43.0558" lon="2.74803">
        <ele>214.99</ele>
        <time>2014-02-20T11:10:34Z</time>
      </trkpt>
      <trkpt lat="43.05579" lon="2.74802">
        <ele>214.99</ele>
        <time>2014-02-20T11:11:10Z</time>
      </trkpt>
      <trkpt lat="43.05579" lon="2.748">
        <ele>214.99</ele>
        <time>2014-02-20T11:11:39Z</time>
      </trkpt>
      <trkpt lat="43.05579" lon="2.74799">
        <ele>214.99</ele>
        <time>2014-02-20T11:12:13Z</time>
      </trkpt>
      <trkpt lat="43.05579" lon="2.74799">
        <ele>215.47</ele>
        <time>2014-02-20T11:12:49Z</time>
      </trkpt>
      <trkpt lat="43.05579" lon="2.748">
        <ele>215.47</ele>
        <time>2014-02-20T11:13:26Z</time>
      </trkpt>
      <trkpt lat="43.05579" lon="2.74801">
        <ele>214.99</ele>
        <time>2014-02-20T11:14:00Z</time>
      </trkpt>
      <trkpt lat="43.05578" lon="2.74802">
        <ele>215.47</ele>
        <time>2014-02-20T11:14:38Z</time>
      </trkpt>
      <trkpt lat="43.05577" lon="2.74802">
        <ele>215.95</ele>
        <time>2014-02-20T11:15:15Z</time>
      </trkpt>
      <trkpt lat="43.05577" lon="2.74804">
        <ele>215.95</ele>
        <time>2014-02-20T11:15:52Z</time>
      </trkpt>
      <trkpt lat="43.05577" lon="2.74804">
        <ele>216.43</ele>
        <time>2014-02-20T11:16:26Z</time>
      </trkpt>
      <trkpt lat="43.05577" lon="2.74804">
        <ele>216.43</ele>
        <time>2014-02-20T11:17:02Z</time>
      </trkpt>
      <trkpt lat="43.05576" lon="2.74804">
        <ele>216.91</ele>
        <time>2014-02-20T11:17:38Z</time>
      </trkpt>
      <trkpt lat="43.05576" lon="2.74803">
        <ele>216.91</ele>
        <time>2014-02-20T11:18:18Z</time>
      </trkpt>
      <trkpt lat="43.05577" lon="2.74803">
        <ele>216.43</ele>
        <time>2014-02-20T11:18:54Z</time>
      </trkpt>
      <trkpt lat="43.05576" lon="2.74804">
        <ele>216.91</ele>
        <time>2014-02-20T11:19:29Z</time>
      </trkpt>
      <trkpt lat="43.05576" lon="2.74803">
        <ele>217.4</ele>
        <time>2014-02-20T11:20:00Z</time>
      </trkpt>
      <trkpt lat="43.05576" lon="2.74804">
        <ele>217.4</ele>
        <time>2014-02-20T11:20:33Z</time>
      </trkpt>
      <trkpt lat="43.05575" lon="2.74804">
        <ele>217.4</ele>
        <time>2014-02-20T11:21:05Z</time>
      </trkpt>
      <trkpt lat="43.05575" lon="2.74804">
        <ele>217.88</ele>
        <time>2014-02-20T11:21:40Z</time>
      </trkpt>
      <trkpt lat="43.05575" lon="2.74803">
        <ele>217.88</ele>
        <time>2014-02-20T11:22:11Z</time>
      </trkpt>
      <trkpt lat="43.05575" lon="2.74803">
        <ele>217.88</ele>
        <time>2014-02-20T11:22:44Z</time>
      </trkpt>
      <trkpt lat="43.05575" lon="2.74803">
        <ele>218.36</ele>
        <time>2014-02-20T11:23:16Z</time>
      </trkpt>
      <trkpt lat="43.05575" lon="2.74804">
        <ele>218.36</ele>
        <time>2014-02-20T11:23:54Z</time>
      </trkpt>
      <trkpt lat="43.05575" lon="2.74805">
        <ele>218.84</ele>
        <time>2014-02-20T11:24:27Z</time>
      </trkpt>
      <trkpt lat="43.05574" lon="2.74804">
        <ele>218.36</ele>
        <time>2014-02-20T11:25:06Z</time>
      </trkpt>
      <trkpt lat="43.05574" lon="2.74804">
        <ele>218.36</ele>
        <time>2014-02-20T11:25:42Z</time>
      </trkpt>
      <trkpt lat="43.05574" lon="2.74803">
        <ele>218.84</ele>
        <time>2014-02-20T11:26:13Z</time>
      </trkpt>
      <trkpt lat="43.05574" lon="2.74803">
        <ele>218.84</ele>
        <time>2014-02-20T11:26:43Z</time>
      </trkpt>
      <trkpt lat="43.05574" lon="2.74804">
        <ele>218.84</ele>
        <time>2014-02-20T11:27:18Z</time>
      </trkpt>
      <trkpt lat="43.05575" lon="2.74804">
        <ele>218.84</ele>
        <time>2014-02-20T11:27:50Z</time>
      </trkpt>
      <trkpt lat="43.05575" lon="2.74804">
        <ele>218.36</ele>
        <time>2014-02-20T11:28:25Z</time>
      </trkpt>
      <trkpt lat="43.05575" lon="2.74804">
        <ele>218.84</ele>
        <time>2014-02-20T11:28:57Z</time>
      </trkpt>
      <trkpt lat="43.05575" lon="2.74804">
        <ele>218.84</ele>
        <time>2014-02-20T11:29:31Z</time>
      </trkpt>
      <trkpt lat="43.05575" lon="2.74803">
        <ele>219.32</ele>
        <time>2014-02-20T11:30:05Z</time>
      </trkpt>
      <trkpt lat="43.05575" lon="2.74803">
        <ele>218.84</ele>
        <time>2014-02-20T11:30:40Z</time>
      </trkpt>
      <trkpt lat="43.05575" lon="2.74803">
        <ele>219.32</ele>
        <time>2014-02-20T11:31:16Z</time>
      </trkpt>
      <trkpt lat="43.05574" lon="2.74803">
        <ele>219.32</ele>
        <time>2014-02-20T11:31:52Z</time>
      </trkpt>
      <trkpt lat="43.05574" lon="2.74802">
        <ele>219.32</ele>
        <time>2014-02-20T11:32:24Z</time>
      </trkpt>
      <trkpt lat="43.05575" lon="2.74802">
        <ele>219.8</ele>
        <time>2014-02-20T11:33:04Z</time>
      </trkpt>
      <trkpt lat="43.05575" lon="2.74802">
        <ele>219.8</ele>
        <time>2014-02-20T11:33:35Z</time>
      </trkpt>
      <trkpt lat="43.05575" lon="2.74801">
        <ele>220.28</ele>
        <time>2014-02-20T11:34:10Z</time>
      </trkpt>
      <trkpt lat="43.05576" lon="2.74801">
        <ele>219.32</ele>
        <time>2014-02-20T11:34:45Z</time>
      </trkpt>
      <trkpt lat="43.05576" lon="2.74801">
        <ele>220.28</ele>
        <time>2014-02-20T11:35:20Z</time>
      </trkpt>
      <trkpt lat="43.05577" lon="2.748">
        <ele>220.28</ele>
        <time>2014-02-20T11:35:56Z</time>
      </trkpt>
      <trkpt lat="43.05577" lon="2.74801">
        <ele>220.76</ele>
        <time>2014-02-20T11:36:31Z</time>
      </trkpt>
      <trkpt lat="43.05577" lon="2.748">
        <ele>220.76</ele>
        <time>2014-02-20T11:36:55Z</time>
      </trkpt>
      <trkpt lat="43.05578" lon="2.74799">
        <ele>220.76</ele>
        <time>2014-02-20T11:37:31Z</time>
      </trkpt>
      <trkpt lat="43.05578" lon="2.74799">
        <ele>220.28</ele>
        <time>2014-02-20T11:38:02Z</time>
      </trkpt>
      <trkpt lat="43.05579" lon="2.74799">
        <ele>220.76</ele>
        <time>2014-02-20T11:38:44Z</time>
      </trkpt>
      <trkpt lat="43.05579" lon="2.748">
        <ele>221.24</ele>
        <time>2014-02-20T11:39:24Z</time>
      </trkpt>
      <trkpt lat="43.05578" lon="2.748">
        <ele>221.24</ele>
        <time>2014-02-20T11:40:02Z</time>
      </trkpt>
      <trkpt lat="43.05578" lon="2.748">
        <ele>220.28</ele>
        <time>2014-02-20T11:40:33Z</time>
      </trkpt>
      <trkpt lat="43.05578" lon="2.748">
        <ele>220.28</ele>
        <time>2014-02-20T11:41:13Z</time>
      </trkpt>
      <trkpt lat="43.05578" lon="2.74801">
        <ele>221.24</ele>
        <time>2014-02-20T11:41:44Z</time>
      </trkpt>
      <trkpt lat="43.05578" lon="2.74801">
        <ele>221.24</ele>
        <time>2014-02-20T11:41:56Z</time>
      </trkpt>
      <trkpt lat="43.05578" lon="2.748">
        <ele>221.24</ele>
        <time>2014-02-20T11:42:14Z</time>
      </trkpt>
      <trkpt lat="43.05579" lon="2.74802">
        <ele>221.24</ele>
        <time>2014-02-20T11:42:43Z</time>
      </trkpt>
      <trkpt lat="43.05579" lon="2.74802">
        <ele>221.24</ele>
        <time>2014-02-20T11:42:59Z</time>
      </trkpt>
      <trkpt lat="43.05579" lon="2.74801">
        <ele>221.24</ele>
        <time>2014-02-20T11:43:17Z</time>
      </trkpt>
      <trkpt lat="43.05577" lon="2.74798">
        <ele>220.28</ele>
        <time>2014-02-20T11:43:31Z</time>
      </trkpt>
      <trkpt lat="43.05577" lon="2.74797">
        <ele>220.28</ele>
        <time>2014-02-20T11:43:34Z</time>
      </trkpt>
      <trkpt lat="43.05575" lon="2.74796">
        <ele>220.76</ele>
        <time>2014-02-20T11:43:36Z</time>
      </trkpt>
      <trkpt lat="43.05568" lon="2.74799">
        <ele>219.8</ele>
        <time>2014-02-20T11:43:48Z</time>
      </trkpt>
      <trkpt lat="43.05568" lon="2.74799">
        <ele>219.8</ele>
        <time>2014-02-20T11:43:49Z</time>
      </trkpt>
      <trkpt lat="43.05562" lon="2.74801">
        <ele>219.32</ele>
        <time>2014-02-20T11:43:58Z</time>
      </trkpt>
      <trkpt lat="43.05558" lon="2.748">
        <ele>219.32</ele>
        <time>2014-02-20T11:44:02Z</time>
      </trkpt>
      <trkpt lat="43.05547" lon="2.74795">
        <ele>218.36</ele>
        <time>2014-02-20T11:44:12Z</time>
      </trkpt>
      <trkpt lat="43.05541" lon="2.74795">
        <ele>217.4</ele>
        <time>2014-02-20T11:44:19Z</time>
      </trkpt>
      <trkpt lat="43.0553" lon="2.74792">
        <ele>217.4</ele>
        <time>2014-02-20T11:44:31Z</time>
      </trkpt>
      <trkpt lat="43.05518" lon="2.74786">
        <ele>216.43</ele>
        <time>2014-02-20T11:44:44Z</time>
      </trkpt>
      <trkpt lat="43.05506" lon="2.74779">
        <ele>214.99</ele>
        <time>2014-02-20T11:44:56Z</time>
      </trkpt>
      <trkpt lat="43.05502" lon="2.74776">
        <ele>214.51</ele>
        <time>2014-02-20T11:45:01Z</time>
      </trkpt>
      <trkpt lat="43.05498" lon="2.74773">
        <ele>214.03</ele>
        <time>2014-02-20T11:45:05Z</time>
      </trkpt>
      <trkpt lat="43.05495" lon="2.74772">
        <ele>213.55</ele>
        <time>2014-02-20T11:45:07Z</time>
      </trkpt>
      <trkpt lat="43.05487" lon="2.74755">
        <ele>212.11</ele>
        <time>2014-02-20T11:45:19Z</time>
      </trkpt>
      <trkpt lat="43.05484" lon="2.74749">
        <ele>211.63</ele>
        <time>2014-02-20T11:45:24Z</time>
      </trkpt>
      <trkpt lat="43.05469" lon="2.74735">
        <ele>210.19</ele>
        <time>2014-02-20T11:45:39Z</time>
      </trkpt>
      <trkpt lat="43.05465" lon="2.74733">
        <ele>210.67</ele>
        <time>2014-02-20T11:45:43Z</time>
      </trkpt>
      <trkpt lat="43.05457" lon="2.7473">
        <ele>210.19</ele>
        <time>2014-02-20T11:45:49Z</time>
      </trkpt>
      <trkpt lat="43.05445" lon="2.74723">
        <ele>207.78</ele>
        <time>2014-02-20T11:46:01Z</time>
      </trkpt>
      <trkpt lat="43.05439" lon="2.74721">
        <ele>207.3</ele>
        <time>2014-02-20T11:46:06Z</time>
      </trkpt>
      <trkpt lat="43.05436" lon="2.7472">
        <ele>206.34</ele>
        <time>2014-02-20T11:46:09Z</time>
      </trkpt>
      <trkpt lat="43.05431" lon="2.74718">
        <ele>206.34</ele>
        <time>2014-02-20T11:46:13Z</time>
      </trkpt>
      <trkpt lat="43.05426" lon="2.74716">
        <ele>205.86</ele>
        <time>2014-02-20T11:46:18Z</time>
      </trkpt>
      <trkpt lat="43.05424" lon="2.74714">
        <ele>205.38</ele>
        <time>2014-02-20T11:46:20Z</time>
      </trkpt>
      <trkpt lat="43.05418" lon="2.7471">
        <ele>204.9</ele>
        <time>2014-02-20T11:46:26Z</time>
      </trkpt>
      <trkpt lat="43.05415" lon="2.74707">
        <ele>204.9</ele>
        <time>2014-02-20T11:46:29Z</time>
      </trkpt>
      <trkpt lat="43.05408" lon="2.74705">
        <ele>204.42</ele>
        <time>2014-02-20T11:46:36Z</time>
      </trkpt>
      <trkpt lat="43.05402" lon="2.74708">
        <ele>203.94</ele>
        <time>2014-02-20T11:46:41Z</time>
      </trkpt>
      <trkpt lat="43.05388" lon="2.74721">
        <ele>203.46</ele>
        <time>2014-02-20T11:46:55Z</time>
      </trkpt>
      <trkpt lat="43.05384" lon="2.74725">
        <ele>203.94</ele>
        <time>2014-02-20T11:47:05Z</time>
      </trkpt>
      <trkpt lat="43.05382" lon="2.74726">
        <ele>203.46</ele>
        <time>2014-02-20T11:47:15Z</time>
      </trkpt>
      <trkpt lat="43.05381" lon="2.74727">
        <ele>202.98</ele>
        <time>2014-02-20T11:47:17Z</time>
      </trkpt>
      <trkpt lat="43.05378" lon="2.74727">
        <ele>202.98</ele>
        <time>2014-02-20T11:47:20Z</time>
      </trkpt>
      <trkpt lat="43.05375" lon="2.74729">
        <ele>202.49</ele>
        <time>2014-02-20T11:47:31Z</time>
      </trkpt>
      <trkpt lat="43.05373" lon="2.7473">
        <ele>202.49</ele>
        <time>2014-02-20T11:47:38Z</time>
      </trkpt>
      <trkpt lat="43.05368" lon="2.7473">
        <ele>202.98</ele>
        <time>2014-02-20T11:47:45Z</time>
      </trkpt>
      <trkpt lat="43.05357" lon="2.74728">
        <ele>202.01</ele>
        <time>2014-02-20T11:47:55Z</time>
      </trkpt>
      <trkpt lat="43.05348" lon="2.74727">
        <ele>202.01</ele>
        <time>2014-02-20T11:48:01Z</time>
      </trkpt>
      <trkpt lat="43.0534" lon="2.74726">
        <ele>201.53</ele>
        <time>2014-02-20T11:48:06Z</time>
      </trkpt>
      <trkpt lat="43.05328" lon="2.74728">
        <ele>201.53</ele>
        <time>2014-02-20T11:48:15Z</time>
      </trkpt>
      <trkpt lat="43.05317" lon="2.74731">
        <ele>201.05</ele>
        <time>2014-02-20T11:48:25Z</time>
      </trkpt>
      <trkpt lat="43.05302" lon="2.74738">
        <ele>200.09</ele>
        <time>2014-02-20T11:48:39Z</time>
      </trkpt>
      <trkpt lat="43.05297" lon="2.74739">
        <ele>199.13</ele>
        <time>2014-02-20T11:48:45Z</time>
      </trkpt>
      <trkpt lat="43.05285" lon="2.74744">
        <ele>196.73</ele>
        <time>2014-02-20T11:48:56Z</time>
      </trkpt>
      <trkpt lat="43.05279" lon="2.74747">
        <ele>195.28</ele>
        <time>2014-02-20T11:49:02Z</time>
      </trkpt>
      <trkpt lat="43.05269" lon="2.74757">
        <ele>193.84</ele>
        <time>2014-02-20T11:49:15Z</time>
      </trkpt>
      <trkpt lat="43.05262" lon="2.74764">
        <ele>192.88</ele>
        <time>2014-02-20T11:49:22Z</time>
      </trkpt>
      <trkpt lat="43.05256" lon="2.74764">
        <ele>191.44</ele>
        <time>2014-02-20T11:49:28Z</time>
      </trkpt>
      <trkpt lat="43.05249" lon="2.74764">
        <ele>190.96</ele>
        <time>2014-02-20T11:49:34Z</time>
      </trkpt>
      <trkpt lat="43.05246" lon="2.74764">
        <ele>190.48</ele>
        <time>2014-02-20T11:49:37Z</time>
      </trkpt>
      <trkpt lat="43.05239" lon="2.74765">
        <ele>189.04</ele>
        <time>2014-02-20T11:49:45Z</time>
      </trkpt>
      <trkpt lat="43.05236" lon="2.74768">
        <ele>189.04</ele>
        <time>2014-02-20T11:49:48Z</time>
      </trkpt>
      <trkpt lat="43.0522" lon="2.74777">
        <ele>186.63</ele>
        <time>2014-02-20T11:50:00Z</time>
      </trkpt>
      <trkpt lat="43.0521" lon="2.74785">
        <ele>184.23</ele>
        <time>2014-02-20T11:50:11Z</time>
      </trkpt>
      <trkpt lat="43.05208" lon="2.74788">
        <ele>183.27</ele>
        <time>2014-02-20T11:50:15Z</time>
      </trkpt>
      <trkpt lat="43.05194" lon="2.74797">
        <ele>182.31</ele>
        <time>2014-02-20T11:50:28Z</time>
      </trkpt>
      <trkpt lat="43.05188" lon="2.74797">
        <ele>182.31</ele>
        <time>2014-02-20T11:50:33Z</time>
      </trkpt>
      <trkpt lat="43.05173" lon="2.74793">
        <ele>182.31</ele>
        <time>2014-02-20T11:50:46Z</time>
      </trkpt>
      <trkpt lat="43.05167" lon="2.7479">
        <ele>181.83</ele>
        <time>2014-02-20T11:50:51Z</time>
      </trkpt>
      <trkpt lat="43.05151" lon="2.74786">
        <ele>181.83</ele>
        <time>2014-02-20T11:51:03Z</time>
      </trkpt>
      <trkpt lat="43.05148" lon="2.74786">
        <ele>182.31</ele>
        <time>2014-02-20T11:51:05Z</time>
      </trkpt>
      <trkpt lat="43.05142" lon="2.74785">
        <ele>181.83</ele>
        <time>2014-02-20T11:51:10Z</time>
      </trkpt>
      <trkpt lat="43.05134" lon="2.74789">
        <ele>181.83</ele>
        <time>2014-02-20T11:51:17Z</time>
      </trkpt>
      <trkpt lat="43.05126" lon="2.74804">
        <ele>182.31</ele>
        <time>2014-02-20T11:51:27Z</time>
      </trkpt>
      <trkpt lat="43.05123" lon="2.74812">
        <ele>182.31</ele>
        <time>2014-02-20T11:51:34Z</time>
      </trkpt>
      <trkpt lat="43.05116" lon="2.74831">
        <ele>181.35</ele>
        <time>2014-02-20T11:51:47Z</time>
      </trkpt>
      <trkpt lat="43.05109" lon="2.74851">
        <ele>180.38</ele>
        <time>2014-02-20T11:52:02Z</time>
      </trkpt>
      <trkpt lat="43.05108" lon="2.74854">
        <ele>180.87</ele>
        <time>2014-02-20T11:52:04Z</time>
      </trkpt>
      <trkpt lat="43.05102" lon="2.74865">
        <ele>179.9</ele>
        <time>2014-02-20T11:52:14Z</time>
      </trkpt>
      <trkpt lat="43.05096" lon="2.74864">
        <ele>179.42</ele>
        <time>2014-02-20T11:52:19Z</time>
      </trkpt>
      <trkpt lat="43.05084" lon="2.74845">
        <ele>179.42</ele>
        <time>2014-02-20T11:52:35Z</time>
      </trkpt>
      <trkpt lat="43.05082" lon="2.74842">
        <ele>178.94</ele>
        <time>2014-02-20T11:52:45Z</time>
      </trkpt>
      <trkpt lat="43.0508" lon="2.74841">
        <ele>178.46</ele>
        <time>2014-02-20T11:52:54Z</time>
      </trkpt>
      <trkpt lat="43.05078" lon="2.7484">
        <ele>178.94</ele>
        <time>2014-02-20T11:52:56Z</time>
      </trkpt>
      <trkpt lat="43.05068" lon="2.74828">
        <ele>178.46</ele>
        <time>2014-02-20T11:53:09Z</time>
      </trkpt>
      <trkpt lat="43.05057" lon="2.74816">
        <ele>178.94</ele>
        <time>2014-02-20T11:53:23Z</time>
      </trkpt>
      <trkpt lat="43.05047" lon="2.74803">
        <ele>179.42</ele>
        <time>2014-02-20T11:53:36Z</time>
      </trkpt>
      <trkpt lat="43.05043" lon="2.74798">
        <ele>180.38</ele>
        <time>2014-02-20T11:53:41Z</time>
      </trkpt>
      <trkpt lat="43.05037" lon="2.74792">
        <ele>179.9</ele>
        <time>2014-02-20T11:53:49Z</time>
      </trkpt>
      <trkpt lat="43.05034" lon="2.7479">
        <ele>180.38</ele>
        <time>2014-02-20T11:53:53Z</time>
      </trkpt>
      <trkpt lat="43.05024" lon="2.74779">
        <ele>180.38</ele>
        <time>2014-02-20T11:54:05Z</time>
      </trkpt>
      <trkpt lat="43.05021" lon="2.74775">
        <ele>179.9</ele>
        <time>2014-02-20T11:54:15Z</time>
      </trkpt>
      <trkpt lat="43.05018" lon="2.74773">
        <ele>179.9</ele>
        <time>2014-02-20T11:54:20Z</time>
      </trkpt>
      <trkpt lat="43.05001" lon="2.7476">
        <ele>180.38</ele>
        <time>2014-02-20T11:54:37Z</time>
      </trkpt>
      <trkpt lat="43.04999" lon="2.7476">
        <ele>179.42</ele>
        <time>2014-02-20T11:54:40Z</time>
      </trkpt>
      <trkpt lat="43.04982" lon="2.74748">
        <ele>180.87</ele>
        <time>2014-02-20T11:54:55Z</time>
      </trkpt>
      <trkpt lat="43.04965" lon="2.74735">
        <ele>180.87</ele>
        <time>2014-02-20T11:55:11Z</time>
      </trkpt>
      <trkpt lat="43.04963" lon="2.74733">
        <ele>180.87</ele>
        <time>2014-02-20T11:55:13Z</time>
      </trkpt>
      <trkpt lat="43.04946" lon="2.74719">
        <ele>180.38</ele>
        <time>2014-02-20T11:55:30Z</time>
      </trkpt>
      <trkpt lat="43.04936" lon="2.74711">
        <ele>180.87</ele>
        <time>2014-02-20T11:55:39Z</time>
      </trkpt>
      <trkpt lat="43.04929" lon="2.74705">
        <ele>180.87</ele>
        <time>2014-02-20T11:55:46Z</time>
      </trkpt>
      <trkpt lat="43.04914" lon="2.74693">
        <ele>180.87</ele>
        <time>2014-02-20T11:56:00Z</time>
      </trkpt>
      <trkpt lat="43.04895" lon="2.74679">
        <ele>180.87</ele>
        <time>2014-02-20T11:56:17Z</time>
      </trkpt>
      <trkpt lat="43.0488" lon="2.74667">
        <ele>180.87</ele>
        <time>2014-02-20T11:56:32Z</time>
      </trkpt>
      <trkpt lat="43.04861" lon="2.74653">
        <ele>181.83</ele>
        <time>2014-02-20T11:56:47Z</time>
      </trkpt>
      <trkpt lat="43.04846" lon="2.74641">
        <ele>181.83</ele>
        <time>2014-02-20T11:57:01Z</time>
      </trkpt>
      <trkpt lat="43.04844" lon="2.74639">
        <ele>181.83</ele>
        <time>2014-02-20T11:57:03Z</time>
      </trkpt>
      <trkpt lat="43.04826" lon="2.74624">
        <ele>181.83</ele>
        <time>2014-02-20T11:57:19Z</time>
      </trkpt>
      <trkpt lat="43.04818" lon="2.74618">
        <ele>181.83</ele>
        <time>2014-02-20T11:57:26Z</time>
      </trkpt>
      <trkpt lat="43.04802" lon="2.74605">
        <ele>181.83</ele>
        <time>2014-02-20T11:57:41Z</time>
      </trkpt>
      <trkpt lat="43.0479" lon="2.74583">
        <ele>182.31</ele>
        <time>2014-02-20T11:57:56Z</time>
      </trkpt>
      <trkpt lat="43.04787" lon="2.74574">
        <ele>183.27</ele>
        <time>2014-02-20T11:58:02Z</time>
      </trkpt>
      <trkpt lat="43.04786" lon="2.74562">
        <ele>183.27</ele>
        <time>2014-02-20T11:58:10Z</time>
      </trkpt>
      <trkpt lat="43.04787" lon="2.7455">
        <ele>183.27</ele>
        <time>2014-02-20T11:58:21Z</time>
      </trkpt>
      <trkpt lat="43.04786" lon="2.74544">
        <ele>183.27</ele>
        <time>2014-02-20T11:58:25Z</time>
      </trkpt>
      <trkpt lat="43.04785" lon="2.74538">
        <ele>184.23</ele>
        <time>2014-02-20T11:58:39Z</time>
      </trkpt>
      <trkpt lat="43.04786" lon="2.74534">
        <ele>183.27</ele>
        <time>2014-02-20T11:58:42Z</time>
      </trkpt>
      <trkpt lat="43.04786" lon="2.74529">
        <ele>183.75</ele>
        <time>2014-02-20T11:58:47Z</time>
      </trkpt>
      <trkpt lat="43.04785" lon="2.74522">
        <ele>184.23</ele>
        <time>2014-02-20T11:58:51Z</time>
      </trkpt>
      <trkpt lat="43.04786" lon="2.74498">
        <ele>184.23</ele>
        <time>2014-02-20T11:59:04Z</time>
      </trkpt>
      <trkpt lat="43.04788" lon="2.74488">
        <ele>185.19</ele>
        <time>2014-02-20T11:59:19Z</time>
      </trkpt>
      <trkpt lat="43.04789" lon="2.74486">
        <ele>184.71</ele>
        <time>2014-02-20T11:59:25Z</time>
      </trkpt>
      <trkpt lat="43.04793" lon="2.74467">
        <ele>185.19</ele>
        <time>2014-02-20T11:59:37Z</time>
      </trkpt>
      <trkpt lat="43.04801" lon="2.74448">
        <ele>187.11</ele>
        <time>2014-02-20T11:59:50Z</time>
      </trkpt>
      <trkpt lat="43.04808" lon="2.74439">
        <ele>187.59</ele>
        <time>2014-02-20T11:59:59Z</time>
      </trkpt>
      <trkpt lat="43.04814" lon="2.74436">
        <ele>187.11</ele>
        <time>2014-02-20T12:00:10Z</time>
      </trkpt>
      <trkpt lat="43.04816" lon="2.74435">
        <ele>187.59</ele>
        <time>2014-02-20T12:00:12Z</time>
      </trkpt>
      <trkpt lat="43.04823" lon="2.74434">
        <ele>189.04</ele>
        <time>2014-02-20T12:00:20Z</time>
      </trkpt>
      <trkpt lat="43.04839" lon="2.74431">
        <ele>189.04</ele>
        <time>2014-02-20T12:00:35Z</time>
      </trkpt>
      <trkpt lat="43.04844" lon="2.74431">
        <ele>189.04</ele>
        <time>2014-02-20T12:00:40Z</time>
      </trkpt>
      <trkpt lat="43.04851" lon="2.74428">
        <ele>190</ele>
        <time>2014-02-20T12:00:47Z</time>
      </trkpt>
      <trkpt lat="43.04862" lon="2.74408">
        <ele>190</ele>
        <time>2014-02-20T12:01:02Z</time>
      </trkpt>
      <trkpt lat="43.04867" lon="2.74394">
        <ele>190</ele>
        <time>2014-02-20T12:01:13Z</time>
      </trkpt>
      <trkpt lat="43.04872" lon="2.74375">
        <ele>190</ele>
        <time>2014-02-20T12:01:26Z</time>
      </trkpt>
      <trkpt lat="43.04873" lon="2.74365">
        <ele>189.52</ele>
        <time>2014-02-20T12:01:32Z</time>
      </trkpt>
      <trkpt lat="43.04874" lon="2.7436">
        <ele>190</ele>
        <time>2014-02-20T12:01:35Z</time>
      </trkpt>
      <trkpt lat="43.04874" lon="2.74354">
        <ele>190.48</ele>
        <time>2014-02-20T12:01:39Z</time>
      </trkpt>
      <trkpt lat="43.04871" lon="2.74345">
        <ele>190.96</ele>
        <time>2014-02-20T12:01:46Z</time>
      </trkpt>
      <trkpt lat="43.04865" lon="2.7433">
        <ele>191.44</ele>
        <time>2014-02-20T12:01:56Z</time>
      </trkpt>
      <trkpt lat="43.04856" lon="2.74306">
        <ele>190.96</ele>
        <time>2014-02-20T12:02:11Z</time>
      </trkpt>
      <trkpt lat="43.04846" lon="2.74286">
        <ele>191.44</ele>
        <time>2014-02-20T12:02:24Z</time>
      </trkpt>
      <trkpt lat="43.04837" lon="2.74263">
        <ele>191.92</ele>
        <time>2014-02-20T12:02:39Z</time>
      </trkpt>
      <trkpt lat="43.0483" lon="2.74249">
        <ele>191.92</ele>
        <time>2014-02-20T12:02:49Z</time>
      </trkpt>
      <trkpt lat="43.04825" lon="2.74238">
        <ele>192.4</ele>
        <time>2014-02-20T12:02:57Z</time>
      </trkpt>
      <trkpt lat="43.04813" lon="2.74211">
        <ele>192.88</ele>
        <time>2014-02-20T12:03:15Z</time>
      </trkpt>
      <trkpt lat="43.04804" lon="2.7419">
        <ele>193.84</ele>
        <time>2014-02-20T12:03:29Z</time>
      </trkpt>
      <trkpt lat="43.04801" lon="2.74175">
        <ele>194.32</ele>
        <time>2014-02-20T12:03:38Z</time>
      </trkpt>
      <trkpt lat="43.04796" lon="2.74151">
        <ele>194.8</ele>
        <time>2014-02-20T12:03:52Z</time>
      </trkpt>
      <trkpt lat="43.04795" lon="2.7413">
        <ele>194.8</ele>
        <time>2014-02-20T12:04:05Z</time>
      </trkpt>
      <trkpt lat="43.04792" lon="2.74104">
        <ele>195.28</ele>
        <time>2014-02-20T12:04:20Z</time>
      </trkpt>
      <trkpt lat="43.0479" lon="2.74093">
        <ele>195.77</ele>
        <time>2014-02-20T12:04:26Z</time>
      </trkpt>
      <trkpt lat="43.04789" lon="2.74081">
        <ele>195.28</ele>
        <time>2014-02-20T12:04:33Z</time>
      </trkpt>
      <trkpt lat="43.04786" lon="2.74058">
        <ele>196.73</ele>
        <time>2014-02-20T12:04:47Z</time>
      </trkpt>
      <trkpt lat="43.04785" lon="2.74035">
        <ele>198.17</ele>
        <time>2014-02-20T12:05:01Z</time>
      </trkpt>
      <trkpt lat="43.04786" lon="2.74011">
        <ele>197.69</ele>
        <time>2014-02-20T12:05:15Z</time>
      </trkpt>
      <trkpt lat="43.04789" lon="2.73986">
        <ele>198.17</ele>
        <time>2014-02-20T12:05:30Z</time>
      </trkpt>
      <trkpt lat="43.04792" lon="2.73974">
        <ele>198.65</ele>
        <time>2014-02-20T12:05:38Z</time>
      </trkpt>
      <trkpt lat="43.04794" lon="2.73967">
        <ele>198.65</ele>
        <time>2014-02-20T12:05:42Z</time>
      </trkpt>
      <trkpt lat="43.04795" lon="2.73962">
        <ele>198.65</ele>
        <time>2014-02-20T12:05:45Z</time>
      </trkpt>
      <trkpt lat="43.04795" lon="2.73952">
        <ele>199.13</ele>
        <time>2014-02-20T12:05:54Z</time>
      </trkpt>
      <trkpt lat="43.04793" lon="2.73941">
        <ele>199.13</ele>
        <time>2014-02-20T12:06:05Z</time>
      </trkpt>
      <trkpt lat="43.04794" lon="2.73936">
        <ele>199.61</ele>
        <time>2014-02-20T12:06:16Z</time>
      </trkpt>
      <trkpt lat="43.04793" lon="2.73931">
        <ele>199.61</ele>
        <time>2014-02-20T12:06:25Z</time>
      </trkpt>
      <trkpt lat="43.04793" lon="2.73929">
        <ele>200.09</ele>
        <time>2014-02-20T12:06:26Z</time>
      </trkpt>
      <trkpt lat="43.0479" lon="2.73907">
        <ele>200.09</ele>
        <time>2014-02-20T12:06:38Z</time>
      </trkpt>
      <trkpt lat="43.04786" lon="2.73888">
        <ele>201.53</ele>
        <time>2014-02-20T12:06:52Z</time>
      </trkpt>
      <trkpt lat="43.04782" lon="2.73864">
        <ele>203.46</ele>
        <time>2014-02-20T12:07:07Z</time>
      </trkpt>
      <trkpt lat="43.0478" lon="2.73857">
        <ele>204.42</ele>
        <time>2014-02-20T12:07:12Z</time>
      </trkpt>
      <trkpt lat="43.04779" lon="2.73853">
        <ele>204.9</ele>
        <time>2014-02-20T12:07:16Z</time>
      </trkpt>
      <trkpt lat="43.04774" lon="2.73833">
        <ele>205.86</ele>
        <time>2014-02-20T12:07:28Z</time>
      </trkpt>
      <trkpt lat="43.04772" lon="2.73827">
        <ele>206.34</ele>
        <time>2014-02-20T12:07:32Z</time>
      </trkpt>
      <trkpt lat="43.04767" lon="2.73814">
        <ele>206.82</ele>
        <time>2014-02-20T12:07:41Z</time>
      </trkpt>
      <trkpt lat="43.04764" lon="2.73806">
        <ele>207.3</ele>
        <time>2014-02-20T12:07:47Z</time>
      </trkpt>
      <trkpt lat="43.04757" lon="2.73794">
        <ele>208.74</ele>
        <time>2014-02-20T12:07:59Z</time>
      </trkpt>
      <trkpt lat="43.04757" lon="2.73794">
        <ele>208.74</ele>
        <time>2014-02-20T12:08:00Z</time>
      </trkpt>
      <trkpt lat="43.04754" lon="2.73791">
        <ele>208.74</ele>
        <time>2014-02-20T12:08:03Z</time>
      </trkpt>
      <trkpt lat="43.0475" lon="2.73784">
        <ele>208.74</ele>
        <time>2014-02-20T12:08:09Z</time>
      </trkpt>
      <trkpt lat="43.04737" lon="2.73769">
        <ele>209.22</ele>
        <time>2014-02-20T12:08:23Z</time>
      </trkpt>
      <trkpt lat="43.04727" lon="2.73758">
        <ele>210.19</ele>
        <time>2014-02-20T12:08:34Z</time>
      </trkpt>
      <trkpt lat="43.04716" lon="2.7375">
        <ele>210.67</ele>
        <time>2014-02-20T12:08:45Z</time>
      </trkpt>
      <trkpt lat="43.04713" lon="2.73747">
        <ele>211.15</ele>
        <time>2014-02-20T12:08:49Z</time>
      </trkpt>
      <trkpt lat="43.04711" lon="2.73744">
        <ele>210.67</ele>
        <time>2014-02-20T12:08:51Z</time>
      </trkpt>
      <trkpt lat="43.04699" lon="2.73728">
        <ele>211.15</ele>
        <time>2014-02-20T12:09:04Z</time>
      </trkpt>
      <trkpt lat="43.0469" lon="2.73716">
        <ele>211.15</ele>
        <time>2014-02-20T12:09:15Z</time>
      </trkpt>
      <trkpt lat="43.04683" lon="2.73708">
        <ele>211.63</ele>
        <time>2014-02-20T12:09:22Z</time>
      </trkpt>
      <trkpt lat="43.04669" lon="2.73695">
        <ele>212.59</ele>
        <time>2014-02-20T12:09:36Z</time>
      </trkpt>
      <trkpt lat="43.04659" lon="2.73684">
        <ele>214.03</ele>
        <time>2014-02-20T12:09:47Z</time>
      </trkpt>
      <trkpt lat="43.04654" lon="2.73677">
        <ele>214.99</ele>
        <time>2014-02-20T12:09:53Z</time>
      </trkpt>
      <trkpt lat="43.04644" lon="2.7367">
        <ele>215.47</ele>
        <time>2014-02-20T12:10:03Z</time>
      </trkpt>
      <trkpt lat="43.04638" lon="2.73667">
        <ele>216.43</ele>
        <time>2014-02-20T12:10:08Z</time>
      </trkpt>
      <trkpt lat="43.04632" lon="2.73664">
        <ele>216.91</ele>
        <time>2014-02-20T12:10:13Z</time>
      </trkpt>
      <trkpt lat="43.0463" lon="2.73663">
        <ele>216.43</ele>
        <time>2014-02-20T12:10:15Z</time>
      </trkpt>
      <trkpt lat="43.04625" lon="2.7366">
        <ele>217.4</ele>
        <time>2014-02-20T12:10:20Z</time>
      </trkpt>
      <trkpt lat="43.0462" lon="2.73657">
        <ele>218.84</ele>
        <time>2014-02-20T12:10:25Z</time>
      </trkpt>
      <trkpt lat="43.04615" lon="2.73654">
        <ele>219.32</ele>
        <time>2014-02-20T12:10:30Z</time>
      </trkpt>
      <trkpt lat="43.046" lon="2.73642">
        <ele>220.28</ele>
        <time>2014-02-20T12:10:45Z</time>
      </trkpt>
      <trkpt lat="43.04584" lon="2.73632">
        <ele>221.72</ele>
        <time>2014-02-20T12:10:59Z</time>
      </trkpt>
      <trkpt lat="43.04574" lon="2.73626">
        <ele>222.2</ele>
        <time>2014-02-20T12:11:09Z</time>
      </trkpt>
      <trkpt lat="43.04567" lon="2.73624">
        <ele>223.16</ele>
        <time>2014-02-20T12:11:15Z</time>
      </trkpt>
      <trkpt lat="43.04556" lon="2.73616">
        <ele>224.61</ele>
        <time>2014-02-20T12:11:26Z</time>
      </trkpt>
      <trkpt lat="43.04543" lon="2.73606">
        <ele>225.57</ele>
        <time>2014-02-20T12:11:38Z</time>
      </trkpt>
      <trkpt lat="43.04536" lon="2.73602">
        <ele>226.53</ele>
        <time>2014-02-20T12:11:44Z</time>
      </trkpt>
      <trkpt lat="43.04525" lon="2.7359">
        <ele>227.97</ele>
        <time>2014-02-20T12:11:56Z</time>
      </trkpt>
      <trkpt lat="43.04511" lon="2.73578">
        <ele>229.41</ele>
        <time>2014-02-20T12:12:10Z</time>
      </trkpt>
      <trkpt lat="43.04504" lon="2.73569">
        <ele>231.81</ele>
        <time>2014-02-20T12:12:24Z</time>
      </trkpt>
      <trkpt lat="43.04503" lon="2.73568">
        <ele>232.3</ele>
        <time>2014-02-20T12:12:32Z</time>
      </trkpt>
      <trkpt lat="43.04503" lon="2.73564">
        <ele>232.78</ele>
        <time>2014-02-20T12:12:35Z</time>
      </trkpt>
      <trkpt lat="43.04503" lon="2.73553">
        <ele>232.78</ele>
        <time>2014-02-20T12:12:46Z</time>
      </trkpt>
      <trkpt lat="43.04503" lon="2.73548">
        <ele>233.26</ele>
        <time>2014-02-20T12:12:49Z</time>
      </trkpt>
      <trkpt lat="43.04502" lon="2.73539">
        <ele>233.74</ele>
        <time>2014-02-20T12:12:54Z</time>
      </trkpt>
      <trkpt lat="43.04498" lon="2.73514">
        <ele>233.74</ele>
        <time>2014-02-20T12:13:08Z</time>
      </trkpt>
      <trkpt lat="43.04494" lon="2.73509">
        <ele>233.26</ele>
        <time>2014-02-20T12:13:13Z</time>
      </trkpt>
      <trkpt lat="43.04477" lon="2.73506">
        <ele>233.26</ele>
        <time>2014-02-20T12:13:27Z</time>
      </trkpt>
      <trkpt lat="43.04459" lon="2.73515">
        <ele>234.22</ele>
        <time>2014-02-20T12:13:42Z</time>
      </trkpt>
      <trkpt lat="43.04451" lon="2.73521">
        <ele>234.7</ele>
        <time>2014-02-20T12:13:50Z</time>
      </trkpt>
      <trkpt lat="43.0444" lon="2.7353">
        <ele>234.22</ele>
        <time>2014-02-20T12:14:01Z</time>
      </trkpt>
      <trkpt lat="43.04425" lon="2.73533">
        <ele>235.66</ele>
        <time>2014-02-20T12:14:14Z</time>
      </trkpt>
      <trkpt lat="43.04423" lon="2.73534">
        <ele>235.66</ele>
        <time>2014-02-20T12:14:31Z</time>
      </trkpt>
      <trkpt lat="43.04423" lon="2.73533">
        <ele>236.62</ele>
        <time>2014-02-20T12:14:43Z</time>
      </trkpt>
      <trkpt lat="43.0442" lon="2.73536">
        <ele>236.14</ele>
        <time>2014-02-20T12:14:56Z</time>
      </trkpt>
      <trkpt lat="43.0442" lon="2.73535">
        <ele>235.66</ele>
        <time>2014-02-20T12:15:10Z</time>
      </trkpt>
      <trkpt lat="43.04418" lon="2.73538">
        <ele>236.62</ele>
        <time>2014-02-20T12:15:25Z</time>
      </trkpt>
      <trkpt lat="43.04417" lon="2.73537">
        <ele>237.1</ele>
        <time>2014-02-20T12:15:40Z</time>
      </trkpt>
      <trkpt lat="43.04417" lon="2.73537">
        <ele>233.74</ele>
        <time>2014-02-20T12:15:42Z</time>
      </trkpt>
      <trkpt lat="43.04417" lon="2.73537">
        <ele>237.58</ele>
        <time>2014-02-20T12:15:43Z</time>
      </trkpt>
      <trkpt lat="43.04417" lon="2.73537">
        <ele>240.95</ele>
        <time>2014-02-20T12:15:48Z</time>
      </trkpt>
      <trkpt lat="43.04417" lon="2.73537">
        <ele>237.1</ele>
        <time>2014-02-20T12:15:49Z</time>
      </trkpt>
      <trkpt lat="43.04417" lon="2.73537">
        <ele>236.14</ele>
        <time>2014-02-20T12:16:03Z</time>
      </trkpt>
      <trkpt lat="43.04417" lon="2.73537">
        <ele>228.45</ele>
        <time>2014-02-20T12:16:07Z</time>
      </trkpt>
      <trkpt lat="43.04417" lon="2.73537">
        <ele>239.99</ele>
        <time>2014-02-20T12:16:08Z</time>
      </trkpt>
      <trkpt lat="43.04417" lon="2.73537">
        <ele>236.62</ele>
        <time>2014-02-20T12:16:09Z</time>
      </trkpt>
      <trkpt lat="43.04417" lon="2.73537">
        <ele>233.74</ele>
        <time>2014-02-20T12:16:12Z</time>
      </trkpt>
      <trkpt lat="43.04417" lon="2.73537">
        <ele>240.95</ele>
        <time>2014-02-20T12:16:13Z</time>
      </trkpt>
      <trkpt lat="43.04417" lon="2.73537">
        <ele>233.26</ele>
        <time>2014-02-20T12:16:14Z</time>
      </trkpt>
      <trkpt lat="43.04417" lon="2.73537">
        <ele>240.95</ele>
        <time>2014-02-20T12:16:15Z</time>
      </trkpt>
      <trkpt lat="43.04417" lon="2.73537">
        <ele>236.62</ele>
        <time>2014-02-20T12:16:16Z</time>
      </trkpt>
      <trkpt lat="43.04417" lon="2.73537">
        <ele>229.89</ele>
        <time>2014-02-20T12:16:18Z</time>
      </trkpt>
      <trkpt lat="43.04417" lon="2.73537">
        <ele>236.62</ele>
        <time>2014-02-20T12:16:19Z</time>
      </trkpt>
      <trkpt lat="43.04417" lon="2.73537">
        <ele>237.1</ele>
        <time>2014-02-20T12:16:23Z</time>
      </trkpt>
      <trkpt lat="43.04417" lon="2.73537">
        <ele>232.3</ele>
        <time>2014-02-20T12:16:24Z</time>
      </trkpt>
      <trkpt lat="43.04417" lon="2.73537">
        <ele>237.58</ele>
        <time>2014-02-20T12:16:25Z</time>
      </trkpt>
      <trkpt lat="43.04417" lon="2.73537">
        <ele>243.83</ele>
        <time>2014-02-20T12:16:26Z</time>
      </trkpt>
      <trkpt lat="43.04417" lon="2.73537">
        <ele>238.06</ele>
        <time>2014-02-20T12:16:27Z</time>
      </trkpt>
      <trkpt lat="43.04417" lon="2.73536">
        <ele>237.1</ele>
        <time>2014-02-20T12:16:29Z</time>
      </trkpt>
      <trkpt lat="43.04417" lon="2.73536">
        <ele>230.85</ele>
        <time>2014-02-20T12:16:32Z</time>
      </trkpt>
      <trkpt lat="43.04417" lon="2.73536">
        <ele>238.54</ele>
        <time>2014-02-20T12:16:33Z</time>
      </trkpt>
      <trkpt lat="43.04417" lon="2.73536">
        <ele>228.45</ele>
        <time>2014-02-20T12:16:36Z</time>
      </trkpt>
      <trkpt lat="43.04417" lon="2.73536">
        <ele>238.06</ele>
        <time>2014-02-20T12:16:37Z</time>
      </trkpt>
      <trkpt lat="43.04417" lon="2.73536">
        <ele>226.53</ele>
        <time>2014-02-20T12:16:38Z</time>
      </trkpt>
      <trkpt lat="43.04417" lon="2.73536">
        <ele>239.99</ele>
        <time>2014-02-20T12:16:39Z</time>
      </trkpt>
      <trkpt lat="43.04417" lon="2.73536">
        <ele>234.22</ele>
        <time>2014-02-20T12:16:40Z</time>
      </trkpt>
      <trkpt lat="43.04417" lon="2.73536">
        <ele>242.39</ele>
        <time>2014-02-20T12:16:41Z</time>
      </trkpt>
      <trkpt lat="43.04417" lon="2.73536">
        <ele>237.1</ele>
        <time>2014-02-20T12:16:42Z</time>
      </trkpt>
      <trkpt lat="43.04417" lon="2.73535">
        <ele>240.95</ele>
        <time>2014-02-20T12:17:04Z</time>
      </trkpt>
      <trkpt lat="43.04417" lon="2.73535">
        <ele>236.14</ele>
        <time>2014-02-20T12:17:05Z</time>
      </trkpt>
      <trkpt lat="43.04417" lon="2.73536">
        <ele>241.91</ele>
        <time>2014-02-20T12:17:10Z</time>
      </trkpt>
      <trkpt lat="43.04417" lon="2.73536">
        <ele>240.47</ele>
        <time>2014-02-20T12:17:11Z</time>
      </trkpt>
      <trkpt lat="43.04417" lon="2.73536">
        <ele>233.74</ele>
        <time>2014-02-20T12:17:12Z</time>
      </trkpt>
      <trkpt lat="43.04417" lon="2.73536">
        <ele>237.1</ele>
        <time>2014-02-20T12:17:13Z</time>
      </trkpt>
      <trkpt lat="43.04417" lon="2.73536">
        <ele>240.95</ele>
        <time>2014-02-20T12:17:14Z</time>
      </trkpt>
      <trkpt lat="43.04417" lon="2.73536">
        <ele>237.1</ele>
        <time>2014-02-20T12:17:15Z</time>
      </trkpt>
      <trkpt lat="43.04417" lon="2.73535">
        <ele>232.78</ele>
        <time>2014-02-20T12:17:34Z</time>
      </trkpt>
      <trkpt lat="43.04417" lon="2.73535">
        <ele>238.54</ele>
        <time>2014-02-20T12:17:35Z</time>
      </trkpt>
      <trkpt lat="43.04417" lon="2.73535">
        <ele>232.78</ele>
        <time>2014-02-20T12:17:57Z</time>
      </trkpt>
      <trkpt lat="43.04416" lon="2.73535">
        <ele>238.06</ele>
        <time>2014-02-20T12:17:58Z</time>
      </trkpt>
      <trkpt lat="43.04416" lon="2.73537">
        <ele>236.14</ele>
        <time>2014-02-20T12:18:21Z</time>
      </trkpt>
      <trkpt lat="43.04416" lon="2.73538">
        <ele>236.14</ele>
        <time>2014-02-20T12:18:38Z</time>
      </trkpt>
      <trkpt lat="43.04414" lon="2.73541">
        <ele>236.62</ele>
        <time>2014-02-20T12:18:41Z</time>
      </trkpt>
      <trkpt lat="43.04411" lon="2.73543">
        <ele>237.1</ele>
        <time>2014-02-20T12:18:44Z</time>
      </trkpt>
      <trkpt lat="43.04405" lon="2.73547">
        <ele>237.58</ele>
        <time>2014-02-20T12:18:51Z</time>
      </trkpt>
      <trkpt lat="43.04397" lon="2.73554">
        <ele>239.51</ele>
        <time>2014-02-20T12:19:04Z</time>
      </trkpt>
      <trkpt lat="43.04396" lon="2.73555">
        <ele>239.99</ele>
        <time>2014-02-20T12:19:07Z</time>
      </trkpt>
      <trkpt lat="43.04391" lon="2.73557">
        <ele>240.47</ele>
        <time>2014-02-20T12:19:14Z</time>
      </trkpt>
      <trkpt lat="43.04378" lon="2.73558">
        <ele>241.43</ele>
        <time>2014-02-20T12:19:27Z</time>
      </trkpt>
      <trkpt lat="43.04365" lon="2.73559">
        <ele>242.87</ele>
        <time>2014-02-20T12:19:40Z</time>
      </trkpt>
      <trkpt lat="43.04355" lon="2.73561">
        <ele>243.83</ele>
        <time>2014-02-20T12:19:51Z</time>
      </trkpt>
      <trkpt lat="43.04349" lon="2.73563">
        <ele>244.31</ele>
        <time>2014-02-20T12:19:58Z</time>
      </trkpt>
      <trkpt lat="43.04342" lon="2.73568">
        <ele>246.23</ele>
        <time>2014-02-20T12:20:05Z</time>
      </trkpt>
      <trkpt lat="43.04339" lon="2.7357">
        <ele>246.72</ele>
        <time>2014-02-20T12:20:08Z</time>
      </trkpt>
      <trkpt lat="43.0433" lon="2.73577">
        <ele>247.68</ele>
        <time>2014-02-20T12:20:17Z</time>
      </trkpt>
      <trkpt lat="43.04325" lon="2.73581">
        <ele>248.16</ele>
        <time>2014-02-20T12:20:21Z</time>
      </trkpt>
      <trkpt lat="43.0431" lon="2.73588">
        <ele>249.6</ele>
        <time>2014-02-20T12:20:33Z</time>
      </trkpt>
      <trkpt lat="43.04308" lon="2.73588">
        <ele>250.56</ele>
        <time>2014-02-20T12:20:36Z</time>
      </trkpt>
      <trkpt lat="43.04292" lon="2.73589">
        <ele>251.04</ele>
        <time>2014-02-20T12:20:48Z</time>
      </trkpt>
      <trkpt lat="43.04284" lon="2.73589">
        <ele>251.52</ele>
        <time>2014-02-20T12:20:55Z</time>
      </trkpt>
      <trkpt lat="43.04273" lon="2.73593">
        <ele>252.96</ele>
        <time>2014-02-20T12:21:04Z</time>
      </trkpt>
      <trkpt lat="43.04269" lon="2.73593">
        <ele>251.52</ele>
        <time>2014-02-20T12:21:07Z</time>
      </trkpt>
      <trkpt lat="43.04265" lon="2.73593">
        <ele>252.48</ele>
        <time>2014-02-20T12:21:10Z</time>
      </trkpt>
      <trkpt lat="43.04256" lon="2.7359">
        <ele>254.89</ele>
        <time>2014-02-20T12:21:20Z</time>
      </trkpt>
      <trkpt lat="43.04253" lon="2.7359">
        <ele>255.37</ele>
        <time>2014-02-20T12:21:22Z</time>
      </trkpt>
      <trkpt lat="43.04242" lon="2.7359">
        <ele>258.25</ele>
        <time>2014-02-20T12:21:34Z</time>
      </trkpt>
      <trkpt lat="43.0424" lon="2.73586">
        <ele>258.73</ele>
        <time>2014-02-20T12:21:41Z</time>
      </trkpt>
      <trkpt lat="43.04241" lon="2.73581">
        <ele>259.69</ele>
        <time>2014-02-20T12:21:46Z</time>
      </trkpt>
      <trkpt lat="43.0424" lon="2.73576">
        <ele>260.17</ele>
        <time>2014-02-20T12:21:50Z</time>
      </trkpt>
      <trkpt lat="43.04231" lon="2.73569">
        <ele>264.02</ele>
        <time>2014-02-20T12:22:05Z</time>
      </trkpt>
      <trkpt lat="43.04226" lon="2.73566">
        <ele>266.42</ele>
        <time>2014-02-20T12:22:19Z</time>
      </trkpt>
      <trkpt lat="43.04218" lon="2.73563">
        <ele>269.31</ele>
        <time>2014-02-20T12:22:30Z</time>
      </trkpt>
      <trkpt lat="43.04215" lon="2.7356">
        <ele>269.79</ele>
        <time>2014-02-20T12:22:35Z</time>
      </trkpt>
      <trkpt lat="43.04206" lon="2.7355">
        <ele>272.67</ele>
        <time>2014-02-20T12:22:48Z</time>
      </trkpt>
      <trkpt lat="43.042" lon="2.7354">
        <ele>274.59</ele>
        <time>2014-02-20T12:22:59Z</time>
      </trkpt>
      <trkpt lat="43.04197" lon="2.7353">
        <ele>277.96</ele>
        <time>2014-02-20T12:23:12Z</time>
      </trkpt>
      <trkpt lat="43.04195" lon="2.73526">
        <ele>281.32</ele>
        <time>2014-02-20T12:23:25Z</time>
      </trkpt>
      <trkpt lat="43.04194" lon="2.73518">
        <ele>283.25</ele>
        <time>2014-02-20T12:23:38Z</time>
      </trkpt>
      <trkpt lat="43.04187" lon="2.73512">
        <ele>284.21</ele>
        <time>2014-02-20T12:23:51Z</time>
      </trkpt>
      <trkpt lat="43.04186" lon="2.73512">
        <ele>284.21</ele>
        <time>2014-02-20T12:23:52Z</time>
      </trkpt>
      <trkpt lat="43.04174" lon="2.73507">
        <ele>284.21</ele>
        <time>2014-02-20T12:24:03Z</time>
      </trkpt>
      <trkpt lat="43.04159" lon="2.735">
        <ele>285.17</ele>
        <time>2014-02-20T12:24:16Z</time>
      </trkpt>
      <trkpt lat="43.04155" lon="2.73501">
        <ele>286.13</ele>
        <time>2014-02-20T12:24:19Z</time>
      </trkpt>
      <trkpt lat="43.04146" lon="2.73486">
        <ele>287.57</ele>
        <time>2014-02-20T12:24:31Z</time>
      </trkpt>
      <trkpt lat="43.04144" lon="2.73473">
        <ele>289.97</ele>
        <time>2014-02-20T12:24:41Z</time>
      </trkpt>
      <trkpt lat="43.04144" lon="2.73461">
        <ele>292.38</ele>
        <time>2014-02-20T12:24:49Z</time>
      </trkpt>
      <trkpt lat="43.04143" lon="2.73445">
        <ele>294.78</ele>
        <time>2014-02-20T12:25:02Z</time>
      </trkpt>
      <trkpt lat="43.04141" lon="2.7343">
        <ele>297.18</ele>
        <time>2014-02-20T12:25:15Z</time>
      </trkpt>
      <trkpt lat="43.0414" lon="2.73426">
        <ele>297.18</ele>
        <time>2014-02-20T12:25:19Z</time>
      </trkpt>
      <trkpt lat="43.04136" lon="2.73414">
        <ele>299.59</ele>
        <time>2014-02-20T12:25:31Z</time>
      </trkpt>
      <trkpt lat="43.04125" lon="2.734">
        <ele>300.55</ele>
        <time>2014-02-20T12:25:46Z</time>
      </trkpt>
      <trkpt lat="43.04119" lon="2.73399">
        <ele>301.03</ele>
        <time>2014-02-20T12:25:52Z</time>
      </trkpt>
      <trkpt lat="43.04108" lon="2.73392">
        <ele>302.95</ele>
        <time>2014-02-20T12:26:05Z</time>
      </trkpt>
      <trkpt lat="43.04102" lon="2.73388">
        <ele>305.84</ele>
        <time>2014-02-20T12:26:20Z</time>
      </trkpt>
      <trkpt lat="43.04101" lon="2.73385">
        <ele>306.32</ele>
        <time>2014-02-20T12:26:23Z</time>
      </trkpt>
      <trkpt lat="43.04096" lon="2.73376">
        <ele>306.32</ele>
        <time>2014-02-20T12:26:31Z</time>
      </trkpt>
      <trkpt lat="43.04085" lon="2.73361">
        <ele>305.84</ele>
        <time>2014-02-20T12:26:46Z</time>
      </trkpt>
      <trkpt lat="43.04082" lon="2.73356">
        <ele>306.32</ele>
        <time>2014-02-20T12:26:51Z</time>
      </trkpt>
      <trkpt lat="43.04079" lon="2.73346">
        <ele>305.36</ele>
        <time>2014-02-20T12:27:01Z</time>
      </trkpt>
      <trkpt lat="43.04074" lon="2.73333">
        <ele>303.91</ele>
        <time>2014-02-20T12:27:13Z</time>
      </trkpt>
      <trkpt lat="43.04073" lon="2.73327">
        <ele>304.39</ele>
        <time>2014-02-20T12:27:17Z</time>
      </trkpt>
      <trkpt lat="43.04069" lon="2.73312">
        <ele>301.51</ele>
        <time>2014-02-20T12:27:28Z</time>
      </trkpt>
      <trkpt lat="43.04069" lon="2.73303">
        <ele>300.07</ele>
        <time>2014-02-20T12:27:36Z</time>
      </trkpt>
      <trkpt lat="43.04069" lon="2.73286">
        <ele>299.11</ele>
        <time>2014-02-20T12:27:48Z</time>
      </trkpt>
      <trkpt lat="43.04069" lon="2.73285">
        <ele>299.11</ele>
        <time>2014-02-20T12:27:49Z</time>
      </trkpt>
      <trkpt lat="43.04066" lon="2.73271">
        <ele>297.18</ele>
        <time>2014-02-20T12:27:58Z</time>
      </trkpt>
      <trkpt lat="43.04063" lon="2.73255">
        <ele>295.74</ele>
        <time>2014-02-20T12:28:09Z</time>
      </trkpt>
      <trkpt lat="43.04059" lon="2.73238">
        <ele>294.3</ele>
        <time>2014-02-20T12:28:21Z</time>
      </trkpt>
      <trkpt lat="43.04059" lon="2.73232">
        <ele>294.3</ele>
        <time>2014-02-20T12:28:25Z</time>
      </trkpt>
      <trkpt lat="43.04058" lon="2.73228">
        <ele>294.78</ele>
        <time>2014-02-20T12:28:28Z</time>
      </trkpt>
      <trkpt lat="43.04058" lon="2.73221">
        <ele>293.34</ele>
        <time>2014-02-20T12:28:33Z</time>
      </trkpt>
      <trkpt lat="43.04057" lon="2.73213">
        <ele>293.34</ele>
        <time>2014-02-20T12:28:39Z</time>
      </trkpt>
      <trkpt lat="43.04055" lon="2.73209">
        <ele>291.9</ele>
        <time>2014-02-20T12:28:44Z</time>
      </trkpt>
      <trkpt lat="43.04055" lon="2.73204">
        <ele>290.94</ele>
        <time>2014-02-20T12:28:48Z</time>
      </trkpt>
      <trkpt lat="43.04054" lon="2.73199">
        <ele>289.97</ele>
        <time>2014-02-20T12:28:52Z</time>
      </trkpt>
      <trkpt lat="43.04053" lon="2.73192">
        <ele>289.49</ele>
        <time>2014-02-20T12:28:58Z</time>
      </trkpt>
      <trkpt lat="43.04051" lon="2.73175">
        <ele>288.53</ele>
        <time>2014-02-20T12:29:09Z</time>
      </trkpt>
      <trkpt lat="43.04047" lon="2.73159">
        <ele>288.53</ele>
        <time>2014-02-20T12:29:21Z</time>
      </trkpt>
      <trkpt lat="43.04046" lon="2.73154">
        <ele>288.05</ele>
        <time>2014-02-20T12:29:24Z</time>
      </trkpt>
      <trkpt lat="43.04043" lon="2.73149">
        <ele>288.53</ele>
        <time>2014-02-20T12:29:28Z</time>
      </trkpt>
      <trkpt lat="43.04041" lon="2.73145">
        <ele>287.57</ele>
        <time>2014-02-20T12:29:31Z</time>
      </trkpt>
      <trkpt lat="43.04036" lon="2.73125">
        <ele>288.05</ele>
        <time>2014-02-20T12:29:45Z</time>
      </trkpt>
      <trkpt lat="43.04029" lon="2.7311">
        <ele>288.05</ele>
        <time>2014-02-20T12:29:57Z</time>
      </trkpt>
      <trkpt lat="43.04025" lon="2.73106">
        <ele>288.05</ele>
        <time>2014-02-20T12:30:01Z</time>
      </trkpt>
      <trkpt lat="43.04015" lon="2.73096">
        <ele>287.57</ele>
        <time>2014-02-20T12:30:15Z</time>
      </trkpt>
      <trkpt lat="43.04012" lon="2.73094">
        <ele>287.57</ele>
        <time>2014-02-20T12:30:18Z</time>
      </trkpt>
      <trkpt lat="43.04011" lon="2.73091">
        <ele>287.57</ele>
        <time>2014-02-20T12:30:21Z</time>
      </trkpt>
      <trkpt lat="43.0401" lon="2.73085">
        <ele>287.09</ele>
        <time>2014-02-20T12:30:25Z</time>
      </trkpt>
      <trkpt lat="43.04005" lon="2.73067">
        <ele>286.13</ele>
        <time>2014-02-20T12:30:38Z</time>
      </trkpt>
      <trkpt lat="43.03997" lon="2.73052">
        <ele>286.13</ele>
        <time>2014-02-20T12:30:49Z</time>
      </trkpt>
      <trkpt lat="43.03996" lon="2.73048">
        <ele>285.65</ele>
        <time>2014-02-20T12:30:51Z</time>
      </trkpt>
      <trkpt lat="43.03993" lon="2.7304">
        <ele>285.17</ele>
        <time>2014-02-20T12:30:57Z</time>
      </trkpt>
      <trkpt lat="43.03992" lon="2.73034">
        <ele>284.69</ele>
        <time>2014-02-20T12:31:03Z</time>
      </trkpt>
      <trkpt lat="43.03988" lon="2.73024">
        <ele>283.73</ele>
        <time>2014-02-20T12:31:16Z</time>
      </trkpt>
      <trkpt lat="43.03984" lon="2.7302">
        <ele>282.77</ele>
        <time>2014-02-20T12:31:22Z</time>
      </trkpt>
      <trkpt lat="43.03981" lon="2.73019">
        <ele>282.28</ele>
        <time>2014-02-20T12:31:25Z</time>
      </trkpt>
      <trkpt lat="43.03976" lon="2.73016">
        <ele>282.28</ele>
        <time>2014-02-20T12:31:31Z</time>
      </trkpt>
      <trkpt lat="43.03972" lon="2.7301">
        <ele>281.8</ele>
        <time>2014-02-20T12:31:35Z</time>
      </trkpt>
      <trkpt lat="43.03966" lon="2.73006">
        <ele>281.8</ele>
        <time>2014-02-20T12:31:38Z</time>
      </trkpt>
      <trkpt lat="43.03958" lon="2.72993">
        <ele>281.32</ele>
        <time>2014-02-20T12:31:49Z</time>
      </trkpt>
      <trkpt lat="43.03956" lon="2.72985">
        <ele>279.88</ele>
        <time>2014-02-20T12:32:01Z</time>
      </trkpt>
      <trkpt lat="43.03951" lon="2.7297">
        <ele>279.4</ele>
        <time>2014-02-20T12:32:11Z</time>
      </trkpt>
      <trkpt lat="43.0395" lon="2.72966">
        <ele>279.4</ele>
        <time>2014-02-20T12:32:13Z</time>
      </trkpt>
      <trkpt lat="43.03941" lon="2.72955">
        <ele>278.44</ele>
        <time>2014-02-20T12:32:24Z</time>
      </trkpt>
      <trkpt lat="43.03943" lon="2.72952">
        <ele>278.92</ele>
        <time>2014-02-20T12:32:39Z</time>
      </trkpt>
      <trkpt lat="43.03946" lon="2.72948">
        <ele>279.4</ele>
        <time>2014-02-20T12:32:47Z</time>
      </trkpt>
      <trkpt lat="43.03954" lon="2.72941">
        <ele>279.4</ele>
        <time>2014-02-20T12:32:56Z</time>
      </trkpt>
      <trkpt lat="43.03958" lon="2.72939">
        <ele>278.92</ele>
        <time>2014-02-20T12:33:00Z</time>
      </trkpt>
      <trkpt lat="43.03962" lon="2.72936">
        <ele>278.44</ele>
        <time>2014-02-20T12:33:03Z</time>
      </trkpt>
      <trkpt lat="43.03964" lon="2.72932">
        <ele>278.44</ele>
        <time>2014-02-20T12:33:14Z</time>
      </trkpt>
      <trkpt lat="43.03964" lon="2.72931">
        <ele>278.92</ele>
        <time>2014-02-20T12:33:17Z</time>
      </trkpt>
      <trkpt lat="43.03965" lon="2.72931">
        <ele>278.92</ele>
        <time>2014-02-20T12:33:20Z</time>
      </trkpt>
      <trkpt lat="43.03975" lon="2.72929">
        <ele>277.96</ele>
        <time>2014-02-20T12:33:30Z</time>
      </trkpt>
      <trkpt lat="43.03984" lon="2.72923">
        <ele>277.48</ele>
        <time>2014-02-20T12:33:43Z</time>
      </trkpt>
      <trkpt lat="43.03991" lon="2.72917">
        <ele>277</ele>
        <time>2014-02-20T12:33:50Z</time>
      </trkpt>
      <trkpt lat="43.03995" lon="2.72913">
        <ele>276.04</ele>
        <time>2014-02-20T12:33:53Z</time>
      </trkpt>
      <trkpt lat="43.04002" lon="2.72905">
        <ele>275.07</ele>
        <time>2014-02-20T12:33:59Z</time>
      </trkpt>
      <trkpt lat="43.04023" lon="2.72899">
        <ele>274.11</ele>
        <time>2014-02-20T12:34:12Z</time>
      </trkpt>
      <trkpt lat="43.04028" lon="2.72896">
        <ele>274.11</ele>
        <time>2014-02-20T12:34:16Z</time>
      </trkpt>
      <trkpt lat="43.04037" lon="2.72894">
        <ele>273.63</ele>
        <time>2014-02-20T12:34:27Z</time>
      </trkpt>
      <trkpt lat="43.04047" lon="2.72891">
        <ele>274.11</ele>
        <time>2014-02-20T12:34:38Z</time>
      </trkpt>
      <trkpt lat="43.04047" lon="2.72887">
        <ele>274.11</ele>
        <time>2014-02-20T12:34:54Z</time>
      </trkpt>
      <trkpt lat="43.04047" lon="2.72886">
        <ele>274.59</ele>
        <time>2014-02-20T12:34:59Z</time>
      </trkpt>
      <trkpt lat="43.04048" lon="2.72885">
        <ele>274.59</ele>
        <time>2014-02-20T12:35:01Z</time>
      </trkpt>
      <trkpt lat="43.04052" lon="2.72885">
        <ele>274.11</ele>
        <time>2014-02-20T12:35:04Z</time>
      </trkpt>
      <trkpt lat="43.04059" lon="2.72887">
        <ele>272.67</ele>
        <time>2014-02-20T12:35:10Z</time>
      </trkpt>
      <trkpt lat="43.04073" lon="2.72885">
        <ele>272.67</ele>
        <time>2014-02-20T12:35:22Z</time>
      </trkpt>
      <trkpt lat="43.0408" lon="2.72884">
        <ele>271.71</ele>
        <time>2014-02-20T12:35:27Z</time>
      </trkpt>
      <trkpt lat="43.04087" lon="2.7288">
        <ele>271.23</ele>
        <time>2014-02-20T12:35:32Z</time>
      </trkpt>
      <trkpt lat="43.04103" lon="2.72878">
        <ele>270.75</ele>
        <time>2014-02-20T12:35:43Z</time>
      </trkpt>
      <trkpt lat="43.04105" lon="2.72878">
        <ele>270.75</ele>
        <time>2014-02-20T12:35:45Z</time>
      </trkpt>
      <trkpt lat="43.04117" lon="2.72882">
        <ele>269.79</ele>
        <time>2014-02-20T12:35:54Z</time>
      </trkpt>
      <trkpt lat="43.0413" lon="2.72897">
        <ele>269.31</ele>
        <time>2014-02-20T12:36:07Z</time>
      </trkpt>
      <trkpt lat="43.04133" lon="2.72903">
        <ele>268.83</ele>
        <time>2014-02-20T12:36:12Z</time>
      </trkpt>
      <trkpt lat="43.04136" lon="2.72913">
        <ele>268.83</ele>
        <time>2014-02-20T12:36:19Z</time>
      </trkpt>
      <trkpt lat="43.04143" lon="2.72932">
        <ele>268.35</ele>
        <time>2014-02-20T12:36:33Z</time>
      </trkpt>
      <trkpt lat="43.04151" lon="2.72943">
        <ele>267.86</ele>
        <time>2014-02-20T12:36:43Z</time>
      </trkpt>
      <trkpt lat="43.04159" lon="2.7295">
        <ele>268.35</ele>
        <time>2014-02-20T12:36:50Z</time>
      </trkpt>
      <trkpt lat="43.04167" lon="2.72956">
        <ele>268.35</ele>
        <time>2014-02-20T12:36:58Z</time>
      </trkpt>
      <trkpt lat="43.04184" lon="2.72966">
        <ele>267.38</ele>
        <time>2014-02-20T12:37:11Z</time>
      </trkpt>
      <trkpt lat="43.04197" lon="2.72971">
        <ele>267.38</ele>
        <time>2014-02-20T12:37:20Z</time>
      </trkpt>
      <trkpt lat="43.04213" lon="2.72969">
        <ele>266.9</ele>
        <time>2014-02-20T12:37:34Z</time>
      </trkpt>
      <trkpt lat="43.04225" lon="2.72955">
        <ele>265.94</ele>
        <time>2014-02-20T12:37:48Z</time>
      </trkpt>
      <trkpt lat="43.04231" lon="2.72938">
        <ele>264.98</ele>
        <time>2014-02-20T12:38:02Z</time>
      </trkpt>
      <trkpt lat="43.04232" lon="2.72937">
        <ele>265.94</ele>
        <time>2014-02-20T12:38:04Z</time>
      </trkpt>
      <trkpt lat="43.04233" lon="2.72934">
        <ele>265.46</ele>
        <time>2014-02-20T12:38:06Z</time>
      </trkpt>
      <trkpt lat="43.04238" lon="2.72916">
        <ele>264.98</ele>
        <time>2014-02-20T12:38:18Z</time>
      </trkpt>
      <trkpt lat="43.0424" lon="2.72909">
        <ele>265.46</ele>
        <time>2014-02-20T12:38:22Z</time>
      </trkpt>
      <trkpt lat="43.04243" lon="2.72901">
        <ele>264.5</ele>
        <time>2014-02-20T12:38:27Z</time>
      </trkpt>
      <trkpt lat="43.04256" lon="2.72887">
        <ele>264.02</ele>
        <time>2014-02-20T12:38:40Z</time>
      </trkpt>
      <trkpt lat="43.04269" lon="2.72884">
        <ele>263.06</ele>
        <time>2014-02-20T12:38:51Z</time>
      </trkpt>
      <trkpt lat="43.04274" lon="2.72885">
        <ele>263.54</ele>
        <time>2014-02-20T12:38:56Z</time>
      </trkpt>
      <trkpt lat="43.04282" lon="2.72887">
        <ele>262.58</ele>
        <time>2014-02-20T12:39:02Z</time>
      </trkpt>
      <trkpt lat="43.04296" lon="2.72893">
        <ele>262.58</ele>
        <time>2014-02-20T12:39:15Z</time>
      </trkpt>
      <trkpt lat="43.04308" lon="2.72895">
        <ele>262.58</ele>
        <time>2014-02-20T12:39:25Z</time>
      </trkpt>
      <trkpt lat="43.04323" lon="2.72896">
        <ele>261.62</ele>
        <time>2014-02-20T12:39:38Z</time>
      </trkpt>
      <trkpt lat="43.04331" lon="2.72897">
        <ele>261.62</ele>
        <time>2014-02-20T12:39:47Z</time>
      </trkpt>
      <trkpt lat="43.04347" lon="2.72895">
        <ele>261.14</ele>
        <time>2014-02-20T12:40:00Z</time>
      </trkpt>
      <trkpt lat="43.04352" lon="2.72897">
        <ele>261.14</ele>
        <time>2014-02-20T12:40:04Z</time>
      </trkpt>
      <trkpt lat="43.04366" lon="2.72896">
        <ele>260.17</ele>
        <time>2014-02-20T12:40:17Z</time>
      </trkpt>
      <trkpt lat="43.0437" lon="2.72893">
        <ele>260.17</ele>
        <time>2014-02-20T12:40:22Z</time>
      </trkpt>
      <trkpt lat="43.04374" lon="2.72889">
        <ele>260.17</ele>
        <time>2014-02-20T12:40:27Z</time>
      </trkpt>
      <trkpt lat="43.0438" lon="2.72883">
        <ele>260.17</ele>
        <time>2014-02-20T12:40:35Z</time>
      </trkpt>
      <trkpt lat="43.04393" lon="2.72867">
        <ele>259.69</ele>
        <time>2014-02-20T12:40:50Z</time>
      </trkpt>
      <trkpt lat="43.04406" lon="2.72855">
        <ele>259.69</ele>
        <time>2014-02-20T12:41:02Z</time>
      </trkpt>
      <trkpt lat="43.04417" lon="2.72849">
        <ele>258.73</ele>
        <time>2014-02-20T12:41:10Z</time>
      </trkpt>
      <trkpt lat="43.0443" lon="2.72842">
        <ele>258.73</ele>
        <time>2014-02-20T12:41:21Z</time>
      </trkpt>
      <trkpt lat="43.04438" lon="2.7284">
        <ele>258.25</ele>
        <time>2014-02-20T12:41:29Z</time>
      </trkpt>
      <trkpt lat="43.04453" lon="2.72836">
        <ele>258.25</ele>
        <time>2014-02-20T12:41:40Z</time>
      </trkpt>
      <trkpt lat="43.04463" lon="2.72831">
        <ele>257.77</ele>
        <time>2014-02-20T12:41:47Z</time>
      </trkpt>
      <trkpt lat="43.04471" lon="2.7283">
        <ele>258.25</ele>
        <time>2014-02-20T12:41:56Z</time>
      </trkpt>
      <trkpt lat="43.04474" lon="2.72831">
        <ele>257.29</ele>
        <time>2014-02-20T12:41:59Z</time>
      </trkpt>
      <trkpt lat="43.04487" lon="2.72837">
        <ele>257.77</ele>
        <time>2014-02-20T12:42:10Z</time>
      </trkpt>
      <trkpt lat="43.04498" lon="2.72848">
        <ele>257.29</ele>
        <time>2014-02-20T12:42:22Z</time>
      </trkpt>
      <trkpt lat="43.04501" lon="2.72851">
        <ele>256.81</ele>
        <time>2014-02-20T12:42:25Z</time>
      </trkpt>
      <trkpt lat="43.04518" lon="2.72862">
        <ele>256.33</ele>
        <time>2014-02-20T12:42:39Z</time>
      </trkpt>
      <trkpt lat="43.04534" lon="2.72865">
        <ele>256.33</ele>
        <time>2014-02-20T12:42:53Z</time>
      </trkpt>
      <trkpt lat="43.0455" lon="2.72869">
        <ele>256.33</ele>
        <time>2014-02-20T12:43:06Z</time>
      </trkpt>
      <trkpt lat="43.04551" lon="2.72869">
        <ele>256.33</ele>
        <time>2014-02-20T12:43:07Z</time>
      </trkpt>
      <trkpt lat="43.04561" lon="2.72871">
        <ele>255.85</ele>
        <time>2014-02-20T12:43:15Z</time>
      </trkpt>
      <trkpt lat="43.04568" lon="2.72875">
        <ele>255.37</ele>
        <time>2014-02-20T12:43:21Z</time>
      </trkpt>
      <trkpt lat="43.04585" lon="2.72882">
        <ele>254.41</ele>
        <time>2014-02-20T12:43:35Z</time>
      </trkpt>
      <trkpt lat="43.04586" lon="2.72882">
        <ele>253.93</ele>
        <time>2014-02-20T12:43:36Z</time>
      </trkpt>
      <trkpt lat="43.04604" lon="2.72882">
        <ele>254.89</ele>
        <time>2014-02-20T12:43:51Z</time>
      </trkpt>
      <trkpt lat="43.04607" lon="2.72882">
        <ele>255.37</ele>
        <time>2014-02-20T12:43:55Z</time>
      </trkpt>
      <trkpt lat="43.04613" lon="2.72881">
        <ele>255.37</ele>
        <time>2014-02-20T12:44:00Z</time>
      </trkpt>
      <trkpt lat="43.04619" lon="2.7288">
        <ele>255.37</ele>
        <time>2014-02-20T12:44:12Z</time>
      </trkpt>
      <trkpt lat="43.0462" lon="2.72879">
        <ele>255.85</ele>
        <time>2014-02-20T12:44:24Z</time>
      </trkpt>
      <trkpt lat="43.04621" lon="2.7288">
        <ele>255.85</ele>
        <time>2014-02-20T12:44:30Z</time>
      </trkpt>
      <trkpt lat="43.04623" lon="2.7288">
        <ele>255.37</ele>
        <time>2014-02-20T12:44:32Z</time>
      </trkpt>
      <trkpt lat="43.04637" lon="2.72876">
        <ele>256.81</ele>
        <time>2014-02-20T12:44:46Z</time>
      </trkpt>
      <trkpt lat="43.04638" lon="2.72876">
        <ele>257.29</ele>
        <time>2014-02-20T12:44:49Z</time>
      </trkpt>
      <trkpt lat="43.04649" lon="2.72873">
        <ele>258.73</ele>
        <time>2014-02-20T12:44:58Z</time>
      </trkpt>
      <trkpt lat="43.04661" lon="2.72871">
        <ele>259.69</ele>
        <time>2014-02-20T12:45:09Z</time>
      </trkpt>
      <trkpt lat="43.04678" lon="2.72868">
        <ele>261.62</ele>
        <time>2014-02-20T12:45:23Z</time>
      </trkpt>
      <trkpt lat="43.04681" lon="2.72866">
        <ele>262.1</ele>
        <time>2014-02-20T12:45:26Z</time>
      </trkpt>
      <trkpt lat="43.04684" lon="2.72866">
        <ele>262.1</ele>
        <time>2014-02-20T12:45:29Z</time>
      </trkpt>
      <trkpt lat="43.04691" lon="2.72863">
        <ele>263.06</ele>
        <time>2014-02-20T12:45:36Z</time>
      </trkpt>
      <trkpt lat="43.04696" lon="2.72863">
        <ele>263.54</ele>
        <time>2014-02-20T12:45:41Z</time>
      </trkpt>
      <trkpt lat="43.04704" lon="2.72862">
        <ele>264.98</ele>
        <time>2014-02-20T12:45:49Z</time>
      </trkpt>
      <trkpt lat="43.04713" lon="2.72863">
        <ele>265.94</ele>
        <time>2014-02-20T12:45:58Z</time>
      </trkpt>
      <trkpt lat="43.04716" lon="2.72863">
        <ele>266.42</ele>
        <time>2014-02-20T12:46:01Z</time>
      </trkpt>
      <trkpt lat="43.04728" lon="2.72865">
        <ele>268.35</ele>
        <time>2014-02-20T12:46:15Z</time>
      </trkpt>
      <trkpt lat="43.04739" lon="2.72868">
        <ele>269.79</ele>
        <time>2014-02-20T12:46:27Z</time>
      </trkpt>
      <trkpt lat="43.04745" lon="2.72867">
        <ele>271.23</ele>
        <time>2014-02-20T12:46:33Z</time>
      </trkpt>
      <trkpt lat="43.04756" lon="2.72868">
        <ele>272.67</ele>
        <time>2014-02-20T12:46:47Z</time>
      </trkpt>
      <trkpt lat="43.04765" lon="2.72864">
        <ele>273.63</ele>
        <time>2014-02-20T12:46:56Z</time>
      </trkpt>
      <trkpt lat="43.0477" lon="2.72863">
        <ele>274.11</ele>
        <time>2014-02-20T12:47:00Z</time>
      </trkpt>
      <trkpt lat="43.04772" lon="2.72864">
        <ele>274.11</ele>
        <time>2014-02-20T12:47:03Z</time>
      </trkpt>
      <trkpt lat="43.04787" lon="2.7286">
        <ele>276.04</ele>
        <time>2014-02-20T12:47:15Z</time>
      </trkpt>
      <trkpt lat="43.0479" lon="2.72859">
        <ele>275.56</ele>
        <time>2014-02-20T12:47:19Z</time>
      </trkpt>
      <trkpt lat="43.04792" lon="2.72857">
        <ele>275.56</ele>
        <time>2014-02-20T12:47:24Z</time>
      </trkpt>
      <trkpt lat="43.04803" lon="2.72842">
        <ele>276.04</ele>
        <time>2014-02-20T12:47:36Z</time>
      </trkpt>
      <trkpt lat="43.04807" lon="2.72837">
        <ele>275.56</ele>
        <time>2014-02-20T12:47:41Z</time>
      </trkpt>
      <trkpt lat="43.04812" lon="2.72832">
        <ele>275.07</ele>
        <time>2014-02-20T12:47:46Z</time>
      </trkpt>
      <trkpt lat="43.04815" lon="2.72829">
        <ele>275.56</ele>
        <time>2014-02-20T12:47:49Z</time>
      </trkpt>
      <trkpt lat="43.04819" lon="2.72826">
        <ele>275.07</ele>
        <time>2014-02-20T12:47:54Z</time>
      </trkpt>
      <trkpt lat="43.04825" lon="2.72825">
        <ele>274.11</ele>
        <time>2014-02-20T12:48:01Z</time>
      </trkpt>
      <trkpt lat="43.04841" lon="2.72814">
        <ele>273.15</ele>
        <time>2014-02-20T12:48:14Z</time>
      </trkpt>
      <trkpt lat="43.04851" lon="2.72808">
        <ele>273.15</ele>
        <time>2014-02-20T12:48:25Z</time>
      </trkpt>
      <trkpt lat="43.04853" lon="2.72807">
        <ele>272.67</ele>
        <time>2014-02-20T12:48:28Z</time>
      </trkpt>
      <trkpt lat="43.04856" lon="2.72805">
        <ele>272.67</ele>
        <time>2014-02-20T12:48:30Z</time>
      </trkpt>
      <trkpt lat="43.04874" lon="2.72796">
        <ele>272.19</ele>
        <time>2014-02-20T12:48:44Z</time>
      </trkpt>
      <trkpt lat="43.0489" lon="2.72791">
        <ele>272.67</ele>
        <time>2014-02-20T12:48:58Z</time>
      </trkpt>
      <trkpt lat="43.04893" lon="2.72792">
        <ele>273.15</ele>
        <time>2014-02-20T12:49:01Z</time>
      </trkpt>
      <trkpt lat="43.04897" lon="2.72798">
        <ele>272.19</ele>
        <time>2014-02-20T12:49:08Z</time>
      </trkpt>
      <trkpt lat="43.04905" lon="2.72802">
        <ele>272.19</ele>
        <time>2014-02-20T12:49:16Z</time>
      </trkpt>
      <trkpt lat="43.04909" lon="2.72804">
        <ele>272.19</ele>
        <time>2014-02-20T12:49:20Z</time>
      </trkpt>
      <trkpt lat="43.04919" lon="2.72805">
        <ele>272.19</ele>
        <time>2014-02-20T12:49:28Z</time>
      </trkpt>
      <trkpt lat="43.04923" lon="2.72793">
        <ele>273.63</ele>
        <time>2014-02-20T12:49:41Z</time>
      </trkpt>
      <trkpt lat="43.04923" lon="2.72781">
        <ele>275.56</ele>
        <time>2014-02-20T12:49:51Z</time>
      </trkpt>
      <trkpt lat="43.04925" lon="2.72778">
        <ele>276.04</ele>
        <time>2014-02-20T12:49:56Z</time>
      </trkpt>
      <trkpt lat="43.04938" lon="2.72767">
        <ele>275.56</ele>
        <time>2014-02-20T12:50:10Z</time>
      </trkpt>
      <trkpt lat="43.04939" lon="2.72766">
        <ele>275.07</ele>
        <time>2014-02-20T12:50:12Z</time>
      </trkpt>
      <trkpt lat="43.04942" lon="2.72763">
        <ele>274.59</ele>
        <time>2014-02-20T12:50:16Z</time>
      </trkpt>
      <trkpt lat="43.04952" lon="2.72751">
        <ele>274.11</ele>
        <time>2014-02-20T12:50:30Z</time>
      </trkpt>
      <trkpt lat="43.04954" lon="2.7275">
        <ele>273.63</ele>
        <time>2014-02-20T12:50:32Z</time>
      </trkpt>
      <trkpt lat="43.04965" lon="2.72737">
        <ele>272.67</ele>
        <time>2014-02-20T12:50:46Z</time>
      </trkpt>
      <trkpt lat="43.04965" lon="2.72737">
        <ele>272.67</ele>
        <time>2014-02-20T12:50:47Z</time>
      </trkpt>
      <trkpt lat="43.04975" lon="2.72724">
        <ele>270.75</ele>
        <time>2014-02-20T12:50:58Z</time>
      </trkpt>
      <trkpt lat="43.0498" lon="2.72717">
        <ele>270.75</ele>
        <time>2014-02-20T12:51:06Z</time>
      </trkpt>
      <trkpt lat="43.04989" lon="2.72698">
        <ele>270.27</ele>
        <time>2014-02-20T12:51:19Z</time>
      </trkpt>
      <trkpt lat="43.04992" lon="2.72692">
        <ele>270.27</ele>
        <time>2014-02-20T12:51:23Z</time>
      </trkpt>
      <trkpt lat="43.04993" lon="2.72687">
        <ele>270.27</ele>
        <time>2014-02-20T12:51:27Z</time>
      </trkpt>
      <trkpt lat="43.04997" lon="2.72667">
        <ele>269.79</ele>
        <time>2014-02-20T12:51:41Z</time>
      </trkpt>
      <trkpt lat="43.04997" lon="2.72657">
        <ele>268.83</ele>
        <time>2014-02-20T12:51:55Z</time>
      </trkpt>
      <trkpt lat="43.04997" lon="2.72657">
        <ele>269.31</ele>
        <time>2014-02-20T12:51:56Z</time>
      </trkpt>
      <trkpt lat="43.04997" lon="2.72654">
        <ele>269.31</ele>
        <time>2014-02-20T12:51:58Z</time>
      </trkpt>
      <trkpt lat="43.04999" lon="2.72635">
        <ele>270.75</ele>
        <time>2014-02-20T12:52:11Z</time>
      </trkpt>
      <trkpt lat="43.05003" lon="2.72626">
        <ele>270.75</ele>
        <time>2014-02-20T12:52:19Z</time>
      </trkpt>
      <trkpt lat="43.05008" lon="2.72621">
        <ele>270.75</ele>
        <time>2014-02-20T12:52:26Z</time>
      </trkpt>
      <trkpt lat="43.05013" lon="2.72616">
        <ele>270.75</ele>
        <time>2014-02-20T12:52:32Z</time>
      </trkpt>
      <trkpt lat="43.0502" lon="2.72607">
        <ele>271.71</ele>
        <time>2014-02-20T12:52:42Z</time>
      </trkpt>
      <trkpt lat="43.05021" lon="2.72606">
        <ele>272.19</ele>
        <time>2014-02-20T12:52:44Z</time>
      </trkpt>
      <trkpt lat="43.05031" lon="2.72594">
        <ele>273.15</ele>
        <time>2014-02-20T12:52:57Z</time>
      </trkpt>
      <trkpt lat="43.0504" lon="2.72581">
        <ele>274.11</ele>
        <time>2014-02-20T12:53:10Z</time>
      </trkpt>
      <trkpt lat="43.05051" lon="2.72563">
        <ele>273.63</ele>
        <time>2014-02-20T12:53:25Z</time>
      </trkpt>
      <trkpt lat="43.05054" lon="2.72558">
        <ele>274.11</ele>
        <time>2014-02-20T12:53:32Z</time>
      </trkpt>
      <trkpt lat="43.05059" lon="2.72552">
        <ele>274.59</ele>
        <time>2014-02-20T12:53:38Z</time>
      </trkpt>
      <trkpt lat="43.05073" lon="2.72539">
        <ele>275.07</ele>
        <time>2014-02-20T12:53:51Z</time>
      </trkpt>
      <trkpt lat="43.05073" lon="2.72538">
        <ele>275.07</ele>
        <time>2014-02-20T12:53:53Z</time>
      </trkpt>
      <trkpt lat="43.05075" lon="2.72534">
        <ele>275.07</ele>
        <time>2014-02-20T12:53:56Z</time>
      </trkpt>
      <trkpt lat="43.05084" lon="2.72518">
        <ele>275.07</ele>
        <time>2014-02-20T12:54:09Z</time>
      </trkpt>
      <trkpt lat="43.05097" lon="2.72511">
        <ele>276.04</ele>
        <time>2014-02-20T12:54:21Z</time>
      </trkpt>
      <trkpt lat="43.051" lon="2.7251">
        <ele>276.04</ele>
        <time>2014-02-20T12:54:24Z</time>
      </trkpt>
      <trkpt lat="43.05114" lon="2.72503">
        <ele>277</ele>
        <time>2014-02-20T12:54:36Z</time>
      </trkpt>
      <trkpt lat="43.05122" lon="2.72504">
        <ele>277</ele>
        <time>2014-02-20T12:54:44Z</time>
      </trkpt>
      <trkpt lat="43.05128" lon="2.72515">
        <ele>277.96</ele>
        <time>2014-02-20T12:54:55Z</time>
      </trkpt>
      <trkpt lat="43.05134" lon="2.72529">
        <ele>278.44</ele>
        <time>2014-02-20T12:55:09Z</time>
      </trkpt>
      <trkpt lat="43.05135" lon="2.72529">
        <ele>277.96</ele>
        <time>2014-02-20T12:55:21Z</time>
      </trkpt>
      <trkpt lat="43.05135" lon="2.72529">
        <ele>278.44</ele>
        <time>2014-02-20T12:55:23Z</time>
      </trkpt>
      <trkpt lat="43.05144" lon="2.72527">
        <ele>278.44</ele>
        <time>2014-02-20T12:55:33Z</time>
      </trkpt>
      <trkpt lat="43.05141" lon="2.72531">
        <ele>278.44</ele>
        <time>2014-02-20T12:55:46Z</time>
      </trkpt>
      <trkpt lat="43.05141" lon="2.72532">
        <ele>278.92</ele>
        <time>2014-02-20T12:55:52Z</time>
      </trkpt>
      <trkpt lat="43.05146" lon="2.72532">
        <ele>277.96</ele>
        <time>2014-02-20T12:56:03Z</time>
      </trkpt>
      <trkpt lat="43.05149" lon="2.72529">
        <ele>277.96</ele>
        <time>2014-02-20T12:56:08Z</time>
      </trkpt>
      <trkpt lat="43.05159" lon="2.72523">
        <ele>278.44</ele>
        <time>2014-02-20T12:56:16Z</time>
      </trkpt>
      <trkpt lat="43.05164" lon="2.7252">
        <ele>278.44</ele>
        <time>2014-02-20T12:56:21Z</time>
      </trkpt>
      <trkpt lat="43.05175" lon="2.7251">
        <ele>277.96</ele>
        <time>2014-02-20T12:56:34Z</time>
      </trkpt>
      <trkpt lat="43.0518" lon="2.72505">
        <ele>278.44</ele>
        <time>2014-02-20T12:56:40Z</time>
      </trkpt>
      <trkpt lat="43.0519" lon="2.72491">
        <ele>278.92</ele>
        <time>2014-02-20T12:56:53Z</time>
      </trkpt>
      <trkpt lat="43.05194" lon="2.72483">
        <ele>279.88</ele>
        <time>2014-02-20T12:57:00Z</time>
      </trkpt>
      <trkpt lat="43.05198" lon="2.72471">
        <ele>280.84</ele>
        <time>2014-02-20T12:57:14Z</time>
      </trkpt>
      <trkpt lat="43.05199" lon="2.7247">
        <ele>280.84</ele>
        <time>2014-02-20T12:57:15Z</time>
      </trkpt>
      <trkpt lat="43.05206" lon="2.72458">
        <ele>281.32</ele>
        <time>2014-02-20T12:57:28Z</time>
      </trkpt>
      <trkpt lat="43.05207" lon="2.72457">
        <ele>281.32</ele>
        <time>2014-02-20T12:57:31Z</time>
      </trkpt>
      <trkpt lat="43.05214" lon="2.72449">
        <ele>281.32</ele>
        <time>2014-02-20T12:57:45Z</time>
      </trkpt>
      <trkpt lat="43.05215" lon="2.72449">
        <ele>281.32</ele>
        <time>2014-02-20T12:57:47Z</time>
      </trkpt>
      <trkpt lat="43.05224" lon="2.72437">
        <ele>281.8</ele>
        <time>2014-02-20T12:57:59Z</time>
      </trkpt>
      <trkpt lat="43.05234" lon="2.72427">
        <ele>281.8</ele>
        <time>2014-02-20T12:58:11Z</time>
      </trkpt>
      <trkpt lat="43.05234" lon="2.72427">
        <ele>281.8</ele>
        <time>2014-02-20T12:58:12Z</time>
      </trkpt>
      <trkpt lat="43.05238" lon="2.72425">
        <ele>282.28</ele>
        <time>2014-02-20T12:58:20Z</time>
      </trkpt>
      <trkpt lat="43.05241" lon="2.72424">
        <ele>282.77</ele>
        <time>2014-02-20T12:58:23Z</time>
      </trkpt>
      <trkpt lat="43.05252" lon="2.72416">
        <ele>284.21</ele>
        <time>2014-02-20T12:58:35Z</time>
      </trkpt>
      <trkpt lat="43.05256" lon="2.72413">
        <ele>285.17</ele>
        <time>2014-02-20T12:58:40Z</time>
      </trkpt>
      <trkpt lat="43.05267" lon="2.72401">
        <ele>284.69</ele>
        <time>2014-02-20T12:58:50Z</time>
      </trkpt>
      <trkpt lat="43.05274" lon="2.72392">
        <ele>285.65</ele>
        <time>2014-02-20T12:59:02Z</time>
      </trkpt>
      <trkpt lat="43.05278" lon="2.7239">
        <ele>285.65</ele>
        <time>2014-02-20T12:59:18Z</time>
      </trkpt>
      <trkpt lat="43.05279" lon="2.7239">
        <ele>285.65</ele>
        <time>2014-02-20T12:59:23Z</time>
      </trkpt>
      <trkpt lat="43.0528" lon="2.72387">
        <ele>285.65</ele>
        <time>2014-02-20T12:59:26Z</time>
      </trkpt>
      <trkpt lat="43.05287" lon="2.72371">
        <ele>286.13</ele>
        <time>2014-02-20T12:59:39Z</time>
      </trkpt>
      <trkpt lat="43.05287" lon="2.72369">
        <ele>286.61</ele>
        <time>2014-02-20T12:59:41Z</time>
      </trkpt>
      <trkpt lat="43.05288" lon="2.72366">
        <ele>286.61</ele>
        <time>2014-02-20T12:59:43Z</time>
      </trkpt>
      <trkpt lat="43.05287" lon="2.72358">
        <ele>287.09</ele>
        <time>2014-02-20T12:59:49Z</time>
      </trkpt>
      <trkpt lat="43.05289" lon="2.72335">
        <ele>288.53</ele>
        <time>2014-02-20T13:00:03Z</time>
      </trkpt>
      <trkpt lat="43.0529" lon="2.72331">
        <ele>289.01</ele>
        <time>2014-02-20T13:00:06Z</time>
      </trkpt>
      <trkpt lat="43.05293" lon="2.72329">
        <ele>289.01</ele>
        <time>2014-02-20T13:00:09Z</time>
      </trkpt>
      <trkpt lat="43.05294" lon="2.72326">
        <ele>289.97</ele>
        <time>2014-02-20T13:00:12Z</time>
      </trkpt>
      <trkpt lat="43.05303" lon="2.72318">
        <ele>289.01</ele>
        <time>2014-02-20T13:00:24Z</time>
      </trkpt>
      <trkpt lat="43.05316" lon="2.72305">
        <ele>288.53</ele>
        <time>2014-02-20T13:00:36Z</time>
      </trkpt>
      <trkpt lat="43.05317" lon="2.72304">
        <ele>288.53</ele>
        <time>2014-02-20T13:00:37Z</time>
      </trkpt>
      <trkpt lat="43.05324" lon="2.72295">
        <ele>289.01</ele>
        <time>2014-02-20T13:00:45Z</time>
      </trkpt>
      <trkpt lat="43.05336" lon="2.7228">
        <ele>289.01</ele>
        <time>2014-02-20T13:00:57Z</time>
      </trkpt>
      <trkpt lat="43.05338" lon="2.72274">
        <ele>288.53</ele>
        <time>2014-02-20T13:01:09Z</time>
      </trkpt>
      <trkpt lat="43.05346" lon="2.72268">
        <ele>288.05</ele>
        <time>2014-02-20T13:01:20Z</time>
      </trkpt>
      <trkpt lat="43.05352" lon="2.72262">
        <ele>288.05</ele>
        <time>2014-02-20T13:01:31Z</time>
      </trkpt>
      <trkpt lat="43.05353" lon="2.72261">
        <ele>288.53</ele>
        <time>2014-02-20T13:01:32Z</time>
      </trkpt>
      <trkpt lat="43.05356" lon="2.72259">
        <ele>288.05</ele>
        <time>2014-02-20T13:01:39Z</time>
      </trkpt>
      <trkpt lat="43.05361" lon="2.72256">
        <ele>288.53</ele>
        <time>2014-02-20T13:01:47Z</time>
      </trkpt>
      <trkpt lat="43.05376" lon="2.72245">
        <ele>289.49</ele>
        <time>2014-02-20T13:01:58Z</time>
      </trkpt>
      <trkpt lat="43.05385" lon="2.72236">
        <ele>289.97</ele>
        <time>2014-02-20T13:02:04Z</time>
      </trkpt>
      <trkpt lat="43.05402" lon="2.7222">
        <ele>289.49</ele>
        <time>2014-02-20T13:02:15Z</time>
      </trkpt>
      <trkpt lat="43.05404" lon="2.72218">
        <ele>289.97</ele>
        <time>2014-02-20T13:02:17Z</time>
      </trkpt>
      <trkpt lat="43.05416" lon="2.72209">
        <ele>290.46</ele>
        <time>2014-02-20T13:02:28Z</time>
      </trkpt>
      <trkpt lat="43.05423" lon="2.72204">
        <ele>290.94</ele>
        <time>2014-02-20T13:02:36Z</time>
      </trkpt>
      <trkpt lat="43.05436" lon="2.72196">
        <ele>292.38</ele>
        <time>2014-02-20T13:02:51Z</time>
      </trkpt>
      <trkpt lat="43.05441" lon="2.72194">
        <ele>292.38</ele>
        <time>2014-02-20T13:02:56Z</time>
      </trkpt>
      <trkpt lat="43.05456" lon="2.72185">
        <ele>293.34</ele>
        <time>2014-02-20T13:03:11Z</time>
      </trkpt>
      <trkpt lat="43.05467" lon="2.72178">
        <ele>294.78</ele>
        <time>2014-02-20T13:03:23Z</time>
      </trkpt>
      <trkpt lat="43.05474" lon="2.72167">
        <ele>294.78</ele>
        <time>2014-02-20T13:03:37Z</time>
      </trkpt>
      <trkpt lat="43.05487" lon="2.72167">
        <ele>294.78</ele>
        <time>2014-02-20T13:03:49Z</time>
      </trkpt>
      <trkpt lat="43.05501" lon="2.72161">
        <ele>294.78</ele>
        <time>2014-02-20T13:04:01Z</time>
      </trkpt>
      <trkpt lat="43.05507" lon="2.7216">
        <ele>294.3</ele>
        <time>2014-02-20T13:04:06Z</time>
      </trkpt>
      <trkpt lat="43.05521" lon="2.72158">
        <ele>295.26</ele>
        <time>2014-02-20T13:04:19Z</time>
      </trkpt>
      <trkpt lat="43.05524" lon="2.72157">
        <ele>294.78</ele>
        <time>2014-02-20T13:04:22Z</time>
      </trkpt>
      <trkpt lat="43.05536" lon="2.7215">
        <ele>294.3</ele>
        <time>2014-02-20T13:04:33Z</time>
      </trkpt>
      <trkpt lat="43.05544" lon="2.72146">
        <ele>293.34</ele>
        <time>2014-02-20T13:04:46Z</time>
      </trkpt>
      <trkpt lat="43.05545" lon="2.72146">
        <ele>293.34</ele>
        <time>2014-02-20T13:04:47Z</time>
      </trkpt>
      <trkpt lat="43.05549" lon="2.72145">
        <ele>293.34</ele>
        <time>2014-02-20T13:04:51Z</time>
      </trkpt>
      <trkpt lat="43.05565" lon="2.72138">
        <ele>292.86</ele>
        <time>2014-02-20T13:05:05Z</time>
      </trkpt>
      <trkpt lat="43.05578" lon="2.72132">
        <ele>292.86</ele>
        <time>2014-02-20T13:05:16Z</time>
      </trkpt>
      <trkpt lat="43.05579" lon="2.72132">
        <ele>292.86</ele>
        <time>2014-02-20T13:05:17Z</time>
      </trkpt>
      <trkpt lat="43.05585" lon="2.72129">
        <ele>292.86</ele>
        <time>2014-02-20T13:05:23Z</time>
      </trkpt>
      <trkpt lat="43.056" lon="2.72126">
        <ele>291.9</ele>
        <time>2014-02-20T13:05:36Z</time>
      </trkpt>
      <trkpt lat="43.05613" lon="2.72119">
        <ele>290.94</ele>
        <time>2014-02-20T13:05:50Z</time>
      </trkpt>
      <trkpt lat="43.05617" lon="2.72118">
        <ele>291.42</ele>
        <time>2014-02-20T13:05:54Z</time>
      </trkpt>
      <trkpt lat="43.0562" lon="2.72118">
        <ele>291.42</ele>
        <time>2014-02-20T13:05:57Z</time>
      </trkpt>
      <trkpt lat="43.05629" lon="2.72114">
        <ele>290.46</ele>
        <time>2014-02-20T13:06:04Z</time>
      </trkpt>
      <trkpt lat="43.05651" lon="2.72101">
        <ele>292.38</ele>
        <time>2014-02-20T13:06:17Z</time>
      </trkpt>
      <trkpt lat="43.05666" lon="2.72093">
        <ele>292.86</ele>
        <time>2014-02-20T13:06:31Z</time>
      </trkpt>
      <trkpt lat="43.05673" lon="2.72091">
        <ele>293.82</ele>
        <time>2014-02-20T13:06:37Z</time>
      </trkpt>
      <trkpt lat="43.0568" lon="2.7209">
        <ele>293.82</ele>
        <time>2014-02-20T13:06:43Z</time>
      </trkpt>
      <trkpt lat="43.05695" lon="2.72085">
        <ele>294.78</ele>
        <time>2014-02-20T13:06:57Z</time>
      </trkpt>
      <trkpt lat="43.05697" lon="2.72084">
        <ele>294.78</ele>
        <time>2014-02-20T13:07:00Z</time>
      </trkpt>
      <trkpt lat="43.05708" lon="2.72078">
        <ele>293.82</ele>
        <time>2014-02-20T13:07:13Z</time>
      </trkpt>
      <trkpt lat="43.05709" lon="2.72076">
        <ele>293.82</ele>
        <time>2014-02-20T13:07:15Z</time>
      </trkpt>
      <trkpt lat="43.0572" lon="2.72068">
        <ele>293.34</ele>
        <time>2014-02-20T13:07:25Z</time>
      </trkpt>
      <trkpt lat="43.05724" lon="2.72063">
        <ele>292.86</ele>
        <time>2014-02-20T13:07:38Z</time>
      </trkpt>
      <trkpt lat="43.05724" lon="2.72056">
        <ele>293.34</ele>
        <time>2014-02-20T13:07:48Z</time>
      </trkpt>
      <trkpt lat="43.05722" lon="2.72048">
        <ele>294.78</ele>
        <time>2014-02-20T13:07:59Z</time>
      </trkpt>
      <trkpt lat="43.05726" lon="2.72042">
        <ele>295.74</ele>
        <time>2014-02-20T13:08:06Z</time>
      </trkpt>
      <trkpt lat="43.05737" lon="2.72034">
        <ele>296.22</ele>
        <time>2014-02-20T13:08:14Z</time>
      </trkpt>
      <trkpt lat="43.05739" lon="2.72031">
        <ele>296.22</ele>
        <time>2014-02-20T13:08:16Z</time>
      </trkpt>
      <trkpt lat="43.05745" lon="2.72024">
        <ele>296.7</ele>
        <time>2014-02-20T13:08:21Z</time>
      </trkpt>
      <trkpt lat="43.0575" lon="2.72018">
        <ele>296.7</ele>
        <time>2014-02-20T13:08:25Z</time>
      </trkpt>
      <trkpt lat="43.05756" lon="2.72009">
        <ele>297.18</ele>
        <time>2014-02-20T13:08:28Z</time>
      </trkpt>
      <trkpt lat="43.05768" lon="2.72001">
        <ele>297.67</ele>
        <time>2014-02-20T13:08:37Z</time>
      </trkpt>
      <trkpt lat="43.05786" lon="2.71994">
        <ele>299.11</ele>
        <time>2014-02-20T13:08:52Z</time>
      </trkpt>
      <trkpt lat="43.05789" lon="2.71993">
        <ele>298.63</ele>
        <time>2014-02-20T13:08:54Z</time>
      </trkpt>
      <trkpt lat="43.05803" lon="2.71989">
        <ele>297.18</ele>
        <time>2014-02-20T13:09:07Z</time>
      </trkpt>
      <trkpt lat="43.05804" lon="2.71989">
        <ele>297.18</ele>
        <time>2014-02-20T13:09:08Z</time>
      </trkpt>
      <trkpt lat="43.05813" lon="2.71987">
        <ele>295.74</ele>
        <time>2014-02-20T13:09:19Z</time>
      </trkpt>
      <trkpt lat="43.05826" lon="2.71978">
        <ele>294.3</ele>
        <time>2014-02-20T13:09:33Z</time>
      </trkpt>
      <trkpt lat="43.05835" lon="2.71973">
        <ele>293.82</ele>
        <time>2014-02-20T13:09:44Z</time>
      </trkpt>
      <trkpt lat="43.05843" lon="2.71966">
        <ele>291.9</ele>
        <time>2014-02-20T13:09:55Z</time>
      </trkpt>
      <trkpt lat="43.05845" lon="2.71966">
        <ele>291.9</ele>
        <time>2014-02-20T13:10:05Z</time>
      </trkpt>
      <trkpt lat="43.0585" lon="2.71963">
        <ele>291.9</ele>
        <time>2014-02-20T13:10:15Z</time>
      </trkpt>
      <trkpt lat="43.05853" lon="2.71957">
        <ele>294.78</ele>
        <time>2014-02-20T13:10:28Z</time>
      </trkpt>
      <trkpt lat="43.05856" lon="2.71954">
        <ele>297.67</ele>
        <time>2014-02-20T13:10:39Z</time>
      </trkpt>
      <trkpt lat="43.05861" lon="2.71944">
        <ele>299.59</ele>
        <time>2014-02-20T13:10:51Z</time>
      </trkpt>
      <trkpt lat="43.05859" lon="2.71939">
        <ele>301.51</ele>
        <time>2014-02-20T13:11:04Z</time>
      </trkpt>
      <trkpt lat="43.0586" lon="2.71921">
        <ele>302.95</ele>
        <time>2014-02-20T13:11:17Z</time>
      </trkpt>
      <trkpt lat="43.05862" lon="2.71903">
        <ele>303.43</ele>
        <time>2014-02-20T13:11:26Z</time>
      </trkpt>
      <trkpt lat="43.05862" lon="2.71879">
        <ele>304.39</ele>
        <time>2014-02-20T13:11:37Z</time>
      </trkpt>
      <trkpt lat="43.05857" lon="2.71859">
        <ele>307.76</ele>
        <time>2014-02-20T13:11:50Z</time>
      </trkpt>
      <trkpt lat="43.05857" lon="2.71852">
        <ele>308.72</ele>
        <time>2014-02-20T13:11:55Z</time>
      </trkpt>
      <trkpt lat="43.05856" lon="2.71844">
        <ele>310.16</ele>
        <time>2014-02-20T13:11:59Z</time>
      </trkpt>
      <trkpt lat="43.05856" lon="2.71838">
        <ele>309.68</ele>
        <time>2014-02-20T13:12:03Z</time>
      </trkpt>
      <trkpt lat="43.05858" lon="2.71827">
        <ele>310.64</ele>
        <time>2014-02-20T13:12:14Z</time>
      </trkpt>
      <trkpt lat="43.0586" lon="2.71811">
        <ele>312.57</ele>
        <time>2014-02-20T13:12:26Z</time>
      </trkpt>
      <trkpt lat="43.05861" lon="2.71804">
        <ele>313.05</ele>
        <time>2014-02-20T13:12:30Z</time>
      </trkpt>
      <trkpt lat="43.05861" lon="2.71794">
        <ele>313.53</ele>
        <time>2014-02-20T13:12:34Z</time>
      </trkpt>
      <trkpt lat="43.05858" lon="2.71782">
        <ele>315.93</ele>
        <time>2014-02-20T13:12:43Z</time>
      </trkpt>
      <trkpt lat="43.05857" lon="2.71771">
        <ele>316.41</ele>
        <time>2014-02-20T13:12:50Z</time>
      </trkpt>
      <trkpt lat="43.05858" lon="2.71755">
        <ele>318.81</ele>
        <time>2014-02-20T13:13:00Z</time>
      </trkpt>
      <trkpt lat="43.05857" lon="2.7175">
        <ele>319.3</ele>
        <time>2014-02-20T13:13:03Z</time>
      </trkpt>
      <trkpt lat="43.05854" lon="2.71744">
        <ele>320.26</ele>
        <time>2014-02-20T13:13:08Z</time>
      </trkpt>
      <trkpt lat="43.05853" lon="2.71738">
        <ele>321.22</ele>
        <time>2014-02-20T13:13:13Z</time>
      </trkpt>
      <trkpt lat="43.05849" lon="2.71731">
        <ele>322.18</ele>
        <time>2014-02-20T13:13:18Z</time>
      </trkpt>
      <trkpt lat="43.05846" lon="2.71726">
        <ele>322.66</ele>
        <time>2014-02-20T13:13:23Z</time>
      </trkpt>
      <trkpt lat="43.05836" lon="2.71719">
        <ele>324.58</ele>
        <time>2014-02-20T13:13:32Z</time>
      </trkpt>
      <trkpt lat="43.05832" lon="2.71715">
        <ele>324.58</ele>
        <time>2014-02-20T13:13:36Z</time>
      </trkpt>
      <trkpt lat="43.05828" lon="2.7171">
        <ele>325.54</ele>
        <time>2014-02-20T13:13:40Z</time>
      </trkpt>
      <trkpt lat="43.05826" lon="2.717">
        <ele>326.02</ele>
        <time>2014-02-20T13:13:46Z</time>
      </trkpt>
      <trkpt lat="43.05824" lon="2.71689">
        <ele>327.95</ele>
        <time>2014-02-20T13:14:00Z</time>
      </trkpt>
      <trkpt lat="43.05819" lon="2.71688">
        <ele>327.47</ele>
        <time>2014-02-20T13:14:07Z</time>
      </trkpt>
      <trkpt lat="43.05827" lon="2.71682">
        <ele>328.91</ele>
        <time>2014-02-20T13:14:18Z</time>
      </trkpt>
      <trkpt lat="43.05831" lon="2.71675">
        <ele>329.39</ele>
        <time>2014-02-20T13:14:31Z</time>
      </trkpt>
      <trkpt lat="43.05831" lon="2.71672">
        <ele>329.39</ele>
        <time>2014-02-20T13:14:55Z</time>
      </trkpt>
      <trkpt lat="43.05833" lon="2.71672">
        <ele>329.39</ele>
        <time>2014-02-20T13:15:06Z</time>
      </trkpt>
      <trkpt lat="43.05835" lon="2.7167">
        <ele>329.87</ele>
        <time>2014-02-20T13:15:09Z</time>
      </trkpt>
      <trkpt lat="43.05838" lon="2.71668">
        <ele>329.87</ele>
        <time>2014-02-20T13:15:12Z</time>
      </trkpt>
      <trkpt lat="43.05849" lon="2.71663">
        <ele>329.87</ele>
        <time>2014-02-20T13:15:25Z</time>
      </trkpt>
      <trkpt lat="43.05861" lon="2.71653">
        <ele>330.35</ele>
        <time>2014-02-20T13:15:38Z</time>
      </trkpt>
      <trkpt lat="43.05869" lon="2.71649">
        <ele>329.87</ele>
        <time>2014-02-20T13:15:46Z</time>
      </trkpt>
      <trkpt lat="43.05882" lon="2.71639">
        <ele>329.87</ele>
        <time>2014-02-20T13:15:58Z</time>
      </trkpt>
      <trkpt lat="43.05886" lon="2.71636">
        <ele>330.35</ele>
        <time>2014-02-20T13:16:02Z</time>
      </trkpt>
      <trkpt lat="43.05898" lon="2.71623">
        <ele>331.31</ele>
        <time>2014-02-20T13:16:15Z</time>
      </trkpt>
      <trkpt lat="43.05904" lon="2.71608">
        <ele>332.75</ele>
        <time>2014-02-20T13:16:27Z</time>
      </trkpt>
      <trkpt lat="43.05909" lon="2.71589">
        <ele>332.27</ele>
        <time>2014-02-20T13:16:40Z</time>
      </trkpt>
      <trkpt lat="43.05914" lon="2.71582">
        <ele>332.75</ele>
        <time>2014-02-20T13:16:45Z</time>
      </trkpt>
      <trkpt lat="43.05925" lon="2.71568">
        <ele>332.27</ele>
        <time>2014-02-20T13:16:57Z</time>
      </trkpt>
      <trkpt lat="43.05937" lon="2.71557">
        <ele>331.79</ele>
        <time>2014-02-20T13:17:09Z</time>
      </trkpt>
      <trkpt lat="43.05943" lon="2.7155">
        <ele>331.31</ele>
        <time>2014-02-20T13:17:20Z</time>
      </trkpt>
      <trkpt lat="43.05943" lon="2.7155">
        <ele>331.31</ele>
        <time>2014-02-20T13:17:22Z</time>
      </trkpt>
      <trkpt lat="43.05945" lon="2.71549">
        <ele>331.31</ele>
        <time>2014-02-20T13:17:24Z</time>
      </trkpt>
      <trkpt lat="43.05956" lon="2.71541">
        <ele>329.87</ele>
        <time>2014-02-20T13:17:36Z</time>
      </trkpt>
      <trkpt lat="43.05957" lon="2.7154">
        <ele>330.35</ele>
        <time>2014-02-20T13:17:37Z</time>
      </trkpt>
      <trkpt lat="43.05968" lon="2.71531">
        <ele>329.87</ele>
        <time>2014-02-20T13:17:47Z</time>
      </trkpt>
      <trkpt lat="43.05985" lon="2.71518">
        <ele>329.39</ele>
        <time>2014-02-20T13:18:01Z</time>
      </trkpt>
      <trkpt lat="43.0599" lon="2.71514">
        <ele>328.43</ele>
        <time>2014-02-20T13:18:05Z</time>
      </trkpt>
      <trkpt lat="43.05998" lon="2.71508">
        <ele>328.43</ele>
        <time>2014-02-20T13:18:12Z</time>
      </trkpt>
      <trkpt lat="43.06015" lon="2.71494">
        <ele>327.47</ele>
        <time>2014-02-20T13:18:27Z</time>
      </trkpt>
      <trkpt lat="43.06029" lon="2.71482">
        <ele>327.95</ele>
        <time>2014-02-20T13:18:40Z</time>
      </trkpt>
      <trkpt lat="43.06039" lon="2.71472">
        <ele>327.95</ele>
        <time>2014-02-20T13:18:50Z</time>
      </trkpt>
      <trkpt lat="43.0605" lon="2.71462">
        <ele>327.95</ele>
        <time>2014-02-20T13:19:01Z</time>
      </trkpt>
      <trkpt lat="43.06055" lon="2.71447">
        <ele>328.43</ele>
        <time>2014-02-20T13:19:15Z</time>
      </trkpt>
      <trkpt lat="43.06055" lon="2.71446">
        <ele>328.43</ele>
        <time>2014-02-20T13:19:16Z</time>
      </trkpt>
      <trkpt lat="43.06055" lon="2.71437">
        <ele>328.43</ele>
        <time>2014-02-20T13:19:23Z</time>
      </trkpt>
      <trkpt lat="43.06055" lon="2.71429">
        <ele>328.91</ele>
        <time>2014-02-20T13:19:29Z</time>
      </trkpt>
      <trkpt lat="43.06057" lon="2.71423">
        <ele>328.91</ele>
        <time>2014-02-20T13:19:34Z</time>
      </trkpt>
      <trkpt lat="43.0606" lon="2.71417">
        <ele>329.87</ele>
        <time>2014-02-20T13:19:39Z</time>
      </trkpt>
      <trkpt lat="43.06063" lon="2.71412">
        <ele>329.39</ele>
        <time>2014-02-20T13:19:43Z</time>
      </trkpt>
      <trkpt lat="43.06066" lon="2.71408">
        <ele>328.91</ele>
        <time>2014-02-20T13:19:46Z</time>
      </trkpt>
      <trkpt lat="43.0608" lon="2.71393">
        <ele>328.91</ele>
        <time>2014-02-20T13:19:58Z</time>
      </trkpt>
      <trkpt lat="43.06088" lon="2.71386">
        <ele>327.95</ele>
        <time>2014-02-20T13:20:07Z</time>
      </trkpt>
      <trkpt lat="43.06091" lon="2.71384">
        <ele>327.47</ele>
        <time>2014-02-20T13:20:10Z</time>
      </trkpt>
      <trkpt lat="43.06105" lon="2.71375">
        <ele>327.47</ele>
        <time>2014-02-20T13:20:24Z</time>
      </trkpt>
      <trkpt lat="43.06111" lon="2.71371">
        <ele>326.99</ele>
        <time>2014-02-20T13:20:30Z</time>
      </trkpt>
      <trkpt lat="43.06113" lon="2.71362">
        <ele>328.43</ele>
        <time>2014-02-20T13:20:41Z</time>
      </trkpt>
      <trkpt lat="43.06111" lon="2.71359">
        <ele>327.95</ele>
        <time>2014-02-20T13:20:46Z</time>
      </trkpt>
      <trkpt lat="43.06109" lon="2.71351">
        <ele>328.43</ele>
        <time>2014-02-20T13:20:53Z</time>
      </trkpt>
      <trkpt lat="43.06108" lon="2.71349">
        <ele>328.91</ele>
        <time>2014-02-20T13:20:55Z</time>
      </trkpt>
      <trkpt lat="43.06109" lon="2.71344">
        <ele>328.43</ele>
        <time>2014-02-20T13:20:58Z</time>
      </trkpt>
      <trkpt lat="43.06108" lon="2.71339">
        <ele>328.91</ele>
        <time>2014-02-20T13:21:01Z</time>
      </trkpt>
      <trkpt lat="43.06107" lon="2.71336">
        <ele>329.87</ele>
        <time>2014-02-20T13:21:04Z</time>
      </trkpt>
      <trkpt lat="43.06106" lon="2.71324">
        <ele>328.91</ele>
        <time>2014-02-20T13:21:11Z</time>
      </trkpt>
      <trkpt lat="43.06107" lon="2.71319">
        <ele>329.39</ele>
        <time>2014-02-20T13:21:14Z</time>
      </trkpt>
      <trkpt lat="43.06114" lon="2.71311">
        <ele>328.43</ele>
        <time>2014-02-20T13:21:24Z</time>
      </trkpt>
      <trkpt lat="43.06125" lon="2.71295">
        <ele>328.91</ele>
        <time>2014-02-20T13:21:38Z</time>
      </trkpt>
      <trkpt lat="43.06126" lon="2.71293">
        <ele>329.39</ele>
        <time>2014-02-20T13:21:39Z</time>
      </trkpt>
      <trkpt lat="43.06134" lon="2.7128">
        <ele>328.91</ele>
        <time>2014-02-20T13:21:49Z</time>
      </trkpt>
      <trkpt lat="43.0614" lon="2.71268">
        <ele>328.91</ele>
        <time>2014-02-20T13:22:00Z</time>
      </trkpt>
      <trkpt lat="43.0614" lon="2.71267">
        <ele>328.43</ele>
        <time>2014-02-20T13:22:01Z</time>
      </trkpt>
      <trkpt lat="43.06145" lon="2.71253">
        <ele>328.91</ele>
        <time>2014-02-20T13:22:11Z</time>
      </trkpt>
      <trkpt lat="43.06147" lon="2.71246">
        <ele>329.39</ele>
        <time>2014-02-20T13:22:17Z</time>
      </trkpt>
      <trkpt lat="43.06154" lon="2.71224">
        <ele>327.95</ele>
        <time>2014-02-20T13:22:32Z</time>
      </trkpt>
      <trkpt lat="43.06154" lon="2.71222">
        <ele>327.47</ele>
        <time>2014-02-20T13:22:35Z</time>
      </trkpt>
      <trkpt lat="43.06155" lon="2.71216">
        <ele>327.47</ele>
        <time>2014-02-20T13:22:39Z</time>
      </trkpt>
      <trkpt lat="43.06155" lon="2.71208">
        <ele>326.99</ele>
        <time>2014-02-20T13:22:45Z</time>
      </trkpt>
      <trkpt lat="43.06154" lon="2.71193">
        <ele>325.54</ele>
        <time>2014-02-20T13:22:57Z</time>
      </trkpt>
      <trkpt lat="43.06154" lon="2.71182">
        <ele>325.06</ele>
        <time>2014-02-20T13:23:05Z</time>
      </trkpt>
      <trkpt lat="43.06156" lon="2.71156">
        <ele>324.1</ele>
        <time>2014-02-20T13:23:18Z</time>
      </trkpt>
      <trkpt lat="43.06157" lon="2.71147">
        <ele>323.62</ele>
        <time>2014-02-20T13:23:23Z</time>
      </trkpt>
      <trkpt lat="43.06162" lon="2.71127">
        <ele>323.62</ele>
        <time>2014-02-20T13:23:32Z</time>
      </trkpt>
      <trkpt lat="43.06163" lon="2.71122">
        <ele>323.62</ele>
        <time>2014-02-20T13:23:35Z</time>
      </trkpt>
      <trkpt lat="43.06164" lon="2.71112">
        <ele>323.62</ele>
        <time>2014-02-20T13:23:40Z</time>
      </trkpt>
      <trkpt lat="43.06169" lon="2.71088">
        <ele>323.14</ele>
        <time>2014-02-20T13:23:53Z</time>
      </trkpt>
      <trkpt lat="43.06169" lon="2.71075">
        <ele>322.18</ele>
        <time>2014-02-20T13:24:03Z</time>
      </trkpt>
      <trkpt lat="43.06177" lon="2.71053">
        <ele>322.66</ele>
        <time>2014-02-20T13:24:15Z</time>
      </trkpt>
      <trkpt lat="43.06177" lon="2.71048">
        <ele>321.7</ele>
        <time>2014-02-20T13:24:18Z</time>
      </trkpt>
      <trkpt lat="43.06178" lon="2.71042">
        <ele>322.18</ele>
        <time>2014-02-20T13:24:20Z</time>
      </trkpt>
      <trkpt lat="43.0618" lon="2.71037">
        <ele>322.66</ele>
        <time>2014-02-20T13:24:23Z</time>
      </trkpt>
      <trkpt lat="43.06187" lon="2.71018">
        <ele>321.7</ele>
        <time>2014-02-20T13:24:36Z</time>
      </trkpt>
      <trkpt lat="43.0619" lon="2.71003">
        <ele>321.22</ele>
        <time>2014-02-20T13:24:45Z</time>
      </trkpt>
      <trkpt lat="43.06191" lon="2.70997">
        <ele>321.22</ele>
        <time>2014-02-20T13:24:48Z</time>
      </trkpt>
      <trkpt lat="43.06193" lon="2.70974">
        <ele>319.78</ele>
        <time>2014-02-20T13:25:01Z</time>
      </trkpt>
      <trkpt lat="43.06193" lon="2.70952">
        <ele>318.33</ele>
        <time>2014-02-20T13:25:12Z</time>
      </trkpt>
      <trkpt lat="43.06197" lon="2.70924">
        <ele>317.37</ele>
        <time>2014-02-20T13:25:23Z</time>
      </trkpt>
      <trkpt lat="43.06198" lon="2.70917">
        <ele>316.89</ele>
        <time>2014-02-20T13:25:27Z</time>
      </trkpt>
      <trkpt lat="43.06201" lon="2.70889">
        <ele>315.93</ele>
        <time>2014-02-20T13:25:41Z</time>
      </trkpt>
      <trkpt lat="43.06201" lon="2.7087">
        <ele>314.49</ele>
        <time>2014-02-20T13:25:54Z</time>
      </trkpt>
      <trkpt lat="43.062" lon="2.70864">
        <ele>314.49</ele>
        <time>2014-02-20T13:25:58Z</time>
      </trkpt>
      <trkpt lat="43.06198" lon="2.70848">
        <ele>313.05</ele>
        <time>2014-02-20T13:26:09Z</time>
      </trkpt>
      <trkpt lat="43.06197" lon="2.70839">
        <ele>313.05</ele>
        <time>2014-02-20T13:26:15Z</time>
      </trkpt>
      <trkpt lat="43.06198" lon="2.70834">
        <ele>312.57</ele>
        <time>2014-02-20T13:26:19Z</time>
      </trkpt>
      <trkpt lat="43.06197" lon="2.70828">
        <ele>312.09</ele>
        <time>2014-02-20T13:26:23Z</time>
      </trkpt>
      <trkpt lat="43.06197" lon="2.70822">
        <ele>312.09</ele>
        <time>2014-02-20T13:26:27Z</time>
      </trkpt>
      <trkpt lat="43.06197" lon="2.70815">
        <ele>312.09</ele>
        <time>2014-02-20T13:26:31Z</time>
      </trkpt>
      <trkpt lat="43.06195" lon="2.70796">
        <ele>311.12</ele>
        <time>2014-02-20T13:26:44Z</time>
      </trkpt>
      <trkpt lat="43.06191" lon="2.70779">
        <ele>310.16</ele>
        <time>2014-02-20T13:26:56Z</time>
      </trkpt>
      <trkpt lat="43.06191" lon="2.70778">
        <ele>309.68</ele>
        <time>2014-02-20T13:26:57Z</time>
      </trkpt>
      <trkpt lat="43.06187" lon="2.70769">
        <ele>309.68</ele>
        <time>2014-02-20T13:27:05Z</time>
      </trkpt>
      <trkpt lat="43.06186" lon="2.70765">
        <ele>309.2</ele>
        <time>2014-02-20T13:27:08Z</time>
      </trkpt>
      <trkpt lat="43.06184" lon="2.70753">
        <ele>308.24</ele>
        <time>2014-02-20T13:27:18Z</time>
      </trkpt>
      <trkpt lat="43.06182" lon="2.70736">
        <ele>307.28</ele>
        <time>2014-02-20T13:27:30Z</time>
      </trkpt>
      <trkpt lat="43.06177" lon="2.70716">
        <ele>305.84</ele>
        <time>2014-02-20T13:27:43Z</time>
      </trkpt>
      <trkpt lat="43.06176" lon="2.70702">
        <ele>305.84</ele>
        <time>2014-02-20T13:27:51Z</time>
      </trkpt>
      <trkpt lat="43.0617" lon="2.7069">
        <ele>304.88</ele>
        <time>2014-02-20T13:28:01Z</time>
      </trkpt>
      <trkpt lat="43.06169" lon="2.70684">
        <ele>304.39</ele>
        <time>2014-02-20T13:28:05Z</time>
      </trkpt>
      <trkpt lat="43.06171" lon="2.70672">
        <ele>303.91</ele>
        <time>2014-02-20T13:28:12Z</time>
      </trkpt>
      <trkpt lat="43.06169" lon="2.70653">
        <ele>303.43</ele>
        <time>2014-02-20T13:28:23Z</time>
      </trkpt>
      <trkpt lat="43.06169" lon="2.70638">
        <ele>302.95</ele>
        <time>2014-02-20T13:28:32Z</time>
      </trkpt>
      <trkpt lat="43.06166" lon="2.70618">
        <ele>302.47</ele>
        <time>2014-02-20T13:28:47Z</time>
      </trkpt>
      <trkpt lat="43.06164" lon="2.7061">
        <ele>301.51</ele>
        <time>2014-02-20T13:28:52Z</time>
      </trkpt>
      <trkpt lat="43.06159" lon="2.7059">
        <ele>300.55</ele>
        <time>2014-02-20T13:29:04Z</time>
      </trkpt>
      <trkpt lat="43.06159" lon="2.70585">
        <ele>300.07</ele>
        <time>2014-02-20T13:29:07Z</time>
      </trkpt>
      <trkpt lat="43.06154" lon="2.70569">
        <ele>299.59</ele>
        <time>2014-02-20T13:29:19Z</time>
      </trkpt>
      <trkpt lat="43.06153" lon="2.7056">
        <ele>300.07</ele>
        <time>2014-02-20T13:29:25Z</time>
      </trkpt>
      <trkpt lat="43.06149" lon="2.70549">
        <ele>300.07</ele>
        <time>2014-02-20T13:29:34Z</time>
      </trkpt>
      <trkpt lat="43.06147" lon="2.70545">
        <ele>299.59</ele>
        <time>2014-02-20T13:29:38Z</time>
      </trkpt>
      <trkpt lat="43.06147" lon="2.70537">
        <ele>299.11</ele>
        <time>2014-02-20T13:29:43Z</time>
      </trkpt>
      <trkpt lat="43.06144" lon="2.70518">
        <ele>298.63</ele>
        <time>2014-02-20T13:29:57Z</time>
      </trkpt>
      <trkpt lat="43.0614" lon="2.70508">
        <ele>298.63</ele>
        <time>2014-02-20T13:30:07Z</time>
      </trkpt>
      <trkpt lat="43.06138" lon="2.70502">
        <ele>298.15</ele>
        <time>2014-02-20T13:30:13Z</time>
      </trkpt>
      <trkpt lat="43.06139" lon="2.70492">
        <ele>298.63</ele>
        <time>2014-02-20T13:30:19Z</time>
      </trkpt>
      <trkpt lat="43.06137" lon="2.70481">
        <ele>299.11</ele>
        <time>2014-02-20T13:30:32Z</time>
      </trkpt>
      <trkpt lat="43.0614" lon="2.70472">
        <ele>298.63</ele>
        <time>2014-02-20T13:30:43Z</time>
      </trkpt>
      <trkpt lat="43.06144" lon="2.70472">
        <ele>299.11</ele>
        <time>2014-02-20T13:30:50Z</time>
      </trkpt>
      <trkpt lat="43.06155" lon="2.70472">
        <ele>298.15</ele>
        <time>2014-02-20T13:31:02Z</time>
      </trkpt>
      <trkpt lat="43.06163" lon="2.70471">
        <ele>296.7</ele>
        <time>2014-02-20T13:31:10Z</time>
      </trkpt>
      <trkpt lat="43.06175" lon="2.70469">
        <ele>295.74</ele>
        <time>2014-02-20T13:31:20Z</time>
      </trkpt>
      <trkpt lat="43.06178" lon="2.70468">
        <ele>295.74</ele>
        <time>2014-02-20T13:31:23Z</time>
      </trkpt>
      <trkpt lat="43.0618" lon="2.70465">
        <ele>295.74</ele>
        <time>2014-02-20T13:31:26Z</time>
      </trkpt>
      <trkpt lat="43.06185" lon="2.70458">
        <ele>294.78</ele>
        <time>2014-02-20T13:31:33Z</time>
      </trkpt>
      <trkpt lat="43.06191" lon="2.70447">
        <ele>293.34</ele>
        <time>2014-02-20T13:31:46Z</time>
      </trkpt>
      <trkpt lat="43.06193" lon="2.70445">
        <ele>292.38</ele>
        <time>2014-02-20T13:31:53Z</time>
      </trkpt>
      <trkpt lat="43.06197" lon="2.70444">
        <ele>290.94</ele>
        <time>2014-02-20T13:32:02Z</time>
      </trkpt>
      <trkpt lat="43.062" lon="2.70447">
        <ele>290.46</ele>
        <time>2014-02-20T13:32:09Z</time>
      </trkpt>
      <trkpt lat="43.06201" lon="2.70451">
        <ele>289.49</ele>
        <time>2014-02-20T13:32:12Z</time>
      </trkpt>
      <trkpt lat="43.06209" lon="2.70462">
        <ele>287.09</ele>
        <time>2014-02-20T13:32:23Z</time>
      </trkpt>
      <trkpt lat="43.06214" lon="2.70463">
        <ele>285.65</ele>
        <time>2014-02-20T13:32:28Z</time>
      </trkpt>
      <trkpt lat="43.06221" lon="2.70463">
        <ele>284.69</ele>
        <time>2014-02-20T13:32:34Z</time>
      </trkpt>
      <trkpt lat="43.06228" lon="2.70462">
        <ele>283.73</ele>
        <time>2014-02-20T13:32:41Z</time>
      </trkpt>
      <trkpt lat="43.06231" lon="2.7046">
        <ele>283.25</ele>
        <time>2014-02-20T13:32:45Z</time>
      </trkpt>
      <trkpt lat="43.06236" lon="2.70457">
        <ele>281.8</ele>
        <time>2014-02-20T13:32:49Z</time>
      </trkpt>
      <trkpt lat="43.06244" lon="2.70453">
        <ele>280.36</ele>
        <time>2014-02-20T13:33:02Z</time>
      </trkpt>
      <trkpt lat="43.06255" lon="2.7044">
        <ele>277.96</ele>
        <time>2014-02-20T13:33:14Z</time>
      </trkpt>
      <trkpt lat="43.06255" lon="2.70438">
        <ele>277.48</ele>
        <time>2014-02-20T13:33:15Z</time>
      </trkpt>
      <trkpt lat="43.06267" lon="2.70426">
        <ele>276.52</ele>
        <time>2014-02-20T13:33:28Z</time>
      </trkpt>
      <trkpt lat="43.06275" lon="2.70419">
        <ele>277.48</ele>
        <time>2014-02-20T13:33:43Z</time>
      </trkpt>
      <trkpt lat="43.06279" lon="2.70416">
        <ele>276.52</ele>
        <time>2014-02-20T13:33:53Z</time>
      </trkpt>
      <trkpt lat="43.06281" lon="2.70408">
        <ele>274.59</ele>
        <time>2014-02-20T13:34:03Z</time>
      </trkpt>
      <trkpt lat="43.06283" lon="2.70402">
        <ele>274.11</ele>
        <time>2014-02-20T13:34:06Z</time>
      </trkpt>
      <trkpt lat="43.06285" lon="2.70396">
        <ele>273.15</ele>
        <time>2014-02-20T13:34:12Z</time>
      </trkpt>
      <trkpt lat="43.06287" lon="2.70392">
        <ele>272.67</ele>
        <time>2014-02-20T13:34:15Z</time>
      </trkpt>
      <trkpt lat="43.06287" lon="2.70389">
        <ele>271.71</ele>
        <time>2014-02-20T13:34:22Z</time>
      </trkpt>
      <trkpt lat="43.06288" lon="2.70386">
        <ele>271.71</ele>
        <time>2014-02-20T13:34:25Z</time>
      </trkpt>
      <trkpt lat="43.06291" lon="2.7038">
        <ele>271.23</ele>
        <time>2014-02-20T13:34:37Z</time>
      </trkpt>
      <trkpt lat="43.06289" lon="2.70381">
        <ele>271.23</ele>
        <time>2014-02-20T13:34:49Z</time>
      </trkpt>
      <trkpt lat="43.0629" lon="2.70377">
        <ele>272.19</ele>
        <time>2014-02-20T13:35:02Z</time>
      </trkpt>
      <trkpt lat="43.06292" lon="2.70367">
        <ele>270.27</ele>
        <time>2014-02-20T13:35:13Z</time>
      </trkpt>
      <trkpt lat="43.06298" lon="2.70353">
        <ele>268.83</ele>
        <time>2014-02-20T13:35:22Z</time>
      </trkpt>
      <trkpt lat="43.06299" lon="2.70346">
        <ele>268.35</ele>
        <time>2014-02-20T13:35:25Z</time>
      </trkpt>
      <trkpt lat="43.06301" lon="2.70337">
        <ele>267.86</ele>
        <time>2014-02-20T13:35:28Z</time>
      </trkpt>
      <trkpt lat="43.06305" lon="2.70321">
        <ele>266.42</ele>
        <time>2014-02-20T13:35:35Z</time>
      </trkpt>
      <trkpt lat="43.06305" lon="2.70308">
        <ele>265.46</ele>
        <time>2014-02-20T13:35:49Z</time>
      </trkpt>
      <trkpt lat="43.06308" lon="2.70307">
        <ele>264.5</ele>
        <time>2014-02-20T13:35:58Z</time>
      </trkpt>
      <trkpt lat="43.06317" lon="2.70291">
        <ele>263.54</ele>
        <time>2014-02-20T13:36:11Z</time>
      </trkpt>
      <trkpt lat="43.06327" lon="2.70265">
        <ele>262.58</ele>
        <time>2014-02-20T13:36:23Z</time>
      </trkpt>
      <trkpt lat="43.06333" lon="2.7025">
        <ele>261.14</ele>
        <time>2014-02-20T13:36:35Z</time>
      </trkpt>
      <trkpt lat="43.0634" lon="2.70244">
        <ele>261.14</ele>
        <time>2014-02-20T13:36:43Z</time>
      </trkpt>
      <trkpt lat="43.06346" lon="2.70235">
        <ele>260.65</ele>
        <time>2014-02-20T13:36:53Z</time>
      </trkpt>
      <trkpt lat="43.06347" lon="2.70233">
        <ele>260.65</ele>
        <time>2014-02-20T13:36:55Z</time>
      </trkpt>
      <trkpt lat="43.06351" lon="2.70231">
        <ele>260.17</ele>
        <time>2014-02-20T13:36:59Z</time>
      </trkpt>
      <trkpt lat="43.06354" lon="2.70227">
        <ele>259.21</ele>
        <time>2014-02-20T13:37:03Z</time>
      </trkpt>
      <trkpt lat="43.06357" lon="2.70226">
        <ele>258.73</ele>
        <time>2014-02-20T13:37:08Z</time>
      </trkpt>
      <trkpt lat="43.06359" lon="2.70225">
        <ele>259.21</ele>
        <time>2014-02-20T13:37:10Z</time>
      </trkpt>
      <trkpt lat="43.06368" lon="2.70217">
        <ele>256.81</ele>
        <time>2014-02-20T13:37:19Z</time>
      </trkpt>
      <trkpt lat="43.06382" lon="2.70208">
        <ele>254.89</ele>
        <time>2014-02-20T13:37:33Z</time>
      </trkpt>
      <trkpt lat="43.06387" lon="2.70206">
        <ele>253.44</ele>
        <time>2014-02-20T13:37:38Z</time>
      </trkpt>
      <trkpt lat="43.064" lon="2.70203">
        <ele>252.48</ele>
        <time>2014-02-20T13:37:51Z</time>
      </trkpt>
      <trkpt lat="43.06414" lon="2.70201">
        <ele>249.6</ele>
        <time>2014-02-20T13:38:04Z</time>
      </trkpt>
      <trkpt lat="43.06417" lon="2.70201">
        <ele>249.12</ele>
        <time>2014-02-20T13:38:07Z</time>
      </trkpt>
      <trkpt lat="43.06421" lon="2.70202">
        <ele>249.12</ele>
        <time>2014-02-20T13:38:10Z</time>
      </trkpt>
      <trkpt lat="43.06429" lon="2.70203">
        <ele>246.72</ele>
        <time>2014-02-20T13:38:18Z</time>
      </trkpt>
      <trkpt lat="43.06446" lon="2.70209">
        <ele>244.79</ele>
        <time>2014-02-20T13:38:32Z</time>
      </trkpt>
      <trkpt lat="43.06448" lon="2.7021">
        <ele>245.27</ele>
        <time>2014-02-20T13:38:34Z</time>
      </trkpt>
      <trkpt lat="43.06458" lon="2.70218">
        <ele>244.79</ele>
        <time>2014-02-20T13:38:42Z</time>
      </trkpt>
      <trkpt lat="43.06472" lon="2.70232">
        <ele>242.39</ele>
        <time>2014-02-20T13:38:55Z</time>
      </trkpt>
      <trkpt lat="43.06481" lon="2.70243">
        <ele>240.95</ele>
        <time>2014-02-20T13:39:08Z</time>
      </trkpt>
      <trkpt lat="43.06492" lon="2.7025">
        <ele>239.99</ele>
        <time>2014-02-20T13:39:21Z</time>
      </trkpt>
      <trkpt lat="43.06496" lon="2.70253">
        <ele>239.51</ele>
        <time>2014-02-20T13:39:25Z</time>
      </trkpt>
      <trkpt lat="43.06503" lon="2.7026">
        <ele>239.02</ele>
        <time>2014-02-20T13:39:31Z</time>
      </trkpt>
      <trkpt lat="43.06505" lon="2.70264">
        <ele>238.54</ele>
        <time>2014-02-20T13:39:35Z</time>
      </trkpt>
      <trkpt lat="43.06511" lon="2.70272">
        <ele>238.54</ele>
        <time>2014-02-20T13:39:46Z</time>
      </trkpt>
      <trkpt lat="43.06515" lon="2.70273">
        <ele>239.02</ele>
        <time>2014-02-20T13:39:51Z</time>
      </trkpt>
      <trkpt lat="43.06518" lon="2.70275">
        <ele>238.06</ele>
        <time>2014-02-20T13:39:55Z</time>
      </trkpt>
      <trkpt lat="43.06523" lon="2.70277">
        <ele>239.02</ele>
        <time>2014-02-20T13:39:59Z</time>
      </trkpt>
      <trkpt lat="43.06529" lon="2.70277">
        <ele>238.06</ele>
        <time>2014-02-20T13:40:04Z</time>
      </trkpt>
      <trkpt lat="43.06539" lon="2.70281">
        <ele>237.1</ele>
        <time>2014-02-20T13:40:11Z</time>
      </trkpt>
      <trkpt lat="43.06542" lon="2.70286">
        <ele>236.62</ele>
        <time>2014-02-20T13:40:16Z</time>
      </trkpt>
      <trkpt lat="43.06553" lon="2.70296">
        <ele>235.18</ele>
        <time>2014-02-20T13:40:28Z</time>
      </trkpt>
      <trkpt lat="43.06556" lon="2.70302">
        <ele>234.22</ele>
        <time>2014-02-20T13:40:33Z</time>
      </trkpt>
      <trkpt lat="43.06561" lon="2.70308">
        <ele>234.22</ele>
        <time>2014-02-20T13:40:39Z</time>
      </trkpt>
      <trkpt lat="43.06569" lon="2.7032">
        <ele>233.26</ele>
        <time>2014-02-20T13:40:48Z</time>
      </trkpt>
      <trkpt lat="43.06572" lon="2.70324">
        <ele>232.78</ele>
        <time>2014-02-20T13:40:52Z</time>
      </trkpt>
      <trkpt lat="43.06576" lon="2.70332">
        <ele>233.26</ele>
        <time>2014-02-20T13:40:58Z</time>
      </trkpt>
      <trkpt lat="43.06584" lon="2.70341">
        <ele>232.78</ele>
        <time>2014-02-20T13:41:09Z</time>
      </trkpt>
      <trkpt lat="43.06588" lon="2.70345">
        <ele>232.78</ele>
        <time>2014-02-20T13:41:13Z</time>
      </trkpt>
      <trkpt lat="43.06596" lon="2.7035">
        <ele>232.78</ele>
        <time>2014-02-20T13:41:20Z</time>
      </trkpt>
      <trkpt lat="43.0661" lon="2.70363">
        <ele>233.26</ele>
        <time>2014-02-20T13:41:34Z</time>
      </trkpt>
      <trkpt lat="43.06622" lon="2.70366">
        <ele>233.26</ele>
        <time>2014-02-20T13:41:44Z</time>
      </trkpt>
      <trkpt lat="43.06631" lon="2.70366">
        <ele>232.78</ele>
        <time>2014-02-20T13:41:51Z</time>
      </trkpt>
      <trkpt lat="43.06646" lon="2.70366">
        <ele>234.22</ele>
        <time>2014-02-20T13:42:04Z</time>
      </trkpt>
      <trkpt lat="43.06662" lon="2.70365">
        <ele>235.66</ele>
        <time>2014-02-20T13:42:18Z</time>
      </trkpt>
      <trkpt lat="43.06664" lon="2.70365">
        <ele>235.66</ele>
        <time>2014-02-20T13:42:20Z</time>
      </trkpt>
      <trkpt lat="43.06673" lon="2.70366">
        <ele>235.66</ele>
        <time>2014-02-20T13:42:31Z</time>
      </trkpt>
      <trkpt lat="43.06678" lon="2.70368">
        <ele>235.66</ele>
        <time>2014-02-20T13:42:35Z</time>
      </trkpt>
      <trkpt lat="43.06685" lon="2.70367">
        <ele>235.18</ele>
        <time>2014-02-20T13:42:41Z</time>
      </trkpt>
      <trkpt lat="43.06691" lon="2.7037">
        <ele>235.66</ele>
        <time>2014-02-20T13:42:53Z</time>
      </trkpt>
      <trkpt lat="43.06692" lon="2.70371">
        <ele>235.18</ele>
        <time>2014-02-20T13:43:11Z</time>
      </trkpt>
      <trkpt lat="43.06693" lon="2.70371">
        <ele>235.18</ele>
        <time>2014-02-20T13:43:38Z</time>
      </trkpt>
      <trkpt lat="43.06693" lon="2.70371">
        <ele>231.33</ele>
        <time>2014-02-20T13:43:47Z</time>
      </trkpt>
      <trkpt lat="43.06693" lon="2.70371">
        <ele>237.1</ele>
        <time>2014-02-20T13:43:48Z</time>
      </trkpt>
      <trkpt lat="43.06694" lon="2.70371">
        <ele>236.14</ele>
        <time>2014-02-20T13:44:02Z</time>
      </trkpt>
      <trkpt lat="43.06695" lon="2.70371">
        <ele>236.14</ele>
        <time>2014-02-20T13:44:18Z</time>
      </trkpt>
      <trkpt lat="43.06699" lon="2.70367">
        <ele>235.66</ele>
        <time>2014-02-20T13:44:32Z</time>
      </trkpt>
      <trkpt lat="43.06699" lon="2.70367">
        <ele>238.06</ele>
        <time>2014-02-20T13:44:40Z</time>
      </trkpt>
      <trkpt lat="43.06699" lon="2.70367">
        <ele>236.62</ele>
        <time>2014-02-20T13:44:43Z</time>
      </trkpt>
      <trkpt lat="43.06699" lon="2.70366">
        <ele>239.99</ele>
        <time>2014-02-20T13:44:53Z</time>
      </trkpt>
      <trkpt lat="43.06699" lon="2.70366">
        <ele>235.66</ele>
        <time>2014-02-20T13:44:54Z</time>
      </trkpt>
      <trkpt lat="43.06699" lon="2.70366">
        <ele>224.12</ele>
        <time>2014-02-20T13:44:55Z</time>
      </trkpt>
      <trkpt lat="43.06699" lon="2.70366">
        <ele>236.62</ele>
        <time>2014-02-20T13:44:56Z</time>
      </trkpt>
      <trkpt lat="43.067" lon="2.70366">
        <ele>227.97</ele>
        <time>2014-02-20T13:44:57Z</time>
      </trkpt>
      <trkpt lat="43.067" lon="2.70366">
        <ele>236.62</ele>
        <time>2014-02-20T13:44:58Z</time>
      </trkpt>
      <trkpt lat="43.067" lon="2.70366">
        <ele>231.33</ele>
        <time>2014-02-20T13:45:07Z</time>
      </trkpt>
      <trkpt lat="43.067" lon="2.70366">
        <ele>237.1</ele>
        <time>2014-02-20T13:45:08Z</time>
      </trkpt>
      <trkpt lat="43.067" lon="2.70366">
        <ele>234.7</ele>
        <time>2014-02-20T13:45:32Z</time>
      </trkpt>
      <trkpt lat="43.067" lon="2.70366">
        <ele>230.37</ele>
        <time>2014-02-20T13:45:39Z</time>
      </trkpt>
      <trkpt lat="43.067" lon="2.70366">
        <ele>236.14</ele>
        <time>2014-02-20T13:45:40Z</time>
      </trkpt>
      <trkpt lat="43.067" lon="2.70366">
        <ele>234.7</ele>
        <time>2014-02-20T13:45:50Z</time>
      </trkpt>
      <trkpt lat="43.06699" lon="2.70366">
        <ele>234.22</ele>
        <time>2014-02-20T13:46:04Z</time>
      </trkpt>
      <trkpt lat="43.06697" lon="2.70369">
        <ele>233.74</ele>
        <time>2014-02-20T13:46:08Z</time>
      </trkpt>
      <trkpt lat="43.06697" lon="2.70373">
        <ele>234.22</ele>
        <time>2014-02-20T13:46:11Z</time>
      </trkpt>
      <trkpt lat="43.06701" lon="2.70391">
        <ele>233.74</ele>
        <time>2014-02-20T13:46:24Z</time>
      </trkpt>
      <trkpt lat="43.0671" lon="2.70408">
        <ele>232.78</ele>
        <time>2014-02-20T13:46:37Z</time>
      </trkpt>
      <trkpt lat="43.06716" lon="2.70419">
        <ele>231.81</ele>
        <time>2014-02-20T13:46:48Z</time>
      </trkpt>
      <trkpt lat="43.06719" lon="2.70422">
        <ele>232.3</ele>
        <time>2014-02-20T13:46:51Z</time>
      </trkpt>
      <trkpt lat="43.06733" lon="2.70443">
        <ele>231.33</ele>
        <time>2014-02-20T13:47:06Z</time>
      </trkpt>
      <trkpt lat="43.06747" lon="2.70465">
        <ele>230.37</ele>
        <time>2014-02-20T13:47:21Z</time>
      </trkpt>
      <trkpt lat="43.06758" lon="2.70483">
        <ele>228.93</ele>
        <time>2014-02-20T13:47:34Z</time>
      </trkpt>
      <trkpt lat="43.06768" lon="2.70502">
        <ele>228.45</ele>
        <time>2014-02-20T13:47:47Z</time>
      </trkpt>
      <trkpt lat="43.06777" lon="2.70519">
        <ele>228.45</ele>
        <time>2014-02-20T13:47:59Z</time>
      </trkpt>
      <trkpt lat="43.06784" lon="2.70536">
        <ele>230.37</ele>
        <time>2014-02-20T13:48:11Z</time>
      </trkpt>
      <trkpt lat="43.06791" lon="2.70549">
        <ele>229.89</ele>
        <time>2014-02-20T13:48:23Z</time>
      </trkpt>
      <trkpt lat="43.06794" lon="2.70555">
        <ele>230.37</ele>
        <time>2014-02-20T13:48:29Z</time>
      </trkpt>
      <trkpt lat="43.06796" lon="2.70559">
        <ele>230.37</ele>
        <time>2014-02-20T13:48:32Z</time>
      </trkpt>
      <trkpt lat="43.06805" lon="2.70573">
        <ele>231.33</ele>
        <time>2014-02-20T13:48:44Z</time>
      </trkpt>
      <trkpt lat="43.06806" lon="2.70576">
        <ele>231.33</ele>
        <time>2014-02-20T13:48:46Z</time>
      </trkpt>
      <trkpt lat="43.0682" lon="2.70597">
        <ele>231.81</ele>
        <time>2014-02-20T13:49:02Z</time>
      </trkpt>
      <trkpt lat="43.06827" lon="2.70609">
        <ele>232.3</ele>
        <time>2014-02-20T13:49:10Z</time>
      </trkpt>
      <trkpt lat="43.06834" lon="2.70632">
        <ele>232.3</ele>
        <time>2014-02-20T13:49:25Z</time>
      </trkpt>
      <trkpt lat="43.0684" lon="2.70654">
        <ele>232.78</ele>
        <time>2014-02-20T13:49:38Z</time>
      </trkpt>
      <trkpt lat="43.06843" lon="2.70661">
        <ele>232.78</ele>
        <time>2014-02-20T13:49:43Z</time>
      </trkpt>
      <trkpt lat="43.06849" lon="2.70665">
        <ele>232.78</ele>
        <time>2014-02-20T13:49:48Z</time>
      </trkpt>
      <trkpt lat="43.06858" lon="2.70666">
        <ele>232.3</ele>
        <time>2014-02-20T13:49:54Z</time>
      </trkpt>
      <trkpt lat="43.06868" lon="2.70657">
        <ele>231.81</ele>
        <time>2014-02-20T13:50:04Z</time>
      </trkpt>
      <trkpt lat="43.06872" lon="2.70655">
        <ele>230.85</ele>
        <time>2014-02-20T13:50:09Z</time>
      </trkpt>
      <trkpt lat="43.06887" lon="2.7065">
        <ele>230.37</ele>
        <time>2014-02-20T13:50:22Z</time>
      </trkpt>
      <trkpt lat="43.069" lon="2.70652">
        <ele>230.37</ele>
        <time>2014-02-20T13:50:33Z</time>
      </trkpt>
      <trkpt lat="43.06919" lon="2.70655">
        <ele>230.85</ele>
        <time>2014-02-20T13:50:47Z</time>
      </trkpt>
      <trkpt lat="43.06924" lon="2.70659">
        <ele>231.33</ele>
        <time>2014-02-20T13:50:59Z</time>
      </trkpt>
      <trkpt lat="43.06926" lon="2.70661">
        <ele>231.81</ele>
        <time>2014-02-20T13:51:01Z</time>
      </trkpt>
      <trkpt lat="43.06932" lon="2.70677">
        <ele>231.81</ele>
        <time>2014-02-20T13:51:15Z</time>
      </trkpt>
      <trkpt lat="43.06939" lon="2.70684">
        <ele>232.3</ele>
        <time>2014-02-20T13:51:28Z</time>
      </trkpt>
      <trkpt lat="43.0694" lon="2.70684">
        <ele>232.78</ele>
        <time>2014-02-20T13:51:46Z</time>
      </trkpt>
      <trkpt lat="43.06946" lon="2.70682">
        <ele>235.18</ele>
        <time>2014-02-20T13:52:00Z</time>
      </trkpt>
      <trkpt lat="43.06952" lon="2.70681">
        <ele>238.06</ele>
        <time>2014-02-20T13:52:13Z</time>
      </trkpt>
      <trkpt lat="43.06955" lon="2.70682">
        <ele>238.54</ele>
        <time>2014-02-20T13:52:17Z</time>
      </trkpt>
      <trkpt lat="43.06964" lon="2.70682">
        <ele>241.43</ele>
        <time>2014-02-20T13:52:30Z</time>
      </trkpt>
      <trkpt lat="43.06966" lon="2.70682">
        <ele>241.91</ele>
        <time>2014-02-20T13:52:31Z</time>
      </trkpt>
      <trkpt lat="43.06973" lon="2.70674">
        <ele>244.79</ele>
        <time>2014-02-20T13:52:45Z</time>
      </trkpt>
      <trkpt lat="43.06972" lon="2.7067">
        <ele>246.72</ele>
        <time>2014-02-20T13:52:58Z</time>
      </trkpt>
      <trkpt lat="43.06969" lon="2.70664">
        <ele>248.16</ele>
        <time>2014-02-20T13:53:08Z</time>
      </trkpt>
      <trkpt lat="43.06968" lon="2.70657">
        <ele>249.12</ele>
        <time>2014-02-20T13:53:18Z</time>
      </trkpt>
      <trkpt lat="43.06966" lon="2.70657">
        <ele>250.08</ele>
        <time>2014-02-20T13:53:32Z</time>
      </trkpt>
      <trkpt lat="43.06965" lon="2.70656">
        <ele>250.08</ele>
        <time>2014-02-20T13:53:33Z</time>
      </trkpt>
      <trkpt lat="43.06968" lon="2.70654">
        <ele>250.56</ele>
        <time>2014-02-20T13:53:39Z</time>
      </trkpt>
      <trkpt lat="43.0697" lon="2.70651">
        <ele>250.56</ele>
        <time>2014-02-20T13:53:41Z</time>
      </trkpt>
      <trkpt lat="43.06973" lon="2.70649">
        <ele>250.56</ele>
        <time>2014-02-20T13:53:43Z</time>
      </trkpt>
      <trkpt lat="43.06975" lon="2.70646">
        <ele>251.04</ele>
        <time>2014-02-20T13:53:45Z</time>
      </trkpt>
      <trkpt lat="43.06981" lon="2.70629">
        <ele>252.96</ele>
        <time>2014-02-20T13:53:58Z</time>
      </trkpt>
      <trkpt lat="43.06985" lon="2.70625">
        <ele>253.44</ele>
        <time>2014-02-20T13:54:10Z</time>
      </trkpt>
      <trkpt lat="43.06983" lon="2.70625">
        <ele>254.41</ele>
        <time>2014-02-20T13:54:32Z</time>
      </trkpt>
      <trkpt lat="43.06981" lon="2.70622">
        <ele>254.89</ele>
        <time>2014-02-20T13:54:34Z</time>
      </trkpt>
      <trkpt lat="43.06983" lon="2.70586">
        <ele>256.81</ele>
        <time>2014-02-20T13:54:46Z</time>
      </trkpt>
      <trkpt lat="43.06983" lon="2.70578">
        <ele>257.29</ele>
        <time>2014-02-20T13:55:04Z</time>
      </trkpt>
      <trkpt lat="43.06983" lon="2.70577">
        <ele>257.29</ele>
        <time>2014-02-20T13:55:21Z</time>
      </trkpt>
      <trkpt lat="43.06984" lon="2.70568">
        <ele>258.25</ele>
        <time>2014-02-20T13:55:35Z</time>
      </trkpt>
      <trkpt lat="43.06983" lon="2.70567">
        <ele>258.73</ele>
        <time>2014-02-20T13:55:40Z</time>
      </trkpt>
      <trkpt lat="43.06983" lon="2.70567">
        <ele>258.73</ele>
        <time>2014-02-20T13:55:52Z</time>
      </trkpt>
      <trkpt lat="43.06983" lon="2.70564">
        <ele>258.25</ele>
        <time>2014-02-20T13:56:14Z</time>
      </trkpt>
      <trkpt lat="43.06979" lon="2.70559">
        <ele>261.14</ele>
        <time>2014-02-20T13:56:26Z</time>
      </trkpt>
      <trkpt lat="43.06976" lon="2.70554">
        <ele>262.1</ele>
        <time>2014-02-20T13:56:43Z</time>
      </trkpt>
      <trkpt lat="43.06976" lon="2.70553">
        <ele>263.06</ele>
        <time>2014-02-20T13:57:01Z</time>
      </trkpt>
      <trkpt lat="43.06966" lon="2.70541">
        <ele>264.98</ele>
        <time>2014-02-20T13:57:14Z</time>
      </trkpt>
      <trkpt lat="43.06965" lon="2.70539">
        <ele>264.5</ele>
        <time>2014-02-20T13:57:16Z</time>
      </trkpt>
      <trkpt lat="43.06964" lon="2.70537">
        <ele>264.5</ele>
        <time>2014-02-20T13:57:18Z</time>
      </trkpt>
      <trkpt lat="43.06961" lon="2.70532">
        <ele>264.98</ele>
        <time>2014-02-20T13:57:22Z</time>
      </trkpt>
      <trkpt lat="43.06959" lon="2.70528">
        <ele>266.42</ele>
        <time>2014-02-20T13:57:25Z</time>
      </trkpt>
      <trkpt lat="43.0695" lon="2.70515">
        <ele>267.86</ele>
        <time>2014-02-20T13:57:36Z</time>
      </trkpt>
      <trkpt lat="43.06947" lon="2.70509">
        <ele>268.83</ele>
        <time>2014-02-20T13:57:40Z</time>
      </trkpt>
      <trkpt lat="43.06942" lon="2.70499">
        <ele>270.27</ele>
        <time>2014-02-20T13:57:56Z</time>
      </trkpt>
      <trkpt lat="43.0694" lon="2.70496">
        <ele>272.19</ele>
        <time>2014-02-20T13:58:08Z</time>
      </trkpt>
      <trkpt lat="43.06939" lon="2.70491">
        <ele>274.11</ele>
        <time>2014-02-20T13:58:23Z</time>
      </trkpt>
      <trkpt lat="43.06937" lon="2.70489">
        <ele>274.11</ele>
        <time>2014-02-20T13:58:30Z</time>
      </trkpt>
      <trkpt lat="43.06934" lon="2.70476">
        <ele>274.59</ele>
        <time>2014-02-20T13:58:43Z</time>
      </trkpt>
      <trkpt lat="43.06931" lon="2.70471">
        <ele>274.59</ele>
        <time>2014-02-20T13:58:57Z</time>
      </trkpt>
      <trkpt lat="43.0693" lon="2.70466">
        <ele>274.59</ele>
        <time>2014-02-20T13:59:10Z</time>
      </trkpt>
      <trkpt lat="43.06929" lon="2.70465">
        <ele>274.59</ele>
        <time>2014-02-20T13:59:11Z</time>
      </trkpt>
      <trkpt lat="43.06927" lon="2.70455">
        <ele>276.52</ele>
        <time>2014-02-20T13:59:19Z</time>
      </trkpt>
      <trkpt lat="43.0692" lon="2.70441">
        <ele>275.07</ele>
        <time>2014-02-20T13:59:29Z</time>
      </trkpt>
      <trkpt lat="43.06918" lon="2.70435">
        <ele>274.59</ele>
        <time>2014-02-20T13:59:33Z</time>
      </trkpt>
      <trkpt lat="43.06914" lon="2.7043">
        <ele>274.11</ele>
        <time>2014-02-20T13:59:37Z</time>
      </trkpt>
      <trkpt lat="43.06909" lon="2.7042">
        <ele>274.11</ele>
        <time>2014-02-20T13:59:46Z</time>
      </trkpt>
      <trkpt lat="43.06903" lon="2.70406">
        <ele>274.59</ele>
        <time>2014-02-20T14:00:01Z</time>
      </trkpt>
      <trkpt lat="43.06899" lon="2.704">
        <ele>274.59</ele>
        <time>2014-02-20T14:00:09Z</time>
      </trkpt>
      <trkpt lat="43.06895" lon="2.70388">
        <ele>275.56</ele>
        <time>2014-02-20T14:00:22Z</time>
      </trkpt>
      <trkpt lat="43.06894" lon="2.70384">
        <ele>276.52</ele>
        <time>2014-02-20T14:00:36Z</time>
      </trkpt>
      <trkpt lat="43.06893" lon="2.7038">
        <ele>277</ele>
        <time>2014-02-20T14:00:42Z</time>
      </trkpt>
      <trkpt lat="43.06885" lon="2.70368">
        <ele>279.88</ele>
        <time>2014-02-20T14:00:55Z</time>
      </trkpt>
      <trkpt lat="43.06885" lon="2.70366">
        <ele>279.88</ele>
        <time>2014-02-20T14:01:00Z</time>
      </trkpt>
      <trkpt lat="43.06882" lon="2.70355">
        <ele>282.77</ele>
        <time>2014-02-20T14:01:14Z</time>
      </trkpt>
      <trkpt lat="43.06882" lon="2.70339">
        <ele>284.69</ele>
        <time>2014-02-20T14:01:27Z</time>
      </trkpt>
      <trkpt lat="43.06878" lon="2.70333">
        <ele>286.13</ele>
        <time>2014-02-20T14:01:39Z</time>
      </trkpt>
      <trkpt lat="43.06877" lon="2.7032">
        <ele>286.61</ele>
        <time>2014-02-20T14:01:57Z</time>
      </trkpt>
      <trkpt lat="43.06874" lon="2.70311">
        <ele>286.61</ele>
        <time>2014-02-20T14:02:02Z</time>
      </trkpt>
      <trkpt lat="43.06871" lon="2.70303">
        <ele>286.61</ele>
        <time>2014-02-20T14:02:06Z</time>
      </trkpt>
      <trkpt lat="43.06866" lon="2.70298">
        <ele>286.61</ele>
        <time>2014-02-20T14:02:10Z</time>
      </trkpt>
      <trkpt lat="43.06863" lon="2.70287">
        <ele>287.09</ele>
        <time>2014-02-20T14:02:17Z</time>
      </trkpt>
      <trkpt lat="43.06862" lon="2.70274">
        <ele>286.61</ele>
        <time>2014-02-20T14:02:25Z</time>
      </trkpt>
      <trkpt lat="43.06861" lon="2.70265">
        <ele>286.61</ele>
        <time>2014-02-20T14:02:37Z</time>
      </trkpt>
      <trkpt lat="43.06861" lon="2.70263">
        <ele>286.61</ele>
        <time>2014-02-20T14:02:47Z</time>
      </trkpt>
      <trkpt lat="43.0686" lon="2.7026">
        <ele>286.61</ele>
        <time>2014-02-20T14:02:50Z</time>
      </trkpt>
      <trkpt lat="43.06863" lon="2.70243">
        <ele>286.13</ele>
        <time>2014-02-20T14:03:04Z</time>
      </trkpt>
      <trkpt lat="43.06862" lon="2.70231">
        <ele>286.13</ele>
        <time>2014-02-20T14:03:17Z</time>
      </trkpt>
      <trkpt lat="43.06859" lon="2.70216">
        <ele>287.09</ele>
        <time>2014-02-20T14:03:31Z</time>
      </trkpt>
      <trkpt lat="43.06861" lon="2.70201">
        <ele>286.61</ele>
        <time>2014-02-20T14:03:43Z</time>
      </trkpt>
      <trkpt lat="43.06864" lon="2.70192">
        <ele>286.61</ele>
        <time>2014-02-20T14:03:50Z</time>
      </trkpt>
      <trkpt lat="43.06863" lon="2.70169">
        <ele>286.13</ele>
        <time>2014-02-20T14:04:02Z</time>
      </trkpt>
      <trkpt lat="43.06865" lon="2.70157">
        <ele>286.13</ele>
        <time>2014-02-20T14:04:09Z</time>
      </trkpt>
      <trkpt lat="43.06868" lon="2.70145">
        <ele>285.17</ele>
        <time>2014-02-20T14:04:17Z</time>
      </trkpt>
      <trkpt lat="43.06871" lon="2.70128">
        <ele>285.65</ele>
        <time>2014-02-20T14:04:32Z</time>
      </trkpt>
      <trkpt lat="43.06871" lon="2.70126">
        <ele>286.13</ele>
        <time>2014-02-20T14:04:45Z</time>
      </trkpt>
      <trkpt lat="43.06875" lon="2.70117">
        <ele>285.65</ele>
        <time>2014-02-20T14:04:52Z</time>
      </trkpt>
      <trkpt lat="43.06878" lon="2.70114">
        <ele>285.65</ele>
        <time>2014-02-20T14:04:55Z</time>
      </trkpt>
      <trkpt lat="43.0688" lon="2.70108">
        <ele>285.17</ele>
        <time>2014-02-20T14:05:10Z</time>
      </trkpt>
      <trkpt lat="43.06882" lon="2.70104">
        <ele>285.17</ele>
        <time>2014-02-20T14:05:13Z</time>
      </trkpt>
      <trkpt lat="43.06887" lon="2.70092">
        <ele>284.69</ele>
        <time>2014-02-20T14:05:25Z</time>
      </trkpt>
      <trkpt lat="43.06887" lon="2.70091">
        <ele>284.69</ele>
        <time>2014-02-20T14:05:42Z</time>
      </trkpt>
      <trkpt lat="43.06889" lon="2.70087">
        <ele>284.69</ele>
        <time>2014-02-20T14:05:56Z</time>
      </trkpt>
      <trkpt lat="43.06889" lon="2.70081">
        <ele>285.17</ele>
        <time>2014-02-20T14:06:01Z</time>
      </trkpt>
      <trkpt lat="43.06885" lon="2.70069">
        <ele>286.13</ele>
        <time>2014-02-20T14:06:08Z</time>
      </trkpt>
      <trkpt lat="43.0688" lon="2.70062">
        <ele>285.17</ele>
        <time>2014-02-20T14:06:15Z</time>
      </trkpt>
      <trkpt lat="43.06876" lon="2.70055">
        <ele>284.69</ele>
        <time>2014-02-20T14:06:21Z</time>
      </trkpt>
      <trkpt lat="43.06868" lon="2.70042">
        <ele>284.21</ele>
        <time>2014-02-20T14:06:31Z</time>
      </trkpt>
      <trkpt lat="43.06867" lon="2.70033">
        <ele>284.21</ele>
        <time>2014-02-20T14:06:37Z</time>
      </trkpt>
      <trkpt lat="43.0686" lon="2.70025">
        <ele>284.21</ele>
        <time>2014-02-20T14:06:43Z</time>
      </trkpt>
      <trkpt lat="43.06855" lon="2.7001">
        <ele>283.73</ele>
        <time>2014-02-20T14:06:54Z</time>
      </trkpt>
      <trkpt lat="43.06853" lon="2.70001">
        <ele>283.73</ele>
        <time>2014-02-20T14:07:01Z</time>
      </trkpt>
      <trkpt lat="43.06856" lon="2.69987">
        <ele>283.73</ele>
        <time>2014-02-20T14:07:13Z</time>
      </trkpt>
      <trkpt lat="43.06855" lon="2.69984">
        <ele>283.73</ele>
        <time>2014-02-20T14:07:16Z</time>
      </trkpt>
      <trkpt lat="43.06855" lon="2.69974">
        <ele>282.28</ele>
        <time>2014-02-20T14:07:28Z</time>
      </trkpt>
      <trkpt lat="43.06854" lon="2.69967">
        <ele>282.28</ele>
        <time>2014-02-20T14:07:40Z</time>
      </trkpt>
      <trkpt lat="43.06853" lon="2.69967">
        <ele>281.8</ele>
        <time>2014-02-20T14:07:47Z</time>
      </trkpt>
      <trkpt lat="43.06852" lon="2.6996">
        <ele>281.8</ele>
        <time>2014-02-20T14:08:01Z</time>
      </trkpt>
      <trkpt lat="43.06854" lon="2.69953">
        <ele>282.77</ele>
        <time>2014-02-20T14:08:26Z</time>
      </trkpt>
      <trkpt lat="43.06857" lon="2.69941">
        <ele>282.77</ele>
        <time>2014-02-20T14:08:36Z</time>
      </trkpt>
      <trkpt lat="43.06857" lon="2.6993">
        <ele>282.28</ele>
        <time>2014-02-20T14:08:45Z</time>
      </trkpt>
      <trkpt lat="43.06858" lon="2.69918">
        <ele>280.84</ele>
        <time>2014-02-20T14:08:57Z</time>
      </trkpt>
      <trkpt lat="43.06858" lon="2.69917">
        <ele>280.84</ele>
        <time>2014-02-20T14:09:20Z</time>
      </trkpt>
      <trkpt lat="43.06858" lon="2.69916">
        <ele>280.84</ele>
        <time>2014-02-20T14:09:27Z</time>
      </trkpt>
      <trkpt lat="43.06863" lon="2.69912">
        <ele>280.84</ele>
        <time>2014-02-20T14:09:33Z</time>
      </trkpt>
      <trkpt lat="43.06875" lon="2.69911">
        <ele>283.25</ele>
        <time>2014-02-20T14:09:46Z</time>
      </trkpt>
      <trkpt lat="43.06885" lon="2.69914">
        <ele>286.13</ele>
        <time>2014-02-20T14:09:58Z</time>
      </trkpt>
      <trkpt lat="43.06885" lon="2.69914">
        <ele>286.61</ele>
        <time>2014-02-20T14:09:59Z</time>
      </trkpt>
      <trkpt lat="43.0689" lon="2.69915">
        <ele>286.61</ele>
        <time>2014-02-20T14:10:02Z</time>
      </trkpt>
      <trkpt lat="43.06901" lon="2.6991">
        <ele>286.61</ele>
        <time>2014-02-20T14:10:11Z</time>
      </trkpt>
      <trkpt lat="43.06908" lon="2.69907">
        <ele>287.57</ele>
        <time>2014-02-20T14:10:18Z</time>
      </trkpt>
      <trkpt lat="43.06908" lon="2.69919">
        <ele>289.97</ele>
        <time>2014-02-20T14:10:31Z</time>
      </trkpt>
      <trkpt lat="43.06908" lon="2.69921">
        <ele>290.46</ele>
        <time>2014-02-20T14:10:33Z</time>
      </trkpt>
      <trkpt lat="43.0691" lon="2.69928">
        <ele>290.94</ele>
        <time>2014-02-20T14:10:39Z</time>
      </trkpt>
      <trkpt lat="43.0691" lon="2.69933">
        <ele>291.9</ele>
        <time>2014-02-20T14:10:53Z</time>
      </trkpt>
      <trkpt lat="43.06911" lon="2.69936">
        <ele>291.42</ele>
        <time>2014-02-20T14:11:12Z</time>
      </trkpt>
      <trkpt lat="43.06917" lon="2.6994">
        <ele>289.49</ele>
        <time>2014-02-20T14:11:24Z</time>
      </trkpt>
      <trkpt lat="43.06921" lon="2.6994">
        <ele>288.05</ele>
        <time>2014-02-20T14:11:29Z</time>
      </trkpt>
      <trkpt lat="43.06923" lon="2.69942">
        <ele>288.05</ele>
        <time>2014-02-20T14:11:31Z</time>
      </trkpt>
      <trkpt lat="43.06922" lon="2.69939">
        <ele>289.97</ele>
        <time>2014-02-20T14:11:45Z</time>
      </trkpt>
      <trkpt lat="43.06922" lon="2.69938">
        <ele>289.97</ele>
        <time>2014-02-20T14:11:46Z</time>
      </trkpt>
      <trkpt lat="43.0692" lon="2.69936">
        <ele>290.94</ele>
        <time>2014-02-20T14:11:49Z</time>
      </trkpt>
      <trkpt lat="43.06914" lon="2.69928">
        <ele>290.94</ele>
        <time>2014-02-20T14:11:59Z</time>
      </trkpt>
      <trkpt lat="43.06912" lon="2.69922">
        <ele>289.49</ele>
        <time>2014-02-20T14:12:03Z</time>
      </trkpt>
      <trkpt lat="43.06908" lon="2.69906">
        <ele>287.09</ele>
        <time>2014-02-20T14:12:15Z</time>
      </trkpt>
      <trkpt lat="43.06904" lon="2.69905">
        <ele>286.61</ele>
        <time>2014-02-20T14:12:21Z</time>
      </trkpt>
      <trkpt lat="43.0689" lon="2.69911">
        <ele>285.65</ele>
        <time>2014-02-20T14:12:32Z</time>
      </trkpt>
      <trkpt lat="43.06889" lon="2.69909">
        <ele>284.69</ele>
        <time>2014-02-20T14:12:34Z</time>
      </trkpt>
      <trkpt lat="43.06882" lon="2.69904">
        <ele>282.28</ele>
        <time>2014-02-20T14:12:39Z</time>
      </trkpt>
      <trkpt lat="43.06876" lon="2.69902">
        <ele>281.32</ele>
        <time>2014-02-20T14:12:42Z</time>
      </trkpt>
      <trkpt lat="43.0687" lon="2.69901">
        <ele>279.88</ele>
        <time>2014-02-20T14:12:48Z</time>
      </trkpt>
      <trkpt lat="43.06863" lon="2.69896">
        <ele>280.36</ele>
        <time>2014-02-20T14:12:53Z</time>
      </trkpt>
      <trkpt lat="43.06852" lon="2.69888">
        <ele>280.84</ele>
        <time>2014-02-20T14:13:01Z</time>
      </trkpt>
      <trkpt lat="43.06842" lon="2.69889">
        <ele>281.32</ele>
        <time>2014-02-20T14:13:10Z</time>
      </trkpt>
      <trkpt lat="43.06837" lon="2.69883">
        <ele>278.92</ele>
        <time>2014-02-20T14:13:18Z</time>
      </trkpt>
      <trkpt lat="43.0683" lon="2.69877">
        <ele>276.52</ele>
        <time>2014-02-20T14:13:28Z</time>
      </trkpt>
      <trkpt lat="43.06828" lon="2.69875">
        <ele>276.04</ele>
        <time>2014-02-20T14:13:30Z</time>
      </trkpt>
      <trkpt lat="43.0682" lon="2.69868">
        <ele>274.11</ele>
        <time>2014-02-20T14:13:37Z</time>
      </trkpt>
      <trkpt lat="43.06811" lon="2.69857">
        <ele>273.15</ele>
        <time>2014-02-20T14:13:48Z</time>
      </trkpt>
      <trkpt lat="43.06807" lon="2.69853">
        <ele>272.19</ele>
        <time>2014-02-20T14:13:54Z</time>
      </trkpt>
      <trkpt lat="43.06803" lon="2.69852">
        <ele>271.71</ele>
        <time>2014-02-20T14:13:57Z</time>
      </trkpt>
      <trkpt lat="43.06795" lon="2.69851">
        <ele>270.75</ele>
        <time>2014-02-20T14:14:01Z</time>
      </trkpt>
      <trkpt lat="43.06784" lon="2.69849">
        <ele>268.35</ele>
        <time>2014-02-20T14:14:10Z</time>
      </trkpt>
      <trkpt lat="43.06779" lon="2.69847">
        <ele>266.42</ele>
        <time>2014-02-20T14:14:18Z</time>
      </trkpt>
      <trkpt lat="43.06775" lon="2.69837">
        <ele>264.98</ele>
        <time>2014-02-20T14:14:25Z</time>
      </trkpt>
      <trkpt lat="43.0677" lon="2.69836">
        <ele>263.54</ele>
        <time>2014-02-20T14:14:29Z</time>
      </trkpt>
      <trkpt lat="43.06767" lon="2.69832">
        <ele>263.54</ele>
        <time>2014-02-20T14:14:33Z</time>
      </trkpt>
      <trkpt lat="43.06765" lon="2.69827">
        <ele>263.54</ele>
        <time>2014-02-20T14:14:37Z</time>
      </trkpt>
      <trkpt lat="43.06761" lon="2.69822">
        <ele>263.06</ele>
        <time>2014-02-20T14:14:42Z</time>
      </trkpt>
      <trkpt lat="43.0676" lon="2.69819">
        <ele>263.06</ele>
        <time>2014-02-20T14:14:44Z</time>
      </trkpt>
      <trkpt lat="43.06749" lon="2.69806">
        <ele>260.65</ele>
        <time>2014-02-20T14:14:58Z</time>
      </trkpt>
      <trkpt lat="43.06743" lon="2.698">
        <ele>260.17</ele>
        <time>2014-02-20T14:15:10Z</time>
      </trkpt>
      <trkpt lat="43.06737" lon="2.69789">
        <ele>258.73</ele>
        <time>2014-02-20T14:15:22Z</time>
      </trkpt>
      <trkpt lat="43.06735" lon="2.69787">
        <ele>258.73</ele>
        <time>2014-02-20T14:15:41Z</time>
      </trkpt>
      <trkpt lat="43.06734" lon="2.69787">
        <ele>258.25</ele>
        <time>2014-02-20T14:16:00Z</time>
      </trkpt>
      <trkpt lat="43.06734" lon="2.69788">
        <ele>258.73</ele>
        <time>2014-02-20T14:16:14Z</time>
      </trkpt>
      <trkpt lat="43.06733" lon="2.69785">
        <ele>257.77</ele>
        <time>2014-02-20T14:16:37Z</time>
      </trkpt>
      <trkpt lat="43.06731" lon="2.69778">
        <ele>255.85</ele>
        <time>2014-02-20T14:16:45Z</time>
      </trkpt>
      <trkpt lat="43.06727" lon="2.69772">
        <ele>253.44</ele>
        <time>2014-02-20T14:16:51Z</time>
      </trkpt>
      <trkpt lat="43.0672" lon="2.69763">
        <ele>251.52</ele>
        <time>2014-02-20T14:17:03Z</time>
      </trkpt>
      <trkpt lat="43.0672" lon="2.69762">
        <ele>252.96</ele>
        <time>2014-02-20T14:17:12Z</time>
      </trkpt>
      <trkpt lat="43.06718" lon="2.6976">
        <ele>250.08</ele>
        <time>2014-02-20T14:17:18Z</time>
      </trkpt>
      <trkpt lat="43.06714" lon="2.69756">
        <ele>252.48</ele>
        <time>2014-02-20T14:17:31Z</time>
      </trkpt>
      <trkpt lat="43.06714" lon="2.69757">
        <ele>251.04</ele>
        <time>2014-02-20T14:17:40Z</time>
      </trkpt>
      <trkpt lat="43.06717" lon="2.6976">
        <ele>251.52</ele>
        <time>2014-02-20T14:17:57Z</time>
      </trkpt>
      <trkpt lat="43.06719" lon="2.69761">
        <ele>252</ele>
        <time>2014-02-20T14:18:14Z</time>
      </trkpt>
      <trkpt lat="43.06722" lon="2.69765">
        <ele>252.48</ele>
        <time>2014-02-20T14:18:20Z</time>
      </trkpt>
      <trkpt lat="43.06726" lon="2.69773">
        <ele>254.89</ele>
        <time>2014-02-20T14:18:33Z</time>
      </trkpt>
      <trkpt lat="43.06731" lon="2.69781">
        <ele>256.33</ele>
        <time>2014-02-20T14:18:44Z</time>
      </trkpt>
      <trkpt lat="43.06731" lon="2.69785">
        <ele>257.77</ele>
        <time>2014-02-20T14:18:47Z</time>
      </trkpt>
      <trkpt lat="43.06736" lon="2.69794">
        <ele>259.21</ele>
        <time>2014-02-20T14:19:00Z</time>
      </trkpt>
      <trkpt lat="43.06742" lon="2.69803">
        <ele>260.17</ele>
        <time>2014-02-20T14:19:12Z</time>
      </trkpt>
      <trkpt lat="43.06749" lon="2.69813">
        <ele>261.14</ele>
        <time>2014-02-20T14:19:26Z</time>
      </trkpt>
      <trkpt lat="43.06755" lon="2.69824">
        <ele>262.1</ele>
        <time>2014-02-20T14:19:37Z</time>
      </trkpt>
      <trkpt lat="43.06761" lon="2.69832">
        <ele>262.1</ele>
        <time>2014-02-20T14:19:49Z</time>
      </trkpt>
      <trkpt lat="43.06768" lon="2.69839">
        <ele>263.54</ele>
        <time>2014-02-20T14:20:03Z</time>
      </trkpt>
      <trkpt lat="43.06771" lon="2.69847">
        <ele>265.94</ele>
        <time>2014-02-20T14:20:16Z</time>
      </trkpt>
      <trkpt lat="43.06779" lon="2.69852">
        <ele>268.83</ele>
        <time>2014-02-20T14:20:30Z</time>
      </trkpt>
      <trkpt lat="43.06788" lon="2.69855">
        <ele>270.27</ele>
        <time>2014-02-20T14:20:43Z</time>
      </trkpt>
      <trkpt lat="43.06796" lon="2.69856">
        <ele>272.19</ele>
        <time>2014-02-20T14:20:57Z</time>
      </trkpt>
      <trkpt lat="43.06799" lon="2.69859">
        <ele>273.15</ele>
        <time>2014-02-20T14:21:03Z</time>
      </trkpt>
      <trkpt lat="43.06803" lon="2.69865">
        <ele>272.67</ele>
        <time>2014-02-20T14:21:09Z</time>
      </trkpt>
      <trkpt lat="43.06813" lon="2.69875">
        <ele>274.11</ele>
        <time>2014-02-20T14:21:23Z</time>
      </trkpt>
      <trkpt lat="43.06818" lon="2.6988">
        <ele>275.56</ele>
        <time>2014-02-20T14:21:33Z</time>
      </trkpt>
      <trkpt lat="43.06826" lon="2.69886">
        <ele>277.48</ele>
        <time>2014-02-20T14:21:46Z</time>
      </trkpt>
      <trkpt lat="43.06834" lon="2.69892">
        <ele>280.36</ele>
        <time>2014-02-20T14:21:59Z</time>
      </trkpt>
      <trkpt lat="43.06845" lon="2.69891">
        <ele>279.4</ele>
        <time>2014-02-20T14:22:13Z</time>
      </trkpt>
      <trkpt lat="43.06852" lon="2.69898">
        <ele>278.44</ele>
        <time>2014-02-20T14:22:26Z</time>
      </trkpt>
      <trkpt lat="43.06859" lon="2.69903">
        <ele>278.44</ele>
        <time>2014-02-20T14:22:37Z</time>
      </trkpt>
      <trkpt lat="43.06874" lon="2.69909">
        <ele>280.84</ele>
        <time>2014-02-20T14:22:52Z</time>
      </trkpt>
      <trkpt lat="43.06884" lon="2.69915">
        <ele>283.73</ele>
        <time>2014-02-20T14:23:07Z</time>
      </trkpt>
      <trkpt lat="43.06895" lon="2.69914">
        <ele>284.21</ele>
        <time>2014-02-20T14:23:18Z</time>
      </trkpt>
      <trkpt lat="43.06905" lon="2.6991">
        <ele>285.17</ele>
        <time>2014-02-20T14:23:29Z</time>
      </trkpt>
      <trkpt lat="43.06906" lon="2.69909">
        <ele>284.69</ele>
        <time>2014-02-20T14:23:30Z</time>
      </trkpt>
      <trkpt lat="43.06909" lon="2.6991">
        <ele>286.61</ele>
        <time>2014-02-20T14:23:39Z</time>
      </trkpt>
      <trkpt lat="43.06911" lon="2.69919">
        <ele>287.57</ele>
        <time>2014-02-20T14:23:48Z</time>
      </trkpt>
      <trkpt lat="43.06914" lon="2.69931">
        <ele>288.53</ele>
        <time>2014-02-20T14:24:01Z</time>
      </trkpt>
      <trkpt lat="43.06913" lon="2.69936">
        <ele>289.01</ele>
        <time>2014-02-20T14:24:15Z</time>
      </trkpt>
      <trkpt lat="43.06916" lon="2.69937">
        <ele>288.53</ele>
        <time>2014-02-20T14:24:31Z</time>
      </trkpt>
      <trkpt lat="43.06916" lon="2.69938">
        <ele>288.53</ele>
        <time>2014-02-20T14:24:41Z</time>
      </trkpt>
      <trkpt lat="43.06916" lon="2.69939">
        <ele>288.53</ele>
        <time>2014-02-20T14:25:02Z</time>
      </trkpt>
      <trkpt lat="43.06915" lon="2.69939">
        <ele>288.53</ele>
        <time>2014-02-20T14:25:23Z</time>
      </trkpt>
      <trkpt lat="43.06914" lon="2.69939">
        <ele>288.53</ele>
        <time>2014-02-20T14:25:52Z</time>
      </trkpt>
      <trkpt lat="43.06914" lon="2.6994">
        <ele>288.53</ele>
        <time>2014-02-20T14:26:18Z</time>
      </trkpt>
      <trkpt lat="43.06913" lon="2.6994">
        <ele>288.53</ele>
        <time>2014-02-20T14:26:36Z</time>
      </trkpt>
      <trkpt lat="43.06913" lon="2.6994">
        <ele>288.53</ele>
        <time>2014-02-20T14:26:46Z</time>
      </trkpt>
      <trkpt lat="43.06915" lon="2.6994">
        <ele>288.05</ele>
        <time>2014-02-20T14:27:09Z</time>
      </trkpt>
      <trkpt lat="43.06915" lon="2.6994">
        <ele>287.09</ele>
        <time>2014-02-20T14:27:16Z</time>
      </trkpt>
      <trkpt lat="43.06919" lon="2.69941">
        <ele>285.17</ele>
        <time>2014-02-20T14:27:28Z</time>
      </trkpt>
      <trkpt lat="43.06922" lon="2.69941">
        <ele>282.77</ele>
        <time>2014-02-20T14:27:42Z</time>
      </trkpt>
      <trkpt lat="43.06926" lon="2.69942">
        <ele>281.32</ele>
        <time>2014-02-20T14:27:53Z</time>
      </trkpt>
      <trkpt lat="43.06928" lon="2.69942">
        <ele>278.44</ele>
        <time>2014-02-20T14:28:06Z</time>
      </trkpt>
      <trkpt lat="43.0693" lon="2.69942">
        <ele>275.56</ele>
        <time>2014-02-20T14:28:20Z</time>
      </trkpt>
      <trkpt lat="43.06932" lon="2.69942">
        <ele>273.63</ele>
        <time>2014-02-20T14:28:28Z</time>
      </trkpt>
      <trkpt lat="43.06935" lon="2.69943">
        <ele>270.27</ele>
        <time>2014-02-20T14:28:40Z</time>
      </trkpt>
      <trkpt lat="43.06937" lon="2.69943">
        <ele>268.35</ele>
        <time>2014-02-20T14:28:51Z</time>
      </trkpt>
      <trkpt lat="43.06942" lon="2.69945">
        <ele>265.46</ele>
        <time>2014-02-20T14:29:04Z</time>
      </trkpt>
      <trkpt lat="43.06945" lon="2.69945">
        <ele>262.58</ele>
        <time>2014-02-20T14:29:17Z</time>
      </trkpt>
      <trkpt lat="43.06947" lon="2.69945">
        <ele>259.69</ele>
        <time>2014-02-20T14:29:30Z</time>
      </trkpt>
      <trkpt lat="43.06948" lon="2.69944">
        <ele>257.77</ele>
        <time>2014-02-20T14:29:38Z</time>
      </trkpt>
      <trkpt lat="43.06956" lon="2.69943">
        <ele>255.85</ele>
        <time>2014-02-20T14:29:50Z</time>
      </trkpt>
      <trkpt lat="43.06961" lon="2.69943">
        <ele>253.44</ele>
        <time>2014-02-20T14:30:03Z</time>
      </trkpt>
      <trkpt lat="43.0697" lon="2.69943">
        <ele>251.04</ele>
        <time>2014-02-20T14:30:14Z</time>
      </trkpt>
      <trkpt lat="43.06975" lon="2.69944">
        <ele>248.64</ele>
        <time>2014-02-20T14:30:25Z</time>
      </trkpt>
      <trkpt lat="43.06984" lon="2.69946">
        <ele>246.23</ele>
        <time>2014-02-20T14:30:38Z</time>
      </trkpt>
      <trkpt lat="43.06986" lon="2.69944">
        <ele>243.35</ele>
        <time>2014-02-20T14:30:49Z</time>
      </trkpt>
      <trkpt lat="43.06992" lon="2.69948">
        <ele>240.95</ele>
        <time>2014-02-20T14:31:00Z</time>
      </trkpt>
      <trkpt lat="43.06994" lon="2.69949">
        <ele>239.02</ele>
        <time>2014-02-20T14:31:08Z</time>
      </trkpt>
      <trkpt lat="43.06999" lon="2.69953">
        <ele>238.06</ele>
        <time>2014-02-20T14:31:15Z</time>
      </trkpt>
      <trkpt lat="43.07005" lon="2.69957">
        <ele>236.14</ele>
        <time>2014-02-20T14:31:26Z</time>
      </trkpt>
      <trkpt lat="43.0701" lon="2.69961">
        <ele>232.78</ele>
        <time>2014-02-20T14:31:40Z</time>
      </trkpt>
      <trkpt lat="43.07011" lon="2.69963">
        <ele>232.3</ele>
        <time>2014-02-20T14:31:42Z</time>
      </trkpt>
      <trkpt lat="43.07014" lon="2.69966">
        <ele>232.3</ele>
        <time>2014-02-20T14:31:45Z</time>
      </trkpt>
      <trkpt lat="43.07021" lon="2.69972">
        <ele>230.37</ele>
        <time>2014-02-20T14:31:53Z</time>
      </trkpt>
      <trkpt lat="43.07026" lon="2.69979">
        <ele>227.97</ele>
        <time>2014-02-20T14:32:04Z</time>
      </trkpt>
      <trkpt lat="43.07024" lon="2.69992">
        <ele>227.97</ele>
        <time>2014-02-20T14:32:16Z</time>
      </trkpt>
      <trkpt lat="43.07025" lon="2.70001">
        <ele>227.97</ele>
        <time>2014-02-20T14:32:24Z</time>
      </trkpt>
      <trkpt lat="43.07018" lon="2.70008">
        <ele>228.45</ele>
        <time>2014-02-20T14:32:32Z</time>
      </trkpt>
      <trkpt lat="43.07015" lon="2.70026">
        <ele>227.97</ele>
        <time>2014-02-20T14:32:45Z</time>
      </trkpt>
      <trkpt lat="43.07013" lon="2.7003">
        <ele>228.45</ele>
        <time>2014-02-20T14:32:49Z</time>
      </trkpt>
      <trkpt lat="43.07012" lon="2.70039">
        <ele>227.49</ele>
        <time>2014-02-20T14:32:56Z</time>
      </trkpt>
      <trkpt lat="43.07013" lon="2.70059">
        <ele>226.05</ele>
        <time>2014-02-20T14:33:10Z</time>
      </trkpt>
      <trkpt lat="43.07013" lon="2.70066">
        <ele>226.53</ele>
        <time>2014-02-20T14:33:14Z</time>
      </trkpt>
      <trkpt lat="43.07012" lon="2.70078">
        <ele>226.53</ele>
        <time>2014-02-20T14:33:21Z</time>
      </trkpt>
      <trkpt lat="43.07006" lon="2.70098">
        <ele>226.53</ele>
        <time>2014-02-20T14:33:34Z</time>
      </trkpt>
      <trkpt lat="43.07" lon="2.70118">
        <ele>226.05</ele>
        <time>2014-02-20T14:33:48Z</time>
      </trkpt>
      <trkpt lat="43.06997" lon="2.70137">
        <ele>226.53</ele>
        <time>2014-02-20T14:34:00Z</time>
      </trkpt>
      <trkpt lat="43.06996" lon="2.70141">
        <ele>226.53</ele>
        <time>2014-02-20T14:34:03Z</time>
      </trkpt>
      <trkpt lat="43.06991" lon="2.70156">
        <ele>227.01</ele>
        <time>2014-02-20T14:34:15Z</time>
      </trkpt>
      <trkpt lat="43.06992" lon="2.70163">
        <ele>226.05</ele>
        <time>2014-02-20T14:34:19Z</time>
      </trkpt>
      <trkpt lat="43.06995" lon="2.70184">
        <ele>225.09</ele>
        <time>2014-02-20T14:34:33Z</time>
      </trkpt>
      <trkpt lat="43.06994" lon="2.70185">
        <ele>225.09</ele>
        <time>2014-02-20T14:34:34Z</time>
      </trkpt>
      <trkpt lat="43.06994" lon="2.70191">
        <ele>226.05</ele>
        <time>2014-02-20T14:34:40Z</time>
      </trkpt>
      <trkpt lat="43.06993" lon="2.70193">
        <ele>226.53</ele>
        <time>2014-02-20T14:34:42Z</time>
      </trkpt>
      <trkpt lat="43.0699" lon="2.70206">
        <ele>227.49</ele>
        <time>2014-02-20T14:34:54Z</time>
      </trkpt>
      <trkpt lat="43.06987" lon="2.70219">
        <ele>227.97</ele>
        <time>2014-02-20T14:35:05Z</time>
      </trkpt>
      <trkpt lat="43.06987" lon="2.70221">
        <ele>227.97</ele>
        <time>2014-02-20T14:35:08Z</time>
      </trkpt>
      <trkpt lat="43.06985" lon="2.70229">
        <ele>227.49</ele>
        <time>2014-02-20T14:35:14Z</time>
      </trkpt>
      <trkpt lat="43.06985" lon="2.70248">
        <ele>227.01</ele>
        <time>2014-02-20T14:35:26Z</time>
      </trkpt>
      <trkpt lat="43.06983" lon="2.70266">
        <ele>227.49</ele>
        <time>2014-02-20T14:35:37Z</time>
      </trkpt>
      <trkpt lat="43.06983" lon="2.70267">
        <ele>227.49</ele>
        <time>2014-02-20T14:35:38Z</time>
      </trkpt>
      <trkpt lat="43.06982" lon="2.70276">
        <ele>227.97</ele>
        <time>2014-02-20T14:35:47Z</time>
      </trkpt>
      <trkpt lat="43.06984" lon="2.70281">
        <ele>227.97</ele>
        <time>2014-02-20T14:35:50Z</time>
      </trkpt>
      <trkpt lat="43.06985" lon="2.70288">
        <ele>228.45</ele>
        <time>2014-02-20T14:35:54Z</time>
      </trkpt>
      <trkpt lat="43.06983" lon="2.70296">
        <ele>227.97</ele>
        <time>2014-02-20T14:35:59Z</time>
      </trkpt>
      <trkpt lat="43.06984" lon="2.7031">
        <ele>228.45</ele>
        <time>2014-02-20T14:36:08Z</time>
      </trkpt>
      <trkpt lat="43.0699" lon="2.70334">
        <ele>229.89</ele>
        <time>2014-02-20T14:36:21Z</time>
      </trkpt>
      <trkpt lat="43.07001" lon="2.70361">
        <ele>230.85</ele>
        <time>2014-02-20T14:36:35Z</time>
      </trkpt>
      <trkpt lat="43.07008" lon="2.70382">
        <ele>231.33</ele>
        <time>2014-02-20T14:36:48Z</time>
      </trkpt>
      <trkpt lat="43.0701" lon="2.70386">
        <ele>231.33</ele>
        <time>2014-02-20T14:36:51Z</time>
      </trkpt>
      <trkpt lat="43.07011" lon="2.70391">
        <ele>231.33</ele>
        <time>2014-02-20T14:36:54Z</time>
      </trkpt>
      <trkpt lat="43.07016" lon="2.70415">
        <ele>229.41</ele>
        <time>2014-02-20T14:37:07Z</time>
      </trkpt>
      <trkpt lat="43.07019" lon="2.70434">
        <ele>228.45</ele>
        <time>2014-02-20T14:37:18Z</time>
      </trkpt>
      <trkpt lat="43.07015" lon="2.70444">
        <ele>227.01</ele>
        <time>2014-02-20T14:37:25Z</time>
      </trkpt>
      <trkpt lat="43.07019" lon="2.70464">
        <ele>227.49</ele>
        <time>2014-02-20T14:37:37Z</time>
      </trkpt>
      <trkpt lat="43.07024" lon="2.70485">
        <ele>230.37</ele>
        <time>2014-02-20T14:37:50Z</time>
      </trkpt>
      <trkpt lat="43.07026" lon="2.70503">
        <ele>231.33</ele>
        <time>2014-02-20T14:38:02Z</time>
      </trkpt>
      <trkpt lat="43.07027" lon="2.7051">
        <ele>230.37</ele>
        <time>2014-02-20T14:38:11Z</time>
      </trkpt>
      <trkpt lat="43.07028" lon="2.70522">
        <ele>229.89</ele>
        <time>2014-02-20T14:38:18Z</time>
      </trkpt>
      <trkpt lat="43.07029" lon="2.70527">
        <ele>229.89</ele>
        <time>2014-02-20T14:38:21Z</time>
      </trkpt>
      <trkpt lat="43.07028" lon="2.70532">
        <ele>229.89</ele>
        <time>2014-02-20T14:38:24Z</time>
      </trkpt>
      <trkpt lat="43.07027" lon="2.70538">
        <ele>229.41</ele>
        <time>2014-02-20T14:38:27Z</time>
      </trkpt>
      <trkpt lat="43.07026" lon="2.70548">
        <ele>229.89</ele>
        <time>2014-02-20T14:38:33Z</time>
      </trkpt>
      <trkpt lat="43.07027" lon="2.70557">
        <ele>229.89</ele>
        <time>2014-02-20T14:38:37Z</time>
      </trkpt>
      <trkpt lat="43.07026" lon="2.70566">
        <ele>229.89</ele>
        <time>2014-02-20T14:38:42Z</time>
      </trkpt>
      <trkpt lat="43.07027" lon="2.70587">
        <ele>228.93</ele>
        <time>2014-02-20T14:38:55Z</time>
      </trkpt>
      <trkpt lat="43.07028" lon="2.70598">
        <ele>227.01</ele>
        <time>2014-02-20T14:39:07Z</time>
      </trkpt>
      <trkpt lat="43.07028" lon="2.70603">
        <ele>226.53</ele>
        <time>2014-02-20T14:39:11Z</time>
      </trkpt>
      <trkpt lat="43.07032" lon="2.70617">
        <ele>224.61</ele>
        <time>2014-02-20T14:39:19Z</time>
      </trkpt>
      <trkpt lat="43.07031" lon="2.70623">
        <ele>223.64</ele>
        <time>2014-02-20T14:39:22Z</time>
      </trkpt>
      <trkpt lat="43.07034" lon="2.70632">
        <ele>223.16</ele>
        <time>2014-02-20T14:39:26Z</time>
      </trkpt>
      <trkpt lat="43.07033" lon="2.70654">
        <ele>222.2</ele>
        <time>2014-02-20T14:39:37Z</time>
      </trkpt>
      <trkpt lat="43.07032" lon="2.70666">
        <ele>221.24</ele>
        <time>2014-02-20T14:39:43Z</time>
      </trkpt>
      <trkpt lat="43.07032" lon="2.70675">
        <ele>222.2</ele>
        <time>2014-02-20T14:39:48Z</time>
      </trkpt>
      <trkpt lat="43.07032" lon="2.7068">
        <ele>221.24</ele>
        <time>2014-02-20T14:39:51Z</time>
      </trkpt>
      <trkpt lat="43.07032" lon="2.70684">
        <ele>220.76</ele>
        <time>2014-02-20T14:39:53Z</time>
      </trkpt>
      <trkpt lat="43.07031" lon="2.70694">
        <ele>220.28</ele>
        <time>2014-02-20T14:39:59Z</time>
      </trkpt>
      <trkpt lat="43.07029" lon="2.707">
        <ele>219.32</ele>
        <time>2014-02-20T14:40:04Z</time>
      </trkpt>
      <trkpt lat="43.07026" lon="2.70714">
        <ele>217.88</ele>
        <time>2014-02-20T14:40:15Z</time>
      </trkpt>
      <trkpt lat="43.07025" lon="2.70722">
        <ele>215.95</ele>
        <time>2014-02-20T14:40:21Z</time>
      </trkpt>
      <trkpt lat="43.0703" lon="2.70736">
        <ele>215.95</ele>
        <time>2014-02-20T14:40:29Z</time>
      </trkpt>
      <trkpt lat="43.07041" lon="2.70748">
        <ele>215.95</ele>
        <time>2014-02-20T14:40:39Z</time>
      </trkpt>
      <trkpt lat="43.07057" lon="2.70763">
        <ele>215.47</ele>
        <time>2014-02-20T14:40:54Z</time>
      </trkpt>
      <trkpt lat="43.0706" lon="2.70766">
        <ele>216.43</ele>
        <time>2014-02-20T14:40:56Z</time>
      </trkpt>
      <trkpt lat="43.07082" lon="2.70775">
        <ele>215.47</ele>
        <time>2014-02-20T14:41:11Z</time>
      </trkpt>
      <trkpt lat="43.07087" lon="2.70773">
        <ele>215.47</ele>
        <time>2014-02-20T14:41:15Z</time>
      </trkpt>
      <trkpt lat="43.0709" lon="2.70773">
        <ele>215.95</ele>
        <time>2014-02-20T14:41:18Z</time>
      </trkpt>
      <trkpt lat="43.07102" lon="2.70775">
        <ele>214.51</ele>
        <time>2014-02-20T14:41:27Z</time>
      </trkpt>
      <trkpt lat="43.07113" lon="2.70776">
        <ele>214.51</ele>
        <time>2014-02-20T14:41:36Z</time>
      </trkpt>
      <trkpt lat="43.07116" lon="2.70778">
        <ele>214.03</ele>
        <time>2014-02-20T14:41:38Z</time>
      </trkpt>
      <trkpt lat="43.0713" lon="2.70779">
        <ele>214.51</ele>
        <time>2014-02-20T14:41:51Z</time>
      </trkpt>
      <trkpt lat="43.07134" lon="2.70779">
        <ele>214.03</ele>
        <time>2014-02-20T14:41:56Z</time>
      </trkpt>
      <trkpt lat="43.07149" lon="2.70775">
        <ele>213.07</ele>
        <time>2014-02-20T14:42:10Z</time>
      </trkpt>
      <trkpt lat="43.07162" lon="2.70777">
        <ele>213.07</ele>
        <time>2014-02-20T14:42:18Z</time>
      </trkpt>
      <trkpt lat="43.07167" lon="2.70775">
        <ele>213.07</ele>
        <time>2014-02-20T14:42:22Z</time>
      </trkpt>
      <trkpt lat="43.07179" lon="2.70771">
        <ele>211.63</ele>
        <time>2014-02-20T14:42:35Z</time>
      </trkpt>
      <trkpt lat="43.07195" lon="2.70761">
        <ele>211.63</ele>
        <time>2014-02-20T14:42:51Z</time>
      </trkpt>
      <trkpt lat="43.07202" lon="2.70759">
        <ele>211.15</ele>
        <time>2014-02-20T14:42:56Z</time>
      </trkpt>
      <trkpt lat="43.07209" lon="2.70755">
        <ele>211.15</ele>
        <time>2014-02-20T14:43:03Z</time>
      </trkpt>
      <trkpt lat="43.07214" lon="2.70755">
        <ele>211.15</ele>
        <time>2014-02-20T14:43:06Z</time>
      </trkpt>
      <trkpt lat="43.07221" lon="2.70755">
        <ele>211.15</ele>
        <time>2014-02-20T14:43:13Z</time>
      </trkpt>
      <trkpt lat="43.07227" lon="2.70753">
        <ele>211.15</ele>
        <time>2014-02-20T14:43:17Z</time>
      </trkpt>
      <trkpt lat="43.07242" lon="2.70753">
        <ele>210.67</ele>
        <time>2014-02-20T14:43:29Z</time>
      </trkpt>
      <trkpt lat="43.07255" lon="2.70751">
        <ele>209.7</ele>
        <time>2014-02-20T14:43:38Z</time>
      </trkpt>
      <trkpt lat="43.07274" lon="2.70751">
        <ele>210.67</ele>
        <time>2014-02-20T14:43:49Z</time>
      </trkpt>
      <trkpt lat="43.07281" lon="2.70747">
        <ele>211.15</ele>
        <time>2014-02-20T14:43:54Z</time>
      </trkpt>
      <trkpt lat="43.07293" lon="2.70736">
        <ele>211.15</ele>
        <time>2014-02-20T14:44:04Z</time>
      </trkpt>
      <trkpt lat="43.07305" lon="2.70721">
        <ele>211.63</ele>
        <time>2014-02-20T14:44:17Z</time>
      </trkpt>
      <trkpt lat="43.07318" lon="2.70705">
        <ele>211.63</ele>
        <time>2014-02-20T14:44:30Z</time>
      </trkpt>
      <trkpt lat="43.07324" lon="2.70698">
        <ele>212.59</ele>
        <time>2014-02-20T14:44:37Z</time>
      </trkpt>
      <trkpt lat="43.07331" lon="2.70693">
        <ele>212.11</ele>
        <time>2014-02-20T14:44:43Z</time>
      </trkpt>
      <trkpt lat="43.07339" lon="2.70687">
        <ele>211.63</ele>
        <time>2014-02-20T14:44:50Z</time>
      </trkpt>
      <trkpt lat="43.07345" lon="2.70684">
        <ele>211.15</ele>
        <time>2014-02-20T14:44:56Z</time>
      </trkpt>
      <trkpt lat="43.07352" lon="2.70685">
        <ele>210.67</ele>
        <time>2014-02-20T14:45:02Z</time>
      </trkpt>
      <trkpt lat="43.07366" lon="2.7068">
        <ele>209.22</ele>
        <time>2014-02-20T14:45:14Z</time>
      </trkpt>
      <trkpt lat="43.07379" lon="2.70677">
        <ele>208.74</ele>
        <time>2014-02-20T14:45:26Z</time>
      </trkpt>
      <trkpt lat="43.07381" lon="2.70677">
        <ele>208.26</ele>
        <time>2014-02-20T14:45:27Z</time>
      </trkpt>
      <trkpt lat="43.07386" lon="2.70678">
        <ele>207.3</ele>
        <time>2014-02-20T14:45:30Z</time>
      </trkpt>
      <trkpt lat="43.07396" lon="2.70674">
        <ele>206.34</ele>
        <time>2014-02-20T14:45:39Z</time>
      </trkpt>
      <trkpt lat="43.07402" lon="2.70677">
        <ele>205.86</ele>
        <time>2014-02-20T14:45:45Z</time>
      </trkpt>
      <trkpt lat="43.07407" lon="2.70676">
        <ele>205.38</ele>
        <time>2014-02-20T14:45:49Z</time>
      </trkpt>
      <trkpt lat="43.07425" lon="2.70675">
        <ele>202.49</ele>
        <time>2014-02-20T14:46:04Z</time>
      </trkpt>
      <trkpt lat="43.0744" lon="2.70671">
        <ele>200.09</ele>
        <time>2014-02-20T14:46:21Z</time>
      </trkpt>
      <trkpt lat="43.07454" lon="2.70673">
        <ele>199.13</ele>
        <time>2014-02-20T14:46:34Z</time>
      </trkpt>
      <trkpt lat="43.07456" lon="2.70673">
        <ele>198.65</ele>
        <time>2014-02-20T14:46:36Z</time>
      </trkpt>
      <trkpt lat="43.07471" lon="2.70671">
        <ele>196.73</ele>
        <time>2014-02-20T14:46:46Z</time>
      </trkpt>
      <trkpt lat="43.0748" lon="2.70668">
        <ele>195.77</ele>
        <time>2014-02-20T14:46:54Z</time>
      </trkpt>
      <trkpt lat="43.07498" lon="2.70661">
        <ele>195.77</ele>
        <time>2014-02-20T14:47:07Z</time>
      </trkpt>
      <trkpt lat="43.07512" lon="2.70652">
        <ele>195.28</ele>
        <time>2014-02-20T14:47:20Z</time>
      </trkpt>
      <trkpt lat="43.07516" lon="2.70649">
        <ele>195.77</ele>
        <time>2014-02-20T14:47:24Z</time>
      </trkpt>
      <trkpt lat="43.07528" lon="2.70637">
        <ele>195.77</ele>
        <time>2014-02-20T14:47:37Z</time>
      </trkpt>
      <trkpt lat="43.0754" lon="2.70624">
        <ele>195.77</ele>
        <time>2014-02-20T14:47:49Z</time>
      </trkpt>
      <trkpt lat="43.07551" lon="2.70613">
        <ele>196.73</ele>
        <time>2014-02-20T14:48:01Z</time>
      </trkpt>
      <trkpt lat="43.07564" lon="2.70602">
        <ele>196.25</ele>
        <time>2014-02-20T14:48:15Z</time>
      </trkpt>
      <trkpt lat="43.07575" lon="2.70594">
        <ele>195.28</ele>
        <time>2014-02-20T14:48:25Z</time>
      </trkpt>
      <trkpt lat="43.07588" lon="2.70585">
        <ele>193.84</ele>
        <time>2014-02-20T14:48:38Z</time>
      </trkpt>
      <trkpt lat="43.076" lon="2.70575">
        <ele>192.4</ele>
        <time>2014-02-20T14:48:50Z</time>
      </trkpt>
      <trkpt lat="43.07613" lon="2.70565">
        <ele>191.92</ele>
        <time>2014-02-20T14:49:03Z</time>
      </trkpt>
      <trkpt lat="43.07626" lon="2.70553">
        <ele>190.96</ele>
        <time>2014-02-20T14:49:16Z</time>
      </trkpt>
      <trkpt lat="43.07636" lon="2.70546">
        <ele>190</ele>
        <time>2014-02-20T14:49:26Z</time>
      </trkpt>
      <trkpt lat="43.07648" lon="2.70534">
        <ele>187.59</ele>
        <time>2014-02-20T14:49:38Z</time>
      </trkpt>
      <trkpt lat="43.0766" lon="2.70522">
        <ele>185.67</ele>
        <time>2014-02-20T14:49:51Z</time>
      </trkpt>
      <trkpt lat="43.07672" lon="2.70511">
        <ele>183.75</ele>
        <time>2014-02-20T14:50:03Z</time>
      </trkpt>
      <trkpt lat="43.07685" lon="2.70496">
        <ele>182.79</ele>
        <time>2014-02-20T14:50:16Z</time>
      </trkpt>
      <trkpt lat="43.07693" lon="2.70481">
        <ele>182.31</ele>
        <time>2014-02-20T14:50:27Z</time>
      </trkpt>
      <trkpt lat="43.07699" lon="2.70465">
        <ele>179.42</ele>
        <time>2014-02-20T14:50:39Z</time>
      </trkpt>
      <trkpt lat="43.07699" lon="2.70462">
        <ele>179.42</ele>
        <time>2014-02-20T14:50:52Z</time>
      </trkpt>
      <trkpt lat="43.077" lon="2.70459">
        <ele>179.42</ele>
        <time>2014-02-20T14:51:06Z</time>
      </trkpt>
      <trkpt lat="43.07705" lon="2.70454">
        <ele>179.42</ele>
        <time>2014-02-20T14:51:20Z</time>
      </trkpt>
      <trkpt lat="43.07714" lon="2.70444">
        <ele>177.98</ele>
        <time>2014-02-20T14:51:30Z</time>
      </trkpt>
      <trkpt lat="43.07717" lon="2.70438">
        <ele>177.5</ele>
        <time>2014-02-20T14:51:34Z</time>
      </trkpt>
      <trkpt lat="43.07728" lon="2.70427">
        <ele>176.54</ele>
        <time>2014-02-20T14:51:46Z</time>
      </trkpt>
      <trkpt lat="43.07733" lon="2.70422">
        <ele>176.06</ele>
        <time>2014-02-20T14:51:51Z</time>
      </trkpt>
      <trkpt lat="43.07736" lon="2.70419">
        <ele>175.58</ele>
        <time>2014-02-20T14:52:05Z</time>
      </trkpt>
      <trkpt lat="43.07736" lon="2.70418">
        <ele>175.58</ele>
        <time>2014-02-20T14:52:06Z</time>
      </trkpt>
      <trkpt lat="43.07742" lon="2.70412">
        <ele>175.1</ele>
        <time>2014-02-20T14:52:12Z</time>
      </trkpt>
      <trkpt lat="43.07755" lon="2.70398">
        <ele>174.62</ele>
        <time>2014-02-20T14:52:24Z</time>
      </trkpt>
      <trkpt lat="43.0777" lon="2.70382">
        <ele>173.17</ele>
        <time>2014-02-20T14:52:39Z</time>
      </trkpt>
      <trkpt lat="43.07776" lon="2.70377">
        <ele>171.73</ele>
        <time>2014-02-20T14:52:50Z</time>
      </trkpt>
      <trkpt lat="43.07785" lon="2.70367">
        <ele>168.37</ele>
        <time>2014-02-20T14:53:05Z</time>
      </trkpt>
      <trkpt lat="43.07786" lon="2.70365">
        <ele>168.85</ele>
        <time>2014-02-20T14:53:07Z</time>
      </trkpt>
      <trkpt lat="43.07797" lon="2.70348">
        <ele>165</ele>
        <time>2014-02-20T14:53:20Z</time>
      </trkpt>
      <trkpt lat="43.07802" lon="2.70337">
        <ele>163.56</ele>
        <time>2014-02-20T14:53:27Z</time>
      </trkpt>
      <trkpt lat="43.07805" lon="2.70326">
        <ele>161.64</ele>
        <time>2014-02-20T14:53:34Z</time>
      </trkpt>
      <trkpt lat="43.0781" lon="2.70314">
        <ele>159.72</ele>
        <time>2014-02-20T14:53:44Z</time>
      </trkpt>
      <trkpt lat="43.07812" lon="2.70308">
        <ele>159.24</ele>
        <time>2014-02-20T14:53:48Z</time>
      </trkpt>
      <trkpt lat="43.07814" lon="2.70304">
        <ele>158.27</ele>
        <time>2014-02-20T14:53:52Z</time>
      </trkpt>
      <trkpt lat="43.07816" lon="2.70301">
        <ele>158.27</ele>
        <time>2014-02-20T14:53:55Z</time>
      </trkpt>
      <trkpt lat="43.0782" lon="2.70296">
        <ele>157.79</ele>
        <time>2014-02-20T14:54:00Z</time>
      </trkpt>
      <trkpt lat="43.07828" lon="2.70281">
        <ele>155.39</ele>
        <time>2014-02-20T14:54:12Z</time>
      </trkpt>
      <trkpt lat="43.07839" lon="2.70269">
        <ele>153.47</ele>
        <time>2014-02-20T14:54:26Z</time>
      </trkpt>
      <trkpt lat="43.07847" lon="2.70257">
        <ele>152.99</ele>
        <time>2014-02-20T14:54:37Z</time>
      </trkpt>
      <trkpt lat="43.07848" lon="2.70256">
        <ele>152.99</ele>
        <time>2014-02-20T14:54:38Z</time>
      </trkpt>
      <trkpt lat="43.07853" lon="2.70249">
        <ele>152.03</ele>
        <time>2014-02-20T14:54:44Z</time>
      </trkpt>
      <trkpt lat="43.07855" lon="2.70245">
        <ele>151.54</ele>
        <time>2014-02-20T14:54:47Z</time>
      </trkpt>
      <trkpt lat="43.07867" lon="2.70225">
        <ele>151.54</ele>
        <time>2014-02-20T14:55:02Z</time>
      </trkpt>
      <trkpt lat="43.07871" lon="2.70221">
        <ele>151.06</ele>
        <time>2014-02-20T14:55:06Z</time>
      </trkpt>
      <trkpt lat="43.07881" lon="2.70203">
        <ele>149.14</ele>
        <time>2014-02-20T14:55:21Z</time>
      </trkpt>
      <trkpt lat="43.07892" lon="2.7019">
        <ele>147.7</ele>
        <time>2014-02-20T14:55:33Z</time>
      </trkpt>
      <trkpt lat="43.07896" lon="2.70185">
        <ele>147.22</ele>
        <time>2014-02-20T14:55:38Z</time>
      </trkpt>
      <trkpt lat="43.07904" lon="2.70183">
        <ele>146.26</ele>
        <time>2014-02-20T14:55:45Z</time>
      </trkpt>
      <trkpt lat="43.07906" lon="2.70182">
        <ele>145.78</ele>
        <time>2014-02-20T14:55:48Z</time>
      </trkpt>
      <trkpt lat="43.07921" lon="2.70173">
        <ele>144.34</ele>
        <time>2014-02-20T14:56:02Z</time>
      </trkpt>
      <trkpt lat="43.07934" lon="2.70164">
        <ele>143.85</ele>
        <time>2014-02-20T14:56:15Z</time>
      </trkpt>
      <trkpt lat="43.07948" lon="2.70152">
        <ele>142.41</ele>
        <time>2014-02-20T14:56:28Z</time>
      </trkpt>
      <trkpt lat="43.07961" lon="2.70137">
        <ele>141.93</ele>
        <time>2014-02-20T14:56:43Z</time>
      </trkpt>
      <trkpt lat="43.07976" lon="2.70124">
        <ele>140.01</ele>
        <time>2014-02-20T14:56:59Z</time>
      </trkpt>
      <trkpt lat="43.07991" lon="2.70115">
        <ele>139.05</ele>
        <time>2014-02-20T14:57:14Z</time>
      </trkpt>
      <trkpt lat="43.08004" lon="2.70111">
        <ele>137.13</ele>
        <time>2014-02-20T14:57:27Z</time>
      </trkpt>
      <trkpt lat="43.08013" lon="2.70107">
        <ele>136.16</ele>
        <time>2014-02-20T14:57:35Z</time>
      </trkpt>
      <trkpt lat="43.08026" lon="2.70103">
        <ele>134.72</ele>
        <time>2014-02-20T14:57:48Z</time>
      </trkpt>
      <trkpt lat="43.0804" lon="2.70101">
        <ele>132.32</ele>
        <time>2014-02-20T14:58:01Z</time>
      </trkpt>
      <trkpt lat="43.08048" lon="2.70101">
        <ele>132.8</ele>
        <time>2014-02-20T14:58:11Z</time>
      </trkpt>
      <trkpt lat="43.08062" lon="2.70104">
        <ele>131.36</ele>
        <time>2014-02-20T14:58:23Z</time>
      </trkpt>
      <trkpt lat="43.0808" lon="2.70108">
        <ele>129.92</ele>
        <time>2014-02-20T14:58:38Z</time>
      </trkpt>
      <trkpt lat="43.08085" lon="2.70109">
        <ele>128.95</ele>
        <time>2014-02-20T14:58:42Z</time>
      </trkpt>
      <trkpt lat="43.08098" lon="2.70113">
        <ele>128.47</ele>
        <time>2014-02-20T14:58:54Z</time>
      </trkpt>
      <trkpt lat="43.08109" lon="2.70116">
        <ele>127.99</ele>
        <time>2014-02-20T14:59:03Z</time>
      </trkpt>
      <trkpt lat="43.0812" lon="2.7012">
        <ele>127.51</ele>
        <time>2014-02-20T14:59:16Z</time>
      </trkpt>
      <trkpt lat="43.08126" lon="2.70123">
        <ele>127.03</ele>
        <time>2014-02-20T14:59:24Z</time>
      </trkpt>
      <trkpt lat="43.08135" lon="2.70126">
        <ele>126.55</ele>
        <time>2014-02-20T14:59:32Z</time>
      </trkpt>
      <trkpt lat="43.08149" lon="2.70127">
        <ele>125.59</ele>
        <time>2014-02-20T14:59:42Z</time>
      </trkpt>
      <trkpt lat="43.08159" lon="2.70131">
        <ele>125.11</ele>
        <time>2014-02-20T14:59:50Z</time>
      </trkpt>
      <trkpt lat="43.08175" lon="2.70134">
        <ele>124.63</ele>
        <time>2014-02-20T15:00:04Z</time>
      </trkpt>
      <trkpt lat="43.08189" lon="2.70137">
        <ele>123.67</ele>
        <time>2014-02-20T15:00:16Z</time>
      </trkpt>
      <trkpt lat="43.08203" lon="2.70122">
        <ele>122.71</ele>
        <time>2014-02-20T15:00:30Z</time>
      </trkpt>
      <trkpt lat="43.08205" lon="2.70116">
        <ele>122.22</ele>
        <time>2014-02-20T15:00:34Z</time>
      </trkpt>
      <trkpt lat="43.08209" lon="2.70111">
        <ele>122.22</ele>
        <time>2014-02-20T15:00:39Z</time>
      </trkpt>
      <trkpt lat="43.08216" lon="2.701">
        <ele>121.74</ele>
        <time>2014-02-20T15:00:48Z</time>
      </trkpt>
      <trkpt lat="43.0823" lon="2.70082">
        <ele>120.3</ele>
        <time>2014-02-20T15:01:03Z</time>
      </trkpt>
      <trkpt lat="43.08243" lon="2.70072">
        <ele>119.34</ele>
        <time>2014-02-20T15:01:17Z</time>
      </trkpt>
      <trkpt lat="43.08255" lon="2.70057">
        <ele>118.38</ele>
        <time>2014-02-20T15:01:30Z</time>
      </trkpt>
      <trkpt lat="43.08265" lon="2.70038">
        <ele>116.94</ele>
        <time>2014-02-20T15:01:43Z</time>
      </trkpt>
      <trkpt lat="43.08274" lon="2.70017">
        <ele>115.5</ele>
        <time>2014-02-20T15:01:57Z</time>
      </trkpt>
      <trkpt lat="43.08287" lon="2.70008">
        <ele>115.01</ele>
        <time>2014-02-20T15:02:11Z</time>
      </trkpt>
      <trkpt lat="43.083" lon="2.69999">
        <ele>113.57</ele>
        <time>2014-02-20T15:02:24Z</time>
      </trkpt>
      <trkpt lat="43.0831" lon="2.69996">
        <ele>113.09</ele>
        <time>2014-02-20T15:02:34Z</time>
      </trkpt>
      <trkpt lat="43.08314" lon="2.70002">
        <ele>112.13</ele>
        <time>2014-02-20T15:02:49Z</time>
      </trkpt>
      <trkpt lat="43.08314" lon="2.70007">
        <ele>111.65</ele>
        <time>2014-02-20T15:02:54Z</time>
      </trkpt>
      <trkpt lat="43.08313" lon="2.70014">
        <ele>111.65</ele>
        <time>2014-02-20T15:03:00Z</time>
      </trkpt>
      <trkpt lat="43.08315" lon="2.70027">
        <ele>110.69</ele>
        <time>2014-02-20T15:03:07Z</time>
      </trkpt>
      <trkpt lat="43.08319" lon="2.70036">
        <ele>110.69</ele>
        <time>2014-02-20T15:03:11Z</time>
      </trkpt>
      <trkpt lat="43.08332" lon="2.7004">
        <ele>110.69</ele>
        <time>2014-02-20T15:03:20Z</time>
      </trkpt>
      <trkpt lat="43.08335" lon="2.70036">
        <ele>110.69</ele>
        <time>2014-02-20T15:03:23Z</time>
      </trkpt>
      <trkpt lat="43.08341" lon="2.70035">
        <ele>111.17</ele>
        <time>2014-02-20T15:03:32Z</time>
      </trkpt>
      <trkpt lat="43.08344" lon="2.70031">
        <ele>111.65</ele>
        <time>2014-02-20T15:03:36Z</time>
      </trkpt>
      <trkpt lat="43.08364" lon="2.70006">
        <ele>112.13</ele>
        <time>2014-02-20T15:03:56Z</time>
      </trkpt>
      <trkpt lat="43.08382" lon="2.69996">
        <ele>112.13</ele>
        <time>2014-02-20T15:04:12Z</time>
      </trkpt>
      <trkpt lat="43.08394" lon="2.69985">
        <ele>111.65</ele>
        <time>2014-02-20T15:04:25Z</time>
      </trkpt>
      <trkpt lat="43.08404" lon="2.6998">
        <ele>112.13</ele>
        <time>2014-02-20T15:04:35Z</time>
      </trkpt>
      <trkpt lat="43.08407" lon="2.69976">
        <ele>111.65</ele>
        <time>2014-02-20T15:04:39Z</time>
      </trkpt>
      <trkpt lat="43.08418" lon="2.69957">
        <ele>111.65</ele>
        <time>2014-02-20T15:04:58Z</time>
      </trkpt>
      <trkpt lat="43.0842" lon="2.69953">
        <ele>111.17</ele>
        <time>2014-02-20T15:05:12Z</time>
      </trkpt>
      <trkpt lat="43.08431" lon="2.69944">
        <ele>111.17</ele>
        <time>2014-02-20T15:05:24Z</time>
      </trkpt>
      <trkpt lat="43.08435" lon="2.69934">
        <ele>110.69</ele>
        <time>2014-02-20T15:05:32Z</time>
      </trkpt>
      <trkpt lat="43.08451" lon="2.69928">
        <ele>111.17</ele>
        <time>2014-02-20T15:05:42Z</time>
      </trkpt>
      <trkpt lat="43.08452" lon="2.69934">
        <ele>111.17</ele>
        <time>2014-02-20T15:05:45Z</time>
      </trkpt>
      <trkpt lat="43.08454" lon="2.69958">
        <ele>111.17</ele>
        <time>2014-02-20T15:06:02Z</time>
      </trkpt>
      <trkpt lat="43.08461" lon="2.69971">
        <ele>111.17</ele>
        <time>2014-02-20T15:06:20Z</time>
      </trkpt>
      <trkpt lat="43.08468" lon="2.69977">
        <ele>107.81</ele>
        <time>2014-02-20T15:06:32Z</time>
      </trkpt>
      <trkpt lat="43.08469" lon="2.69976">
        <ele>112.61</ele>
        <time>2014-02-20T15:06:33Z</time>
      </trkpt>
      <trkpt lat="43.08469" lon="2.69974">
        <ele>110.21</ele>
        <time>2014-02-20T15:06:34Z</time>
      </trkpt>
      <trkpt lat="43.0847" lon="2.69972">
        <ele>112.61</ele>
        <time>2014-02-20T15:06:35Z</time>
      </trkpt>
      <trkpt lat="43.0847" lon="2.6997">
        <ele>109.25</ele>
        <time>2014-02-20T15:06:36Z</time>
      </trkpt>
      <trkpt lat="43.08471" lon="2.69969">
        <ele>109.25</ele>
        <time>2014-02-20T15:06:37Z</time>
      </trkpt>
      <trkpt lat="43.08472" lon="2.69963">
        <ele>110.69</ele>
        <time>2014-02-20T15:06:41Z</time>
      </trkpt>
      <trkpt lat="43.08467" lon="2.69957">
        <ele>114.05</ele>
        <time>2014-02-20T15:06:45Z</time>
      </trkpt>
      <trkpt lat="43.08466" lon="2.69957">
        <ele>110.21</ele>
        <time>2014-02-20T15:06:47Z</time>
      </trkpt>
    </trkseg>
  </trk>
</gpx>